<?xml version="1.0" encoding="UTF-8" standalone="no" ?>
<gpx xmlns="http://www.topografix.com/GPX/1/1" xmlns:xsi="http://www.w3.org/2001/XMLSchema-instance" xsi:schemaLocation="http://www.topografix.com/GPX/1/1 http://www.topografix.com/GPX/1/1/gpx.xsd" version="1.1" creator="VisuGPX - https://www.visugpx.com">
  <metadata>
    <name>VTT, 45.49 km le 23_08_2021 bgs La chapelle Trouy Plaimpied</name>
  </metadata>
  <trk>
    <name><![CDATA[VTT, 45.49 km le 23_08_2021 bgs le chapelle trouy plaimpied on AllTrails]]></name>
    <trkseg>
      <trkpt lat="47.06739" lon="2.4071">
        <ele>149</ele>
        <time>2021-08-23T16:22:43Z</time>
      </trkpt>
      <trkpt lat="47.06739" lon="2.40712">
        <ele>149</ele>
        <time>2021-08-23T16:22:43Z</time>
      </trkpt>
      <trkpt lat="47.06739" lon="2.40713">
        <ele>149</ele>
        <time>2021-08-23T16:22:43Z</time>
      </trkpt>
      <trkpt lat="47.06739" lon="2.40713">
        <ele>149</ele>
        <time>2021-08-23T16:22:43Z</time>
      </trkpt>
      <trkpt lat="47.06739" lon="2.40713">
        <ele>149</ele>
        <time>2021-08-23T16:22:43Z</time>
      </trkpt>
      <trkpt lat="47.06739" lon="2.40712">
        <ele>149</ele>
        <time>2021-08-23T16:22:43Z</time>
      </trkpt>
      <trkpt lat="47.06739" lon="2.40712">
        <ele>149</ele>
        <time>2021-08-23T16:22:43Z</time>
      </trkpt>
      <trkpt lat="47.06739" lon="2.40713">
        <ele>149</ele>
        <time>2021-08-23T16:22:43Z</time>
      </trkpt>
      <trkpt lat="47.06739" lon="2.40713">
        <ele>149</ele>
        <time>2021-08-23T16:22:43Z</time>
      </trkpt>
      <trkpt lat="47.06739" lon="2.40713">
        <ele>149</ele>
        <time>2021-08-23T16:22:43Z</time>
      </trkpt>
      <trkpt lat="47.06739" lon="2.40714">
        <ele>149</ele>
        <time>2021-08-23T16:22:43Z</time>
      </trkpt>
      <trkpt lat="47.06739" lon="2.40715">
        <ele>149</ele>
        <time>2021-08-23T16:22:43Z</time>
      </trkpt>
      <trkpt lat="47.06738" lon="2.40715">
        <ele>149</ele>
        <time>2021-08-23T16:22:43Z</time>
      </trkpt>
      <trkpt lat="47.06732" lon="2.40706">
        <ele>149</ele>
        <time>2021-08-23T16:22:43Z</time>
      </trkpt>
      <trkpt lat="47.06732" lon="2.40694">
        <ele>149</ele>
        <time>2021-08-23T16:22:43Z</time>
      </trkpt>
      <trkpt lat="47.06731" lon="2.40691">
        <ele>149</ele>
        <time>2021-08-23T16:22:43Z</time>
      </trkpt>
      <trkpt lat="47.06731" lon="2.40691">
        <ele>149</ele>
        <time>2021-08-23T16:22:43Z</time>
      </trkpt>
      <trkpt lat="47.06731" lon="2.4069">
        <ele>149</ele>
        <time>2021-08-23T16:22:43Z</time>
      </trkpt>
      <trkpt lat="47.06731" lon="2.4069">
        <ele>149</ele>
        <time>2021-08-23T16:22:43Z</time>
      </trkpt>
      <trkpt lat="47.06731" lon="2.4069">
        <ele>149</ele>
        <time>2021-08-23T16:22:43Z</time>
      </trkpt>
      <trkpt lat="47.0673" lon="2.40689">
        <ele>149</ele>
        <time>2021-08-23T16:22:43Z</time>
      </trkpt>
      <trkpt lat="47.06731" lon="2.40687">
        <ele>149</ele>
        <time>2021-08-23T16:22:43Z</time>
      </trkpt>
      <trkpt lat="47.06732" lon="2.40685">
        <ele>149</ele>
        <time>2021-08-23T16:22:43Z</time>
      </trkpt>
      <trkpt lat="47.06733" lon="2.40683">
        <ele>149</ele>
        <time>2021-08-23T16:22:43Z</time>
      </trkpt>
      <trkpt lat="47.06753" lon="2.40677">
        <ele>149</ele>
        <time>2021-08-23T16:22:43Z</time>
      </trkpt>
      <trkpt lat="47.06777" lon="2.40662">
        <ele>149</ele>
        <time>2021-08-23T16:22:43Z</time>
      </trkpt>
      <trkpt lat="47.06804" lon="2.40648">
        <ele>149</ele>
        <time>2021-08-23T16:22:43Z</time>
      </trkpt>
      <trkpt lat="47.06832" lon="2.40632">
        <ele>146</ele>
        <time>2021-08-23T16:22:43Z</time>
      </trkpt>
      <trkpt lat="47.06859" lon="2.40616">
        <ele>146</ele>
        <time>2021-08-23T16:22:43Z</time>
      </trkpt>
      <trkpt lat="47.06869" lon="2.40599">
        <ele>146</ele>
        <time>2021-08-23T16:22:43Z</time>
      </trkpt>
      <trkpt lat="47.06869" lon="2.40591">
        <ele>146</ele>
        <time>2021-08-23T16:22:43Z</time>
      </trkpt>
      <trkpt lat="47.06863" lon="2.40553">
        <ele>145</ele>
        <time>2021-08-23T16:22:43Z</time>
      </trkpt>
      <trkpt lat="47.06856" lon="2.40509">
        <ele>143</ele>
        <time>2021-08-23T16:22:43Z</time>
      </trkpt>
      <trkpt lat="47.06849" lon="2.40463">
        <ele>142</ele>
        <time>2021-08-23T16:22:43Z</time>
      </trkpt>
      <trkpt lat="47.06842" lon="2.40417">
        <ele>140</ele>
        <time>2021-08-23T16:22:43Z</time>
      </trkpt>
      <trkpt lat="47.06836" lon="2.40371">
        <ele>140</ele>
        <time>2021-08-23T16:22:43Z</time>
      </trkpt>
      <trkpt lat="47.06832" lon="2.40332">
        <ele>141</ele>
        <time>2021-08-23T16:22:43Z</time>
      </trkpt>
      <trkpt lat="47.0683" lon="2.40322">
        <ele>141</ele>
        <time>2021-08-23T16:22:43Z</time>
      </trkpt>
      <trkpt lat="47.06824" lon="2.40272">
        <ele>137</ele>
        <time>2021-08-23T16:22:43Z</time>
      </trkpt>
      <trkpt lat="47.06848" lon="2.40241">
        <ele>136</ele>
        <time>2021-08-23T16:22:43Z</time>
      </trkpt>
      <trkpt lat="47.06878" lon="2.40221">
        <ele>137</ele>
        <time>2021-08-23T16:22:43Z</time>
      </trkpt>
      <trkpt lat="47.06905" lon="2.40203">
        <ele>138</ele>
        <time>2021-08-23T16:22:43Z</time>
      </trkpt>
      <trkpt lat="47.0693" lon="2.40187">
        <ele>141</ele>
        <time>2021-08-23T16:22:43Z</time>
      </trkpt>
      <trkpt lat="47.06948" lon="2.40175">
        <ele>143</ele>
        <time>2021-08-23T16:22:43Z</time>
      </trkpt>
      <trkpt lat="47.06952" lon="2.40172">
        <ele>143</ele>
        <time>2021-08-23T16:22:43Z</time>
      </trkpt>
      <trkpt lat="47.06976" lon="2.4016">
        <ele>143</ele>
        <time>2021-08-23T16:22:43Z</time>
      </trkpt>
      <trkpt lat="47.06981" lon="2.40157">
        <ele>144</ele>
        <time>2021-08-23T16:22:43Z</time>
      </trkpt>
      <trkpt lat="47.06986" lon="2.40155">
        <ele>144</ele>
        <time>2021-08-23T16:22:43Z</time>
      </trkpt>
      <trkpt lat="47.06991" lon="2.40153">
        <ele>144</ele>
        <time>2021-08-23T16:22:43Z</time>
      </trkpt>
      <trkpt lat="47.06996" lon="2.4015">
        <ele>144</ele>
        <time>2021-08-23T16:22:43Z</time>
      </trkpt>
      <trkpt lat="47.07001" lon="2.40147">
        <ele>145</ele>
        <time>2021-08-23T16:22:43Z</time>
      </trkpt>
      <trkpt lat="47.07006" lon="2.40144">
        <ele>145</ele>
        <time>2021-08-23T16:22:43Z</time>
      </trkpt>
      <trkpt lat="47.07011" lon="2.40142">
        <ele>145</ele>
        <time>2021-08-23T16:22:43Z</time>
      </trkpt>
      <trkpt lat="47.07016" lon="2.40139">
        <ele>145</ele>
        <time>2021-08-23T16:22:43Z</time>
      </trkpt>
      <trkpt lat="47.07041" lon="2.40121">
        <ele>144</ele>
        <time>2021-08-23T16:22:43Z</time>
      </trkpt>
      <trkpt lat="47.07055" lon="2.40111">
        <ele>144</ele>
        <time>2021-08-23T16:22:43Z</time>
      </trkpt>
      <trkpt lat="47.07056" lon="2.40087">
        <ele>142</ele>
        <time>2021-08-23T16:22:43Z</time>
      </trkpt>
      <trkpt lat="47.07047" lon="2.40047">
        <ele>139</ele>
        <time>2021-08-23T16:22:43Z</time>
      </trkpt>
      <trkpt lat="47.07044" lon="2.40002">
        <ele>137</ele>
        <time>2021-08-23T16:22:43Z</time>
      </trkpt>
      <trkpt lat="47.07047" lon="2.39974">
        <ele>135</ele>
        <time>2021-08-23T16:22:43Z</time>
      </trkpt>
      <trkpt lat="47.0705" lon="2.39966">
        <ele>135</ele>
        <time>2021-08-23T16:22:43Z</time>
      </trkpt>
      <trkpt lat="47.07061" lon="2.39923">
        <ele>135</ele>
        <time>2021-08-23T16:22:43Z</time>
      </trkpt>
      <trkpt lat="47.07072" lon="2.39902">
        <ele>135</ele>
        <time>2021-08-23T16:22:43Z</time>
      </trkpt>
      <trkpt lat="47.07093" lon="2.39893">
        <ele>135</ele>
        <time>2021-08-23T16:22:43Z</time>
      </trkpt>
      <trkpt lat="47.07119" lon="2.39887">
        <ele>135</ele>
        <time>2021-08-23T16:22:43Z</time>
      </trkpt>
      <trkpt lat="47.07147" lon="2.39878">
        <ele>135</ele>
        <time>2021-08-23T16:22:43Z</time>
      </trkpt>
      <trkpt lat="47.07169" lon="2.39872">
        <ele>136</ele>
        <time>2021-08-23T16:22:43Z</time>
      </trkpt>
      <trkpt lat="47.07175" lon="2.3987">
        <ele>136</ele>
        <time>2021-08-23T16:22:43Z</time>
      </trkpt>
      <trkpt lat="47.07187" lon="2.39867">
        <ele>136</ele>
        <time>2021-08-23T16:22:43Z</time>
      </trkpt>
      <trkpt lat="47.07193" lon="2.39866">
        <ele>136</ele>
        <time>2021-08-23T16:22:43Z</time>
      </trkpt>
      <trkpt lat="47.072" lon="2.39865">
        <ele>136</ele>
        <time>2021-08-23T16:22:43Z</time>
      </trkpt>
      <trkpt lat="47.07206" lon="2.39865">
        <ele>136</ele>
        <time>2021-08-23T16:22:43Z</time>
      </trkpt>
      <trkpt lat="47.07211" lon="2.39864">
        <ele>136</ele>
        <time>2021-08-23T16:22:43Z</time>
      </trkpt>
      <trkpt lat="47.07216" lon="2.39863">
        <ele>136</ele>
        <time>2021-08-23T16:22:43Z</time>
      </trkpt>
      <trkpt lat="47.07222" lon="2.39863">
        <ele>136</ele>
        <time>2021-08-23T16:22:43Z</time>
      </trkpt>
      <trkpt lat="47.07227" lon="2.39862">
        <ele>136</ele>
        <time>2021-08-23T16:22:43Z</time>
      </trkpt>
      <trkpt lat="47.07232" lon="2.39861">
        <ele>136</ele>
        <time>2021-08-23T16:22:43Z</time>
      </trkpt>
      <trkpt lat="47.07237" lon="2.3986">
        <ele>135</ele>
        <time>2021-08-23T16:22:43Z</time>
      </trkpt>
      <trkpt lat="47.07242" lon="2.3986">
        <ele>135</ele>
        <time>2021-08-23T16:22:43Z</time>
      </trkpt>
      <trkpt lat="47.07245" lon="2.39859">
        <ele>135</ele>
        <time>2021-08-23T16:22:43Z</time>
      </trkpt>
      <trkpt lat="47.07248" lon="2.39859">
        <ele>135</ele>
        <time>2021-08-23T16:22:43Z</time>
      </trkpt>
      <trkpt lat="47.0725" lon="2.39858">
        <ele>135</ele>
        <time>2021-08-23T16:22:43Z</time>
      </trkpt>
      <trkpt lat="47.07251" lon="2.39859">
        <ele>135</ele>
        <time>2021-08-23T16:22:43Z</time>
      </trkpt>
      <trkpt lat="47.07251" lon="2.39859">
        <ele>135</ele>
        <time>2021-08-23T16:22:43Z</time>
      </trkpt>
      <trkpt lat="47.07251" lon="2.39859">
        <ele>135</ele>
        <time>2021-08-23T16:22:43Z</time>
      </trkpt>
      <trkpt lat="47.07251" lon="2.39859">
        <ele>135</ele>
        <time>2021-08-23T16:22:43Z</time>
      </trkpt>
      <trkpt lat="47.07251" lon="2.39859">
        <ele>135</ele>
        <time>2021-08-23T16:22:43Z</time>
      </trkpt>
      <trkpt lat="47.0725" lon="2.39859">
        <ele>135</ele>
        <time>2021-08-23T16:22:43Z</time>
      </trkpt>
      <trkpt lat="47.0725" lon="2.39859">
        <ele>135</ele>
        <time>2021-08-23T16:22:43Z</time>
      </trkpt>
      <trkpt lat="47.0725" lon="2.39859">
        <ele>135</ele>
        <time>2021-08-23T16:22:43Z</time>
      </trkpt>
      <trkpt lat="47.0725" lon="2.39858">
        <ele>135</ele>
        <time>2021-08-23T16:22:43Z</time>
      </trkpt>
      <trkpt lat="47.0725" lon="2.39858">
        <ele>135</ele>
        <time>2021-08-23T16:22:43Z</time>
      </trkpt>
      <trkpt lat="47.0725" lon="2.39858">
        <ele>135</ele>
        <time>2021-08-23T16:22:43Z</time>
      </trkpt>
      <trkpt lat="47.0725" lon="2.39858">
        <ele>135</ele>
        <time>2021-08-23T16:22:43Z</time>
      </trkpt>
      <trkpt lat="47.0725" lon="2.39858">
        <ele>135</ele>
        <time>2021-08-23T16:22:43Z</time>
      </trkpt>
      <trkpt lat="47.0725" lon="2.39858">
        <ele>135</ele>
        <time>2021-08-23T16:22:43Z</time>
      </trkpt>
      <trkpt lat="47.07251" lon="2.39858">
        <ele>135</ele>
        <time>2021-08-23T16:22:43Z</time>
      </trkpt>
      <trkpt lat="47.07253" lon="2.39857">
        <ele>135</ele>
        <time>2021-08-23T16:22:43Z</time>
      </trkpt>
      <trkpt lat="47.07255" lon="2.39857">
        <ele>135</ele>
        <time>2021-08-23T16:22:43Z</time>
      </trkpt>
      <trkpt lat="47.07258" lon="2.39856">
        <ele>135</ele>
        <time>2021-08-23T16:22:43Z</time>
      </trkpt>
      <trkpt lat="47.07261" lon="2.39855">
        <ele>135</ele>
        <time>2021-08-23T16:22:43Z</time>
      </trkpt>
      <trkpt lat="47.07266" lon="2.39855">
        <ele>135</ele>
        <time>2021-08-23T16:22:43Z</time>
      </trkpt>
      <trkpt lat="47.0727" lon="2.39852">
        <ele>135</ele>
        <time>2021-08-23T16:22:43Z</time>
      </trkpt>
      <trkpt lat="47.07274" lon="2.39845">
        <ele>135</ele>
        <time>2021-08-23T16:22:43Z</time>
      </trkpt>
      <trkpt lat="47.07275" lon="2.39838">
        <ele>135</ele>
        <time>2021-08-23T16:22:43Z</time>
      </trkpt>
      <trkpt lat="47.07276" lon="2.39829">
        <ele>135</ele>
        <time>2021-08-23T16:22:43Z</time>
      </trkpt>
      <trkpt lat="47.07274" lon="2.39821">
        <ele>135</ele>
        <time>2021-08-23T16:22:43Z</time>
      </trkpt>
      <trkpt lat="47.07274" lon="2.39812">
        <ele>135</ele>
        <time>2021-08-23T16:22:43Z</time>
      </trkpt>
      <trkpt lat="47.07272" lon="2.39802">
        <ele>134</ele>
        <time>2021-08-23T16:22:43Z</time>
      </trkpt>
      <trkpt lat="47.07271" lon="2.39793">
        <ele>134</ele>
        <time>2021-08-23T16:22:43Z</time>
      </trkpt>
      <trkpt lat="47.07269" lon="2.39782">
        <ele>133</ele>
        <time>2021-08-23T16:22:43Z</time>
      </trkpt>
      <trkpt lat="47.07268" lon="2.39772">
        <ele>133</ele>
        <time>2021-08-23T16:22:43Z</time>
      </trkpt>
      <trkpt lat="47.07267" lon="2.39762">
        <ele>133</ele>
        <time>2021-08-23T16:22:43Z</time>
      </trkpt>
      <trkpt lat="47.07266" lon="2.39752">
        <ele>132</ele>
        <time>2021-08-23T16:22:43Z</time>
      </trkpt>
      <trkpt lat="47.07265" lon="2.39741">
        <ele>132</ele>
        <time>2021-08-23T16:22:43Z</time>
      </trkpt>
      <trkpt lat="47.07257" lon="2.39687">
        <ele>129</ele>
        <time>2021-08-23T16:22:43Z</time>
      </trkpt>
      <trkpt lat="47.07248" lon="2.39636">
        <ele>127</ele>
        <time>2021-08-23T16:22:43Z</time>
      </trkpt>
      <trkpt lat="47.07241" lon="2.39584">
        <ele>127</ele>
        <time>2021-08-23T16:22:43Z</time>
      </trkpt>
      <trkpt lat="47.07234" lon="2.39533">
        <ele>128</ele>
        <time>2021-08-23T16:22:43Z</time>
      </trkpt>
      <trkpt lat="47.07227" lon="2.39483">
        <ele>129</ele>
        <time>2021-08-23T16:22:43Z</time>
      </trkpt>
      <trkpt lat="47.07221" lon="2.39449">
        <ele>129</ele>
        <time>2021-08-23T16:22:43Z</time>
      </trkpt>
      <trkpt lat="47.07219" lon="2.39442">
        <ele>129</ele>
        <time>2021-08-23T16:22:43Z</time>
      </trkpt>
      <trkpt lat="47.07218" lon="2.39419">
        <ele>130</ele>
        <time>2021-08-23T16:22:43Z</time>
      </trkpt>
      <trkpt lat="47.07213" lon="2.39396">
        <ele>131</ele>
        <time>2021-08-23T16:22:43Z</time>
      </trkpt>
      <trkpt lat="47.07212" lon="2.39366">
        <ele>132</ele>
        <time>2021-08-23T16:22:43Z</time>
      </trkpt>
      <trkpt lat="47.0721" lon="2.39344">
        <ele>132</ele>
        <time>2021-08-23T16:22:43Z</time>
      </trkpt>
      <trkpt lat="47.07206" lon="2.39321">
        <ele>131</ele>
        <time>2021-08-23T16:22:43Z</time>
      </trkpt>
      <trkpt lat="47.07201" lon="2.39302">
        <ele>131</ele>
        <time>2021-08-23T16:22:43Z</time>
      </trkpt>
      <trkpt lat="47.07201" lon="2.39295">
        <ele>131</ele>
        <time>2021-08-23T16:22:43Z</time>
      </trkpt>
      <trkpt lat="47.07197" lon="2.39266">
        <ele>130</ele>
        <time>2021-08-23T16:22:43Z</time>
      </trkpt>
      <trkpt lat="47.07194" lon="2.39235">
        <ele>129</ele>
        <time>2021-08-23T16:22:43Z</time>
      </trkpt>
      <trkpt lat="47.0719" lon="2.39212">
        <ele>128</ele>
        <time>2021-08-23T16:22:43Z</time>
      </trkpt>
      <trkpt lat="47.07194" lon="2.39201">
        <ele>128</ele>
        <time>2021-08-23T16:22:43Z</time>
      </trkpt>
      <trkpt lat="47.07197" lon="2.39218">
        <ele>128</ele>
        <time>2021-08-23T16:22:43Z</time>
      </trkpt>
      <trkpt lat="47.07202" lon="2.39244">
        <ele>130</ele>
        <time>2021-08-23T16:22:43Z</time>
      </trkpt>
      <trkpt lat="47.07205" lon="2.39249">
        <ele>130</ele>
        <time>2021-08-23T16:22:43Z</time>
      </trkpt>
      <trkpt lat="47.07224" lon="2.39267">
        <ele>131</ele>
        <time>2021-08-23T16:22:43Z</time>
      </trkpt>
      <trkpt lat="47.07227" lon="2.39272">
        <ele>131</ele>
        <time>2021-08-23T16:22:43Z</time>
      </trkpt>
      <trkpt lat="47.07233" lon="2.39275">
        <ele>131</ele>
        <time>2021-08-23T16:22:43Z</time>
      </trkpt>
      <trkpt lat="47.07236" lon="2.39278">
        <ele>131</ele>
        <time>2021-08-23T16:22:43Z</time>
      </trkpt>
      <trkpt lat="47.07241" lon="2.3928">
        <ele>132</ele>
        <time>2021-08-23T16:22:43Z</time>
      </trkpt>
      <trkpt lat="47.07246" lon="2.3928">
        <ele>132</ele>
        <time>2021-08-23T16:22:43Z</time>
      </trkpt>
      <trkpt lat="47.07248" lon="2.39275">
        <ele>131</ele>
        <time>2021-08-23T16:22:43Z</time>
      </trkpt>
      <trkpt lat="47.07254" lon="2.39271">
        <ele>131</ele>
        <time>2021-08-23T16:22:43Z</time>
      </trkpt>
      <trkpt lat="47.07258" lon="2.39269">
        <ele>131</ele>
        <time>2021-08-23T16:22:43Z</time>
      </trkpt>
      <trkpt lat="47.07262" lon="2.39265">
        <ele>131</ele>
        <time>2021-08-23T16:22:43Z</time>
      </trkpt>
      <trkpt lat="47.07299" lon="2.39256">
        <ele>131</ele>
        <time>2021-08-23T16:22:43Z</time>
      </trkpt>
      <trkpt lat="47.07307" lon="2.39256">
        <ele>131</ele>
        <time>2021-08-23T16:22:43Z</time>
      </trkpt>
      <trkpt lat="47.07313" lon="2.39255">
        <ele>131</ele>
        <time>2021-08-23T16:22:43Z</time>
      </trkpt>
      <trkpt lat="47.07318" lon="2.39252">
        <ele>131</ele>
        <time>2021-08-23T16:22:43Z</time>
      </trkpt>
      <trkpt lat="47.07322" lon="2.39251">
        <ele>131</ele>
        <time>2021-08-23T16:22:43Z</time>
      </trkpt>
      <trkpt lat="47.0733" lon="2.39248">
        <ele>131</ele>
        <time>2021-08-23T16:22:43Z</time>
      </trkpt>
      <trkpt lat="47.07337" lon="2.39245">
        <ele>131</ele>
        <time>2021-08-23T16:22:43Z</time>
      </trkpt>
      <trkpt lat="47.07343" lon="2.39244">
        <ele>131</ele>
        <time>2021-08-23T16:22:43Z</time>
      </trkpt>
      <trkpt lat="47.07347" lon="2.39243">
        <ele>131</ele>
        <time>2021-08-23T16:22:43Z</time>
      </trkpt>
      <trkpt lat="47.07377" lon="2.39235">
        <ele>133</ele>
        <time>2021-08-23T16:22:43Z</time>
      </trkpt>
      <trkpt lat="47.07401" lon="2.39224">
        <ele>134</ele>
        <time>2021-08-23T16:22:43Z</time>
      </trkpt>
      <trkpt lat="47.07408" lon="2.39225">
        <ele>135</ele>
        <time>2021-08-23T16:22:43Z</time>
      </trkpt>
      <trkpt lat="47.07411" lon="2.39224">
        <ele>135</ele>
        <time>2021-08-23T16:22:43Z</time>
      </trkpt>
      <trkpt lat="47.07419" lon="2.39222">
        <ele>136</ele>
        <time>2021-08-23T16:22:43Z</time>
      </trkpt>
      <trkpt lat="47.07426" lon="2.3922">
        <ele>136</ele>
        <time>2021-08-23T16:22:43Z</time>
      </trkpt>
      <trkpt lat="47.0743" lon="2.39218">
        <ele>136</ele>
        <time>2021-08-23T16:22:43Z</time>
      </trkpt>
      <trkpt lat="47.07436" lon="2.39215">
        <ele>136</ele>
        <time>2021-08-23T16:22:43Z</time>
      </trkpt>
      <trkpt lat="47.07441" lon="2.39214">
        <ele>136</ele>
        <time>2021-08-23T16:22:43Z</time>
      </trkpt>
      <trkpt lat="47.07468" lon="2.39204">
        <ele>135</ele>
        <time>2021-08-23T16:22:43Z</time>
      </trkpt>
      <trkpt lat="47.07498" lon="2.39195">
        <ele>135</ele>
        <time>2021-08-23T16:22:43Z</time>
      </trkpt>
      <trkpt lat="47.07535" lon="2.39184">
        <ele>133</ele>
        <time>2021-08-23T16:22:43Z</time>
      </trkpt>
      <trkpt lat="47.07565" lon="2.3917">
        <ele>130</ele>
        <time>2021-08-23T16:22:43Z</time>
      </trkpt>
      <trkpt lat="47.07577" lon="2.3916">
        <ele>129</ele>
        <time>2021-08-23T16:22:43Z</time>
      </trkpt>
      <trkpt lat="47.07591" lon="2.39165">
        <ele>130</ele>
        <time>2021-08-23T16:22:43Z</time>
      </trkpt>
      <trkpt lat="47.07598" lon="2.39162">
        <ele>130</ele>
        <time>2021-08-23T16:22:43Z</time>
      </trkpt>
      <trkpt lat="47.07609" lon="2.3916">
        <ele>130</ele>
        <time>2021-08-23T16:22:43Z</time>
      </trkpt>
      <trkpt lat="47.07615" lon="2.39158">
        <ele>131</ele>
        <time>2021-08-23T16:22:43Z</time>
      </trkpt>
      <trkpt lat="47.07621" lon="2.39156">
        <ele>131</ele>
        <time>2021-08-23T16:22:43Z</time>
      </trkpt>
      <trkpt lat="47.07627" lon="2.39156">
        <ele>131</ele>
        <time>2021-08-23T16:22:43Z</time>
      </trkpt>
      <trkpt lat="47.0763" lon="2.39153">
        <ele>131</ele>
        <time>2021-08-23T16:22:43Z</time>
      </trkpt>
      <trkpt lat="47.07637" lon="2.39151">
        <ele>131</ele>
        <time>2021-08-23T16:22:43Z</time>
      </trkpt>
      <trkpt lat="47.07643" lon="2.3915">
        <ele>131</ele>
        <time>2021-08-23T16:22:43Z</time>
      </trkpt>
      <trkpt lat="47.0765" lon="2.39148">
        <ele>130</ele>
        <time>2021-08-23T16:22:43Z</time>
      </trkpt>
      <trkpt lat="47.07655" lon="2.39146">
        <ele>130</ele>
        <time>2021-08-23T16:22:43Z</time>
      </trkpt>
      <trkpt lat="47.07661" lon="2.39145">
        <ele>130</ele>
        <time>2021-08-23T16:22:43Z</time>
      </trkpt>
      <trkpt lat="47.07668" lon="2.39143">
        <ele>130</ele>
        <time>2021-08-23T16:22:43Z</time>
      </trkpt>
      <trkpt lat="47.07672" lon="2.39144">
        <ele>129</ele>
        <time>2021-08-23T16:22:43Z</time>
      </trkpt>
      <trkpt lat="47.07679" lon="2.39141">
        <ele>129</ele>
        <time>2021-08-23T16:22:43Z</time>
      </trkpt>
      <trkpt lat="47.07684" lon="2.39136">
        <ele>128</ele>
        <time>2021-08-23T16:22:43Z</time>
      </trkpt>
      <trkpt lat="47.0769" lon="2.39133">
        <ele>128</ele>
        <time>2021-08-23T16:22:43Z</time>
      </trkpt>
      <trkpt lat="47.07697" lon="2.39131">
        <ele>127</ele>
        <time>2021-08-23T16:22:43Z</time>
      </trkpt>
      <trkpt lat="47.07703" lon="2.3913">
        <ele>127</ele>
        <time>2021-08-23T16:22:43Z</time>
      </trkpt>
      <trkpt lat="47.07707" lon="2.39126">
        <ele>127</ele>
        <time>2021-08-23T16:22:43Z</time>
      </trkpt>
      <trkpt lat="47.07714" lon="2.39124">
        <ele>127</ele>
        <time>2021-08-23T16:22:43Z</time>
      </trkpt>
      <trkpt lat="47.07719" lon="2.39122">
        <ele>127</ele>
        <time>2021-08-23T16:22:43Z</time>
      </trkpt>
      <trkpt lat="47.07724" lon="2.39121">
        <ele>128</ele>
        <time>2021-08-23T16:22:43Z</time>
      </trkpt>
      <trkpt lat="47.07728" lon="2.3912">
        <ele>128</ele>
        <time>2021-08-23T16:22:43Z</time>
      </trkpt>
      <trkpt lat="47.07731" lon="2.39119">
        <ele>128</ele>
        <time>2021-08-23T16:22:43Z</time>
      </trkpt>
      <trkpt lat="47.07734" lon="2.39118">
        <ele>128</ele>
        <time>2021-08-23T16:22:43Z</time>
      </trkpt>
      <trkpt lat="47.07735" lon="2.39118">
        <ele>128</ele>
        <time>2021-08-23T16:22:43Z</time>
      </trkpt>
      <trkpt lat="47.07736" lon="2.39119">
        <ele>128</ele>
        <time>2021-08-23T16:22:43Z</time>
      </trkpt>
      <trkpt lat="47.07738" lon="2.39118">
        <ele>128</ele>
        <time>2021-08-23T16:22:43Z</time>
      </trkpt>
      <trkpt lat="47.0774" lon="2.39117">
        <ele>128</ele>
        <time>2021-08-23T16:22:43Z</time>
      </trkpt>
      <trkpt lat="47.07743" lon="2.39116">
        <ele>128</ele>
        <time>2021-08-23T16:22:43Z</time>
      </trkpt>
      <trkpt lat="47.07745" lon="2.39115">
        <ele>128</ele>
        <time>2021-08-23T16:22:43Z</time>
      </trkpt>
      <trkpt lat="47.07747" lon="2.39112">
        <ele>128</ele>
        <time>2021-08-23T16:22:43Z</time>
      </trkpt>
      <trkpt lat="47.07747" lon="2.39107">
        <ele>128</ele>
        <time>2021-08-23T16:22:43Z</time>
      </trkpt>
      <trkpt lat="47.07746" lon="2.39103">
        <ele>128</ele>
        <time>2021-08-23T16:22:43Z</time>
      </trkpt>
      <trkpt lat="47.07745" lon="2.39098">
        <ele>128</ele>
        <time>2021-08-23T16:22:43Z</time>
      </trkpt>
      <trkpt lat="47.07745" lon="2.39094">
        <ele>128</ele>
        <time>2021-08-23T16:22:43Z</time>
      </trkpt>
      <trkpt lat="47.07744" lon="2.3909">
        <ele>128</ele>
        <time>2021-08-23T16:22:43Z</time>
      </trkpt>
      <trkpt lat="47.07743" lon="2.39085">
        <ele>128</ele>
        <time>2021-08-23T16:22:43Z</time>
      </trkpt>
      <trkpt lat="47.07743" lon="2.3908">
        <ele>128</ele>
        <time>2021-08-23T16:22:43Z</time>
      </trkpt>
      <trkpt lat="47.07744" lon="2.39076">
        <ele>128</ele>
        <time>2021-08-23T16:22:43Z</time>
      </trkpt>
      <trkpt lat="47.07748" lon="2.39074">
        <ele>128</ele>
        <time>2021-08-23T16:22:43Z</time>
      </trkpt>
      <trkpt lat="47.07751" lon="2.39073">
        <ele>128</ele>
        <time>2021-08-23T16:22:43Z</time>
      </trkpt>
      <trkpt lat="47.07757" lon="2.39075">
        <ele>128</ele>
        <time>2021-08-23T16:22:43Z</time>
      </trkpt>
      <trkpt lat="47.07763" lon="2.39075">
        <ele>128</ele>
        <time>2021-08-23T16:22:43Z</time>
      </trkpt>
      <trkpt lat="47.07769" lon="2.39075">
        <ele>128</ele>
        <time>2021-08-23T16:22:43Z</time>
      </trkpt>
      <trkpt lat="47.07775" lon="2.39075">
        <ele>128</ele>
        <time>2021-08-23T16:22:43Z</time>
      </trkpt>
      <trkpt lat="47.07778" lon="2.39077">
        <ele>128</ele>
        <time>2021-08-23T16:22:43Z</time>
      </trkpt>
      <trkpt lat="47.07785" lon="2.39074">
        <ele>128</ele>
        <time>2021-08-23T16:22:43Z</time>
      </trkpt>
      <trkpt lat="47.0779" lon="2.39073">
        <ele>127</ele>
        <time>2021-08-23T16:22:43Z</time>
      </trkpt>
      <trkpt lat="47.07796" lon="2.39071">
        <ele>127</ele>
        <time>2021-08-23T16:22:43Z</time>
      </trkpt>
      <trkpt lat="47.07803" lon="2.39068">
        <ele>127</ele>
        <time>2021-08-23T16:22:43Z</time>
      </trkpt>
      <trkpt lat="47.07809" lon="2.39067">
        <ele>127</ele>
        <time>2021-08-23T16:22:43Z</time>
      </trkpt>
      <trkpt lat="47.07813" lon="2.39065">
        <ele>127</ele>
        <time>2021-08-23T16:22:43Z</time>
      </trkpt>
      <trkpt lat="47.07818" lon="2.39064">
        <ele>127</ele>
        <time>2021-08-23T16:22:43Z</time>
      </trkpt>
      <trkpt lat="47.07824" lon="2.39062">
        <ele>127</ele>
        <time>2021-08-23T16:22:43Z</time>
      </trkpt>
      <trkpt lat="47.0783" lon="2.3906">
        <ele>127</ele>
        <time>2021-08-23T16:22:43Z</time>
      </trkpt>
      <trkpt lat="47.07835" lon="2.39056">
        <ele>127</ele>
        <time>2021-08-23T16:22:43Z</time>
      </trkpt>
      <trkpt lat="47.0784" lon="2.39054">
        <ele>127</ele>
        <time>2021-08-23T16:22:43Z</time>
      </trkpt>
      <trkpt lat="47.07845" lon="2.39051">
        <ele>127</ele>
        <time>2021-08-23T16:22:43Z</time>
      </trkpt>
      <trkpt lat="47.0785" lon="2.39048">
        <ele>128</ele>
        <time>2021-08-23T16:22:43Z</time>
      </trkpt>
      <trkpt lat="47.07857" lon="2.39045">
        <ele>129</ele>
        <time>2021-08-23T16:22:43Z</time>
      </trkpt>
      <trkpt lat="47.07863" lon="2.39045">
        <ele>129</ele>
        <time>2021-08-23T16:22:43Z</time>
      </trkpt>
      <trkpt lat="47.07888" lon="2.39024">
        <ele>130</ele>
        <time>2021-08-23T16:22:43Z</time>
      </trkpt>
      <trkpt lat="47.07908" lon="2.38998">
        <ele>129</ele>
        <time>2021-08-23T16:22:43Z</time>
      </trkpt>
      <trkpt lat="47.07923" lon="2.3898">
        <ele>128</ele>
        <time>2021-08-23T16:22:43Z</time>
      </trkpt>
      <trkpt lat="47.07933" lon="2.38965">
        <ele>128</ele>
        <time>2021-08-23T16:22:43Z</time>
      </trkpt>
      <trkpt lat="47.07945" lon="2.38949">
        <ele>128</ele>
        <time>2021-08-23T16:22:43Z</time>
      </trkpt>
      <trkpt lat="47.07961" lon="2.38932">
        <ele>129</ele>
        <time>2021-08-23T16:22:43Z</time>
      </trkpt>
      <trkpt lat="47.07965" lon="2.38927">
        <ele>129</ele>
        <time>2021-08-23T16:22:43Z</time>
      </trkpt>
      <trkpt lat="47.0799" lon="2.38896">
        <ele>129</ele>
        <time>2021-08-23T16:22:43Z</time>
      </trkpt>
      <trkpt lat="47.08008" lon="2.38859">
        <ele>129</ele>
        <time>2021-08-23T16:22:43Z</time>
      </trkpt>
      <trkpt lat="47.08027" lon="2.38822">
        <ele>130</ele>
        <time>2021-08-23T16:22:43Z</time>
      </trkpt>
      <trkpt lat="47.0805" lon="2.38793">
        <ele>130</ele>
        <time>2021-08-23T16:22:43Z</time>
      </trkpt>
      <trkpt lat="47.0807" lon="2.38757">
        <ele>131</ele>
        <time>2021-08-23T16:22:43Z</time>
      </trkpt>
      <trkpt lat="47.08084" lon="2.38726">
        <ele>131</ele>
        <time>2021-08-23T16:22:43Z</time>
      </trkpt>
      <trkpt lat="47.08087" lon="2.38719">
        <ele>131</ele>
        <time>2021-08-23T16:22:43Z</time>
      </trkpt>
      <trkpt lat="47.08106" lon="2.38707">
        <ele>131</ele>
        <time>2021-08-23T16:22:43Z</time>
      </trkpt>
      <trkpt lat="47.08118" lon="2.3871">
        <ele>131</ele>
        <time>2021-08-23T16:22:43Z</time>
      </trkpt>
      <trkpt lat="47.08136" lon="2.38673">
        <ele>131</ele>
        <time>2021-08-23T16:22:43Z</time>
      </trkpt>
      <trkpt lat="47.0815" lon="2.38632">
        <ele>131</ele>
        <time>2021-08-23T16:22:43Z</time>
      </trkpt>
      <trkpt lat="47.08168" lon="2.38591">
        <ele>131</ele>
        <time>2021-08-23T16:22:43Z</time>
      </trkpt>
      <trkpt lat="47.08181" lon="2.3856">
        <ele>131</ele>
        <time>2021-08-23T16:22:43Z</time>
      </trkpt>
      <trkpt lat="47.08183" lon="2.3855">
        <ele>130</ele>
        <time>2021-08-23T16:22:43Z</time>
      </trkpt>
      <trkpt lat="47.08198" lon="2.38509">
        <ele>130</ele>
        <time>2021-08-23T16:22:43Z</time>
      </trkpt>
      <trkpt lat="47.08214" lon="2.38469">
        <ele>128</ele>
        <time>2021-08-23T16:22:43Z</time>
      </trkpt>
      <trkpt lat="47.08225" lon="2.38442">
        <ele>126</ele>
        <time>2021-08-23T16:22:43Z</time>
      </trkpt>
      <trkpt lat="47.08235" lon="2.38424">
        <ele>126</ele>
        <time>2021-08-23T16:22:43Z</time>
      </trkpt>
      <trkpt lat="47.08248" lon="2.38397">
        <ele>125</ele>
        <time>2021-08-23T16:22:43Z</time>
      </trkpt>
      <trkpt lat="47.08261" lon="2.38368">
        <ele>127</ele>
        <time>2021-08-23T16:22:43Z</time>
      </trkpt>
      <trkpt lat="47.08265" lon="2.38362">
        <ele>127</ele>
        <time>2021-08-23T16:22:43Z</time>
      </trkpt>
      <trkpt lat="47.08268" lon="2.38354">
        <ele>127</ele>
        <time>2021-08-23T16:22:43Z</time>
      </trkpt>
      <trkpt lat="47.08271" lon="2.38346">
        <ele>128</ele>
        <time>2021-08-23T16:22:43Z</time>
      </trkpt>
      <trkpt lat="47.08274" lon="2.38337">
        <ele>128</ele>
        <time>2021-08-23T16:22:43Z</time>
      </trkpt>
      <trkpt lat="47.08277" lon="2.3833">
        <ele>129</ele>
        <time>2021-08-23T16:22:43Z</time>
      </trkpt>
      <trkpt lat="47.0828" lon="2.38322">
        <ele>129</ele>
        <time>2021-08-23T16:22:43Z</time>
      </trkpt>
      <trkpt lat="47.08283" lon="2.38314">
        <ele>129</ele>
        <time>2021-08-23T16:22:43Z</time>
      </trkpt>
      <trkpt lat="47.08285" lon="2.38307">
        <ele>130</ele>
        <time>2021-08-23T16:22:43Z</time>
      </trkpt>
      <trkpt lat="47.0829" lon="2.38299">
        <ele>129</ele>
        <time>2021-08-23T16:22:43Z</time>
      </trkpt>
      <trkpt lat="47.08293" lon="2.38291">
        <ele>129</ele>
        <time>2021-08-23T16:22:43Z</time>
      </trkpt>
      <trkpt lat="47.08297" lon="2.38283">
        <ele>129</ele>
        <time>2021-08-23T16:22:43Z</time>
      </trkpt>
      <trkpt lat="47.083" lon="2.38274">
        <ele>128</ele>
        <time>2021-08-23T16:22:43Z</time>
      </trkpt>
      <trkpt lat="47.08303" lon="2.38266">
        <ele>127</ele>
        <time>2021-08-23T16:22:43Z</time>
      </trkpt>
      <trkpt lat="47.08306" lon="2.38259">
        <ele>127</ele>
        <time>2021-08-23T16:22:43Z</time>
      </trkpt>
      <trkpt lat="47.0831" lon="2.38251">
        <ele>126</ele>
        <time>2021-08-23T16:22:43Z</time>
      </trkpt>
      <trkpt lat="47.08313" lon="2.38243">
        <ele>126</ele>
        <time>2021-08-23T16:22:43Z</time>
      </trkpt>
      <trkpt lat="47.08316" lon="2.38236">
        <ele>125</ele>
        <time>2021-08-23T16:22:43Z</time>
      </trkpt>
      <trkpt lat="47.08319" lon="2.38228">
        <ele>125</ele>
        <time>2021-08-23T16:22:43Z</time>
      </trkpt>
      <trkpt lat="47.08324" lon="2.3822">
        <ele>124</ele>
        <time>2021-08-23T16:22:43Z</time>
      </trkpt>
      <trkpt lat="47.08327" lon="2.38212">
        <ele>125</ele>
        <time>2021-08-23T16:22:43Z</time>
      </trkpt>
      <trkpt lat="47.08332" lon="2.38203">
        <ele>125</ele>
        <time>2021-08-23T16:22:43Z</time>
      </trkpt>
      <trkpt lat="47.08336" lon="2.38195">
        <ele>125</ele>
        <time>2021-08-23T16:22:43Z</time>
      </trkpt>
      <trkpt lat="47.08339" lon="2.38187">
        <ele>126</ele>
        <time>2021-08-23T16:22:43Z</time>
      </trkpt>
      <trkpt lat="47.08342" lon="2.38178">
        <ele>126</ele>
        <time>2021-08-23T16:22:43Z</time>
      </trkpt>
      <trkpt lat="47.08345" lon="2.38169">
        <ele>126</ele>
        <time>2021-08-23T16:22:43Z</time>
      </trkpt>
      <trkpt lat="47.08348" lon="2.3816">
        <ele>126</ele>
        <time>2021-08-23T16:22:43Z</time>
      </trkpt>
      <trkpt lat="47.08345" lon="2.38151">
        <ele>127</ele>
        <time>2021-08-23T16:22:43Z</time>
      </trkpt>
      <trkpt lat="47.08346" lon="2.38142">
        <ele>128</ele>
        <time>2021-08-23T16:22:43Z</time>
      </trkpt>
      <trkpt lat="47.08349" lon="2.38133">
        <ele>127</ele>
        <time>2021-08-23T16:22:43Z</time>
      </trkpt>
      <trkpt lat="47.0835" lon="2.38124">
        <ele>127</ele>
        <time>2021-08-23T16:22:43Z</time>
      </trkpt>
      <trkpt lat="47.08353" lon="2.38117">
        <ele>126</ele>
        <time>2021-08-23T16:22:43Z</time>
      </trkpt>
      <trkpt lat="47.08355" lon="2.38107">
        <ele>125</ele>
        <time>2021-08-23T16:22:43Z</time>
      </trkpt>
      <trkpt lat="47.08358" lon="2.381">
        <ele>124</ele>
        <time>2021-08-23T16:22:43Z</time>
      </trkpt>
      <trkpt lat="47.08362" lon="2.38093">
        <ele>123</ele>
        <time>2021-08-23T16:22:43Z</time>
      </trkpt>
      <trkpt lat="47.08366" lon="2.38086">
        <ele>123</ele>
        <time>2021-08-23T16:22:43Z</time>
      </trkpt>
      <trkpt lat="47.0837" lon="2.38079">
        <ele>123</ele>
        <time>2021-08-23T16:22:43Z</time>
      </trkpt>
      <trkpt lat="47.08373" lon="2.38072">
        <ele>124</ele>
        <time>2021-08-23T16:22:43Z</time>
      </trkpt>
      <trkpt lat="47.08376" lon="2.38065">
        <ele>124</ele>
        <time>2021-08-23T16:22:43Z</time>
      </trkpt>
      <trkpt lat="47.0838" lon="2.38057">
        <ele>125</ele>
        <time>2021-08-23T16:22:43Z</time>
      </trkpt>
      <trkpt lat="47.08385" lon="2.38051">
        <ele>125</ele>
        <time>2021-08-23T16:22:43Z</time>
      </trkpt>
      <trkpt lat="47.08388" lon="2.38043">
        <ele>125</ele>
        <time>2021-08-23T16:22:43Z</time>
      </trkpt>
      <trkpt lat="47.08392" lon="2.38036">
        <ele>126</ele>
        <time>2021-08-23T16:22:43Z</time>
      </trkpt>
      <trkpt lat="47.08395" lon="2.38028">
        <ele>126</ele>
        <time>2021-08-23T16:22:43Z</time>
      </trkpt>
      <trkpt lat="47.08398" lon="2.3802">
        <ele>127</ele>
        <time>2021-08-23T16:22:43Z</time>
      </trkpt>
      <trkpt lat="47.08401" lon="2.38012">
        <ele>127</ele>
        <time>2021-08-23T16:22:43Z</time>
      </trkpt>
      <trkpt lat="47.08404" lon="2.38005">
        <ele>128</ele>
        <time>2021-08-23T16:22:43Z</time>
      </trkpt>
      <trkpt lat="47.08408" lon="2.37997">
        <ele>128</ele>
        <time>2021-08-23T16:22:43Z</time>
      </trkpt>
      <trkpt lat="47.08411" lon="2.3799">
        <ele>128</ele>
        <time>2021-08-23T16:22:43Z</time>
      </trkpt>
      <trkpt lat="47.08414" lon="2.37982">
        <ele>128</ele>
        <time>2021-08-23T16:22:43Z</time>
      </trkpt>
      <trkpt lat="47.08417" lon="2.37975">
        <ele>128</ele>
        <time>2021-08-23T16:22:43Z</time>
      </trkpt>
      <trkpt lat="47.08422" lon="2.37967">
        <ele>128</ele>
        <time>2021-08-23T16:22:43Z</time>
      </trkpt>
      <trkpt lat="47.08425" lon="2.37959">
        <ele>129</ele>
        <time>2021-08-23T16:22:43Z</time>
      </trkpt>
      <trkpt lat="47.08426" lon="2.37952">
        <ele>129</ele>
        <time>2021-08-23T16:22:43Z</time>
      </trkpt>
      <trkpt lat="47.08429" lon="2.37945">
        <ele>129</ele>
        <time>2021-08-23T16:22:43Z</time>
      </trkpt>
      <trkpt lat="47.08432" lon="2.37937">
        <ele>129</ele>
        <time>2021-08-23T16:22:43Z</time>
      </trkpt>
      <trkpt lat="47.08436" lon="2.37929">
        <ele>128</ele>
        <time>2021-08-23T16:22:43Z</time>
      </trkpt>
      <trkpt lat="47.08437" lon="2.37923">
        <ele>129</ele>
        <time>2021-08-23T16:22:43Z</time>
      </trkpt>
      <trkpt lat="47.08439" lon="2.37915">
        <ele>129</ele>
        <time>2021-08-23T16:22:43Z</time>
      </trkpt>
      <trkpt lat="47.08444" lon="2.37906">
        <ele>129</ele>
        <time>2021-08-23T16:22:43Z</time>
      </trkpt>
      <trkpt lat="47.08447" lon="2.37898">
        <ele>128</ele>
        <time>2021-08-23T16:22:43Z</time>
      </trkpt>
      <trkpt lat="47.0845" lon="2.37891">
        <ele>128</ele>
        <time>2021-08-23T16:22:43Z</time>
      </trkpt>
      <trkpt lat="47.08454" lon="2.37881">
        <ele>127</ele>
        <time>2021-08-23T16:22:43Z</time>
      </trkpt>
      <trkpt lat="47.08471" lon="2.37843">
        <ele>127</ele>
        <time>2021-08-23T16:22:43Z</time>
      </trkpt>
      <trkpt lat="47.08488" lon="2.37803">
        <ele>127</ele>
        <time>2021-08-23T16:22:43Z</time>
      </trkpt>
      <trkpt lat="47.0851" lon="2.37778">
        <ele>126</ele>
        <time>2021-08-23T16:22:43Z</time>
      </trkpt>
      <trkpt lat="47.08525" lon="2.37745">
        <ele>126</ele>
        <time>2021-08-23T16:22:43Z</time>
      </trkpt>
      <trkpt lat="47.08539" lon="2.37715">
        <ele>127</ele>
        <time>2021-08-23T16:22:43Z</time>
      </trkpt>
      <trkpt lat="47.08544" lon="2.37693">
        <ele>128</ele>
        <time>2021-08-23T16:22:43Z</time>
      </trkpt>
      <trkpt lat="47.08543" lon="2.37691">
        <ele>128</ele>
        <time>2021-08-23T16:22:43Z</time>
      </trkpt>
      <trkpt lat="47.08521" lon="2.37675">
        <ele>130</ele>
        <time>2021-08-23T16:22:43Z</time>
      </trkpt>
      <trkpt lat="47.08497" lon="2.37654">
        <ele>130</ele>
        <time>2021-08-23T16:22:43Z</time>
      </trkpt>
      <trkpt lat="47.08477" lon="2.3763">
        <ele>128</ele>
        <time>2021-08-23T16:22:43Z</time>
      </trkpt>
      <trkpt lat="47.08459" lon="2.37597">
        <ele>127</ele>
        <time>2021-08-23T16:22:43Z</time>
      </trkpt>
      <trkpt lat="47.08447" lon="2.3757">
        <ele>128</ele>
        <time>2021-08-23T16:22:43Z</time>
      </trkpt>
      <trkpt lat="47.08444" lon="2.37561">
        <ele>129</ele>
        <time>2021-08-23T16:22:43Z</time>
      </trkpt>
      <trkpt lat="47.08442" lon="2.3756">
        <ele>129</ele>
        <time>2021-08-23T16:22:43Z</time>
      </trkpt>
      <trkpt lat="47.0844" lon="2.37558">
        <ele>130</ele>
        <time>2021-08-23T16:22:43Z</time>
      </trkpt>
      <trkpt lat="47.08439" lon="2.37553">
        <ele>130</ele>
        <time>2021-08-23T16:22:43Z</time>
      </trkpt>
      <trkpt lat="47.08439" lon="2.37549">
        <ele>130</ele>
        <time>2021-08-23T16:22:43Z</time>
      </trkpt>
      <trkpt lat="47.08438" lon="2.37545">
        <ele>131</ele>
        <time>2021-08-23T16:22:43Z</time>
      </trkpt>
      <trkpt lat="47.08437" lon="2.37541">
        <ele>131</ele>
        <time>2021-08-23T16:22:43Z</time>
      </trkpt>
      <trkpt lat="47.08435" lon="2.37538">
        <ele>131</ele>
        <time>2021-08-23T16:22:43Z</time>
      </trkpt>
      <trkpt lat="47.08432" lon="2.37535">
        <ele>132</ele>
        <time>2021-08-23T16:22:43Z</time>
      </trkpt>
      <trkpt lat="47.08427" lon="2.37503">
        <ele>135</ele>
        <time>2021-08-23T16:22:43Z</time>
      </trkpt>
      <trkpt lat="47.08421" lon="2.37464">
        <ele>135</ele>
        <time>2021-08-23T16:22:43Z</time>
      </trkpt>
      <trkpt lat="47.08413" lon="2.37424">
        <ele>134</ele>
        <time>2021-08-23T16:22:43Z</time>
      </trkpt>
      <trkpt lat="47.08408" lon="2.37384">
        <ele>134</ele>
        <time>2021-08-23T16:22:43Z</time>
      </trkpt>
      <trkpt lat="47.08403" lon="2.37341">
        <ele>133</ele>
        <time>2021-08-23T16:22:43Z</time>
      </trkpt>
      <trkpt lat="47.08396" lon="2.37307">
        <ele>133</ele>
        <time>2021-08-23T16:22:43Z</time>
      </trkpt>
      <trkpt lat="47.08395" lon="2.37299">
        <ele>133</ele>
        <time>2021-08-23T16:22:43Z</time>
      </trkpt>
      <trkpt lat="47.0839" lon="2.37272">
        <ele>133</ele>
        <time>2021-08-23T16:22:43Z</time>
      </trkpt>
      <trkpt lat="47.08389" lon="2.37263">
        <ele>133</ele>
        <time>2021-08-23T16:22:43Z</time>
      </trkpt>
      <trkpt lat="47.08387" lon="2.37254">
        <ele>133</ele>
        <time>2021-08-23T16:22:43Z</time>
      </trkpt>
      <trkpt lat="47.08387" lon="2.37244">
        <ele>132</ele>
        <time>2021-08-23T16:22:43Z</time>
      </trkpt>
      <trkpt lat="47.08385" lon="2.37235">
        <ele>132</ele>
        <time>2021-08-23T16:22:43Z</time>
      </trkpt>
      <trkpt lat="47.08385" lon="2.37226">
        <ele>132</ele>
        <time>2021-08-23T16:22:43Z</time>
      </trkpt>
      <trkpt lat="47.08384" lon="2.37217">
        <ele>132</ele>
        <time>2021-08-23T16:22:43Z</time>
      </trkpt>
      <trkpt lat="47.08382" lon="2.37209">
        <ele>132</ele>
        <time>2021-08-23T16:22:43Z</time>
      </trkpt>
      <trkpt lat="47.08382" lon="2.372">
        <ele>132</ele>
        <time>2021-08-23T16:22:43Z</time>
      </trkpt>
      <trkpt lat="47.08381" lon="2.37192">
        <ele>133</ele>
        <time>2021-08-23T16:22:43Z</time>
      </trkpt>
      <trkpt lat="47.08379" lon="2.37183">
        <ele>133</ele>
        <time>2021-08-23T16:22:43Z</time>
      </trkpt>
      <trkpt lat="47.08377" lon="2.37174">
        <ele>133</ele>
        <time>2021-08-23T16:22:43Z</time>
      </trkpt>
      <trkpt lat="47.08377" lon="2.37166">
        <ele>133</ele>
        <time>2021-08-23T16:22:43Z</time>
      </trkpt>
      <trkpt lat="47.08375" lon="2.37157">
        <ele>133</ele>
        <time>2021-08-23T16:22:43Z</time>
      </trkpt>
      <trkpt lat="47.08374" lon="2.37147">
        <ele>133</ele>
        <time>2021-08-23T16:22:43Z</time>
      </trkpt>
      <trkpt lat="47.08373" lon="2.37139">
        <ele>133</ele>
        <time>2021-08-23T16:22:43Z</time>
      </trkpt>
      <trkpt lat="47.0837" lon="2.37123">
        <ele>133</ele>
        <time>2021-08-23T16:22:43Z</time>
      </trkpt>
      <trkpt lat="47.08368" lon="2.37114">
        <ele>133</ele>
        <time>2021-08-23T16:22:43Z</time>
      </trkpt>
      <trkpt lat="47.08367" lon="2.37105">
        <ele>133</ele>
        <time>2021-08-23T16:22:43Z</time>
      </trkpt>
      <trkpt lat="47.08366" lon="2.37095">
        <ele>134</ele>
        <time>2021-08-23T16:22:43Z</time>
      </trkpt>
      <trkpt lat="47.08365" lon="2.37086">
        <ele>134</ele>
        <time>2021-08-23T16:22:43Z</time>
      </trkpt>
      <trkpt lat="47.0836" lon="2.37068">
        <ele>135</ele>
        <time>2021-08-23T16:22:43Z</time>
      </trkpt>
      <trkpt lat="47.08359" lon="2.37058">
        <ele>135</ele>
        <time>2021-08-23T16:22:43Z</time>
      </trkpt>
      <trkpt lat="47.08358" lon="2.37049">
        <ele>136</ele>
        <time>2021-08-23T16:22:43Z</time>
      </trkpt>
      <trkpt lat="47.08357" lon="2.3704">
        <ele>136</ele>
        <time>2021-08-23T16:22:43Z</time>
      </trkpt>
      <trkpt lat="47.08356" lon="2.37021">
        <ele>136</ele>
        <time>2021-08-23T16:22:43Z</time>
      </trkpt>
      <trkpt lat="47.08355" lon="2.37011">
        <ele>136</ele>
        <time>2021-08-23T16:22:43Z</time>
      </trkpt>
      <trkpt lat="47.08354" lon="2.37003">
        <ele>136</ele>
        <time>2021-08-23T16:22:43Z</time>
      </trkpt>
      <trkpt lat="47.0835" lon="2.36996">
        <ele>136</ele>
        <time>2021-08-23T16:22:43Z</time>
      </trkpt>
      <trkpt lat="47.08349" lon="2.36987">
        <ele>137</ele>
        <time>2021-08-23T16:22:43Z</time>
      </trkpt>
      <trkpt lat="47.08344" lon="2.3697">
        <ele>137</ele>
        <time>2021-08-23T16:22:43Z</time>
      </trkpt>
      <trkpt lat="47.08341" lon="2.36962">
        <ele>137</ele>
        <time>2021-08-23T16:22:43Z</time>
      </trkpt>
      <trkpt lat="47.08339" lon="2.36954">
        <ele>137</ele>
        <time>2021-08-23T16:22:43Z</time>
      </trkpt>
      <trkpt lat="47.08335" lon="2.36947">
        <ele>137</ele>
        <time>2021-08-23T16:22:43Z</time>
      </trkpt>
      <trkpt lat="47.08332" lon="2.3694">
        <ele>137</ele>
        <time>2021-08-23T16:22:43Z</time>
      </trkpt>
      <trkpt lat="47.08328" lon="2.36929">
        <ele>137</ele>
        <time>2021-08-23T16:22:43Z</time>
      </trkpt>
      <trkpt lat="47.08326" lon="2.36924">
        <ele>137</ele>
        <time>2021-08-23T16:22:43Z</time>
      </trkpt>
      <trkpt lat="47.08325" lon="2.3692">
        <ele>137</ele>
        <time>2021-08-23T16:22:43Z</time>
      </trkpt>
      <trkpt lat="47.08321" lon="2.36915">
        <ele>137</ele>
        <time>2021-08-23T16:22:43Z</time>
      </trkpt>
      <trkpt lat="47.08317" lon="2.36906">
        <ele>137</ele>
        <time>2021-08-23T16:22:43Z</time>
      </trkpt>
      <trkpt lat="47.08315" lon="2.36902">
        <ele>137</ele>
        <time>2021-08-23T16:22:43Z</time>
      </trkpt>
      <trkpt lat="47.08313" lon="2.36899">
        <ele>137</ele>
        <time>2021-08-23T16:22:43Z</time>
      </trkpt>
      <trkpt lat="47.0831" lon="2.36899">
        <ele>137</ele>
        <time>2021-08-23T16:22:43Z</time>
      </trkpt>
      <trkpt lat="47.08308" lon="2.36897">
        <ele>137</ele>
        <time>2021-08-23T16:22:43Z</time>
      </trkpt>
      <trkpt lat="47.08307" lon="2.36893">
        <ele>137</ele>
        <time>2021-08-23T16:22:43Z</time>
      </trkpt>
      <trkpt lat="47.08305" lon="2.36889">
        <ele>137</ele>
        <time>2021-08-23T16:22:43Z</time>
      </trkpt>
      <trkpt lat="47.08302" lon="2.36884">
        <ele>137</ele>
        <time>2021-08-23T16:22:43Z</time>
      </trkpt>
      <trkpt lat="47.08299" lon="2.36878">
        <ele>137</ele>
        <time>2021-08-23T16:22:43Z</time>
      </trkpt>
      <trkpt lat="47.08296" lon="2.36873">
        <ele>137</ele>
        <time>2021-08-23T16:22:43Z</time>
      </trkpt>
      <trkpt lat="47.08293" lon="2.36868">
        <ele>137</ele>
        <time>2021-08-23T16:22:43Z</time>
      </trkpt>
      <trkpt lat="47.08272" lon="2.36843">
        <ele>139</ele>
        <time>2021-08-23T16:22:43Z</time>
      </trkpt>
      <trkpt lat="47.08245" lon="2.36818">
        <ele>141</ele>
        <time>2021-08-23T16:22:43Z</time>
      </trkpt>
      <trkpt lat="47.08217" lon="2.36798">
        <ele>142</ele>
        <time>2021-08-23T16:22:43Z</time>
      </trkpt>
      <trkpt lat="47.08191" lon="2.36783">
        <ele>143</ele>
        <time>2021-08-23T16:22:43Z</time>
      </trkpt>
      <trkpt lat="47.08177" lon="2.36781">
        <ele>143</ele>
        <time>2021-08-23T16:22:43Z</time>
      </trkpt>
      <trkpt lat="47.08171" lon="2.3678">
        <ele>143</ele>
        <time>2021-08-23T16:22:43Z</time>
      </trkpt>
      <trkpt lat="47.08168" lon="2.36777">
        <ele>142</ele>
        <time>2021-08-23T16:22:43Z</time>
      </trkpt>
      <trkpt lat="47.08148" lon="2.36759">
        <ele>141</ele>
        <time>2021-08-23T16:22:43Z</time>
      </trkpt>
      <trkpt lat="47.08125" lon="2.36753">
        <ele>141</ele>
        <time>2021-08-23T16:22:43Z</time>
      </trkpt>
      <trkpt lat="47.08101" lon="2.36738">
        <ele>141</ele>
        <time>2021-08-23T16:22:43Z</time>
      </trkpt>
      <trkpt lat="47.08072" lon="2.36723">
        <ele>141</ele>
        <time>2021-08-23T16:22:43Z</time>
      </trkpt>
      <trkpt lat="47.08044" lon="2.36707">
        <ele>142</ele>
        <time>2021-08-23T16:22:43Z</time>
      </trkpt>
      <trkpt lat="47.08021" lon="2.36694">
        <ele>143</ele>
        <time>2021-08-23T16:22:43Z</time>
      </trkpt>
      <trkpt lat="47.08015" lon="2.36692">
        <ele>144</ele>
        <time>2021-08-23T16:22:43Z</time>
      </trkpt>
      <trkpt lat="47.07986" lon="2.36677">
        <ele>146</ele>
        <time>2021-08-23T16:22:43Z</time>
      </trkpt>
      <trkpt lat="47.07956" lon="2.36661">
        <ele>147</ele>
        <time>2021-08-23T16:22:43Z</time>
      </trkpt>
      <trkpt lat="47.07926" lon="2.36645">
        <ele>148</ele>
        <time>2021-08-23T16:22:43Z</time>
      </trkpt>
      <trkpt lat="47.07896" lon="2.3663">
        <ele>148</ele>
        <time>2021-08-23T16:22:43Z</time>
      </trkpt>
      <trkpt lat="47.07867" lon="2.36613">
        <ele>147</ele>
        <time>2021-08-23T16:22:43Z</time>
      </trkpt>
      <trkpt lat="47.07843" lon="2.36601">
        <ele>148</ele>
        <time>2021-08-23T16:22:43Z</time>
      </trkpt>
      <trkpt lat="47.07837" lon="2.36598">
        <ele>149</ele>
        <time>2021-08-23T16:22:43Z</time>
      </trkpt>
      <trkpt lat="47.07825" lon="2.36591">
        <ele>149</ele>
        <time>2021-08-23T16:22:43Z</time>
      </trkpt>
      <trkpt lat="47.07819" lon="2.36588">
        <ele>149</ele>
        <time>2021-08-23T16:22:43Z</time>
      </trkpt>
      <trkpt lat="47.07813" lon="2.36585">
        <ele>149</ele>
        <time>2021-08-23T16:22:43Z</time>
      </trkpt>
      <trkpt lat="47.07807" lon="2.36583">
        <ele>148</ele>
        <time>2021-08-23T16:22:43Z</time>
      </trkpt>
      <trkpt lat="47.07801" lon="2.3658">
        <ele>148</ele>
        <time>2021-08-23T16:22:43Z</time>
      </trkpt>
      <trkpt lat="47.07795" lon="2.36577">
        <ele>148</ele>
        <time>2021-08-23T16:22:43Z</time>
      </trkpt>
      <trkpt lat="47.07788" lon="2.36574">
        <ele>148</ele>
        <time>2021-08-23T16:22:43Z</time>
      </trkpt>
      <trkpt lat="47.07782" lon="2.36571">
        <ele>148</ele>
        <time>2021-08-23T16:22:43Z</time>
      </trkpt>
      <trkpt lat="47.07777" lon="2.36568">
        <ele>149</ele>
        <time>2021-08-23T16:22:43Z</time>
      </trkpt>
      <trkpt lat="47.07771" lon="2.36565">
        <ele>149</ele>
        <time>2021-08-23T16:22:43Z</time>
      </trkpt>
      <trkpt lat="47.07766" lon="2.36563">
        <ele>149</ele>
        <time>2021-08-23T16:22:43Z</time>
      </trkpt>
      <trkpt lat="47.07762" lon="2.36561">
        <ele>149</ele>
        <time>2021-08-23T16:22:43Z</time>
      </trkpt>
      <trkpt lat="47.07733" lon="2.36544">
        <ele>148</ele>
        <time>2021-08-23T16:22:43Z</time>
      </trkpt>
      <trkpt lat="47.07703" lon="2.36531">
        <ele>148</ele>
        <time>2021-08-23T16:22:43Z</time>
      </trkpt>
      <trkpt lat="47.07672" lon="2.36522">
        <ele>148</ele>
        <time>2021-08-23T16:22:43Z</time>
      </trkpt>
      <trkpt lat="47.07641" lon="2.3652">
        <ele>148</ele>
        <time>2021-08-23T16:22:43Z</time>
      </trkpt>
      <trkpt lat="47.07616" lon="2.36521">
        <ele>149</ele>
        <time>2021-08-23T16:22:43Z</time>
      </trkpt>
      <trkpt lat="47.07601" lon="2.36523">
        <ele>150</ele>
        <time>2021-08-23T16:22:43Z</time>
      </trkpt>
      <trkpt lat="47.07598" lon="2.36524">
        <ele>150</ele>
        <time>2021-08-23T16:22:43Z</time>
      </trkpt>
      <trkpt lat="47.0759" lon="2.36516">
        <ele>151</ele>
        <time>2021-08-23T16:22:43Z</time>
      </trkpt>
      <trkpt lat="47.07591" lon="2.36481">
        <ele>150</ele>
        <time>2021-08-23T16:22:43Z</time>
      </trkpt>
      <trkpt lat="47.07589" lon="2.36436">
        <ele>150</ele>
        <time>2021-08-23T16:22:43Z</time>
      </trkpt>
      <trkpt lat="47.07588" lon="2.36388">
        <ele>149</ele>
        <time>2021-08-23T16:22:43Z</time>
      </trkpt>
      <trkpt lat="47.07587" lon="2.36337">
        <ele>148</ele>
        <time>2021-08-23T16:22:43Z</time>
      </trkpt>
      <trkpt lat="47.07585" lon="2.36298">
        <ele>150</ele>
        <time>2021-08-23T16:22:43Z</time>
      </trkpt>
      <trkpt lat="47.07585" lon="2.36289">
        <ele>150</ele>
        <time>2021-08-23T16:22:43Z</time>
      </trkpt>
      <trkpt lat="47.07583" lon="2.36241">
        <ele>150</ele>
        <time>2021-08-23T16:22:43Z</time>
      </trkpt>
      <trkpt lat="47.07581" lon="2.36193">
        <ele>150</ele>
        <time>2021-08-23T16:22:43Z</time>
      </trkpt>
      <trkpt lat="47.07578" lon="2.36143">
        <ele>150</ele>
        <time>2021-08-23T16:22:43Z</time>
      </trkpt>
      <trkpt lat="47.07573" lon="2.36094">
        <ele>150</ele>
        <time>2021-08-23T16:22:43Z</time>
      </trkpt>
      <trkpt lat="47.07568" lon="2.36045">
        <ele>151</ele>
        <time>2021-08-23T16:22:43Z</time>
      </trkpt>
      <trkpt lat="47.07564" lon="2.36007">
        <ele>152</ele>
        <time>2021-08-23T16:22:43Z</time>
      </trkpt>
      <trkpt lat="47.07564" lon="2.35997">
        <ele>152</ele>
        <time>2021-08-23T16:22:43Z</time>
      </trkpt>
      <trkpt lat="47.0756" lon="2.35949">
        <ele>151</ele>
        <time>2021-08-23T16:22:43Z</time>
      </trkpt>
      <trkpt lat="47.07558" lon="2.35898">
        <ele>151</ele>
        <time>2021-08-23T16:22:43Z</time>
      </trkpt>
      <trkpt lat="47.07555" lon="2.35848">
        <ele>149</ele>
        <time>2021-08-23T16:22:43Z</time>
      </trkpt>
      <trkpt lat="47.0755" lon="2.35796">
        <ele>147</ele>
        <time>2021-08-23T16:22:43Z</time>
      </trkpt>
      <trkpt lat="47.07544" lon="2.35745">
        <ele>145</ele>
        <time>2021-08-23T16:22:43Z</time>
      </trkpt>
      <trkpt lat="47.0754" lon="2.357">
        <ele>145</ele>
        <time>2021-08-23T16:22:43Z</time>
      </trkpt>
      <trkpt lat="47.07539" lon="2.35688">
        <ele>145</ele>
        <time>2021-08-23T16:22:43Z</time>
      </trkpt>
      <trkpt lat="47.07535" lon="2.35633">
        <ele>145</ele>
        <time>2021-08-23T16:22:43Z</time>
      </trkpt>
      <trkpt lat="47.07533" lon="2.35575">
        <ele>145</ele>
        <time>2021-08-23T16:22:43Z</time>
      </trkpt>
      <trkpt lat="47.07531" lon="2.35519">
        <ele>143</ele>
        <time>2021-08-23T16:22:43Z</time>
      </trkpt>
      <trkpt lat="47.0753" lon="2.35468">
        <ele>142</ele>
        <time>2021-08-23T16:22:43Z</time>
      </trkpt>
      <trkpt lat="47.0754" lon="2.35421">
        <ele>140</ele>
        <time>2021-08-23T16:22:43Z</time>
      </trkpt>
      <trkpt lat="47.07543" lon="2.35382">
        <ele>138</ele>
        <time>2021-08-23T16:22:43Z</time>
      </trkpt>
      <trkpt lat="47.07539" lon="2.35373">
        <ele>138</ele>
        <time>2021-08-23T16:22:43Z</time>
      </trkpt>
      <trkpt lat="47.07534" lon="2.35365">
        <ele>138</ele>
        <time>2021-08-23T16:22:43Z</time>
      </trkpt>
      <trkpt lat="47.07528" lon="2.35358">
        <ele>138</ele>
        <time>2021-08-23T16:22:43Z</time>
      </trkpt>
      <trkpt lat="47.07526" lon="2.35348">
        <ele>138</ele>
        <time>2021-08-23T16:22:43Z</time>
      </trkpt>
      <trkpt lat="47.07524" lon="2.35337">
        <ele>138</ele>
        <time>2021-08-23T16:22:43Z</time>
      </trkpt>
      <trkpt lat="47.07524" lon="2.35325">
        <ele>137</ele>
        <time>2021-08-23T16:22:43Z</time>
      </trkpt>
      <trkpt lat="47.07524" lon="2.35314">
        <ele>137</ele>
        <time>2021-08-23T16:22:43Z</time>
      </trkpt>
      <trkpt lat="47.07524" lon="2.35302">
        <ele>137</ele>
        <time>2021-08-23T16:22:43Z</time>
      </trkpt>
      <trkpt lat="47.07524" lon="2.35291">
        <ele>138</ele>
        <time>2021-08-23T16:22:43Z</time>
      </trkpt>
      <trkpt lat="47.07524" lon="2.3528">
        <ele>138</ele>
        <time>2021-08-23T16:22:43Z</time>
      </trkpt>
      <trkpt lat="47.07525" lon="2.35268">
        <ele>138</ele>
        <time>2021-08-23T16:22:43Z</time>
      </trkpt>
      <trkpt lat="47.07525" lon="2.35256">
        <ele>138</ele>
        <time>2021-08-23T16:22:43Z</time>
      </trkpt>
      <trkpt lat="47.07525" lon="2.35244">
        <ele>138</ele>
        <time>2021-08-23T16:22:43Z</time>
      </trkpt>
      <trkpt lat="47.07526" lon="2.35232">
        <ele>138</ele>
        <time>2021-08-23T16:22:43Z</time>
      </trkpt>
      <trkpt lat="47.07526" lon="2.35219">
        <ele>138</ele>
        <time>2021-08-23T16:22:43Z</time>
      </trkpt>
      <trkpt lat="47.07526" lon="2.35206">
        <ele>137</ele>
        <time>2021-08-23T16:22:43Z</time>
      </trkpt>
      <trkpt lat="47.07527" lon="2.35194">
        <ele>136</ele>
        <time>2021-08-23T16:22:43Z</time>
      </trkpt>
      <trkpt lat="47.07527" lon="2.35181">
        <ele>136</ele>
        <time>2021-08-23T16:22:43Z</time>
      </trkpt>
      <trkpt lat="47.07528" lon="2.35169">
        <ele>136</ele>
        <time>2021-08-23T16:22:43Z</time>
      </trkpt>
      <trkpt lat="47.07528" lon="2.35156">
        <ele>137</ele>
        <time>2021-08-23T16:22:43Z</time>
      </trkpt>
      <trkpt lat="47.07528" lon="2.35143">
        <ele>137</ele>
        <time>2021-08-23T16:22:43Z</time>
      </trkpt>
      <trkpt lat="47.07529" lon="2.3513">
        <ele>136</ele>
        <time>2021-08-23T16:22:43Z</time>
      </trkpt>
      <trkpt lat="47.07529" lon="2.35117">
        <ele>136</ele>
        <time>2021-08-23T16:22:43Z</time>
      </trkpt>
      <trkpt lat="47.07529" lon="2.35104">
        <ele>135</ele>
        <time>2021-08-23T16:22:43Z</time>
      </trkpt>
      <trkpt lat="47.0753" lon="2.3509">
        <ele>135</ele>
        <time>2021-08-23T16:22:43Z</time>
      </trkpt>
      <trkpt lat="47.07529" lon="2.35077">
        <ele>134</ele>
        <time>2021-08-23T16:22:43Z</time>
      </trkpt>
      <trkpt lat="47.07529" lon="2.35063">
        <ele>133</ele>
        <time>2021-08-23T16:22:43Z</time>
      </trkpt>
      <trkpt lat="47.07529" lon="2.3505">
        <ele>132</ele>
        <time>2021-08-23T16:22:43Z</time>
      </trkpt>
      <trkpt lat="47.07528" lon="2.35035">
        <ele>132</ele>
        <time>2021-08-23T16:22:43Z</time>
      </trkpt>
      <trkpt lat="47.07526" lon="2.35022">
        <ele>131</ele>
        <time>2021-08-23T16:22:43Z</time>
      </trkpt>
      <trkpt lat="47.07525" lon="2.35008">
        <ele>130</ele>
        <time>2021-08-23T16:22:43Z</time>
      </trkpt>
      <trkpt lat="47.07523" lon="2.34995">
        <ele>129</ele>
        <time>2021-08-23T16:22:43Z</time>
      </trkpt>
      <trkpt lat="47.07521" lon="2.34982">
        <ele>127</ele>
        <time>2021-08-23T16:22:43Z</time>
      </trkpt>
      <trkpt lat="47.07519" lon="2.34968">
        <ele>126</ele>
        <time>2021-08-23T16:22:43Z</time>
      </trkpt>
      <trkpt lat="47.07517" lon="2.34955">
        <ele>125</ele>
        <time>2021-08-23T16:22:43Z</time>
      </trkpt>
      <trkpt lat="47.07515" lon="2.34941">
        <ele>125</ele>
        <time>2021-08-23T16:22:43Z</time>
      </trkpt>
      <trkpt lat="47.07512" lon="2.34928">
        <ele>125</ele>
        <time>2021-08-23T16:22:43Z</time>
      </trkpt>
      <trkpt lat="47.07509" lon="2.34915">
        <ele>125</ele>
        <time>2021-08-23T16:22:43Z</time>
      </trkpt>
      <trkpt lat="47.07506" lon="2.34902">
        <ele>126</ele>
        <time>2021-08-23T16:22:43Z</time>
      </trkpt>
      <trkpt lat="47.07503" lon="2.3489">
        <ele>126</ele>
        <time>2021-08-23T16:22:43Z</time>
      </trkpt>
      <trkpt lat="47.075" lon="2.34878">
        <ele>127</ele>
        <time>2021-08-23T16:22:43Z</time>
      </trkpt>
      <trkpt lat="47.07497" lon="2.34867">
        <ele>128</ele>
        <time>2021-08-23T16:22:43Z</time>
      </trkpt>
      <trkpt lat="47.07494" lon="2.34855">
        <ele>128</ele>
        <time>2021-08-23T16:22:43Z</time>
      </trkpt>
      <trkpt lat="47.07491" lon="2.34844">
        <ele>128</ele>
        <time>2021-08-23T16:22:43Z</time>
      </trkpt>
      <trkpt lat="47.07487" lon="2.34834">
        <ele>129</ele>
        <time>2021-08-23T16:22:43Z</time>
      </trkpt>
      <trkpt lat="47.07483" lon="2.34823">
        <ele>129</ele>
        <time>2021-08-23T16:22:43Z</time>
      </trkpt>
      <trkpt lat="47.0748" lon="2.34813">
        <ele>129</ele>
        <time>2021-08-23T16:22:43Z</time>
      </trkpt>
      <trkpt lat="47.07476" lon="2.34804">
        <ele>129</ele>
        <time>2021-08-23T16:22:43Z</time>
      </trkpt>
      <trkpt lat="47.07472" lon="2.34794">
        <ele>129</ele>
        <time>2021-08-23T16:22:43Z</time>
      </trkpt>
      <trkpt lat="47.07469" lon="2.34785">
        <ele>130</ele>
        <time>2021-08-23T16:22:43Z</time>
      </trkpt>
      <trkpt lat="47.07465" lon="2.34776">
        <ele>129</ele>
        <time>2021-08-23T16:22:43Z</time>
      </trkpt>
      <trkpt lat="47.07462" lon="2.34767">
        <ele>129</ele>
        <time>2021-08-23T16:22:43Z</time>
      </trkpt>
      <trkpt lat="47.07458" lon="2.34759">
        <ele>129</ele>
        <time>2021-08-23T16:22:43Z</time>
      </trkpt>
      <trkpt lat="47.07454" lon="2.34751">
        <ele>129</ele>
        <time>2021-08-23T16:22:43Z</time>
      </trkpt>
      <trkpt lat="47.0745" lon="2.34743">
        <ele>129</ele>
        <time>2021-08-23T16:22:43Z</time>
      </trkpt>
      <trkpt lat="47.07446" lon="2.34735">
        <ele>129</ele>
        <time>2021-08-23T16:22:43Z</time>
      </trkpt>
      <trkpt lat="47.07442" lon="2.34727">
        <ele>129</ele>
        <time>2021-08-23T16:22:43Z</time>
      </trkpt>
      <trkpt lat="47.07438" lon="2.34718">
        <ele>129</ele>
        <time>2021-08-23T16:22:43Z</time>
      </trkpt>
      <trkpt lat="47.07434" lon="2.3471">
        <ele>129</ele>
        <time>2021-08-23T16:22:43Z</time>
      </trkpt>
      <trkpt lat="47.07431" lon="2.34702">
        <ele>129</ele>
        <time>2021-08-23T16:22:43Z</time>
      </trkpt>
      <trkpt lat="47.07428" lon="2.34694">
        <ele>129</ele>
        <time>2021-08-23T16:22:43Z</time>
      </trkpt>
      <trkpt lat="47.07424" lon="2.34687">
        <ele>129</ele>
        <time>2021-08-23T16:22:43Z</time>
      </trkpt>
      <trkpt lat="47.07411" lon="2.34646">
        <ele>130</ele>
        <time>2021-08-23T16:22:43Z</time>
      </trkpt>
      <trkpt lat="47.07399" lon="2.34602">
        <ele>132</ele>
        <time>2021-08-23T16:22:43Z</time>
      </trkpt>
      <trkpt lat="47.07388" lon="2.3456">
        <ele>132</ele>
        <time>2021-08-23T16:22:43Z</time>
      </trkpt>
      <trkpt lat="47.07378" lon="2.34519">
        <ele>135</ele>
        <time>2021-08-23T16:22:43Z</time>
      </trkpt>
      <trkpt lat="47.0737" lon="2.34476">
        <ele>136</ele>
        <time>2021-08-23T16:22:43Z</time>
      </trkpt>
      <trkpt lat="47.07362" lon="2.34441">
        <ele>138</ele>
        <time>2021-08-23T16:22:43Z</time>
      </trkpt>
      <trkpt lat="47.0736" lon="2.34434">
        <ele>138</ele>
        <time>2021-08-23T16:22:43Z</time>
      </trkpt>
      <trkpt lat="47.07346" lon="2.34392">
        <ele>139</ele>
        <time>2021-08-23T16:22:43Z</time>
      </trkpt>
      <trkpt lat="47.07332" lon="2.34351">
        <ele>140</ele>
        <time>2021-08-23T16:22:43Z</time>
      </trkpt>
      <trkpt lat="47.07318" lon="2.34309">
        <ele>141</ele>
        <time>2021-08-23T16:22:43Z</time>
      </trkpt>
      <trkpt lat="47.07304" lon="2.34269">
        <ele>141</ele>
        <time>2021-08-23T16:22:43Z</time>
      </trkpt>
      <trkpt lat="47.07291" lon="2.3423">
        <ele>140</ele>
        <time>2021-08-23T16:22:43Z</time>
      </trkpt>
      <trkpt lat="47.07283" lon="2.34197">
        <ele>140</ele>
        <time>2021-08-23T16:22:43Z</time>
      </trkpt>
      <trkpt lat="47.07281" lon="2.34189">
        <ele>140</ele>
        <time>2021-08-23T16:22:43Z</time>
      </trkpt>
      <trkpt lat="47.07274" lon="2.34163">
        <ele>139</ele>
        <time>2021-08-23T16:22:43Z</time>
      </trkpt>
      <trkpt lat="47.07272" lon="2.34154">
        <ele>140</ele>
        <time>2021-08-23T16:22:43Z</time>
      </trkpt>
      <trkpt lat="47.0727" lon="2.34145">
        <ele>140</ele>
        <time>2021-08-23T16:22:43Z</time>
      </trkpt>
      <trkpt lat="47.07268" lon="2.34137">
        <ele>141</ele>
        <time>2021-08-23T16:22:43Z</time>
      </trkpt>
      <trkpt lat="47.07266" lon="2.34129">
        <ele>142</ele>
        <time>2021-08-23T16:22:43Z</time>
      </trkpt>
      <trkpt lat="47.07264" lon="2.34121">
        <ele>142</ele>
        <time>2021-08-23T16:22:43Z</time>
      </trkpt>
      <trkpt lat="47.07263" lon="2.34113">
        <ele>143</ele>
        <time>2021-08-23T16:22:43Z</time>
      </trkpt>
      <trkpt lat="47.07261" lon="2.34105">
        <ele>143</ele>
        <time>2021-08-23T16:22:43Z</time>
      </trkpt>
      <trkpt lat="47.07259" lon="2.34097">
        <ele>144</ele>
        <time>2021-08-23T16:22:43Z</time>
      </trkpt>
      <trkpt lat="47.07257" lon="2.34088">
        <ele>144</ele>
        <time>2021-08-23T16:22:43Z</time>
      </trkpt>
      <trkpt lat="47.07255" lon="2.34079">
        <ele>145</ele>
        <time>2021-08-23T16:22:43Z</time>
      </trkpt>
      <trkpt lat="47.07254" lon="2.34071">
        <ele>145</ele>
        <time>2021-08-23T16:22:43Z</time>
      </trkpt>
      <trkpt lat="47.07252" lon="2.34062">
        <ele>145</ele>
        <time>2021-08-23T16:22:43Z</time>
      </trkpt>
      <trkpt lat="47.0725" lon="2.34054">
        <ele>144</ele>
        <time>2021-08-23T16:22:43Z</time>
      </trkpt>
      <trkpt lat="47.07248" lon="2.34045">
        <ele>144</ele>
        <time>2021-08-23T16:22:43Z</time>
      </trkpt>
      <trkpt lat="47.07246" lon="2.34037">
        <ele>144</ele>
        <time>2021-08-23T16:22:43Z</time>
      </trkpt>
      <trkpt lat="47.07244" lon="2.34028">
        <ele>144</ele>
        <time>2021-08-23T16:22:43Z</time>
      </trkpt>
      <trkpt lat="47.07243" lon="2.34019">
        <ele>144</ele>
        <time>2021-08-23T16:22:43Z</time>
      </trkpt>
      <trkpt lat="47.07241" lon="2.3401">
        <ele>144</ele>
        <time>2021-08-23T16:22:43Z</time>
      </trkpt>
      <trkpt lat="47.07239" lon="2.34002">
        <ele>144</ele>
        <time>2021-08-23T16:22:43Z</time>
      </trkpt>
      <trkpt lat="47.07237" lon="2.33994">
        <ele>144</ele>
        <time>2021-08-23T16:22:43Z</time>
      </trkpt>
      <trkpt lat="47.07236" lon="2.33985">
        <ele>144</ele>
        <time>2021-08-23T16:22:43Z</time>
      </trkpt>
      <trkpt lat="47.07233" lon="2.33977">
        <ele>144</ele>
        <time>2021-08-23T16:22:43Z</time>
      </trkpt>
      <trkpt lat="47.07232" lon="2.33968">
        <ele>144</ele>
        <time>2021-08-23T16:22:43Z</time>
      </trkpt>
      <trkpt lat="47.0723" lon="2.33959">
        <ele>145</ele>
        <time>2021-08-23T16:22:43Z</time>
      </trkpt>
      <trkpt lat="47.07228" lon="2.3395">
        <ele>145</ele>
        <time>2021-08-23T16:22:43Z</time>
      </trkpt>
      <trkpt lat="47.07226" lon="2.33942">
        <ele>145</ele>
        <time>2021-08-23T16:22:43Z</time>
      </trkpt>
      <trkpt lat="47.07225" lon="2.33933">
        <ele>146</ele>
        <time>2021-08-23T16:22:43Z</time>
      </trkpt>
      <trkpt lat="47.07223" lon="2.33924">
        <ele>146</ele>
        <time>2021-08-23T16:22:43Z</time>
      </trkpt>
      <trkpt lat="47.07222" lon="2.33916">
        <ele>147</ele>
        <time>2021-08-23T16:22:43Z</time>
      </trkpt>
      <trkpt lat="47.0722" lon="2.33907">
        <ele>147</ele>
        <time>2021-08-23T16:22:43Z</time>
      </trkpt>
      <trkpt lat="47.07219" lon="2.33898">
        <ele>147</ele>
        <time>2021-08-23T16:22:43Z</time>
      </trkpt>
      <trkpt lat="47.07218" lon="2.33889">
        <ele>147</ele>
        <time>2021-08-23T16:22:43Z</time>
      </trkpt>
      <trkpt lat="47.07217" lon="2.3388">
        <ele>148</ele>
        <time>2021-08-23T16:22:43Z</time>
      </trkpt>
      <trkpt lat="47.07215" lon="2.33871">
        <ele>148</ele>
        <time>2021-08-23T16:22:43Z</time>
      </trkpt>
      <trkpt lat="47.07214" lon="2.33862">
        <ele>148</ele>
        <time>2021-08-23T16:22:43Z</time>
      </trkpt>
      <trkpt lat="47.07212" lon="2.33853">
        <ele>148</ele>
        <time>2021-08-23T16:22:43Z</time>
      </trkpt>
      <trkpt lat="47.0721" lon="2.33844">
        <ele>149</ele>
        <time>2021-08-23T16:22:43Z</time>
      </trkpt>
      <trkpt lat="47.07209" lon="2.33835">
        <ele>149</ele>
        <time>2021-08-23T16:22:43Z</time>
      </trkpt>
      <trkpt lat="47.07207" lon="2.33827">
        <ele>149</ele>
        <time>2021-08-23T16:22:43Z</time>
      </trkpt>
      <trkpt lat="47.07206" lon="2.33819">
        <ele>149</ele>
        <time>2021-08-23T16:22:43Z</time>
      </trkpt>
      <trkpt lat="47.07205" lon="2.3381">
        <ele>149</ele>
        <time>2021-08-23T16:22:43Z</time>
      </trkpt>
      <trkpt lat="47.07203" lon="2.33802">
        <ele>149</ele>
        <time>2021-08-23T16:22:43Z</time>
      </trkpt>
      <trkpt lat="47.07201" lon="2.33793">
        <ele>149</ele>
        <time>2021-08-23T16:22:43Z</time>
      </trkpt>
      <trkpt lat="47.07199" lon="2.33785">
        <ele>149</ele>
        <time>2021-08-23T16:22:43Z</time>
      </trkpt>
      <trkpt lat="47.07197" lon="2.33776">
        <ele>150</ele>
        <time>2021-08-23T16:22:43Z</time>
      </trkpt>
      <trkpt lat="47.07196" lon="2.33767">
        <ele>150</ele>
        <time>2021-08-23T16:22:43Z</time>
      </trkpt>
      <trkpt lat="47.07194" lon="2.33758">
        <ele>149</ele>
        <time>2021-08-23T16:22:43Z</time>
      </trkpt>
      <trkpt lat="47.07192" lon="2.33749">
        <ele>149</ele>
        <time>2021-08-23T16:22:43Z</time>
      </trkpt>
      <trkpt lat="47.07191" lon="2.33741">
        <ele>149</ele>
        <time>2021-08-23T16:22:43Z</time>
      </trkpt>
      <trkpt lat="47.07189" lon="2.33732">
        <ele>149</ele>
        <time>2021-08-23T16:22:43Z</time>
      </trkpt>
      <trkpt lat="47.07188" lon="2.33723">
        <ele>149</ele>
        <time>2021-08-23T16:22:43Z</time>
      </trkpt>
      <trkpt lat="47.07186" lon="2.33714">
        <ele>149</ele>
        <time>2021-08-23T16:22:43Z</time>
      </trkpt>
      <trkpt lat="47.07185" lon="2.33705">
        <ele>149</ele>
        <time>2021-08-23T16:22:43Z</time>
      </trkpt>
      <trkpt lat="47.07183" lon="2.33696">
        <ele>149</ele>
        <time>2021-08-23T16:22:43Z</time>
      </trkpt>
      <trkpt lat="47.07182" lon="2.33688">
        <ele>150</ele>
        <time>2021-08-23T16:22:43Z</time>
      </trkpt>
      <trkpt lat="47.0718" lon="2.3368">
        <ele>150</ele>
        <time>2021-08-23T16:22:43Z</time>
      </trkpt>
      <trkpt lat="47.07179" lon="2.33671">
        <ele>150</ele>
        <time>2021-08-23T16:22:43Z</time>
      </trkpt>
      <trkpt lat="47.07177" lon="2.33663">
        <ele>150</ele>
        <time>2021-08-23T16:22:43Z</time>
      </trkpt>
      <trkpt lat="47.07176" lon="2.33654">
        <ele>150</ele>
        <time>2021-08-23T16:22:43Z</time>
      </trkpt>
      <trkpt lat="47.07174" lon="2.33646">
        <ele>150</ele>
        <time>2021-08-23T16:22:43Z</time>
      </trkpt>
      <trkpt lat="47.07167" lon="2.33602">
        <ele>151</ele>
        <time>2021-08-23T16:22:43Z</time>
      </trkpt>
      <trkpt lat="47.07157" lon="2.33559">
        <ele>151</ele>
        <time>2021-08-23T16:22:43Z</time>
      </trkpt>
      <trkpt lat="47.07146" lon="2.33517">
        <ele>151</ele>
        <time>2021-08-23T16:22:43Z</time>
      </trkpt>
      <trkpt lat="47.07132" lon="2.33477">
        <ele>151</ele>
        <time>2021-08-23T16:22:43Z</time>
      </trkpt>
      <trkpt lat="47.07115" lon="2.33438">
        <ele>151</ele>
        <time>2021-08-23T16:22:43Z</time>
      </trkpt>
      <trkpt lat="47.07101" lon="2.33408">
        <ele>151</ele>
        <time>2021-08-23T16:22:43Z</time>
      </trkpt>
      <trkpt lat="47.07097" lon="2.33401">
        <ele>151</ele>
        <time>2021-08-23T16:22:43Z</time>
      </trkpt>
      <trkpt lat="47.07078" lon="2.33363">
        <ele>150</ele>
        <time>2021-08-23T16:22:43Z</time>
      </trkpt>
      <trkpt lat="47.07057" lon="2.33325">
        <ele>150</ele>
        <time>2021-08-23T16:22:43Z</time>
      </trkpt>
      <trkpt lat="47.07032" lon="2.33289">
        <ele>150</ele>
        <time>2021-08-23T16:22:43Z</time>
      </trkpt>
      <trkpt lat="47.07021" lon="2.33273">
        <ele>150</ele>
        <time>2021-08-23T16:22:43Z</time>
      </trkpt>
      <trkpt lat="47.07015" lon="2.33265">
        <ele>149</ele>
        <time>2021-08-23T16:22:43Z</time>
      </trkpt>
      <trkpt lat="47.0701" lon="2.33257">
        <ele>149</ele>
        <time>2021-08-23T16:22:43Z</time>
      </trkpt>
      <trkpt lat="47.07005" lon="2.3325">
        <ele>149</ele>
        <time>2021-08-23T16:22:43Z</time>
      </trkpt>
      <trkpt lat="47.06999" lon="2.33243">
        <ele>150</ele>
        <time>2021-08-23T16:22:43Z</time>
      </trkpt>
      <trkpt lat="47.06994" lon="2.33235">
        <ele>150</ele>
        <time>2021-08-23T16:22:43Z</time>
      </trkpt>
      <trkpt lat="47.06989" lon="2.33228">
        <ele>150</ele>
        <time>2021-08-23T16:22:43Z</time>
      </trkpt>
      <trkpt lat="47.06984" lon="2.3322">
        <ele>150</ele>
        <time>2021-08-23T16:22:43Z</time>
      </trkpt>
      <trkpt lat="47.06958" lon="2.33185">
        <ele>148</ele>
        <time>2021-08-23T16:22:43Z</time>
      </trkpt>
      <trkpt lat="47.06931" lon="2.33151">
        <ele>147</ele>
        <time>2021-08-23T16:22:43Z</time>
      </trkpt>
      <trkpt lat="47.06905" lon="2.33118">
        <ele>147</ele>
        <time>2021-08-23T16:22:43Z</time>
      </trkpt>
      <trkpt lat="47.06888" lon="2.33081">
        <ele>147</ele>
        <time>2021-08-23T16:22:43Z</time>
      </trkpt>
      <trkpt lat="47.06856" lon="2.33068">
        <ele>147</ele>
        <time>2021-08-23T16:22:43Z</time>
      </trkpt>
      <trkpt lat="47.06831" lon="2.33045">
        <ele>146</ele>
        <time>2021-08-23T16:22:43Z</time>
      </trkpt>
      <trkpt lat="47.06825" lon="2.33038">
        <ele>145</ele>
        <time>2021-08-23T16:22:43Z</time>
      </trkpt>
      <trkpt lat="47.06812" lon="2.33023">
        <ele>144</ele>
        <time>2021-08-23T16:22:43Z</time>
      </trkpt>
      <trkpt lat="47.06805" lon="2.33015">
        <ele>144</ele>
        <time>2021-08-23T16:22:43Z</time>
      </trkpt>
      <trkpt lat="47.06798" lon="2.33007">
        <ele>144</ele>
        <time>2021-08-23T16:22:43Z</time>
      </trkpt>
      <trkpt lat="47.06792" lon="2.32999">
        <ele>144</ele>
        <time>2021-08-23T16:22:43Z</time>
      </trkpt>
      <trkpt lat="47.06786" lon="2.3299">
        <ele>144</ele>
        <time>2021-08-23T16:22:43Z</time>
      </trkpt>
      <trkpt lat="47.0678" lon="2.32981">
        <ele>145</ele>
        <time>2021-08-23T16:22:43Z</time>
      </trkpt>
      <trkpt lat="47.06774" lon="2.32973">
        <ele>146</ele>
        <time>2021-08-23T16:22:43Z</time>
      </trkpt>
      <trkpt lat="47.06769" lon="2.32965">
        <ele>146</ele>
        <time>2021-08-23T16:22:43Z</time>
      </trkpt>
      <trkpt lat="47.06763" lon="2.32956">
        <ele>146</ele>
        <time>2021-08-23T16:22:43Z</time>
      </trkpt>
      <trkpt lat="47.06758" lon="2.32948">
        <ele>146</ele>
        <time>2021-08-23T16:22:43Z</time>
      </trkpt>
      <trkpt lat="47.06752" lon="2.3294">
        <ele>146</ele>
        <time>2021-08-23T16:22:43Z</time>
      </trkpt>
      <trkpt lat="47.06747" lon="2.32932">
        <ele>146</ele>
        <time>2021-08-23T16:22:43Z</time>
      </trkpt>
      <trkpt lat="47.06742" lon="2.32924">
        <ele>145</ele>
        <time>2021-08-23T16:22:43Z</time>
      </trkpt>
      <trkpt lat="47.06736" lon="2.32916">
        <ele>145</ele>
        <time>2021-08-23T16:22:43Z</time>
      </trkpt>
      <trkpt lat="47.06731" lon="2.32908">
        <ele>145</ele>
        <time>2021-08-23T16:22:43Z</time>
      </trkpt>
      <trkpt lat="47.06726" lon="2.32901">
        <ele>144</ele>
        <time>2021-08-23T16:22:43Z</time>
      </trkpt>
      <trkpt lat="47.06721" lon="2.32893">
        <ele>144</ele>
        <time>2021-08-23T16:22:43Z</time>
      </trkpt>
      <trkpt lat="47.06717" lon="2.32886">
        <ele>143</ele>
        <time>2021-08-23T16:22:43Z</time>
      </trkpt>
      <trkpt lat="47.06711" lon="2.32879">
        <ele>143</ele>
        <time>2021-08-23T16:22:43Z</time>
      </trkpt>
      <trkpt lat="47.06706" lon="2.32872">
        <ele>143</ele>
        <time>2021-08-23T16:22:43Z</time>
      </trkpt>
      <trkpt lat="47.06701" lon="2.32863">
        <ele>143</ele>
        <time>2021-08-23T16:22:43Z</time>
      </trkpt>
      <trkpt lat="47.06696" lon="2.32855">
        <ele>142</ele>
        <time>2021-08-23T16:22:43Z</time>
      </trkpt>
      <trkpt lat="47.06691" lon="2.32847">
        <ele>142</ele>
        <time>2021-08-23T16:22:43Z</time>
      </trkpt>
      <trkpt lat="47.06685" lon="2.32839">
        <ele>142</ele>
        <time>2021-08-23T16:22:43Z</time>
      </trkpt>
      <trkpt lat="47.06679" lon="2.32832">
        <ele>142</ele>
        <time>2021-08-23T16:22:43Z</time>
      </trkpt>
      <trkpt lat="47.06674" lon="2.32823">
        <ele>142</ele>
        <time>2021-08-23T16:22:43Z</time>
      </trkpt>
      <trkpt lat="47.06669" lon="2.32815">
        <ele>142</ele>
        <time>2021-08-23T16:22:43Z</time>
      </trkpt>
      <trkpt lat="47.06663" lon="2.32806">
        <ele>142</ele>
        <time>2021-08-23T16:22:43Z</time>
      </trkpt>
      <trkpt lat="47.06658" lon="2.32798">
        <ele>142</ele>
        <time>2021-08-23T16:22:43Z</time>
      </trkpt>
      <trkpt lat="47.06652" lon="2.32791">
        <ele>141</ele>
        <time>2021-08-23T16:22:43Z</time>
      </trkpt>
      <trkpt lat="47.06647" lon="2.32783">
        <ele>141</ele>
        <time>2021-08-23T16:22:43Z</time>
      </trkpt>
      <trkpt lat="47.06643" lon="2.32775">
        <ele>141</ele>
        <time>2021-08-23T16:22:43Z</time>
      </trkpt>
      <trkpt lat="47.06638" lon="2.32767">
        <ele>142</ele>
        <time>2021-08-23T16:22:43Z</time>
      </trkpt>
      <trkpt lat="47.06634" lon="2.3276">
        <ele>142</ele>
        <time>2021-08-23T16:22:43Z</time>
      </trkpt>
      <trkpt lat="47.0663" lon="2.32751">
        <ele>142</ele>
        <time>2021-08-23T16:22:43Z</time>
      </trkpt>
      <trkpt lat="47.06626" lon="2.32743">
        <ele>142</ele>
        <time>2021-08-23T16:22:43Z</time>
      </trkpt>
      <trkpt lat="47.06622" lon="2.32735">
        <ele>142</ele>
        <time>2021-08-23T16:22:43Z</time>
      </trkpt>
      <trkpt lat="47.06618" lon="2.32726">
        <ele>141</ele>
        <time>2021-08-23T16:22:43Z</time>
      </trkpt>
      <trkpt lat="47.06615" lon="2.32718">
        <ele>141</ele>
        <time>2021-08-23T16:22:43Z</time>
      </trkpt>
      <trkpt lat="47.06612" lon="2.32709">
        <ele>141</ele>
        <time>2021-08-23T16:22:43Z</time>
      </trkpt>
      <trkpt lat="47.0661" lon="2.327">
        <ele>141</ele>
        <time>2021-08-23T16:22:43Z</time>
      </trkpt>
      <trkpt lat="47.06607" lon="2.32692">
        <ele>140</ele>
        <time>2021-08-23T16:22:43Z</time>
      </trkpt>
      <trkpt lat="47.06604" lon="2.32682">
        <ele>140</ele>
        <time>2021-08-23T16:22:43Z</time>
      </trkpt>
      <trkpt lat="47.06602" lon="2.32673">
        <ele>139</ele>
        <time>2021-08-23T16:22:43Z</time>
      </trkpt>
      <trkpt lat="47.06598" lon="2.32664">
        <ele>138</ele>
        <time>2021-08-23T16:22:43Z</time>
      </trkpt>
      <trkpt lat="47.06596" lon="2.32655">
        <ele>138</ele>
        <time>2021-08-23T16:22:43Z</time>
      </trkpt>
      <trkpt lat="47.06593" lon="2.32645">
        <ele>138</ele>
        <time>2021-08-23T16:22:43Z</time>
      </trkpt>
      <trkpt lat="47.06591" lon="2.32636">
        <ele>138</ele>
        <time>2021-08-23T16:22:43Z</time>
      </trkpt>
      <trkpt lat="47.06588" lon="2.32626">
        <ele>138</ele>
        <time>2021-08-23T16:22:43Z</time>
      </trkpt>
      <trkpt lat="47.06586" lon="2.32616">
        <ele>138</ele>
        <time>2021-08-23T16:22:43Z</time>
      </trkpt>
      <trkpt lat="47.06583" lon="2.32607">
        <ele>139</ele>
        <time>2021-08-23T16:22:43Z</time>
      </trkpt>
      <trkpt lat="47.0658" lon="2.32597">
        <ele>139</ele>
        <time>2021-08-23T16:22:43Z</time>
      </trkpt>
      <trkpt lat="47.06578" lon="2.32587">
        <ele>140</ele>
        <time>2021-08-23T16:22:43Z</time>
      </trkpt>
      <trkpt lat="47.06576" lon="2.32578">
        <ele>140</ele>
        <time>2021-08-23T16:22:43Z</time>
      </trkpt>
      <trkpt lat="47.06573" lon="2.32569">
        <ele>140</ele>
        <time>2021-08-23T16:22:43Z</time>
      </trkpt>
      <trkpt lat="47.06571" lon="2.3256">
        <ele>140</ele>
        <time>2021-08-23T16:22:43Z</time>
      </trkpt>
      <trkpt lat="47.06569" lon="2.32551">
        <ele>141</ele>
        <time>2021-08-23T16:22:43Z</time>
      </trkpt>
      <trkpt lat="47.06566" lon="2.32542">
        <ele>141</ele>
        <time>2021-08-23T16:22:43Z</time>
      </trkpt>
      <trkpt lat="47.06564" lon="2.32534">
        <ele>141</ele>
        <time>2021-08-23T16:22:43Z</time>
      </trkpt>
      <trkpt lat="47.06562" lon="2.32526">
        <ele>141</ele>
        <time>2021-08-23T16:22:43Z</time>
      </trkpt>
      <trkpt lat="47.06559" lon="2.32517">
        <ele>141</ele>
        <time>2021-08-23T16:22:43Z</time>
      </trkpt>
      <trkpt lat="47.06549" lon="2.3247">
        <ele>140</ele>
        <time>2021-08-23T16:22:43Z</time>
      </trkpt>
      <trkpt lat="47.06537" lon="2.3242">
        <ele>139</ele>
        <time>2021-08-23T16:22:43Z</time>
      </trkpt>
      <trkpt lat="47.06518" lon="2.32375">
        <ele>139</ele>
        <time>2021-08-23T16:22:43Z</time>
      </trkpt>
      <trkpt lat="47.06496" lon="2.3234">
        <ele>140</ele>
        <time>2021-08-23T16:22:43Z</time>
      </trkpt>
      <trkpt lat="47.06479" lon="2.32309">
        <ele>141</ele>
        <time>2021-08-23T16:22:43Z</time>
      </trkpt>
      <trkpt lat="47.06465" lon="2.32283">
        <ele>142</ele>
        <time>2021-08-23T16:22:43Z</time>
      </trkpt>
      <trkpt lat="47.06462" lon="2.32277">
        <ele>143</ele>
        <time>2021-08-23T16:22:43Z</time>
      </trkpt>
      <trkpt lat="47.06452" lon="2.32243">
        <ele>145</ele>
        <time>2021-08-23T16:22:43Z</time>
      </trkpt>
      <trkpt lat="47.06444" lon="2.32209">
        <ele>146</ele>
        <time>2021-08-23T16:22:43Z</time>
      </trkpt>
      <trkpt lat="47.06435" lon="2.32175">
        <ele>145</ele>
        <time>2021-08-23T16:22:43Z</time>
      </trkpt>
      <trkpt lat="47.06426" lon="2.32144">
        <ele>144</ele>
        <time>2021-08-23T16:22:43Z</time>
      </trkpt>
      <trkpt lat="47.06419" lon="2.32127">
        <ele>144</ele>
        <time>2021-08-23T16:22:43Z</time>
      </trkpt>
      <trkpt lat="47.06418" lon="2.32127">
        <ele>144</ele>
        <time>2021-08-23T16:22:43Z</time>
      </trkpt>
      <trkpt lat="47.06418" lon="2.32127">
        <ele>144</ele>
        <time>2021-08-23T16:22:43Z</time>
      </trkpt>
      <trkpt lat="47.06418" lon="2.32127">
        <ele>144</ele>
        <time>2021-08-23T16:22:43Z</time>
      </trkpt>
      <trkpt lat="47.06418" lon="2.32126">
        <ele>144</ele>
        <time>2021-08-23T16:22:43Z</time>
      </trkpt>
      <trkpt lat="47.06417" lon="2.32123">
        <ele>145</ele>
        <time>2021-08-23T16:22:43Z</time>
      </trkpt>
      <trkpt lat="47.06415" lon="2.32121">
        <ele>145</ele>
        <time>2021-08-23T16:22:43Z</time>
      </trkpt>
      <trkpt lat="47.06413" lon="2.32117">
        <ele>145</ele>
        <time>2021-08-23T16:22:43Z</time>
      </trkpt>
      <trkpt lat="47.06409" lon="2.32115">
        <ele>145</ele>
        <time>2021-08-23T16:22:43Z</time>
      </trkpt>
      <trkpt lat="47.06406" lon="2.32115">
        <ele>145</ele>
        <time>2021-08-23T16:22:43Z</time>
      </trkpt>
      <trkpt lat="47.06402" lon="2.32114">
        <ele>145</ele>
        <time>2021-08-23T16:22:43Z</time>
      </trkpt>
      <trkpt lat="47.06398" lon="2.32112">
        <ele>145</ele>
        <time>2021-08-23T16:22:43Z</time>
      </trkpt>
      <trkpt lat="47.06394" lon="2.3211">
        <ele>145</ele>
        <time>2021-08-23T16:22:43Z</time>
      </trkpt>
      <trkpt lat="47.06391" lon="2.32106">
        <ele>145</ele>
        <time>2021-08-23T16:22:43Z</time>
      </trkpt>
      <trkpt lat="47.06387" lon="2.32102">
        <ele>145</ele>
        <time>2021-08-23T16:22:43Z</time>
      </trkpt>
      <trkpt lat="47.06383" lon="2.32099">
        <ele>145</ele>
        <time>2021-08-23T16:22:43Z</time>
      </trkpt>
      <trkpt lat="47.06378" lon="2.32095">
        <ele>146</ele>
        <time>2021-08-23T16:22:43Z</time>
      </trkpt>
      <trkpt lat="47.06374" lon="2.32091">
        <ele>146</ele>
        <time>2021-08-23T16:22:43Z</time>
      </trkpt>
      <trkpt lat="47.0637" lon="2.32087">
        <ele>146</ele>
        <time>2021-08-23T16:22:43Z</time>
      </trkpt>
      <trkpt lat="47.06365" lon="2.32083">
        <ele>146</ele>
        <time>2021-08-23T16:22:43Z</time>
      </trkpt>
      <trkpt lat="47.06361" lon="2.3208">
        <ele>146</ele>
        <time>2021-08-23T16:22:43Z</time>
      </trkpt>
      <trkpt lat="47.06356" lon="2.32076">
        <ele>146</ele>
        <time>2021-08-23T16:22:43Z</time>
      </trkpt>
      <trkpt lat="47.06352" lon="2.32072">
        <ele>146</ele>
        <time>2021-08-23T16:22:43Z</time>
      </trkpt>
      <trkpt lat="47.06347" lon="2.32068">
        <ele>146</ele>
        <time>2021-08-23T16:22:43Z</time>
      </trkpt>
      <trkpt lat="47.06343" lon="2.32064">
        <ele>146</ele>
        <time>2021-08-23T16:22:43Z</time>
      </trkpt>
      <trkpt lat="47.06338" lon="2.3206">
        <ele>147</ele>
        <time>2021-08-23T16:22:43Z</time>
      </trkpt>
      <trkpt lat="47.06333" lon="2.32057">
        <ele>147</ele>
        <time>2021-08-23T16:22:43Z</time>
      </trkpt>
      <trkpt lat="47.06327" lon="2.32054">
        <ele>146</ele>
        <time>2021-08-23T16:22:43Z</time>
      </trkpt>
      <trkpt lat="47.06323" lon="2.3205">
        <ele>146</ele>
        <time>2021-08-23T16:22:43Z</time>
      </trkpt>
      <trkpt lat="47.06317" lon="2.32047">
        <ele>146</ele>
        <time>2021-08-23T16:22:43Z</time>
      </trkpt>
      <trkpt lat="47.06313" lon="2.32042">
        <ele>145</ele>
        <time>2021-08-23T16:22:43Z</time>
      </trkpt>
      <trkpt lat="47.06309" lon="2.32036">
        <ele>145</ele>
        <time>2021-08-23T16:22:43Z</time>
      </trkpt>
      <trkpt lat="47.06307" lon="2.32028">
        <ele>145</ele>
        <time>2021-08-23T16:22:43Z</time>
      </trkpt>
      <trkpt lat="47.06304" lon="2.32021">
        <ele>145</ele>
        <time>2021-08-23T16:22:43Z</time>
      </trkpt>
      <trkpt lat="47.06303" lon="2.32012">
        <ele>145</ele>
        <time>2021-08-23T16:22:43Z</time>
      </trkpt>
      <trkpt lat="47.06301" lon="2.32004">
        <ele>145</ele>
        <time>2021-08-23T16:22:43Z</time>
      </trkpt>
      <trkpt lat="47.06299" lon="2.31996">
        <ele>146</ele>
        <time>2021-08-23T16:22:43Z</time>
      </trkpt>
      <trkpt lat="47.06298" lon="2.31987">
        <ele>146</ele>
        <time>2021-08-23T16:22:43Z</time>
      </trkpt>
      <trkpt lat="47.06297" lon="2.31978">
        <ele>146</ele>
        <time>2021-08-23T16:22:43Z</time>
      </trkpt>
      <trkpt lat="47.06295" lon="2.31968">
        <ele>146</ele>
        <time>2021-08-23T16:22:43Z</time>
      </trkpt>
      <trkpt lat="47.06294" lon="2.3196">
        <ele>146</ele>
        <time>2021-08-23T16:22:43Z</time>
      </trkpt>
      <trkpt lat="47.06293" lon="2.3195">
        <ele>146</ele>
        <time>2021-08-23T16:22:43Z</time>
      </trkpt>
      <trkpt lat="47.06291" lon="2.31941">
        <ele>146</ele>
        <time>2021-08-23T16:22:43Z</time>
      </trkpt>
      <trkpt lat="47.06288" lon="2.31932">
        <ele>146</ele>
        <time>2021-08-23T16:22:43Z</time>
      </trkpt>
      <trkpt lat="47.06286" lon="2.31922">
        <ele>146</ele>
        <time>2021-08-23T16:22:43Z</time>
      </trkpt>
      <trkpt lat="47.06284" lon="2.31913">
        <ele>146</ele>
        <time>2021-08-23T16:22:43Z</time>
      </trkpt>
      <trkpt lat="47.06282" lon="2.31903">
        <ele>146</ele>
        <time>2021-08-23T16:22:43Z</time>
      </trkpt>
      <trkpt lat="47.06279" lon="2.31893">
        <ele>146</ele>
        <time>2021-08-23T16:22:43Z</time>
      </trkpt>
      <trkpt lat="47.06277" lon="2.31883">
        <ele>145</ele>
        <time>2021-08-23T16:22:43Z</time>
      </trkpt>
      <trkpt lat="47.06275" lon="2.31874">
        <ele>145</ele>
        <time>2021-08-23T16:22:43Z</time>
      </trkpt>
      <trkpt lat="47.06274" lon="2.31864">
        <ele>145</ele>
        <time>2021-08-23T16:22:43Z</time>
      </trkpt>
      <trkpt lat="47.06272" lon="2.31855">
        <ele>145</ele>
        <time>2021-08-23T16:22:43Z</time>
      </trkpt>
      <trkpt lat="47.0627" lon="2.31845">
        <ele>145</ele>
        <time>2021-08-23T16:22:43Z</time>
      </trkpt>
      <trkpt lat="47.06267" lon="2.31837">
        <ele>145</ele>
        <time>2021-08-23T16:22:43Z</time>
      </trkpt>
      <trkpt lat="47.06264" lon="2.3183">
        <ele>145</ele>
        <time>2021-08-23T16:22:43Z</time>
      </trkpt>
      <trkpt lat="47.0626" lon="2.31824">
        <ele>145</ele>
        <time>2021-08-23T16:22:43Z</time>
      </trkpt>
      <trkpt lat="47.06254" lon="2.31822">
        <ele>145</ele>
        <time>2021-08-23T16:22:43Z</time>
      </trkpt>
      <trkpt lat="47.06248" lon="2.31821">
        <ele>145</ele>
        <time>2021-08-23T16:22:43Z</time>
      </trkpt>
      <trkpt lat="47.06242" lon="2.3182">
        <ele>145</ele>
        <time>2021-08-23T16:22:43Z</time>
      </trkpt>
      <trkpt lat="47.06236" lon="2.31819">
        <ele>145</ele>
        <time>2021-08-23T16:22:43Z</time>
      </trkpt>
      <trkpt lat="47.0623" lon="2.31818">
        <ele>145</ele>
        <time>2021-08-23T16:22:43Z</time>
      </trkpt>
      <trkpt lat="47.06223" lon="2.31818">
        <ele>145</ele>
        <time>2021-08-23T16:22:43Z</time>
      </trkpt>
      <trkpt lat="47.06217" lon="2.31816">
        <ele>144</ele>
        <time>2021-08-23T16:22:43Z</time>
      </trkpt>
      <trkpt lat="47.06211" lon="2.31816">
        <ele>144</ele>
        <time>2021-08-23T16:22:43Z</time>
      </trkpt>
      <trkpt lat="47.06179" lon="2.31802">
        <ele>144</ele>
        <time>2021-08-23T16:22:43Z</time>
      </trkpt>
      <trkpt lat="47.06163" lon="2.31755">
        <ele>143</ele>
        <time>2021-08-23T16:22:43Z</time>
      </trkpt>
      <trkpt lat="47.0616" lon="2.31703">
        <ele>143</ele>
        <time>2021-08-23T16:22:43Z</time>
      </trkpt>
      <trkpt lat="47.06156" lon="2.31652">
        <ele>144</ele>
        <time>2021-08-23T16:22:43Z</time>
      </trkpt>
      <trkpt lat="47.06152" lon="2.31601">
        <ele>144</ele>
        <time>2021-08-23T16:22:43Z</time>
      </trkpt>
      <trkpt lat="47.06149" lon="2.3156">
        <ele>144</ele>
        <time>2021-08-23T16:22:43Z</time>
      </trkpt>
      <trkpt lat="47.06146" lon="2.31549">
        <ele>143</ele>
        <time>2021-08-23T16:22:43Z</time>
      </trkpt>
      <trkpt lat="47.0613" lon="2.31498">
        <ele>141</ele>
        <time>2021-08-23T16:22:43Z</time>
      </trkpt>
      <trkpt lat="47.06111" lon="2.31453">
        <ele>140</ele>
        <time>2021-08-23T16:22:43Z</time>
      </trkpt>
      <trkpt lat="47.06092" lon="2.31406">
        <ele>141</ele>
        <time>2021-08-23T16:22:43Z</time>
      </trkpt>
      <trkpt lat="47.06065" lon="2.31366">
        <ele>141</ele>
        <time>2021-08-23T16:22:43Z</time>
      </trkpt>
      <trkpt lat="47.0603" lon="2.31348">
        <ele>142</ele>
        <time>2021-08-23T16:22:43Z</time>
      </trkpt>
      <trkpt lat="47.06003" lon="2.31337">
        <ele>143</ele>
        <time>2021-08-23T16:22:43Z</time>
      </trkpt>
      <trkpt lat="47.05997" lon="2.31334">
        <ele>143</ele>
        <time>2021-08-23T16:22:43Z</time>
      </trkpt>
      <trkpt lat="47.05971" lon="2.31323">
        <ele>144</ele>
        <time>2021-08-23T16:22:43Z</time>
      </trkpt>
      <trkpt lat="47.05946" lon="2.31309">
        <ele>144</ele>
        <time>2021-08-23T16:22:43Z</time>
      </trkpt>
      <trkpt lat="47.05917" lon="2.31298">
        <ele>145</ele>
        <time>2021-08-23T16:22:43Z</time>
      </trkpt>
      <trkpt lat="47.05887" lon="2.31285">
        <ele>146</ele>
        <time>2021-08-23T16:22:43Z</time>
      </trkpt>
      <trkpt lat="47.05856" lon="2.31271">
        <ele>146</ele>
        <time>2021-08-23T16:22:43Z</time>
      </trkpt>
      <trkpt lat="47.05832" lon="2.31261">
        <ele>146</ele>
        <time>2021-08-23T16:22:43Z</time>
      </trkpt>
      <trkpt lat="47.05827" lon="2.31258">
        <ele>146</ele>
        <time>2021-08-23T16:22:43Z</time>
      </trkpt>
      <trkpt lat="47.05814" lon="2.31251">
        <ele>146</ele>
        <time>2021-08-23T16:22:43Z</time>
      </trkpt>
      <trkpt lat="47.05809" lon="2.31247">
        <ele>147</ele>
        <time>2021-08-23T16:22:43Z</time>
      </trkpt>
      <trkpt lat="47.05803" lon="2.31243">
        <ele>147</ele>
        <time>2021-08-23T16:22:43Z</time>
      </trkpt>
      <trkpt lat="47.05797" lon="2.31239">
        <ele>147</ele>
        <time>2021-08-23T16:22:43Z</time>
      </trkpt>
      <trkpt lat="47.05791" lon="2.31234">
        <ele>147</ele>
        <time>2021-08-23T16:22:43Z</time>
      </trkpt>
      <trkpt lat="47.05784" lon="2.3123">
        <ele>147</ele>
        <time>2021-08-23T16:22:43Z</time>
      </trkpt>
      <trkpt lat="47.05779" lon="2.31226">
        <ele>147</ele>
        <time>2021-08-23T16:22:43Z</time>
      </trkpt>
      <trkpt lat="47.05772" lon="2.31221">
        <ele>147</ele>
        <time>2021-08-23T16:22:43Z</time>
      </trkpt>
      <trkpt lat="47.05766" lon="2.31217">
        <ele>147</ele>
        <time>2021-08-23T16:22:43Z</time>
      </trkpt>
      <trkpt lat="47.0576" lon="2.31213">
        <ele>147</ele>
        <time>2021-08-23T16:22:43Z</time>
      </trkpt>
      <trkpt lat="47.05754" lon="2.31208">
        <ele>147</ele>
        <time>2021-08-23T16:22:43Z</time>
      </trkpt>
      <trkpt lat="47.05748" lon="2.31203">
        <ele>148</ele>
        <time>2021-08-23T16:22:43Z</time>
      </trkpt>
      <trkpt lat="47.05742" lon="2.31198">
        <ele>149</ele>
        <time>2021-08-23T16:22:43Z</time>
      </trkpt>
      <trkpt lat="47.05736" lon="2.31192">
        <ele>149</ele>
        <time>2021-08-23T16:22:43Z</time>
      </trkpt>
      <trkpt lat="47.0573" lon="2.31187">
        <ele>149</ele>
        <time>2021-08-23T16:22:43Z</time>
      </trkpt>
      <trkpt lat="47.05725" lon="2.31181">
        <ele>149</ele>
        <time>2021-08-23T16:22:43Z</time>
      </trkpt>
      <trkpt lat="47.05719" lon="2.31176">
        <ele>149</ele>
        <time>2021-08-23T16:22:43Z</time>
      </trkpt>
      <trkpt lat="47.05714" lon="2.31171">
        <ele>149</ele>
        <time>2021-08-23T16:22:43Z</time>
      </trkpt>
      <trkpt lat="47.05708" lon="2.31166">
        <ele>148</ele>
        <time>2021-08-23T16:22:43Z</time>
      </trkpt>
      <trkpt lat="47.05702" lon="2.3116">
        <ele>148</ele>
        <time>2021-08-23T16:22:43Z</time>
      </trkpt>
      <trkpt lat="47.05697" lon="2.31154">
        <ele>148</ele>
        <time>2021-08-23T16:22:43Z</time>
      </trkpt>
      <trkpt lat="47.05692" lon="2.31149">
        <ele>147</ele>
        <time>2021-08-23T16:22:43Z</time>
      </trkpt>
      <trkpt lat="47.05686" lon="2.31144">
        <ele>147</ele>
        <time>2021-08-23T16:22:43Z</time>
      </trkpt>
      <trkpt lat="47.0568" lon="2.31139">
        <ele>146</ele>
        <time>2021-08-23T16:22:43Z</time>
      </trkpt>
      <trkpt lat="47.05675" lon="2.31133">
        <ele>146</ele>
        <time>2021-08-23T16:22:43Z</time>
      </trkpt>
      <trkpt lat="47.0567" lon="2.31128">
        <ele>145</ele>
        <time>2021-08-23T16:22:43Z</time>
      </trkpt>
      <trkpt lat="47.05664" lon="2.31123">
        <ele>145</ele>
        <time>2021-08-23T16:22:43Z</time>
      </trkpt>
      <trkpt lat="47.05659" lon="2.31117">
        <ele>145</ele>
        <time>2021-08-23T16:22:43Z</time>
      </trkpt>
      <trkpt lat="47.05654" lon="2.31112">
        <ele>145</ele>
        <time>2021-08-23T16:22:43Z</time>
      </trkpt>
      <trkpt lat="47.05648" lon="2.31107">
        <ele>145</ele>
        <time>2021-08-23T16:22:43Z</time>
      </trkpt>
      <trkpt lat="47.05643" lon="2.31102">
        <ele>145</ele>
        <time>2021-08-23T16:22:43Z</time>
      </trkpt>
      <trkpt lat="47.05638" lon="2.31097">
        <ele>146</ele>
        <time>2021-08-23T16:22:43Z</time>
      </trkpt>
      <trkpt lat="47.05632" lon="2.31092">
        <ele>146</ele>
        <time>2021-08-23T16:22:43Z</time>
      </trkpt>
      <trkpt lat="47.05627" lon="2.31087">
        <ele>147</ele>
        <time>2021-08-23T16:22:43Z</time>
      </trkpt>
      <trkpt lat="47.05622" lon="2.31081">
        <ele>147</ele>
        <time>2021-08-23T16:22:43Z</time>
      </trkpt>
      <trkpt lat="47.05616" lon="2.31076">
        <ele>147</ele>
        <time>2021-08-23T16:22:43Z</time>
      </trkpt>
      <trkpt lat="47.05611" lon="2.31071">
        <ele>147</ele>
        <time>2021-08-23T16:22:43Z</time>
      </trkpt>
      <trkpt lat="47.05606" lon="2.31066">
        <ele>148</ele>
        <time>2021-08-23T16:22:43Z</time>
      </trkpt>
      <trkpt lat="47.05601" lon="2.31061">
        <ele>148</ele>
        <time>2021-08-23T16:22:43Z</time>
      </trkpt>
      <trkpt lat="47.05596" lon="2.31056">
        <ele>149</ele>
        <time>2021-08-23T16:22:43Z</time>
      </trkpt>
      <trkpt lat="47.05591" lon="2.31051">
        <ele>149</ele>
        <time>2021-08-23T16:22:43Z</time>
      </trkpt>
      <trkpt lat="47.05586" lon="2.31045">
        <ele>149</ele>
        <time>2021-08-23T16:22:43Z</time>
      </trkpt>
      <trkpt lat="47.05581" lon="2.3104">
        <ele>149</ele>
        <time>2021-08-23T16:22:43Z</time>
      </trkpt>
      <trkpt lat="47.05576" lon="2.31034">
        <ele>149</ele>
        <time>2021-08-23T16:22:43Z</time>
      </trkpt>
      <trkpt lat="47.05571" lon="2.31029">
        <ele>149</ele>
        <time>2021-08-23T16:22:43Z</time>
      </trkpt>
      <trkpt lat="47.05566" lon="2.31024">
        <ele>149</ele>
        <time>2021-08-23T16:22:43Z</time>
      </trkpt>
      <trkpt lat="47.05561" lon="2.31019">
        <ele>150</ele>
        <time>2021-08-23T16:22:43Z</time>
      </trkpt>
      <trkpt lat="47.05556" lon="2.31013">
        <ele>150</ele>
        <time>2021-08-23T16:22:43Z</time>
      </trkpt>
      <trkpt lat="47.0555" lon="2.31008">
        <ele>151</ele>
        <time>2021-08-23T16:22:43Z</time>
      </trkpt>
      <trkpt lat="47.05545" lon="2.31003">
        <ele>151</ele>
        <time>2021-08-23T16:22:43Z</time>
      </trkpt>
      <trkpt lat="47.0554" lon="2.30998">
        <ele>151</ele>
        <time>2021-08-23T16:22:43Z</time>
      </trkpt>
      <trkpt lat="47.05534" lon="2.30992">
        <ele>151</ele>
        <time>2021-08-23T16:22:43Z</time>
      </trkpt>
      <trkpt lat="47.05529" lon="2.30987">
        <ele>151</ele>
        <time>2021-08-23T16:22:43Z</time>
      </trkpt>
      <trkpt lat="47.05524" lon="2.30981">
        <ele>152</ele>
        <time>2021-08-23T16:22:43Z</time>
      </trkpt>
      <trkpt lat="47.05519" lon="2.30976">
        <ele>152</ele>
        <time>2021-08-23T16:22:43Z</time>
      </trkpt>
      <trkpt lat="47.05514" lon="2.3097">
        <ele>151</ele>
        <time>2021-08-23T16:22:43Z</time>
      </trkpt>
      <trkpt lat="47.05509" lon="2.30965">
        <ele>151</ele>
        <time>2021-08-23T16:22:43Z</time>
      </trkpt>
      <trkpt lat="47.05504" lon="2.30959">
        <ele>151</ele>
        <time>2021-08-23T16:22:43Z</time>
      </trkpt>
      <trkpt lat="47.05499" lon="2.30953">
        <ele>152</ele>
        <time>2021-08-23T16:22:43Z</time>
      </trkpt>
      <trkpt lat="47.05493" lon="2.30947">
        <ele>152</ele>
        <time>2021-08-23T16:22:43Z</time>
      </trkpt>
      <trkpt lat="47.05488" lon="2.30942">
        <ele>152</ele>
        <time>2021-08-23T16:22:43Z</time>
      </trkpt>
      <trkpt lat="47.05482" lon="2.30937">
        <ele>152</ele>
        <time>2021-08-23T16:22:43Z</time>
      </trkpt>
      <trkpt lat="47.05455" lon="2.30909">
        <ele>153</ele>
        <time>2021-08-23T16:22:43Z</time>
      </trkpt>
      <trkpt lat="47.05429" lon="2.30881">
        <ele>152</ele>
        <time>2021-08-23T16:22:43Z</time>
      </trkpt>
      <trkpt lat="47.05401" lon="2.30852">
        <ele>151</ele>
        <time>2021-08-23T16:22:43Z</time>
      </trkpt>
      <trkpt lat="47.05372" lon="2.30821">
        <ele>150</ele>
        <time>2021-08-23T16:22:43Z</time>
      </trkpt>
      <trkpt lat="47.05343" lon="2.30789">
        <ele>151</ele>
        <time>2021-08-23T16:22:43Z</time>
      </trkpt>
      <trkpt lat="47.05318" lon="2.30763">
        <ele>151</ele>
        <time>2021-08-23T16:22:43Z</time>
      </trkpt>
      <trkpt lat="47.05312" lon="2.30757">
        <ele>151</ele>
        <time>2021-08-23T16:22:43Z</time>
      </trkpt>
      <trkpt lat="47.05282" lon="2.30727">
        <ele>150</ele>
        <time>2021-08-23T16:22:43Z</time>
      </trkpt>
      <trkpt lat="47.05256" lon="2.30697">
        <ele>150</ele>
        <time>2021-08-23T16:22:43Z</time>
      </trkpt>
      <trkpt lat="47.0523" lon="2.30665">
        <ele>150</ele>
        <time>2021-08-23T16:22:43Z</time>
      </trkpt>
      <trkpt lat="47.05204" lon="2.30636">
        <ele>151</ele>
        <time>2021-08-23T16:22:43Z</time>
      </trkpt>
      <trkpt lat="47.05181" lon="2.30603">
        <ele>151</ele>
        <time>2021-08-23T16:22:43Z</time>
      </trkpt>
      <trkpt lat="47.0517" lon="2.30581">
        <ele>152</ele>
        <time>2021-08-23T16:22:43Z</time>
      </trkpt>
      <trkpt lat="47.05166" lon="2.30573">
        <ele>153</ele>
        <time>2021-08-23T16:22:43Z</time>
      </trkpt>
      <trkpt lat="47.05162" lon="2.30566">
        <ele>153</ele>
        <time>2021-08-23T16:22:43Z</time>
      </trkpt>
      <trkpt lat="47.05159" lon="2.30557">
        <ele>153</ele>
        <time>2021-08-23T16:22:43Z</time>
      </trkpt>
      <trkpt lat="47.05156" lon="2.30549">
        <ele>153</ele>
        <time>2021-08-23T16:22:43Z</time>
      </trkpt>
      <trkpt lat="47.05153" lon="2.30541">
        <ele>153</ele>
        <time>2021-08-23T16:22:43Z</time>
      </trkpt>
      <trkpt lat="47.05149" lon="2.30533">
        <ele>153</ele>
        <time>2021-08-23T16:22:43Z</time>
      </trkpt>
      <trkpt lat="47.05146" lon="2.30525">
        <ele>152</ele>
        <time>2021-08-23T16:22:43Z</time>
      </trkpt>
      <trkpt lat="47.0513" lon="2.30487">
        <ele>151</ele>
        <time>2021-08-23T16:22:43Z</time>
      </trkpt>
      <trkpt lat="47.05126" lon="2.3047">
        <ele>150</ele>
        <time>2021-08-23T16:22:43Z</time>
      </trkpt>
      <trkpt lat="47.05127" lon="2.3047">
        <ele>150</ele>
        <time>2021-08-23T16:22:43Z</time>
      </trkpt>
      <trkpt lat="47.05127" lon="2.3047">
        <ele>150</ele>
        <time>2021-08-23T16:22:43Z</time>
      </trkpt>
      <trkpt lat="47.05127" lon="2.3047">
        <ele>150</ele>
        <time>2021-08-23T16:22:43Z</time>
      </trkpt>
      <trkpt lat="47.05127" lon="2.3047">
        <ele>150</ele>
        <time>2021-08-23T16:22:43Z</time>
      </trkpt>
      <trkpt lat="47.05127" lon="2.3047">
        <ele>150</ele>
        <time>2021-08-23T16:22:43Z</time>
      </trkpt>
      <trkpt lat="47.05127" lon="2.3047">
        <ele>150</ele>
        <time>2021-08-23T16:22:43Z</time>
      </trkpt>
      <trkpt lat="47.05127" lon="2.30471">
        <ele>150</ele>
        <time>2021-08-23T16:22:43Z</time>
      </trkpt>
      <trkpt lat="47.05127" lon="2.30472">
        <ele>150</ele>
        <time>2021-08-23T16:22:43Z</time>
      </trkpt>
      <trkpt lat="47.05128" lon="2.30472">
        <ele>150</ele>
        <time>2021-08-23T16:22:43Z</time>
      </trkpt>
      <trkpt lat="47.05128" lon="2.30473">
        <ele>151</ele>
        <time>2021-08-23T16:22:43Z</time>
      </trkpt>
      <trkpt lat="47.05128" lon="2.30474">
        <ele>151</ele>
        <time>2021-08-23T16:22:43Z</time>
      </trkpt>
      <trkpt lat="47.05128" lon="2.30474">
        <ele>151</ele>
        <time>2021-08-23T16:22:43Z</time>
      </trkpt>
      <trkpt lat="47.05127" lon="2.30473">
        <ele>151</ele>
        <time>2021-08-23T16:22:43Z</time>
      </trkpt>
      <trkpt lat="47.05127" lon="2.30473">
        <ele>151</ele>
        <time>2021-08-23T16:22:43Z</time>
      </trkpt>
      <trkpt lat="47.05121" lon="2.30465">
        <ele>150</ele>
        <time>2021-08-23T16:22:43Z</time>
      </trkpt>
      <trkpt lat="47.05111" lon="2.30429">
        <ele>149</ele>
        <time>2021-08-23T16:22:43Z</time>
      </trkpt>
      <trkpt lat="47.05098" lon="2.3038">
        <ele>150</ele>
        <time>2021-08-23T16:22:43Z</time>
      </trkpt>
      <trkpt lat="47.05085" lon="2.30326">
        <ele>148</ele>
        <time>2021-08-23T16:22:43Z</time>
      </trkpt>
      <trkpt lat="47.05076" lon="2.30268">
        <ele>147</ele>
        <time>2021-08-23T16:22:43Z</time>
      </trkpt>
      <trkpt lat="47.0507" lon="2.30228">
        <ele>147</ele>
        <time>2021-08-23T16:22:43Z</time>
      </trkpt>
      <trkpt lat="47.05069" lon="2.30218">
        <ele>147</ele>
        <time>2021-08-23T16:22:43Z</time>
      </trkpt>
      <trkpt lat="47.05064" lon="2.30168">
        <ele>146</ele>
        <time>2021-08-23T16:22:43Z</time>
      </trkpt>
      <trkpt lat="47.05059" lon="2.30119">
        <ele>147</ele>
        <time>2021-08-23T16:22:43Z</time>
      </trkpt>
      <trkpt lat="47.05055" lon="2.30073">
        <ele>148</ele>
        <time>2021-08-23T16:22:43Z</time>
      </trkpt>
      <trkpt lat="47.05051" lon="2.30024">
        <ele>149</ele>
        <time>2021-08-23T16:22:43Z</time>
      </trkpt>
      <trkpt lat="47.05047" lon="2.29976">
        <ele>148</ele>
        <time>2021-08-23T16:22:43Z</time>
      </trkpt>
      <trkpt lat="47.05043" lon="2.29927">
        <ele>148</ele>
        <time>2021-08-23T16:22:43Z</time>
      </trkpt>
      <trkpt lat="47.05042" lon="2.29917">
        <ele>148</ele>
        <time>2021-08-23T16:22:43Z</time>
      </trkpt>
      <trkpt lat="47.05034" lon="2.2985">
        <ele>150</ele>
        <time>2021-08-23T16:22:43Z</time>
      </trkpt>
      <trkpt lat="47.05029" lon="2.29792">
        <ele>153</ele>
        <time>2021-08-23T16:22:43Z</time>
      </trkpt>
      <trkpt lat="47.05024" lon="2.29734">
        <ele>154</ele>
        <time>2021-08-23T16:22:43Z</time>
      </trkpt>
      <trkpt lat="47.0502" lon="2.29675">
        <ele>153</ele>
        <time>2021-08-23T16:22:43Z</time>
      </trkpt>
      <trkpt lat="47.05016" lon="2.29625">
        <ele>153</ele>
        <time>2021-08-23T16:22:43Z</time>
      </trkpt>
      <trkpt lat="47.05012" lon="2.29574">
        <ele>155</ele>
        <time>2021-08-23T16:22:43Z</time>
      </trkpt>
      <trkpt lat="47.05011" lon="2.29564">
        <ele>156</ele>
        <time>2021-08-23T16:22:43Z</time>
      </trkpt>
      <trkpt lat="47.05003" lon="2.29515">
        <ele>156</ele>
        <time>2021-08-23T16:22:43Z</time>
      </trkpt>
      <trkpt lat="47.04996" lon="2.29464">
        <ele>155</ele>
        <time>2021-08-23T16:22:43Z</time>
      </trkpt>
      <trkpt lat="47.04983" lon="2.29404">
        <ele>154</ele>
        <time>2021-08-23T16:22:43Z</time>
      </trkpt>
      <trkpt lat="47.0497" lon="2.29355">
        <ele>153</ele>
        <time>2021-08-23T16:22:43Z</time>
      </trkpt>
      <trkpt lat="47.04952" lon="2.29298">
        <ele>153</ele>
        <time>2021-08-23T16:22:43Z</time>
      </trkpt>
      <trkpt lat="47.04938" lon="2.29251">
        <ele>152</ele>
        <time>2021-08-23T16:22:43Z</time>
      </trkpt>
      <trkpt lat="47.04935" lon="2.29242">
        <ele>152</ele>
        <time>2021-08-23T16:22:43Z</time>
      </trkpt>
      <trkpt lat="47.04932" lon="2.29232">
        <ele>152</ele>
        <time>2021-08-23T16:22:43Z</time>
      </trkpt>
      <trkpt lat="47.04929" lon="2.29223">
        <ele>152</ele>
        <time>2021-08-23T16:22:43Z</time>
      </trkpt>
      <trkpt lat="47.04926" lon="2.29213">
        <ele>151</ele>
        <time>2021-08-23T16:22:43Z</time>
      </trkpt>
      <trkpt lat="47.04923" lon="2.29202">
        <ele>150</ele>
        <time>2021-08-23T16:22:43Z</time>
      </trkpt>
      <trkpt lat="47.0492" lon="2.29192">
        <ele>150</ele>
        <time>2021-08-23T16:22:43Z</time>
      </trkpt>
      <trkpt lat="47.04917" lon="2.29182">
        <ele>149</ele>
        <time>2021-08-23T16:22:43Z</time>
      </trkpt>
      <trkpt lat="47.04914" lon="2.29173">
        <ele>149</ele>
        <time>2021-08-23T16:22:43Z</time>
      </trkpt>
      <trkpt lat="47.04911" lon="2.29164">
        <ele>149</ele>
        <time>2021-08-23T16:22:43Z</time>
      </trkpt>
      <trkpt lat="47.04908" lon="2.29155">
        <ele>149</ele>
        <time>2021-08-23T16:22:43Z</time>
      </trkpt>
      <trkpt lat="47.04905" lon="2.29145">
        <ele>149</ele>
        <time>2021-08-23T16:22:43Z</time>
      </trkpt>
      <trkpt lat="47.04901" lon="2.29135">
        <ele>149</ele>
        <time>2021-08-23T16:22:43Z</time>
      </trkpt>
      <trkpt lat="47.04898" lon="2.29125">
        <ele>149</ele>
        <time>2021-08-23T16:22:43Z</time>
      </trkpt>
      <trkpt lat="47.04896" lon="2.29116">
        <ele>149</ele>
        <time>2021-08-23T16:22:43Z</time>
      </trkpt>
      <trkpt lat="47.04893" lon="2.29106">
        <ele>149</ele>
        <time>2021-08-23T16:22:43Z</time>
      </trkpt>
      <trkpt lat="47.04887" lon="2.29086">
        <ele>149</ele>
        <time>2021-08-23T16:22:43Z</time>
      </trkpt>
      <trkpt lat="47.04884" lon="2.29076">
        <ele>150</ele>
        <time>2021-08-23T16:22:43Z</time>
      </trkpt>
      <trkpt lat="47.04881" lon="2.29067">
        <ele>150</ele>
        <time>2021-08-23T16:22:43Z</time>
      </trkpt>
      <trkpt lat="47.04879" lon="2.29057">
        <ele>150</ele>
        <time>2021-08-23T16:22:43Z</time>
      </trkpt>
      <trkpt lat="47.04876" lon="2.29047">
        <ele>150</ele>
        <time>2021-08-23T16:22:43Z</time>
      </trkpt>
      <trkpt lat="47.0487" lon="2.29027">
        <ele>150</ele>
        <time>2021-08-23T16:22:43Z</time>
      </trkpt>
      <trkpt lat="47.04867" lon="2.29017">
        <ele>150</ele>
        <time>2021-08-23T16:22:43Z</time>
      </trkpt>
      <trkpt lat="47.04864" lon="2.29008">
        <ele>150</ele>
        <time>2021-08-23T16:22:43Z</time>
      </trkpt>
      <trkpt lat="47.04861" lon="2.28998">
        <ele>150</ele>
        <time>2021-08-23T16:22:43Z</time>
      </trkpt>
      <trkpt lat="47.04858" lon="2.28989">
        <ele>150</ele>
        <time>2021-08-23T16:22:43Z</time>
      </trkpt>
      <trkpt lat="47.04855" lon="2.28979">
        <ele>150</ele>
        <time>2021-08-23T16:22:43Z</time>
      </trkpt>
      <trkpt lat="47.04852" lon="2.28969">
        <ele>150</ele>
        <time>2021-08-23T16:22:43Z</time>
      </trkpt>
      <trkpt lat="47.0485" lon="2.28959">
        <ele>150</ele>
        <time>2021-08-23T16:22:43Z</time>
      </trkpt>
      <trkpt lat="47.04847" lon="2.28949">
        <ele>150</ele>
        <time>2021-08-23T16:22:43Z</time>
      </trkpt>
      <trkpt lat="47.04844" lon="2.28939">
        <ele>150</ele>
        <time>2021-08-23T16:22:43Z</time>
      </trkpt>
      <trkpt lat="47.04842" lon="2.28929">
        <ele>150</ele>
        <time>2021-08-23T16:22:43Z</time>
      </trkpt>
      <trkpt lat="47.04839" lon="2.28919">
        <ele>150</ele>
        <time>2021-08-23T16:22:43Z</time>
      </trkpt>
      <trkpt lat="47.04837" lon="2.28909">
        <ele>149</ele>
        <time>2021-08-23T16:22:43Z</time>
      </trkpt>
      <trkpt lat="47.04834" lon="2.28899">
        <ele>149</ele>
        <time>2021-08-23T16:22:43Z</time>
      </trkpt>
      <trkpt lat="47.04831" lon="2.2889">
        <ele>148</ele>
        <time>2021-08-23T16:22:43Z</time>
      </trkpt>
      <trkpt lat="47.04829" lon="2.2888">
        <ele>148</ele>
        <time>2021-08-23T16:22:43Z</time>
      </trkpt>
      <trkpt lat="47.04826" lon="2.2887">
        <ele>148</ele>
        <time>2021-08-23T16:22:43Z</time>
      </trkpt>
      <trkpt lat="47.04823" lon="2.28861">
        <ele>148</ele>
        <time>2021-08-23T16:22:43Z</time>
      </trkpt>
      <trkpt lat="47.04821" lon="2.28852">
        <ele>148</ele>
        <time>2021-08-23T16:22:43Z</time>
      </trkpt>
      <trkpt lat="47.04817" lon="2.28842">
        <ele>148</ele>
        <time>2021-08-23T16:22:43Z</time>
      </trkpt>
      <trkpt lat="47.04814" lon="2.28832">
        <ele>148</ele>
        <time>2021-08-23T16:22:43Z</time>
      </trkpt>
      <trkpt lat="47.04811" lon="2.28823">
        <ele>148</ele>
        <time>2021-08-23T16:22:43Z</time>
      </trkpt>
      <trkpt lat="47.04808" lon="2.28815">
        <ele>148</ele>
        <time>2021-08-23T16:22:43Z</time>
      </trkpt>
      <trkpt lat="47.04804" lon="2.28806">
        <ele>147</ele>
        <time>2021-08-23T16:22:43Z</time>
      </trkpt>
      <trkpt lat="47.04801" lon="2.28797">
        <ele>147</ele>
        <time>2021-08-23T16:22:43Z</time>
      </trkpt>
      <trkpt lat="47.04798" lon="2.28788">
        <ele>147</ele>
        <time>2021-08-23T16:22:43Z</time>
      </trkpt>
      <trkpt lat="47.04795" lon="2.28779">
        <ele>147</ele>
        <time>2021-08-23T16:22:43Z</time>
      </trkpt>
      <trkpt lat="47.04792" lon="2.2877">
        <ele>148</ele>
        <time>2021-08-23T16:22:43Z</time>
      </trkpt>
      <trkpt lat="47.04789" lon="2.28761">
        <ele>148</ele>
        <time>2021-08-23T16:22:43Z</time>
      </trkpt>
      <trkpt lat="47.04786" lon="2.28753">
        <ele>148</ele>
        <time>2021-08-23T16:22:43Z</time>
      </trkpt>
      <trkpt lat="47.04767" lon="2.28709">
        <ele>150</ele>
        <time>2021-08-23T16:22:43Z</time>
      </trkpt>
      <trkpt lat="47.04741" lon="2.28688">
        <ele>152</ele>
        <time>2021-08-23T16:22:43Z</time>
      </trkpt>
      <trkpt lat="47.04712" lon="2.28664">
        <ele>151</ele>
        <time>2021-08-23T16:22:43Z</time>
      </trkpt>
      <trkpt lat="47.04683" lon="2.2864">
        <ele>149</ele>
        <time>2021-08-23T16:22:43Z</time>
      </trkpt>
      <trkpt lat="47.04654" lon="2.28614">
        <ele>151</ele>
        <time>2021-08-23T16:22:43Z</time>
      </trkpt>
      <trkpt lat="47.04629" lon="2.28596">
        <ele>152</ele>
        <time>2021-08-23T16:22:43Z</time>
      </trkpt>
      <trkpt lat="47.04623" lon="2.28591">
        <ele>152</ele>
        <time>2021-08-23T16:22:43Z</time>
      </trkpt>
      <trkpt lat="47.04594" lon="2.28564">
        <ele>151</ele>
        <time>2021-08-23T16:22:43Z</time>
      </trkpt>
      <trkpt lat="47.04565" lon="2.2854">
        <ele>151</ele>
        <time>2021-08-23T16:22:43Z</time>
      </trkpt>
      <trkpt lat="47.04535" lon="2.28514">
        <ele>151</ele>
        <time>2021-08-23T16:22:43Z</time>
      </trkpt>
      <trkpt lat="47.04504" lon="2.2849">
        <ele>151</ele>
        <time>2021-08-23T16:22:43Z</time>
      </trkpt>
      <trkpt lat="47.04473" lon="2.28463">
        <ele>151</ele>
        <time>2021-08-23T16:22:43Z</time>
      </trkpt>
      <trkpt lat="47.04448" lon="2.28442">
        <ele>150</ele>
        <time>2021-08-23T16:22:43Z</time>
      </trkpt>
      <trkpt lat="47.04442" lon="2.28437">
        <ele>149</ele>
        <time>2021-08-23T16:22:43Z</time>
      </trkpt>
      <trkpt lat="47.0441" lon="2.28409">
        <ele>149</ele>
        <time>2021-08-23T16:22:43Z</time>
      </trkpt>
      <trkpt lat="47.04378" lon="2.28384">
        <ele>148</ele>
        <time>2021-08-23T16:22:43Z</time>
      </trkpt>
      <trkpt lat="47.04349" lon="2.28358">
        <ele>147</ele>
        <time>2021-08-23T16:22:43Z</time>
      </trkpt>
      <trkpt lat="47.0432" lon="2.28337">
        <ele>147</ele>
        <time>2021-08-23T16:22:43Z</time>
      </trkpt>
      <trkpt lat="47.04293" lon="2.28312">
        <ele>147</ele>
        <time>2021-08-23T16:22:43Z</time>
      </trkpt>
      <trkpt lat="47.04269" lon="2.28293">
        <ele>147</ele>
        <time>2021-08-23T16:22:43Z</time>
      </trkpt>
      <trkpt lat="47.04263" lon="2.28288">
        <ele>147</ele>
        <time>2021-08-23T16:22:43Z</time>
      </trkpt>
      <trkpt lat="47.04258" lon="2.28283">
        <ele>147</ele>
        <time>2021-08-23T16:22:43Z</time>
      </trkpt>
      <trkpt lat="47.04252" lon="2.28278">
        <ele>147</ele>
        <time>2021-08-23T16:22:43Z</time>
      </trkpt>
      <trkpt lat="47.04246" lon="2.28273">
        <ele>147</ele>
        <time>2021-08-23T16:22:43Z</time>
      </trkpt>
      <trkpt lat="47.04241" lon="2.28268">
        <ele>147</ele>
        <time>2021-08-23T16:22:43Z</time>
      </trkpt>
      <trkpt lat="47.04234" lon="2.28265">
        <ele>147</ele>
        <time>2021-08-23T16:22:43Z</time>
      </trkpt>
      <trkpt lat="47.04229" lon="2.2826">
        <ele>147</ele>
        <time>2021-08-23T16:22:43Z</time>
      </trkpt>
      <trkpt lat="47.04223" lon="2.28254">
        <ele>147</ele>
        <time>2021-08-23T16:22:43Z</time>
      </trkpt>
      <trkpt lat="47.04217" lon="2.28249">
        <ele>146</ele>
        <time>2021-08-23T16:22:43Z</time>
      </trkpt>
      <trkpt lat="47.04211" lon="2.28245">
        <ele>146</ele>
        <time>2021-08-23T16:22:43Z</time>
      </trkpt>
      <trkpt lat="47.04205" lon="2.2824">
        <ele>146</ele>
        <time>2021-08-23T16:22:43Z</time>
      </trkpt>
      <trkpt lat="47.04199" lon="2.28236">
        <ele>146</ele>
        <time>2021-08-23T16:22:43Z</time>
      </trkpt>
      <trkpt lat="47.04193" lon="2.28232">
        <ele>145</ele>
        <time>2021-08-23T16:22:43Z</time>
      </trkpt>
      <trkpt lat="47.04187" lon="2.28227">
        <ele>145</ele>
        <time>2021-08-23T16:22:43Z</time>
      </trkpt>
      <trkpt lat="47.0418" lon="2.28222">
        <ele>145</ele>
        <time>2021-08-23T16:22:43Z</time>
      </trkpt>
      <trkpt lat="47.04175" lon="2.28217">
        <ele>145</ele>
        <time>2021-08-23T16:22:43Z</time>
      </trkpt>
      <trkpt lat="47.04169" lon="2.2821">
        <ele>145</ele>
        <time>2021-08-23T16:22:43Z</time>
      </trkpt>
      <trkpt lat="47.04163" lon="2.28206">
        <ele>145</ele>
        <time>2021-08-23T16:22:43Z</time>
      </trkpt>
      <trkpt lat="47.04157" lon="2.282">
        <ele>145</ele>
        <time>2021-08-23T16:22:43Z</time>
      </trkpt>
      <trkpt lat="47.04151" lon="2.28195">
        <ele>145</ele>
        <time>2021-08-23T16:22:43Z</time>
      </trkpt>
      <trkpt lat="47.04146" lon="2.28189">
        <ele>145</ele>
        <time>2021-08-23T16:22:43Z</time>
      </trkpt>
      <trkpt lat="47.04139" lon="2.28184">
        <ele>145</ele>
        <time>2021-08-23T16:22:43Z</time>
      </trkpt>
      <trkpt lat="47.04133" lon="2.2818">
        <ele>146</ele>
        <time>2021-08-23T16:22:43Z</time>
      </trkpt>
      <trkpt lat="47.04128" lon="2.28175">
        <ele>146</ele>
        <time>2021-08-23T16:22:43Z</time>
      </trkpt>
      <trkpt lat="47.04122" lon="2.2817">
        <ele>146</ele>
        <time>2021-08-23T16:22:43Z</time>
      </trkpt>
      <trkpt lat="47.04116" lon="2.28165">
        <ele>146</ele>
        <time>2021-08-23T16:22:43Z</time>
      </trkpt>
      <trkpt lat="47.0411" lon="2.28159">
        <ele>146</ele>
        <time>2021-08-23T16:22:43Z</time>
      </trkpt>
      <trkpt lat="47.04104" lon="2.28155">
        <ele>146</ele>
        <time>2021-08-23T16:22:43Z</time>
      </trkpt>
      <trkpt lat="47.04098" lon="2.2815">
        <ele>146</ele>
        <time>2021-08-23T16:22:43Z</time>
      </trkpt>
      <trkpt lat="47.04092" lon="2.28145">
        <ele>146</ele>
        <time>2021-08-23T16:22:43Z</time>
      </trkpt>
      <trkpt lat="47.04086" lon="2.2814">
        <ele>146</ele>
        <time>2021-08-23T16:22:43Z</time>
      </trkpt>
      <trkpt lat="47.0408" lon="2.28135">
        <ele>146</ele>
        <time>2021-08-23T16:22:43Z</time>
      </trkpt>
      <trkpt lat="47.04075" lon="2.2813">
        <ele>146</ele>
        <time>2021-08-23T16:22:43Z</time>
      </trkpt>
      <trkpt lat="47.04068" lon="2.28126">
        <ele>147</ele>
        <time>2021-08-23T16:22:43Z</time>
      </trkpt>
      <trkpt lat="47.04063" lon="2.28121">
        <ele>147</ele>
        <time>2021-08-23T16:22:43Z</time>
      </trkpt>
      <trkpt lat="47.04057" lon="2.28117">
        <ele>147</ele>
        <time>2021-08-23T16:22:43Z</time>
      </trkpt>
      <trkpt lat="47.04051" lon="2.28113">
        <ele>148</ele>
        <time>2021-08-23T16:22:43Z</time>
      </trkpt>
      <trkpt lat="47.04045" lon="2.28109">
        <ele>148</ele>
        <time>2021-08-23T16:22:43Z</time>
      </trkpt>
      <trkpt lat="47.04039" lon="2.28105">
        <ele>148</ele>
        <time>2021-08-23T16:22:43Z</time>
      </trkpt>
      <trkpt lat="47.04033" lon="2.281">
        <ele>148</ele>
        <time>2021-08-23T16:22:43Z</time>
      </trkpt>
      <trkpt lat="47.04028" lon="2.28095">
        <ele>148</ele>
        <time>2021-08-23T16:22:43Z</time>
      </trkpt>
      <trkpt lat="47.04022" lon="2.28091">
        <ele>148</ele>
        <time>2021-08-23T16:22:43Z</time>
      </trkpt>
      <trkpt lat="47.04016" lon="2.28087">
        <ele>148</ele>
        <time>2021-08-23T16:22:43Z</time>
      </trkpt>
      <trkpt lat="47.0401" lon="2.28083">
        <ele>148</ele>
        <time>2021-08-23T16:22:43Z</time>
      </trkpt>
      <trkpt lat="47.04005" lon="2.28078">
        <ele>148</ele>
        <time>2021-08-23T16:22:43Z</time>
      </trkpt>
      <trkpt lat="47.03999" lon="2.28074">
        <ele>147</ele>
        <time>2021-08-23T16:22:43Z</time>
      </trkpt>
      <trkpt lat="47.03994" lon="2.28068">
        <ele>147</ele>
        <time>2021-08-23T16:22:43Z</time>
      </trkpt>
      <trkpt lat="47.03988" lon="2.28063">
        <ele>147</ele>
        <time>2021-08-23T16:22:43Z</time>
      </trkpt>
      <trkpt lat="47.03982" lon="2.28058">
        <ele>147</ele>
        <time>2021-08-23T16:22:43Z</time>
      </trkpt>
      <trkpt lat="47.03977" lon="2.28052">
        <ele>147</ele>
        <time>2021-08-23T16:22:43Z</time>
      </trkpt>
      <trkpt lat="47.03971" lon="2.28047">
        <ele>147</ele>
        <time>2021-08-23T16:22:43Z</time>
      </trkpt>
      <trkpt lat="47.03966" lon="2.28042">
        <ele>147</ele>
        <time>2021-08-23T16:22:43Z</time>
      </trkpt>
      <trkpt lat="47.0396" lon="2.28037">
        <ele>147</ele>
        <time>2021-08-23T16:22:43Z</time>
      </trkpt>
      <trkpt lat="47.03955" lon="2.28031">
        <ele>147</ele>
        <time>2021-08-23T16:22:43Z</time>
      </trkpt>
      <trkpt lat="47.03949" lon="2.28027">
        <ele>148</ele>
        <time>2021-08-23T16:22:43Z</time>
      </trkpt>
      <trkpt lat="47.03943" lon="2.28022">
        <ele>148</ele>
        <time>2021-08-23T16:22:43Z</time>
      </trkpt>
      <trkpt lat="47.03937" lon="2.28017">
        <ele>148</ele>
        <time>2021-08-23T16:22:43Z</time>
      </trkpt>
      <trkpt lat="47.03931" lon="2.28013">
        <ele>148</ele>
        <time>2021-08-23T16:22:43Z</time>
      </trkpt>
      <trkpt lat="47.03925" lon="2.28008">
        <ele>148</ele>
        <time>2021-08-23T16:22:43Z</time>
      </trkpt>
      <trkpt lat="47.0392" lon="2.28003">
        <ele>148</ele>
        <time>2021-08-23T16:22:43Z</time>
      </trkpt>
      <trkpt lat="47.03914" lon="2.27999">
        <ele>149</ele>
        <time>2021-08-23T16:22:43Z</time>
      </trkpt>
      <trkpt lat="47.03908" lon="2.27995">
        <ele>149</ele>
        <time>2021-08-23T16:22:43Z</time>
      </trkpt>
      <trkpt lat="47.0388" lon="2.27974">
        <ele>150</ele>
        <time>2021-08-23T16:22:43Z</time>
      </trkpt>
      <trkpt lat="47.03857" lon="2.27953">
        <ele>150</ele>
        <time>2021-08-23T16:22:43Z</time>
      </trkpt>
      <trkpt lat="47.03832" lon="2.27932">
        <ele>148</ele>
        <time>2021-08-23T16:22:43Z</time>
      </trkpt>
      <trkpt lat="47.03808" lon="2.27911">
        <ele>149</ele>
        <time>2021-08-23T16:22:43Z</time>
      </trkpt>
      <trkpt lat="47.03783" lon="2.27888">
        <ele>148</ele>
        <time>2021-08-23T16:22:43Z</time>
      </trkpt>
      <trkpt lat="47.03764" lon="2.27871">
        <ele>147</ele>
        <time>2021-08-23T16:22:43Z</time>
      </trkpt>
      <trkpt lat="47.03759" lon="2.27867">
        <ele>146</ele>
        <time>2021-08-23T16:22:43Z</time>
      </trkpt>
      <trkpt lat="47.03735" lon="2.27847">
        <ele>145</ele>
        <time>2021-08-23T16:22:43Z</time>
      </trkpt>
      <trkpt lat="47.03713" lon="2.27825">
        <ele>146</ele>
        <time>2021-08-23T16:22:43Z</time>
      </trkpt>
      <trkpt lat="47.03696" lon="2.278">
        <ele>146</ele>
        <time>2021-08-23T16:22:43Z</time>
      </trkpt>
      <trkpt lat="47.03681" lon="2.27777">
        <ele>145</ele>
        <time>2021-08-23T16:22:43Z</time>
      </trkpt>
      <trkpt lat="47.03663" lon="2.27749">
        <ele>144</ele>
        <time>2021-08-23T16:22:43Z</time>
      </trkpt>
      <trkpt lat="47.0365" lon="2.27725">
        <ele>144</ele>
        <time>2021-08-23T16:22:43Z</time>
      </trkpt>
      <trkpt lat="47.03647" lon="2.2772">
        <ele>144</ele>
        <time>2021-08-23T16:22:43Z</time>
      </trkpt>
      <trkpt lat="47.03639" lon="2.27704">
        <ele>144</ele>
        <time>2021-08-23T16:22:43Z</time>
      </trkpt>
      <trkpt lat="47.03634" lon="2.27685">
        <ele>143</ele>
        <time>2021-08-23T16:22:43Z</time>
      </trkpt>
      <trkpt lat="47.03638" lon="2.27666">
        <ele>141</ele>
        <time>2021-08-23T16:22:43Z</time>
      </trkpt>
      <trkpt lat="47.03639" lon="2.27665">
        <ele>141</ele>
        <time>2021-08-23T16:22:43Z</time>
      </trkpt>
      <trkpt lat="47.03639" lon="2.27665">
        <ele>141</ele>
        <time>2021-08-23T16:22:43Z</time>
      </trkpt>
      <trkpt lat="47.0364" lon="2.27665">
        <ele>141</ele>
        <time>2021-08-23T16:22:43Z</time>
      </trkpt>
      <trkpt lat="47.03639" lon="2.27665">
        <ele>141</ele>
        <time>2021-08-23T16:22:43Z</time>
      </trkpt>
      <trkpt lat="47.03639" lon="2.27665">
        <ele>141</ele>
        <time>2021-08-23T16:22:43Z</time>
      </trkpt>
      <trkpt lat="47.03639" lon="2.27665">
        <ele>141</ele>
        <time>2021-08-23T16:22:43Z</time>
      </trkpt>
      <trkpt lat="47.03639" lon="2.27665">
        <ele>141</ele>
        <time>2021-08-23T16:22:43Z</time>
      </trkpt>
      <trkpt lat="47.03639" lon="2.27665">
        <ele>141</ele>
        <time>2021-08-23T16:22:43Z</time>
      </trkpt>
      <trkpt lat="47.03638" lon="2.27665">
        <ele>141</ele>
        <time>2021-08-23T16:22:43Z</time>
      </trkpt>
      <trkpt lat="47.03639" lon="2.27666">
        <ele>141</ele>
        <time>2021-08-23T16:22:43Z</time>
      </trkpt>
      <trkpt lat="47.03639" lon="2.27665">
        <ele>141</ele>
        <time>2021-08-23T16:22:43Z</time>
      </trkpt>
      <trkpt lat="47.03639" lon="2.27663">
        <ele>141</ele>
        <time>2021-08-23T16:22:43Z</time>
      </trkpt>
      <trkpt lat="47.03639" lon="2.2766">
        <ele>141</ele>
        <time>2021-08-23T16:22:43Z</time>
      </trkpt>
      <trkpt lat="47.03637" lon="2.27659">
        <ele>141</ele>
        <time>2021-08-23T16:22:43Z</time>
      </trkpt>
      <trkpt lat="47.03635" lon="2.27659">
        <ele>141</ele>
        <time>2021-08-23T16:22:43Z</time>
      </trkpt>
      <trkpt lat="47.03633" lon="2.27662">
        <ele>141</ele>
        <time>2021-08-23T16:22:43Z</time>
      </trkpt>
      <trkpt lat="47.03633" lon="2.27667">
        <ele>141</ele>
        <time>2021-08-23T16:22:43Z</time>
      </trkpt>
      <trkpt lat="47.03633" lon="2.27671">
        <ele>142</ele>
        <time>2021-08-23T16:22:43Z</time>
      </trkpt>
      <trkpt lat="47.03627" lon="2.27706">
        <ele>143</ele>
        <time>2021-08-23T16:22:43Z</time>
      </trkpt>
      <trkpt lat="47.03616" lon="2.27744">
        <ele>143</ele>
        <time>2021-08-23T16:22:43Z</time>
      </trkpt>
      <trkpt lat="47.03602" lon="2.27781">
        <ele>142</ele>
        <time>2021-08-23T16:22:43Z</time>
      </trkpt>
      <trkpt lat="47.03576" lon="2.27815">
        <ele>140</ele>
        <time>2021-08-23T16:22:43Z</time>
      </trkpt>
      <trkpt lat="47.03549" lon="2.27854">
        <ele>137</ele>
        <time>2021-08-23T16:22:43Z</time>
      </trkpt>
      <trkpt lat="47.0353" lon="2.27886">
        <ele>136</ele>
        <time>2021-08-23T16:22:43Z</time>
      </trkpt>
      <trkpt lat="47.03524" lon="2.27893">
        <ele>136</ele>
        <time>2021-08-23T16:22:43Z</time>
      </trkpt>
      <trkpt lat="47.03494" lon="2.27921">
        <ele>135</ele>
        <time>2021-08-23T16:22:43Z</time>
      </trkpt>
      <trkpt lat="47.03466" lon="2.27949">
        <ele>136</ele>
        <time>2021-08-23T16:22:43Z</time>
      </trkpt>
      <trkpt lat="47.03439" lon="2.27977">
        <ele>137</ele>
        <time>2021-08-23T16:22:43Z</time>
      </trkpt>
      <trkpt lat="47.03408" lon="2.28003">
        <ele>136</ele>
        <time>2021-08-23T16:22:43Z</time>
      </trkpt>
      <trkpt lat="47.03371" lon="2.28014">
        <ele>135</ele>
        <time>2021-08-23T16:22:43Z</time>
      </trkpt>
      <trkpt lat="47.0334" lon="2.28013">
        <ele>133</ele>
        <time>2021-08-23T16:22:43Z</time>
      </trkpt>
      <trkpt lat="47.03333" lon="2.28013">
        <ele>133</ele>
        <time>2021-08-23T16:22:43Z</time>
      </trkpt>
      <trkpt lat="47.03298" lon="2.27999">
        <ele>134</ele>
        <time>2021-08-23T16:22:43Z</time>
      </trkpt>
      <trkpt lat="47.03266" lon="2.2799">
        <ele>136</ele>
        <time>2021-08-23T16:22:43Z</time>
      </trkpt>
      <trkpt lat="47.03238" lon="2.28011">
        <ele>137</ele>
        <time>2021-08-23T16:22:43Z</time>
      </trkpt>
      <trkpt lat="47.03212" lon="2.28005">
        <ele>139</ele>
        <time>2021-08-23T16:22:43Z</time>
      </trkpt>
      <trkpt lat="47.0319" lon="2.27972">
        <ele>140</ele>
        <time>2021-08-23T16:22:43Z</time>
      </trkpt>
      <trkpt lat="47.03173" lon="2.27949">
        <ele>140</ele>
        <time>2021-08-23T16:22:43Z</time>
      </trkpt>
      <trkpt lat="47.03168" lon="2.27943">
        <ele>141</ele>
        <time>2021-08-23T16:22:43Z</time>
      </trkpt>
      <trkpt lat="47.03139" lon="2.27924">
        <ele>142</ele>
        <time>2021-08-23T16:22:43Z</time>
      </trkpt>
      <trkpt lat="47.03111" lon="2.2791">
        <ele>143</ele>
        <time>2021-08-23T16:22:43Z</time>
      </trkpt>
      <trkpt lat="47.03082" lon="2.27898">
        <ele>142</ele>
        <time>2021-08-23T16:22:43Z</time>
      </trkpt>
      <trkpt lat="47.03053" lon="2.27887">
        <ele>142</ele>
        <time>2021-08-23T16:22:43Z</time>
      </trkpt>
      <trkpt lat="47.03022" lon="2.27893">
        <ele>143</ele>
        <time>2021-08-23T16:22:43Z</time>
      </trkpt>
      <trkpt lat="47.02996" lon="2.27902">
        <ele>145</ele>
        <time>2021-08-23T16:22:43Z</time>
      </trkpt>
      <trkpt lat="47.0299" lon="2.27904">
        <ele>145</ele>
        <time>2021-08-23T16:22:43Z</time>
      </trkpt>
      <trkpt lat="47.02958" lon="2.27915">
        <ele>145</ele>
        <time>2021-08-23T16:22:43Z</time>
      </trkpt>
      <trkpt lat="47.02929" lon="2.27924">
        <ele>145</ele>
        <time>2021-08-23T16:22:43Z</time>
      </trkpt>
      <trkpt lat="47.02908" lon="2.2794">
        <ele>145</ele>
        <time>2021-08-23T16:22:43Z</time>
      </trkpt>
      <trkpt lat="47.02903" lon="2.27945">
        <ele>145</ele>
        <time>2021-08-23T16:22:43Z</time>
      </trkpt>
      <trkpt lat="47.02898" lon="2.27951">
        <ele>145</ele>
        <time>2021-08-23T16:22:43Z</time>
      </trkpt>
      <trkpt lat="47.02896" lon="2.27959">
        <ele>145</ele>
        <time>2021-08-23T16:22:43Z</time>
      </trkpt>
      <trkpt lat="47.02893" lon="2.27966">
        <ele>145</ele>
        <time>2021-08-23T16:22:43Z</time>
      </trkpt>
      <trkpt lat="47.0289" lon="2.27974">
        <ele>145</ele>
        <time>2021-08-23T16:22:43Z</time>
      </trkpt>
      <trkpt lat="47.02887" lon="2.27982">
        <ele>145</ele>
        <time>2021-08-23T16:22:43Z</time>
      </trkpt>
      <trkpt lat="47.02884" lon="2.2799">
        <ele>144</ele>
        <time>2021-08-23T16:22:43Z</time>
      </trkpt>
      <trkpt lat="47.02881" lon="2.27997">
        <ele>144</ele>
        <time>2021-08-23T16:22:43Z</time>
      </trkpt>
      <trkpt lat="47.02878" lon="2.28006">
        <ele>144</ele>
        <time>2021-08-23T16:22:43Z</time>
      </trkpt>
      <trkpt lat="47.02875" lon="2.28014">
        <ele>143</ele>
        <time>2021-08-23T16:22:43Z</time>
      </trkpt>
      <trkpt lat="47.02872" lon="2.28023">
        <ele>143</ele>
        <time>2021-08-23T16:22:43Z</time>
      </trkpt>
      <trkpt lat="47.02869" lon="2.28033">
        <ele>143</ele>
        <time>2021-08-23T16:22:43Z</time>
      </trkpt>
      <trkpt lat="47.02866" lon="2.28038">
        <ele>143</ele>
        <time>2021-08-23T16:22:43Z</time>
      </trkpt>
      <trkpt lat="47.02863" lon="2.28047">
        <ele>143</ele>
        <time>2021-08-23T16:22:43Z</time>
      </trkpt>
      <trkpt lat="47.0286" lon="2.28056">
        <ele>144</ele>
        <time>2021-08-23T16:22:43Z</time>
      </trkpt>
      <trkpt lat="47.02858" lon="2.28064">
        <ele>144</ele>
        <time>2021-08-23T16:22:43Z</time>
      </trkpt>
      <trkpt lat="47.02854" lon="2.28068">
        <ele>144</ele>
        <time>2021-08-23T16:22:43Z</time>
      </trkpt>
      <trkpt lat="47.02852" lon="2.28078">
        <ele>144</ele>
        <time>2021-08-23T16:22:43Z</time>
      </trkpt>
      <trkpt lat="47.02849" lon="2.28085">
        <ele>144</ele>
        <time>2021-08-23T16:22:43Z</time>
      </trkpt>
      <trkpt lat="47.02847" lon="2.2809">
        <ele>144</ele>
        <time>2021-08-23T16:22:43Z</time>
      </trkpt>
      <trkpt lat="47.02844" lon="2.28096">
        <ele>144</ele>
        <time>2021-08-23T16:22:43Z</time>
      </trkpt>
      <trkpt lat="47.02841" lon="2.28104">
        <ele>144</ele>
        <time>2021-08-23T16:22:43Z</time>
      </trkpt>
      <trkpt lat="47.02838" lon="2.28112">
        <ele>144</ele>
        <time>2021-08-23T16:22:43Z</time>
      </trkpt>
      <trkpt lat="47.02835" lon="2.28119">
        <ele>144</ele>
        <time>2021-08-23T16:22:43Z</time>
      </trkpt>
      <trkpt lat="47.0283" lon="2.28123">
        <ele>144</ele>
        <time>2021-08-23T16:22:43Z</time>
      </trkpt>
      <trkpt lat="47.02828" lon="2.28133">
        <ele>144</ele>
        <time>2021-08-23T16:22:43Z</time>
      </trkpt>
      <trkpt lat="47.02826" lon="2.28139">
        <ele>144</ele>
        <time>2021-08-23T16:22:43Z</time>
      </trkpt>
      <trkpt lat="47.02824" lon="2.28147">
        <ele>144</ele>
        <time>2021-08-23T16:22:43Z</time>
      </trkpt>
      <trkpt lat="47.02821" lon="2.28155">
        <ele>145</ele>
        <time>2021-08-23T16:22:43Z</time>
      </trkpt>
      <trkpt lat="47.0282" lon="2.28164">
        <ele>145</ele>
        <time>2021-08-23T16:22:43Z</time>
      </trkpt>
      <trkpt lat="47.02818" lon="2.28173">
        <ele>145</ele>
        <time>2021-08-23T16:22:43Z</time>
      </trkpt>
      <trkpt lat="47.02817" lon="2.28181">
        <ele>145</ele>
        <time>2021-08-23T16:22:43Z</time>
      </trkpt>
      <trkpt lat="47.02816" lon="2.28191">
        <ele>145</ele>
        <time>2021-08-23T16:22:43Z</time>
      </trkpt>
      <trkpt lat="47.02815" lon="2.282">
        <ele>145</ele>
        <time>2021-08-23T16:22:43Z</time>
      </trkpt>
      <trkpt lat="47.02815" lon="2.28209">
        <ele>145</ele>
        <time>2021-08-23T16:22:43Z</time>
      </trkpt>
      <trkpt lat="47.02814" lon="2.28219">
        <ele>145</ele>
        <time>2021-08-23T16:22:43Z</time>
      </trkpt>
      <trkpt lat="47.02813" lon="2.28229">
        <ele>144</ele>
        <time>2021-08-23T16:22:43Z</time>
      </trkpt>
      <trkpt lat="47.02813" lon="2.28239">
        <ele>144</ele>
        <time>2021-08-23T16:22:43Z</time>
      </trkpt>
      <trkpt lat="47.02812" lon="2.28249">
        <ele>144</ele>
        <time>2021-08-23T16:22:43Z</time>
      </trkpt>
      <trkpt lat="47.02811" lon="2.28259">
        <ele>144</ele>
        <time>2021-08-23T16:22:43Z</time>
      </trkpt>
      <trkpt lat="47.02811" lon="2.28269">
        <ele>143</ele>
        <time>2021-08-23T16:22:43Z</time>
      </trkpt>
      <trkpt lat="47.02811" lon="2.28279">
        <ele>143</ele>
        <time>2021-08-23T16:22:43Z</time>
      </trkpt>
      <trkpt lat="47.02812" lon="2.28289">
        <ele>143</ele>
        <time>2021-08-23T16:22:43Z</time>
      </trkpt>
      <trkpt lat="47.02812" lon="2.283">
        <ele>143</ele>
        <time>2021-08-23T16:22:43Z</time>
      </trkpt>
      <trkpt lat="47.02814" lon="2.2831">
        <ele>143</ele>
        <time>2021-08-23T16:22:43Z</time>
      </trkpt>
      <trkpt lat="47.02816" lon="2.28319">
        <ele>142</ele>
        <time>2021-08-23T16:22:43Z</time>
      </trkpt>
      <trkpt lat="47.02819" lon="2.28329">
        <ele>142</ele>
        <time>2021-08-23T16:22:43Z</time>
      </trkpt>
      <trkpt lat="47.02822" lon="2.28338">
        <ele>142</ele>
        <time>2021-08-23T16:22:43Z</time>
      </trkpt>
      <trkpt lat="47.02825" lon="2.28347">
        <ele>142</ele>
        <time>2021-08-23T16:22:43Z</time>
      </trkpt>
      <trkpt lat="47.02828" lon="2.28356">
        <ele>142</ele>
        <time>2021-08-23T16:22:43Z</time>
      </trkpt>
      <trkpt lat="47.02831" lon="2.28365">
        <ele>142</ele>
        <time>2021-08-23T16:22:43Z</time>
      </trkpt>
      <trkpt lat="47.02834" lon="2.28373">
        <ele>142</ele>
        <time>2021-08-23T16:22:43Z</time>
      </trkpt>
      <trkpt lat="47.02837" lon="2.28382">
        <ele>142</ele>
        <time>2021-08-23T16:22:43Z</time>
      </trkpt>
      <trkpt lat="47.0284" lon="2.28391">
        <ele>141</ele>
        <time>2021-08-23T16:22:43Z</time>
      </trkpt>
      <trkpt lat="47.0284" lon="2.28402">
        <ele>141</ele>
        <time>2021-08-23T16:22:43Z</time>
      </trkpt>
      <trkpt lat="47.02839" lon="2.28413">
        <ele>141</ele>
        <time>2021-08-23T16:22:43Z</time>
      </trkpt>
      <trkpt lat="47.02838" lon="2.28423">
        <ele>141</ele>
        <time>2021-08-23T16:22:43Z</time>
      </trkpt>
      <trkpt lat="47.02833" lon="2.28432">
        <ele>141</ele>
        <time>2021-08-23T16:22:43Z</time>
      </trkpt>
      <trkpt lat="47.02829" lon="2.28442">
        <ele>141</ele>
        <time>2021-08-23T16:22:43Z</time>
      </trkpt>
      <trkpt lat="47.02825" lon="2.2845">
        <ele>141</ele>
        <time>2021-08-23T16:22:43Z</time>
      </trkpt>
      <trkpt lat="47.0282" lon="2.28458">
        <ele>141</ele>
        <time>2021-08-23T16:22:43Z</time>
      </trkpt>
      <trkpt lat="47.02798" lon="2.28493">
        <ele>142</ele>
        <time>2021-08-23T16:22:43Z</time>
      </trkpt>
      <trkpt lat="47.02782" lon="2.28522">
        <ele>142</ele>
        <time>2021-08-23T16:22:43Z</time>
      </trkpt>
      <trkpt lat="47.02771" lon="2.2855">
        <ele>143</ele>
        <time>2021-08-23T16:22:43Z</time>
      </trkpt>
      <trkpt lat="47.02759" lon="2.28576">
        <ele>143</ele>
        <time>2021-08-23T16:22:43Z</time>
      </trkpt>
      <trkpt lat="47.02744" lon="2.28603">
        <ele>143</ele>
        <time>2021-08-23T16:22:43Z</time>
      </trkpt>
      <trkpt lat="47.02732" lon="2.28626">
        <ele>143</ele>
        <time>2021-08-23T16:22:43Z</time>
      </trkpt>
      <trkpt lat="47.02729" lon="2.28633">
        <ele>143</ele>
        <time>2021-08-23T16:22:43Z</time>
      </trkpt>
      <trkpt lat="47.02708" lon="2.2867">
        <ele>143</ele>
        <time>2021-08-23T16:22:43Z</time>
      </trkpt>
      <trkpt lat="47.02688" lon="2.28708">
        <ele>143</ele>
        <time>2021-08-23T16:22:43Z</time>
      </trkpt>
      <trkpt lat="47.02669" lon="2.28745">
        <ele>143</ele>
        <time>2021-08-23T16:22:43Z</time>
      </trkpt>
      <trkpt lat="47.02651" lon="2.2878">
        <ele>143</ele>
        <time>2021-08-23T16:22:43Z</time>
      </trkpt>
      <trkpt lat="47.02633" lon="2.28811">
        <ele>145</ele>
        <time>2021-08-23T16:22:43Z</time>
      </trkpt>
      <trkpt lat="47.0262" lon="2.28835">
        <ele>145</ele>
        <time>2021-08-23T16:22:43Z</time>
      </trkpt>
      <trkpt lat="47.02616" lon="2.28841">
        <ele>145</ele>
        <time>2021-08-23T16:22:43Z</time>
      </trkpt>
      <trkpt lat="47.02599" lon="2.28871">
        <ele>146</ele>
        <time>2021-08-23T16:22:43Z</time>
      </trkpt>
      <trkpt lat="47.02582" lon="2.28902">
        <ele>148</ele>
        <time>2021-08-23T16:22:43Z</time>
      </trkpt>
      <trkpt lat="47.02564" lon="2.28932">
        <ele>149</ele>
        <time>2021-08-23T16:22:43Z</time>
      </trkpt>
      <trkpt lat="47.02547" lon="2.28963">
        <ele>149</ele>
        <time>2021-08-23T16:22:43Z</time>
      </trkpt>
      <trkpt lat="47.02529" lon="2.28994">
        <ele>150</ele>
        <time>2021-08-23T16:22:43Z</time>
      </trkpt>
      <trkpt lat="47.02513" lon="2.29014">
        <ele>151</ele>
        <time>2021-08-23T16:22:43Z</time>
      </trkpt>
      <trkpt lat="47.02508" lon="2.29019">
        <ele>151</ele>
        <time>2021-08-23T16:22:43Z</time>
      </trkpt>
      <trkpt lat="47.02486" lon="2.29046">
        <ele>151</ele>
        <time>2021-08-23T16:22:43Z</time>
      </trkpt>
      <trkpt lat="47.02461" lon="2.29077">
        <ele>151</ele>
        <time>2021-08-23T16:22:43Z</time>
      </trkpt>
      <trkpt lat="47.02438" lon="2.29111">
        <ele>149</ele>
        <time>2021-08-23T16:22:43Z</time>
      </trkpt>
      <trkpt lat="47.02415" lon="2.29155">
        <ele>145</ele>
        <time>2021-08-23T16:22:43Z</time>
      </trkpt>
      <trkpt lat="47.02387" lon="2.29209">
        <ele>144</ele>
        <time>2021-08-23T16:22:43Z</time>
      </trkpt>
      <trkpt lat="47.02368" lon="2.29247">
        <ele>144</ele>
        <time>2021-08-23T16:22:43Z</time>
      </trkpt>
      <trkpt lat="47.02364" lon="2.29254">
        <ele>145</ele>
        <time>2021-08-23T16:22:43Z</time>
      </trkpt>
      <trkpt lat="47.02358" lon="2.29268">
        <ele>145</ele>
        <time>2021-08-23T16:22:43Z</time>
      </trkpt>
      <trkpt lat="47.02355" lon="2.29274">
        <ele>145</ele>
        <time>2021-08-23T16:22:43Z</time>
      </trkpt>
      <trkpt lat="47.02352" lon="2.29281">
        <ele>146</ele>
        <time>2021-08-23T16:22:43Z</time>
      </trkpt>
      <trkpt lat="47.0235" lon="2.29286">
        <ele>146</ele>
        <time>2021-08-23T16:22:43Z</time>
      </trkpt>
      <trkpt lat="47.02347" lon="2.29292">
        <ele>147</ele>
        <time>2021-08-23T16:22:43Z</time>
      </trkpt>
      <trkpt lat="47.02344" lon="2.29297">
        <ele>147</ele>
        <time>2021-08-23T16:22:43Z</time>
      </trkpt>
      <trkpt lat="47.02341" lon="2.29303">
        <ele>147</ele>
        <time>2021-08-23T16:22:43Z</time>
      </trkpt>
      <trkpt lat="47.02338" lon="2.29308">
        <ele>147</ele>
        <time>2021-08-23T16:22:43Z</time>
      </trkpt>
      <trkpt lat="47.02335" lon="2.29313">
        <ele>147</ele>
        <time>2021-08-23T16:22:43Z</time>
      </trkpt>
      <trkpt lat="47.02331" lon="2.29319">
        <ele>147</ele>
        <time>2021-08-23T16:22:43Z</time>
      </trkpt>
      <trkpt lat="47.02328" lon="2.29325">
        <ele>147</ele>
        <time>2021-08-23T16:22:43Z</time>
      </trkpt>
      <trkpt lat="47.02324" lon="2.29331">
        <ele>147</ele>
        <time>2021-08-23T16:22:43Z</time>
      </trkpt>
      <trkpt lat="47.02321" lon="2.29336">
        <ele>147</ele>
        <time>2021-08-23T16:22:43Z</time>
      </trkpt>
      <trkpt lat="47.02317" lon="2.29342">
        <ele>147</ele>
        <time>2021-08-23T16:22:43Z</time>
      </trkpt>
      <trkpt lat="47.02313" lon="2.29348">
        <ele>147</ele>
        <time>2021-08-23T16:22:43Z</time>
      </trkpt>
      <trkpt lat="47.02309" lon="2.29353">
        <ele>147</ele>
        <time>2021-08-23T16:22:43Z</time>
      </trkpt>
      <trkpt lat="47.02304" lon="2.29357">
        <ele>147</ele>
        <time>2021-08-23T16:22:43Z</time>
      </trkpt>
      <trkpt lat="47.023" lon="2.29361">
        <ele>147</ele>
        <time>2021-08-23T16:22:43Z</time>
      </trkpt>
      <trkpt lat="47.02294" lon="2.29362">
        <ele>147</ele>
        <time>2021-08-23T16:22:43Z</time>
      </trkpt>
      <trkpt lat="47.02288" lon="2.29362">
        <ele>148</ele>
        <time>2021-08-23T16:22:43Z</time>
      </trkpt>
      <trkpt lat="47.02283" lon="2.29363">
        <ele>148</ele>
        <time>2021-08-23T16:22:43Z</time>
      </trkpt>
      <trkpt lat="47.02276" lon="2.29365">
        <ele>148</ele>
        <time>2021-08-23T16:22:43Z</time>
      </trkpt>
      <trkpt lat="47.0227" lon="2.29367">
        <ele>148</ele>
        <time>2021-08-23T16:22:43Z</time>
      </trkpt>
      <trkpt lat="47.02264" lon="2.29371">
        <ele>148</ele>
        <time>2021-08-23T16:22:43Z</time>
      </trkpt>
      <trkpt lat="47.02258" lon="2.29374">
        <ele>148</ele>
        <time>2021-08-23T16:22:43Z</time>
      </trkpt>
      <trkpt lat="47.02253" lon="2.29378">
        <ele>148</ele>
        <time>2021-08-23T16:22:43Z</time>
      </trkpt>
      <trkpt lat="47.02246" lon="2.29382">
        <ele>148</ele>
        <time>2021-08-23T16:22:43Z</time>
      </trkpt>
      <trkpt lat="47.02241" lon="2.29384">
        <ele>148</ele>
        <time>2021-08-23T16:22:43Z</time>
      </trkpt>
      <trkpt lat="47.02236" lon="2.29388">
        <ele>148</ele>
        <time>2021-08-23T16:22:43Z</time>
      </trkpt>
      <trkpt lat="47.0223" lon="2.29391">
        <ele>148</ele>
        <time>2021-08-23T16:22:43Z</time>
      </trkpt>
      <trkpt lat="47.02226" lon="2.29394">
        <ele>148</ele>
        <time>2021-08-23T16:22:43Z</time>
      </trkpt>
      <trkpt lat="47.02223" lon="2.29396">
        <ele>148</ele>
        <time>2021-08-23T16:22:43Z</time>
      </trkpt>
      <trkpt lat="47.02222" lon="2.29396">
        <ele>148</ele>
        <time>2021-08-23T16:22:43Z</time>
      </trkpt>
      <trkpt lat="47.02221" lon="2.29397">
        <ele>148</ele>
        <time>2021-08-23T16:22:43Z</time>
      </trkpt>
      <trkpt lat="47.02219" lon="2.29397">
        <ele>148</ele>
        <time>2021-08-23T16:22:43Z</time>
      </trkpt>
      <trkpt lat="47.02217" lon="2.29398">
        <ele>148</ele>
        <time>2021-08-23T16:22:43Z</time>
      </trkpt>
      <trkpt lat="47.02215" lon="2.29397">
        <ele>148</ele>
        <time>2021-08-23T16:22:43Z</time>
      </trkpt>
      <trkpt lat="47.02212" lon="2.29396">
        <ele>148</ele>
        <time>2021-08-23T16:22:43Z</time>
      </trkpt>
      <trkpt lat="47.02208" lon="2.29396">
        <ele>148</ele>
        <time>2021-08-23T16:22:43Z</time>
      </trkpt>
      <trkpt lat="47.02203" lon="2.29397">
        <ele>148</ele>
        <time>2021-08-23T16:22:43Z</time>
      </trkpt>
      <trkpt lat="47.02198" lon="2.294">
        <ele>148</ele>
        <time>2021-08-23T16:22:43Z</time>
      </trkpt>
      <trkpt lat="47.02195" lon="2.29405">
        <ele>148</ele>
        <time>2021-08-23T16:22:43Z</time>
      </trkpt>
      <trkpt lat="47.02193" lon="2.29413">
        <ele>148</ele>
        <time>2021-08-23T16:22:43Z</time>
      </trkpt>
      <trkpt lat="47.02192" lon="2.29421">
        <ele>149</ele>
        <time>2021-08-23T16:22:43Z</time>
      </trkpt>
      <trkpt lat="47.02193" lon="2.2943">
        <ele>149</ele>
        <time>2021-08-23T16:22:43Z</time>
      </trkpt>
      <trkpt lat="47.02192" lon="2.29438">
        <ele>149</ele>
        <time>2021-08-23T16:22:43Z</time>
      </trkpt>
      <trkpt lat="47.02191" lon="2.29446">
        <ele>150</ele>
        <time>2021-08-23T16:22:43Z</time>
      </trkpt>
      <trkpt lat="47.02188" lon="2.29454">
        <ele>150</ele>
        <time>2021-08-23T16:22:43Z</time>
      </trkpt>
      <trkpt lat="47.02185" lon="2.29461">
        <ele>151</ele>
        <time>2021-08-23T16:22:43Z</time>
      </trkpt>
      <trkpt lat="47.02181" lon="2.29468">
        <ele>152</ele>
        <time>2021-08-23T16:22:43Z</time>
      </trkpt>
      <trkpt lat="47.02178" lon="2.29474">
        <ele>153</ele>
        <time>2021-08-23T16:22:43Z</time>
      </trkpt>
      <trkpt lat="47.02175" lon="2.2948">
        <ele>153</ele>
        <time>2021-08-23T16:22:43Z</time>
      </trkpt>
      <trkpt lat="47.02171" lon="2.29486">
        <ele>154</ele>
        <time>2021-08-23T16:22:43Z</time>
      </trkpt>
      <trkpt lat="47.02168" lon="2.29492">
        <ele>154</ele>
        <time>2021-08-23T16:22:43Z</time>
      </trkpt>
      <trkpt lat="47.02164" lon="2.29497">
        <ele>155</ele>
        <time>2021-08-23T16:22:43Z</time>
      </trkpt>
      <trkpt lat="47.02161" lon="2.29502">
        <ele>155</ele>
        <time>2021-08-23T16:22:43Z</time>
      </trkpt>
      <trkpt lat="47.02158" lon="2.29507">
        <ele>156</ele>
        <time>2021-08-23T16:22:43Z</time>
      </trkpt>
      <trkpt lat="47.02154" lon="2.29513">
        <ele>157</ele>
        <time>2021-08-23T16:22:43Z</time>
      </trkpt>
      <trkpt lat="47.02151" lon="2.29517">
        <ele>157</ele>
        <time>2021-08-23T16:22:43Z</time>
      </trkpt>
      <trkpt lat="47.02147" lon="2.29521">
        <ele>158</ele>
        <time>2021-08-23T16:22:43Z</time>
      </trkpt>
      <trkpt lat="47.02144" lon="2.29527">
        <ele>158</ele>
        <time>2021-08-23T16:22:43Z</time>
      </trkpt>
      <trkpt lat="47.02124" lon="2.29549">
        <ele>159</ele>
        <time>2021-08-23T16:22:43Z</time>
      </trkpt>
      <trkpt lat="47.02097" lon="2.2956">
        <ele>160</ele>
        <time>2021-08-23T16:22:43Z</time>
      </trkpt>
      <trkpt lat="47.02067" lon="2.29554">
        <ele>159</ele>
        <time>2021-08-23T16:22:43Z</time>
      </trkpt>
      <trkpt lat="47.02035" lon="2.29548">
        <ele>160</ele>
        <time>2021-08-23T16:22:43Z</time>
      </trkpt>
      <trkpt lat="47.02001" lon="2.29544">
        <ele>159</ele>
        <time>2021-08-23T16:22:43Z</time>
      </trkpt>
      <trkpt lat="47.01976" lon="2.29541">
        <ele>159</ele>
        <time>2021-08-23T16:22:43Z</time>
      </trkpt>
      <trkpt lat="47.01969" lon="2.29541">
        <ele>159</ele>
        <time>2021-08-23T16:22:43Z</time>
      </trkpt>
      <trkpt lat="47.01935" lon="2.29539">
        <ele>160</ele>
        <time>2021-08-23T16:22:43Z</time>
      </trkpt>
      <trkpt lat="47.01903" lon="2.29534">
        <ele>160</ele>
        <time>2021-08-23T16:22:43Z</time>
      </trkpt>
      <trkpt lat="47.0187" lon="2.29536">
        <ele>159</ele>
        <time>2021-08-23T16:22:43Z</time>
      </trkpt>
      <trkpt lat="47.01836" lon="2.29538">
        <ele>158</ele>
        <time>2021-08-23T16:22:43Z</time>
      </trkpt>
      <trkpt lat="47.018" lon="2.29538">
        <ele>156</ele>
        <time>2021-08-23T16:22:43Z</time>
      </trkpt>
      <trkpt lat="47.01766" lon="2.29535">
        <ele>155</ele>
        <time>2021-08-23T16:22:43Z</time>
      </trkpt>
      <trkpt lat="47.01757" lon="2.29533">
        <ele>154</ele>
        <time>2021-08-23T16:22:43Z</time>
      </trkpt>
      <trkpt lat="47.0171" lon="2.29535">
        <ele>153</ele>
        <time>2021-08-23T16:22:43Z</time>
      </trkpt>
      <trkpt lat="47.01677" lon="2.29573">
        <ele>151</ele>
        <time>2021-08-23T16:22:43Z</time>
      </trkpt>
      <trkpt lat="47.01659" lon="2.2962">
        <ele>152</ele>
        <time>2021-08-23T16:22:43Z</time>
      </trkpt>
      <trkpt lat="47.01636" lon="2.29645">
        <ele>152</ele>
        <time>2021-08-23T16:22:43Z</time>
      </trkpt>
      <trkpt lat="47.01613" lon="2.29657">
        <ele>152</ele>
        <time>2021-08-23T16:22:43Z</time>
      </trkpt>
      <trkpt lat="47.01591" lon="2.29658">
        <ele>154</ele>
        <time>2021-08-23T16:22:43Z</time>
      </trkpt>
      <trkpt lat="47.01586" lon="2.29659">
        <ele>154</ele>
        <time>2021-08-23T16:22:43Z</time>
      </trkpt>
      <trkpt lat="47.01574" lon="2.29664">
        <ele>155</ele>
        <time>2021-08-23T16:22:43Z</time>
      </trkpt>
      <trkpt lat="47.01568" lon="2.29669">
        <ele>155</ele>
        <time>2021-08-23T16:22:43Z</time>
      </trkpt>
      <trkpt lat="47.01563" lon="2.29674">
        <ele>155</ele>
        <time>2021-08-23T16:22:43Z</time>
      </trkpt>
      <trkpt lat="47.01557" lon="2.29678">
        <ele>156</ele>
        <time>2021-08-23T16:22:43Z</time>
      </trkpt>
      <trkpt lat="47.01551" lon="2.29682">
        <ele>156</ele>
        <time>2021-08-23T16:22:43Z</time>
      </trkpt>
      <trkpt lat="47.01546" lon="2.29687">
        <ele>156</ele>
        <time>2021-08-23T16:22:43Z</time>
      </trkpt>
      <trkpt lat="47.01541" lon="2.29692">
        <ele>156</ele>
        <time>2021-08-23T16:22:43Z</time>
      </trkpt>
      <trkpt lat="47.01536" lon="2.29695">
        <ele>156</ele>
        <time>2021-08-23T16:22:43Z</time>
      </trkpt>
      <trkpt lat="47.01531" lon="2.297">
        <ele>156</ele>
        <time>2021-08-23T16:22:43Z</time>
      </trkpt>
      <trkpt lat="47.01527" lon="2.29705">
        <ele>156</ele>
        <time>2021-08-23T16:22:43Z</time>
      </trkpt>
      <trkpt lat="47.01522" lon="2.29709">
        <ele>156</ele>
        <time>2021-08-23T16:22:43Z</time>
      </trkpt>
      <trkpt lat="47.01517" lon="2.29713">
        <ele>156</ele>
        <time>2021-08-23T16:22:43Z</time>
      </trkpt>
      <trkpt lat="47.01513" lon="2.29717">
        <ele>156</ele>
        <time>2021-08-23T16:22:43Z</time>
      </trkpt>
      <trkpt lat="47.01508" lon="2.29721">
        <ele>155</ele>
        <time>2021-08-23T16:22:43Z</time>
      </trkpt>
      <trkpt lat="47.01503" lon="2.29725">
        <ele>155</ele>
        <time>2021-08-23T16:22:43Z</time>
      </trkpt>
      <trkpt lat="47.01497" lon="2.29728">
        <ele>154</ele>
        <time>2021-08-23T16:22:43Z</time>
      </trkpt>
      <trkpt lat="47.01492" lon="2.29732">
        <ele>154</ele>
        <time>2021-08-23T16:22:43Z</time>
      </trkpt>
      <trkpt lat="47.01487" lon="2.29736">
        <ele>154</ele>
        <time>2021-08-23T16:22:43Z</time>
      </trkpt>
      <trkpt lat="47.01481" lon="2.29739">
        <ele>153</ele>
        <time>2021-08-23T16:22:43Z</time>
      </trkpt>
      <trkpt lat="47.01476" lon="2.29743">
        <ele>153</ele>
        <time>2021-08-23T16:22:43Z</time>
      </trkpt>
      <trkpt lat="47.0147" lon="2.29746">
        <ele>153</ele>
        <time>2021-08-23T16:22:43Z</time>
      </trkpt>
      <trkpt lat="47.01464" lon="2.29749">
        <ele>153</ele>
        <time>2021-08-23T16:22:43Z</time>
      </trkpt>
      <trkpt lat="47.01458" lon="2.29753">
        <ele>153</ele>
        <time>2021-08-23T16:22:43Z</time>
      </trkpt>
      <trkpt lat="47.01452" lon="2.29756">
        <ele>153</ele>
        <time>2021-08-23T16:22:43Z</time>
      </trkpt>
      <trkpt lat="47.01446" lon="2.29759">
        <ele>153</ele>
        <time>2021-08-23T16:22:43Z</time>
      </trkpt>
      <trkpt lat="47.0144" lon="2.29762">
        <ele>153</ele>
        <time>2021-08-23T16:22:43Z</time>
      </trkpt>
      <trkpt lat="47.01434" lon="2.29765">
        <ele>153</ele>
        <time>2021-08-23T16:22:43Z</time>
      </trkpt>
      <trkpt lat="47.01429" lon="2.29768">
        <ele>153</ele>
        <time>2021-08-23T16:22:43Z</time>
      </trkpt>
      <trkpt lat="47.01423" lon="2.29772">
        <ele>153</ele>
        <time>2021-08-23T16:22:43Z</time>
      </trkpt>
      <trkpt lat="47.01418" lon="2.29776">
        <ele>153</ele>
        <time>2021-08-23T16:22:43Z</time>
      </trkpt>
      <trkpt lat="47.01411" lon="2.2978">
        <ele>154</ele>
        <time>2021-08-23T16:22:43Z</time>
      </trkpt>
      <trkpt lat="47.01406" lon="2.29783">
        <ele>154</ele>
        <time>2021-08-23T16:22:43Z</time>
      </trkpt>
      <trkpt lat="47.014" lon="2.29788">
        <ele>154</ele>
        <time>2021-08-23T16:22:43Z</time>
      </trkpt>
      <trkpt lat="47.01394" lon="2.29792">
        <ele>154</ele>
        <time>2021-08-23T16:22:43Z</time>
      </trkpt>
      <trkpt lat="47.01389" lon="2.29796">
        <ele>154</ele>
        <time>2021-08-23T16:22:43Z</time>
      </trkpt>
      <trkpt lat="47.01384" lon="2.298">
        <ele>154</ele>
        <time>2021-08-23T16:22:43Z</time>
      </trkpt>
      <trkpt lat="47.01379" lon="2.29805">
        <ele>155</ele>
        <time>2021-08-23T16:22:43Z</time>
      </trkpt>
      <trkpt lat="47.01376" lon="2.29807">
        <ele>155</ele>
        <time>2021-08-23T16:22:43Z</time>
      </trkpt>
      <trkpt lat="47.01373" lon="2.29809">
        <ele>155</ele>
        <time>2021-08-23T16:22:43Z</time>
      </trkpt>
      <trkpt lat="47.01371" lon="2.29811">
        <ele>155</ele>
        <time>2021-08-23T16:22:43Z</time>
      </trkpt>
      <trkpt lat="47.01369" lon="2.29812">
        <ele>156</ele>
        <time>2021-08-23T16:22:43Z</time>
      </trkpt>
      <trkpt lat="47.01366" lon="2.29812">
        <ele>156</ele>
        <time>2021-08-23T16:22:43Z</time>
      </trkpt>
      <trkpt lat="47.01364" lon="2.29811">
        <ele>156</ele>
        <time>2021-08-23T16:22:43Z</time>
      </trkpt>
      <trkpt lat="47.01362" lon="2.29809">
        <ele>156</ele>
        <time>2021-08-23T16:22:43Z</time>
      </trkpt>
      <trkpt lat="47.01361" lon="2.29806">
        <ele>155</ele>
        <time>2021-08-23T16:22:43Z</time>
      </trkpt>
      <trkpt lat="47.01361" lon="2.29802">
        <ele>155</ele>
        <time>2021-08-23T16:22:43Z</time>
      </trkpt>
      <trkpt lat="47.0136" lon="2.29799">
        <ele>155</ele>
        <time>2021-08-23T16:22:43Z</time>
      </trkpt>
      <trkpt lat="47.0136" lon="2.29799">
        <ele>155</ele>
        <time>2021-08-23T16:22:43Z</time>
      </trkpt>
      <trkpt lat="47.0136" lon="2.29799">
        <ele>155</ele>
        <time>2021-08-23T16:22:43Z</time>
      </trkpt>
      <trkpt lat="47.0136" lon="2.29799">
        <ele>155</ele>
        <time>2021-08-23T16:22:43Z</time>
      </trkpt>
      <trkpt lat="47.0136" lon="2.29799">
        <ele>155</ele>
        <time>2021-08-23T16:22:43Z</time>
      </trkpt>
      <trkpt lat="47.0136" lon="2.29799">
        <ele>155</ele>
        <time>2021-08-23T16:22:43Z</time>
      </trkpt>
      <trkpt lat="47.0136" lon="2.29799">
        <ele>155</ele>
        <time>2021-08-23T16:22:43Z</time>
      </trkpt>
      <trkpt lat="47.0136" lon="2.29799">
        <ele>155</ele>
        <time>2021-08-23T16:22:43Z</time>
      </trkpt>
      <trkpt lat="47.0136" lon="2.29799">
        <ele>155</ele>
        <time>2021-08-23T16:22:43Z</time>
      </trkpt>
      <trkpt lat="47.01359" lon="2.298">
        <ele>155</ele>
        <time>2021-08-23T16:22:43Z</time>
      </trkpt>
      <trkpt lat="47.01359" lon="2.29799">
        <ele>155</ele>
        <time>2021-08-23T16:22:43Z</time>
      </trkpt>
      <trkpt lat="47.01359" lon="2.29799">
        <ele>155</ele>
        <time>2021-08-23T16:22:43Z</time>
      </trkpt>
      <trkpt lat="47.01359" lon="2.29799">
        <ele>155</ele>
        <time>2021-08-23T16:22:43Z</time>
      </trkpt>
      <trkpt lat="47.0136" lon="2.29799">
        <ele>155</ele>
        <time>2021-08-23T16:22:43Z</time>
      </trkpt>
      <trkpt lat="47.01359" lon="2.29798">
        <ele>155</ele>
        <time>2021-08-23T16:22:43Z</time>
      </trkpt>
      <trkpt lat="47.01358" lon="2.29798">
        <ele>155</ele>
        <time>2021-08-23T16:22:43Z</time>
      </trkpt>
      <trkpt lat="47.01356" lon="2.29799">
        <ele>155</ele>
        <time>2021-08-23T16:22:43Z</time>
      </trkpt>
      <trkpt lat="47.01357" lon="2.29802">
        <ele>156</ele>
        <time>2021-08-23T16:22:43Z</time>
      </trkpt>
      <trkpt lat="47.01359" lon="2.29805">
        <ele>156</ele>
        <time>2021-08-23T16:22:43Z</time>
      </trkpt>
      <trkpt lat="47.01362" lon="2.29809">
        <ele>156</ele>
        <time>2021-08-23T16:22:43Z</time>
      </trkpt>
      <trkpt lat="47.01364" lon="2.29813">
        <ele>156</ele>
        <time>2021-08-23T16:22:43Z</time>
      </trkpt>
      <trkpt lat="47.01383" lon="2.2984">
        <ele>157</ele>
        <time>2021-08-23T16:22:43Z</time>
      </trkpt>
      <trkpt lat="47.01403" lon="2.29869">
        <ele>157</ele>
        <time>2021-08-23T16:22:43Z</time>
      </trkpt>
      <trkpt lat="47.01399" lon="2.29902">
        <ele>158</ele>
        <time>2021-08-23T16:22:43Z</time>
      </trkpt>
      <trkpt lat="47.01375" lon="2.29923">
        <ele>157</ele>
        <time>2021-08-23T16:22:43Z</time>
      </trkpt>
      <trkpt lat="47.01355" lon="2.29939">
        <ele>157</ele>
        <time>2021-08-23T16:22:43Z</time>
      </trkpt>
      <trkpt lat="47.01354" lon="2.29941">
        <ele>157</ele>
        <time>2021-08-23T16:22:43Z</time>
      </trkpt>
      <trkpt lat="47.01353" lon="2.29941">
        <ele>157</ele>
        <time>2021-08-23T16:22:43Z</time>
      </trkpt>
      <trkpt lat="47.01354" lon="2.29942">
        <ele>157</ele>
        <time>2021-08-23T16:22:43Z</time>
      </trkpt>
      <trkpt lat="47.01354" lon="2.29943">
        <ele>157</ele>
        <time>2021-08-23T16:22:43Z</time>
      </trkpt>
      <trkpt lat="47.01354" lon="2.29943">
        <ele>157</ele>
        <time>2021-08-23T16:22:43Z</time>
      </trkpt>
      <trkpt lat="47.01354" lon="2.29942">
        <ele>157</ele>
        <time>2021-08-23T16:22:43Z</time>
      </trkpt>
      <trkpt lat="47.01352" lon="2.29945">
        <ele>157</ele>
        <time>2021-08-23T16:22:43Z</time>
      </trkpt>
      <trkpt lat="47.01352" lon="2.29945">
        <ele>157</ele>
        <time>2021-08-23T16:22:43Z</time>
      </trkpt>
      <trkpt lat="47.01372" lon="2.29929">
        <ele>157</ele>
        <time>2021-08-23T16:22:43Z</time>
      </trkpt>
      <trkpt lat="47.01395" lon="2.29907">
        <ele>158</ele>
        <time>2021-08-23T16:22:43Z</time>
      </trkpt>
      <trkpt lat="47.01406" lon="2.29875">
        <ele>157</ele>
        <time>2021-08-23T16:22:43Z</time>
      </trkpt>
      <trkpt lat="47.01387" lon="2.29847">
        <ele>157</ele>
        <time>2021-08-23T16:22:43Z</time>
      </trkpt>
      <trkpt lat="47.0137" lon="2.29822">
        <ele>156</ele>
        <time>2021-08-23T16:22:43Z</time>
      </trkpt>
      <trkpt lat="47.01351" lon="2.29824">
        <ele>156</ele>
        <time>2021-08-23T16:22:43Z</time>
      </trkpt>
      <trkpt lat="47.01346" lon="2.29827">
        <ele>156</ele>
        <time>2021-08-23T16:22:43Z</time>
      </trkpt>
      <trkpt lat="47.01319" lon="2.29844">
        <ele>157</ele>
        <time>2021-08-23T16:22:43Z</time>
      </trkpt>
      <trkpt lat="47.01291" lon="2.29863">
        <ele>157</ele>
        <time>2021-08-23T16:22:43Z</time>
      </trkpt>
      <trkpt lat="47.01267" lon="2.29883">
        <ele>157</ele>
        <time>2021-08-23T16:22:43Z</time>
      </trkpt>
      <trkpt lat="47.01248" lon="2.2987">
        <ele>157</ele>
        <time>2021-08-23T16:22:43Z</time>
      </trkpt>
      <trkpt lat="47.01229" lon="2.29837">
        <ele>157</ele>
        <time>2021-08-23T16:22:43Z</time>
      </trkpt>
      <trkpt lat="47.01214" lon="2.29807">
        <ele>157</ele>
        <time>2021-08-23T16:22:43Z</time>
      </trkpt>
      <trkpt lat="47.01211" lon="2.29799">
        <ele>157</ele>
        <time>2021-08-23T16:22:43Z</time>
      </trkpt>
      <trkpt lat="47.01208" lon="2.29791">
        <ele>157</ele>
        <time>2021-08-23T16:22:43Z</time>
      </trkpt>
      <trkpt lat="47.01204" lon="2.29784">
        <ele>157</ele>
        <time>2021-08-23T16:22:43Z</time>
      </trkpt>
      <trkpt lat="47.01199" lon="2.29777">
        <ele>157</ele>
        <time>2021-08-23T16:22:43Z</time>
      </trkpt>
      <trkpt lat="47.01195" lon="2.2977">
        <ele>157</ele>
        <time>2021-08-23T16:22:43Z</time>
      </trkpt>
      <trkpt lat="47.01193" lon="2.29762">
        <ele>157</ele>
        <time>2021-08-23T16:22:43Z</time>
      </trkpt>
      <trkpt lat="47.0119" lon="2.29754">
        <ele>157</ele>
        <time>2021-08-23T16:22:43Z</time>
      </trkpt>
      <trkpt lat="47.01187" lon="2.29745">
        <ele>157</ele>
        <time>2021-08-23T16:22:43Z</time>
      </trkpt>
      <trkpt lat="47.01184" lon="2.29737">
        <ele>157</ele>
        <time>2021-08-23T16:22:43Z</time>
      </trkpt>
      <trkpt lat="47.01181" lon="2.29729">
        <ele>157</ele>
        <time>2021-08-23T16:22:43Z</time>
      </trkpt>
      <trkpt lat="47.01178" lon="2.29721">
        <ele>157</ele>
        <time>2021-08-23T16:22:43Z</time>
      </trkpt>
      <trkpt lat="47.01174" lon="2.29713">
        <ele>157</ele>
        <time>2021-08-23T16:22:43Z</time>
      </trkpt>
      <trkpt lat="47.01171" lon="2.29704">
        <ele>157</ele>
        <time>2021-08-23T16:22:43Z</time>
      </trkpt>
      <trkpt lat="47.01168" lon="2.29696">
        <ele>157</ele>
        <time>2021-08-23T16:22:43Z</time>
      </trkpt>
      <trkpt lat="47.01164" lon="2.29688">
        <ele>157</ele>
        <time>2021-08-23T16:22:43Z</time>
      </trkpt>
      <trkpt lat="47.0116" lon="2.29681">
        <ele>157</ele>
        <time>2021-08-23T16:22:43Z</time>
      </trkpt>
      <trkpt lat="47.01156" lon="2.29674">
        <ele>157</ele>
        <time>2021-08-23T16:22:43Z</time>
      </trkpt>
      <trkpt lat="47.01153" lon="2.29665">
        <ele>157</ele>
        <time>2021-08-23T16:22:43Z</time>
      </trkpt>
      <trkpt lat="47.0115" lon="2.29656">
        <ele>157</ele>
        <time>2021-08-23T16:22:43Z</time>
      </trkpt>
      <trkpt lat="47.01146" lon="2.29647">
        <ele>157</ele>
        <time>2021-08-23T16:22:43Z</time>
      </trkpt>
      <trkpt lat="47.01143" lon="2.2964">
        <ele>156</ele>
        <time>2021-08-23T16:22:43Z</time>
      </trkpt>
      <trkpt lat="47.01139" lon="2.29633">
        <ele>156</ele>
        <time>2021-08-23T16:22:43Z</time>
      </trkpt>
      <trkpt lat="47.01135" lon="2.29625">
        <ele>157</ele>
        <time>2021-08-23T16:22:43Z</time>
      </trkpt>
      <trkpt lat="47.01131" lon="2.29619">
        <ele>157</ele>
        <time>2021-08-23T16:22:43Z</time>
      </trkpt>
      <trkpt lat="47.01129" lon="2.29611">
        <ele>157</ele>
        <time>2021-08-23T16:22:43Z</time>
      </trkpt>
      <trkpt lat="47.01126" lon="2.29603">
        <ele>157</ele>
        <time>2021-08-23T16:22:43Z</time>
      </trkpt>
      <trkpt lat="47.01123" lon="2.29595">
        <ele>158</ele>
        <time>2021-08-23T16:22:43Z</time>
      </trkpt>
      <trkpt lat="47.0112" lon="2.29588">
        <ele>158</ele>
        <time>2021-08-23T16:22:43Z</time>
      </trkpt>
      <trkpt lat="47.01115" lon="2.29576">
        <ele>159</ele>
        <time>2021-08-23T16:22:43Z</time>
      </trkpt>
      <trkpt lat="47.01112" lon="2.2957">
        <ele>159</ele>
        <time>2021-08-23T16:22:43Z</time>
      </trkpt>
      <trkpt lat="47.0111" lon="2.29564">
        <ele>160</ele>
        <time>2021-08-23T16:22:43Z</time>
      </trkpt>
      <trkpt lat="47.01109" lon="2.2956">
        <ele>160</ele>
        <time>2021-08-23T16:22:43Z</time>
      </trkpt>
      <trkpt lat="47.01108" lon="2.29557">
        <ele>160</ele>
        <time>2021-08-23T16:22:43Z</time>
      </trkpt>
      <trkpt lat="47.01107" lon="2.29556">
        <ele>160</ele>
        <time>2021-08-23T16:22:43Z</time>
      </trkpt>
      <trkpt lat="47.01107" lon="2.29557">
        <ele>160</ele>
        <time>2021-08-23T16:22:43Z</time>
      </trkpt>
      <trkpt lat="47.01107" lon="2.29556">
        <ele>160</ele>
        <time>2021-08-23T16:22:43Z</time>
      </trkpt>
      <trkpt lat="47.01107" lon="2.29556">
        <ele>160</ele>
        <time>2021-08-23T16:22:43Z</time>
      </trkpt>
      <trkpt lat="47.01108" lon="2.29555">
        <ele>160</ele>
        <time>2021-08-23T16:22:43Z</time>
      </trkpt>
      <trkpt lat="47.01108" lon="2.29555">
        <ele>160</ele>
        <time>2021-08-23T16:22:43Z</time>
      </trkpt>
      <trkpt lat="47.01108" lon="2.29555">
        <ele>160</ele>
        <time>2021-08-23T16:22:43Z</time>
      </trkpt>
      <trkpt lat="47.01108" lon="2.29555">
        <ele>160</ele>
        <time>2021-08-23T16:22:43Z</time>
      </trkpt>
      <trkpt lat="47.01108" lon="2.29556">
        <ele>160</ele>
        <time>2021-08-23T16:22:43Z</time>
      </trkpt>
      <trkpt lat="47.01108" lon="2.29556">
        <ele>160</ele>
        <time>2021-08-23T16:22:43Z</time>
      </trkpt>
      <trkpt lat="47.01108" lon="2.29557">
        <ele>160</ele>
        <time>2021-08-23T16:22:43Z</time>
      </trkpt>
      <trkpt lat="47.01109" lon="2.29556">
        <ele>160</ele>
        <time>2021-08-23T16:22:43Z</time>
      </trkpt>
      <trkpt lat="47.01109" lon="2.29556">
        <ele>160</ele>
        <time>2021-08-23T16:22:43Z</time>
      </trkpt>
      <trkpt lat="47.01109" lon="2.29557">
        <ele>160</ele>
        <time>2021-08-23T16:22:43Z</time>
      </trkpt>
      <trkpt lat="47.01109" lon="2.29557">
        <ele>160</ele>
        <time>2021-08-23T16:22:43Z</time>
      </trkpt>
      <trkpt lat="47.01109" lon="2.29556">
        <ele>160</ele>
        <time>2021-08-23T16:22:43Z</time>
      </trkpt>
      <trkpt lat="47.01108" lon="2.29555">
        <ele>160</ele>
        <time>2021-08-23T16:22:43Z</time>
      </trkpt>
      <trkpt lat="47.01108" lon="2.29554">
        <ele>160</ele>
        <time>2021-08-23T16:22:43Z</time>
      </trkpt>
      <trkpt lat="47.01108" lon="2.29554">
        <ele>160</ele>
        <time>2021-08-23T16:22:43Z</time>
      </trkpt>
      <trkpt lat="47.01108" lon="2.29554">
        <ele>160</ele>
        <time>2021-08-23T16:22:43Z</time>
      </trkpt>
      <trkpt lat="47.01107" lon="2.29553">
        <ele>160</ele>
        <time>2021-08-23T16:22:43Z</time>
      </trkpt>
      <trkpt lat="47.01107" lon="2.29552">
        <ele>160</ele>
        <time>2021-08-23T16:22:43Z</time>
      </trkpt>
      <trkpt lat="47.01106" lon="2.2955">
        <ele>160</ele>
        <time>2021-08-23T16:22:43Z</time>
      </trkpt>
      <trkpt lat="47.01105" lon="2.29548">
        <ele>160</ele>
        <time>2021-08-23T16:22:43Z</time>
      </trkpt>
      <trkpt lat="47.01104" lon="2.29545">
        <ele>160</ele>
        <time>2021-08-23T16:22:43Z</time>
      </trkpt>
      <trkpt lat="47.01103" lon="2.29542">
        <ele>160</ele>
        <time>2021-08-23T16:22:43Z</time>
      </trkpt>
      <trkpt lat="47.01101" lon="2.29539">
        <ele>160</ele>
        <time>2021-08-23T16:22:43Z</time>
      </trkpt>
      <trkpt lat="47.01091" lon="2.29513">
        <ele>160</ele>
        <time>2021-08-23T16:22:43Z</time>
      </trkpt>
      <trkpt lat="47.01075" lon="2.29481">
        <ele>159</ele>
        <time>2021-08-23T16:22:43Z</time>
      </trkpt>
      <trkpt lat="47.01054" lon="2.29455">
        <ele>159</ele>
        <time>2021-08-23T16:22:43Z</time>
      </trkpt>
      <trkpt lat="47.0103" lon="2.29444">
        <ele>160</ele>
        <time>2021-08-23T16:22:43Z</time>
      </trkpt>
      <trkpt lat="47.01025" lon="2.29414">
        <ele>160</ele>
        <time>2021-08-23T16:22:43Z</time>
      </trkpt>
      <trkpt lat="47.01029" lon="2.29388">
        <ele>161</ele>
        <time>2021-08-23T16:22:43Z</time>
      </trkpt>
      <trkpt lat="47.01028" lon="2.29383">
        <ele>161</ele>
        <time>2021-08-23T16:22:43Z</time>
      </trkpt>
      <trkpt lat="47.01031" lon="2.29356">
        <ele>160</ele>
        <time>2021-08-23T16:22:43Z</time>
      </trkpt>
      <trkpt lat="47.01021" lon="2.29345">
        <ele>160</ele>
        <time>2021-08-23T16:22:43Z</time>
      </trkpt>
      <trkpt lat="47.00994" lon="2.29364">
        <ele>159</ele>
        <time>2021-08-23T16:22:43Z</time>
      </trkpt>
      <trkpt lat="47.00982" lon="2.29389">
        <ele>159</ele>
        <time>2021-08-23T16:22:43Z</time>
      </trkpt>
      <trkpt lat="47.00995" lon="2.29422">
        <ele>160</ele>
        <time>2021-08-23T16:22:43Z</time>
      </trkpt>
      <trkpt lat="47.0101" lon="2.29445">
        <ele>160</ele>
        <time>2021-08-23T16:22:43Z</time>
      </trkpt>
      <trkpt lat="47.01013" lon="2.29452">
        <ele>160</ele>
        <time>2021-08-23T16:22:43Z</time>
      </trkpt>
      <trkpt lat="47.01001" lon="2.29484">
        <ele>160</ele>
        <time>2021-08-23T16:22:43Z</time>
      </trkpt>
      <trkpt lat="47.00977" lon="2.29506">
        <ele>160</ele>
        <time>2021-08-23T16:22:43Z</time>
      </trkpt>
      <trkpt lat="47.00953" lon="2.29529">
        <ele>159</ele>
        <time>2021-08-23T16:22:43Z</time>
      </trkpt>
      <trkpt lat="47.00935" lon="2.29562">
        <ele>160</ele>
        <time>2021-08-23T16:22:43Z</time>
      </trkpt>
      <trkpt lat="47.00928" lon="2.29603">
        <ele>160</ele>
        <time>2021-08-23T16:22:43Z</time>
      </trkpt>
      <trkpt lat="47.00926" lon="2.29639">
        <ele>161</ele>
        <time>2021-08-23T16:22:43Z</time>
      </trkpt>
      <trkpt lat="47.00926" lon="2.29648">
        <ele>161</ele>
        <time>2021-08-23T16:22:43Z</time>
      </trkpt>
      <trkpt lat="47.00921" lon="2.2969">
        <ele>161</ele>
        <time>2021-08-23T16:22:43Z</time>
      </trkpt>
      <trkpt lat="47.00913" lon="2.29731">
        <ele>162</ele>
        <time>2021-08-23T16:22:43Z</time>
      </trkpt>
      <trkpt lat="47.00901" lon="2.2977">
        <ele>161</ele>
        <time>2021-08-23T16:22:43Z</time>
      </trkpt>
      <trkpt lat="47.00887" lon="2.2981">
        <ele>161</ele>
        <time>2021-08-23T16:22:43Z</time>
      </trkpt>
      <trkpt lat="47.0088" lon="2.29856">
        <ele>161</ele>
        <time>2021-08-23T16:22:43Z</time>
      </trkpt>
      <trkpt lat="47.00871" lon="2.29893">
        <ele>160</ele>
        <time>2021-08-23T16:22:43Z</time>
      </trkpt>
      <trkpt lat="47.00869" lon="2.29902">
        <ele>160</ele>
        <time>2021-08-23T16:22:43Z</time>
      </trkpt>
      <trkpt lat="47.00859" lon="2.29948">
        <ele>159</ele>
        <time>2021-08-23T16:22:43Z</time>
      </trkpt>
      <trkpt lat="47.00849" lon="2.29994">
        <ele>159</ele>
        <time>2021-08-23T16:22:43Z</time>
      </trkpt>
      <trkpt lat="47.00847" lon="2.30043">
        <ele>157</ele>
        <time>2021-08-23T16:22:43Z</time>
      </trkpt>
      <trkpt lat="47.00849" lon="2.30092">
        <ele>157</ele>
        <time>2021-08-23T16:22:43Z</time>
      </trkpt>
      <trkpt lat="47.00849" lon="2.30138">
        <ele>157</ele>
        <time>2021-08-23T16:22:43Z</time>
      </trkpt>
      <trkpt lat="47.00842" lon="2.30173">
        <ele>157</ele>
        <time>2021-08-23T16:22:43Z</time>
      </trkpt>
      <trkpt lat="47.0084" lon="2.30181">
        <ele>157</ele>
        <time>2021-08-23T16:22:43Z</time>
      </trkpt>
      <trkpt lat="47.00838" lon="2.30188">
        <ele>157</ele>
        <time>2021-08-23T16:22:43Z</time>
      </trkpt>
      <trkpt lat="47.00836" lon="2.30195">
        <ele>157</ele>
        <time>2021-08-23T16:22:43Z</time>
      </trkpt>
      <trkpt lat="47.00833" lon="2.30202">
        <ele>157</ele>
        <time>2021-08-23T16:22:43Z</time>
      </trkpt>
      <trkpt lat="47.00832" lon="2.3021">
        <ele>157</ele>
        <time>2021-08-23T16:22:43Z</time>
      </trkpt>
      <trkpt lat="47.00832" lon="2.30217">
        <ele>157</ele>
        <time>2021-08-23T16:22:43Z</time>
      </trkpt>
      <trkpt lat="47.00834" lon="2.30224">
        <ele>158</ele>
        <time>2021-08-23T16:22:43Z</time>
      </trkpt>
      <trkpt lat="47.00837" lon="2.3023">
        <ele>158</ele>
        <time>2021-08-23T16:22:43Z</time>
      </trkpt>
      <trkpt lat="47.0084" lon="2.30237">
        <ele>158</ele>
        <time>2021-08-23T16:22:43Z</time>
      </trkpt>
      <trkpt lat="47.00844" lon="2.30243">
        <ele>158</ele>
        <time>2021-08-23T16:22:43Z</time>
      </trkpt>
      <trkpt lat="47.00847" lon="2.3025">
        <ele>158</ele>
        <time>2021-08-23T16:22:43Z</time>
      </trkpt>
      <trkpt lat="47.0085" lon="2.30258">
        <ele>158</ele>
        <time>2021-08-23T16:22:43Z</time>
      </trkpt>
      <trkpt lat="47.00852" lon="2.30266">
        <ele>158</ele>
        <time>2021-08-23T16:22:43Z</time>
      </trkpt>
      <trkpt lat="47.00855" lon="2.30274">
        <ele>158</ele>
        <time>2021-08-23T16:22:43Z</time>
      </trkpt>
      <trkpt lat="47.00858" lon="2.30282">
        <ele>159</ele>
        <time>2021-08-23T16:22:43Z</time>
      </trkpt>
      <trkpt lat="47.00861" lon="2.3029">
        <ele>159</ele>
        <time>2021-08-23T16:22:43Z</time>
      </trkpt>
      <trkpt lat="47.00864" lon="2.30297">
        <ele>159</ele>
        <time>2021-08-23T16:22:43Z</time>
      </trkpt>
      <trkpt lat="47.00867" lon="2.30305">
        <ele>159</ele>
        <time>2021-08-23T16:22:43Z</time>
      </trkpt>
      <trkpt lat="47.0087" lon="2.30313">
        <ele>159</ele>
        <time>2021-08-23T16:22:43Z</time>
      </trkpt>
      <trkpt lat="47.00872" lon="2.30321">
        <ele>159</ele>
        <time>2021-08-23T16:22:43Z</time>
      </trkpt>
      <trkpt lat="47.00872" lon="2.3033">
        <ele>159</ele>
        <time>2021-08-23T16:22:43Z</time>
      </trkpt>
      <trkpt lat="47.0087" lon="2.30339">
        <ele>160</ele>
        <time>2021-08-23T16:22:43Z</time>
      </trkpt>
      <trkpt lat="47.00868" lon="2.30347">
        <ele>160</ele>
        <time>2021-08-23T16:22:43Z</time>
      </trkpt>
      <trkpt lat="47.00867" lon="2.30356">
        <ele>160</ele>
        <time>2021-08-23T16:22:43Z</time>
      </trkpt>
      <trkpt lat="47.00864" lon="2.30363">
        <ele>160</ele>
        <time>2021-08-23T16:22:43Z</time>
      </trkpt>
      <trkpt lat="47.00863" lon="2.30369">
        <ele>160</ele>
        <time>2021-08-23T16:22:43Z</time>
      </trkpt>
      <trkpt lat="47.00864" lon="2.30374">
        <ele>160</ele>
        <time>2021-08-23T16:22:43Z</time>
      </trkpt>
      <trkpt lat="47.00866" lon="2.30375">
        <ele>160</ele>
        <time>2021-08-23T16:22:43Z</time>
      </trkpt>
      <trkpt lat="47.0087" lon="2.30373">
        <ele>160</ele>
        <time>2021-08-23T16:22:43Z</time>
      </trkpt>
      <trkpt lat="47.00872" lon="2.30369">
        <ele>160</ele>
        <time>2021-08-23T16:22:43Z</time>
      </trkpt>
      <trkpt lat="47.00875" lon="2.30365">
        <ele>160</ele>
        <time>2021-08-23T16:22:43Z</time>
      </trkpt>
      <trkpt lat="47.00879" lon="2.30361">
        <ele>160</ele>
        <time>2021-08-23T16:22:43Z</time>
      </trkpt>
      <trkpt lat="47.00884" lon="2.30358">
        <ele>160</ele>
        <time>2021-08-23T16:22:43Z</time>
      </trkpt>
      <trkpt lat="47.00889" lon="2.30356">
        <ele>160</ele>
        <time>2021-08-23T16:22:43Z</time>
      </trkpt>
      <trkpt lat="47.00894" lon="2.30353">
        <ele>160</ele>
        <time>2021-08-23T16:22:43Z</time>
      </trkpt>
      <trkpt lat="47.00899" lon="2.30351">
        <ele>160</ele>
        <time>2021-08-23T16:22:43Z</time>
      </trkpt>
      <trkpt lat="47.00905" lon="2.3035">
        <ele>160</ele>
        <time>2021-08-23T16:22:43Z</time>
      </trkpt>
      <trkpt lat="47.00911" lon="2.30351">
        <ele>160</ele>
        <time>2021-08-23T16:22:43Z</time>
      </trkpt>
      <trkpt lat="47.00917" lon="2.30354">
        <ele>160</ele>
        <time>2021-08-23T16:22:43Z</time>
      </trkpt>
      <trkpt lat="47.00922" lon="2.30359">
        <ele>160</ele>
        <time>2021-08-23T16:22:43Z</time>
      </trkpt>
      <trkpt lat="47.00927" lon="2.30364">
        <ele>160</ele>
        <time>2021-08-23T16:22:43Z</time>
      </trkpt>
      <trkpt lat="47.00932" lon="2.3037">
        <ele>160</ele>
        <time>2021-08-23T16:22:43Z</time>
      </trkpt>
      <trkpt lat="47.00937" lon="2.30377">
        <ele>160</ele>
        <time>2021-08-23T16:22:43Z</time>
      </trkpt>
      <trkpt lat="47.00941" lon="2.30384">
        <ele>160</ele>
        <time>2021-08-23T16:22:43Z</time>
      </trkpt>
      <trkpt lat="47.00945" lon="2.30391">
        <ele>161</ele>
        <time>2021-08-23T16:22:43Z</time>
      </trkpt>
      <trkpt lat="47.00949" lon="2.30398">
        <ele>161</ele>
        <time>2021-08-23T16:22:43Z</time>
      </trkpt>
      <trkpt lat="47.00953" lon="2.30405">
        <ele>161</ele>
        <time>2021-08-23T16:22:43Z</time>
      </trkpt>
      <trkpt lat="47.00957" lon="2.30412">
        <ele>161</ele>
        <time>2021-08-23T16:22:43Z</time>
      </trkpt>
      <trkpt lat="47.0096" lon="2.3042">
        <ele>162</ele>
        <time>2021-08-23T16:22:43Z</time>
      </trkpt>
      <trkpt lat="47.00964" lon="2.30427">
        <ele>162</ele>
        <time>2021-08-23T16:22:43Z</time>
      </trkpt>
      <trkpt lat="47.00967" lon="2.30434">
        <ele>162</ele>
        <time>2021-08-23T16:22:43Z</time>
      </trkpt>
      <trkpt lat="47.00971" lon="2.30441">
        <ele>162</ele>
        <time>2021-08-23T16:22:43Z</time>
      </trkpt>
      <trkpt lat="47.00974" lon="2.3045">
        <ele>163</ele>
        <time>2021-08-23T16:22:43Z</time>
      </trkpt>
      <trkpt lat="47.00978" lon="2.30457">
        <ele>163</ele>
        <time>2021-08-23T16:22:43Z</time>
      </trkpt>
      <trkpt lat="47.00982" lon="2.30465">
        <ele>163</ele>
        <time>2021-08-23T16:22:43Z</time>
      </trkpt>
      <trkpt lat="47.00985" lon="2.30473">
        <ele>162</ele>
        <time>2021-08-23T16:22:43Z</time>
      </trkpt>
      <trkpt lat="47.00989" lon="2.30479">
        <ele>162</ele>
        <time>2021-08-23T16:22:43Z</time>
      </trkpt>
      <trkpt lat="47.00993" lon="2.30487">
        <ele>162</ele>
        <time>2021-08-23T16:22:43Z</time>
      </trkpt>
      <trkpt lat="47.00997" lon="2.30495">
        <ele>162</ele>
        <time>2021-08-23T16:22:43Z</time>
      </trkpt>
      <trkpt lat="47.01" lon="2.30502">
        <ele>162</ele>
        <time>2021-08-23T16:22:43Z</time>
      </trkpt>
      <trkpt lat="47.01004" lon="2.3051">
        <ele>162</ele>
        <time>2021-08-23T16:22:43Z</time>
      </trkpt>
      <trkpt lat="47.01008" lon="2.30517">
        <ele>162</ele>
        <time>2021-08-23T16:22:43Z</time>
      </trkpt>
      <trkpt lat="47.01011" lon="2.30524">
        <ele>162</ele>
        <time>2021-08-23T16:22:43Z</time>
      </trkpt>
      <trkpt lat="47.01016" lon="2.30568">
        <ele>162</ele>
        <time>2021-08-23T16:22:43Z</time>
      </trkpt>
      <trkpt lat="47.01011" lon="2.30612">
        <ele>161</ele>
        <time>2021-08-23T16:22:43Z</time>
      </trkpt>
      <trkpt lat="47.01002" lon="2.3066">
        <ele>161</ele>
        <time>2021-08-23T16:22:43Z</time>
      </trkpt>
      <trkpt lat="47.01" lon="2.30688">
        <ele>162</ele>
        <time>2021-08-23T16:22:43Z</time>
      </trkpt>
      <trkpt lat="47.00998" lon="2.30698">
        <ele>161</ele>
        <time>2021-08-23T16:22:43Z</time>
      </trkpt>
      <trkpt lat="47.00997" lon="2.30709">
        <ele>161</ele>
        <time>2021-08-23T16:22:43Z</time>
      </trkpt>
      <trkpt lat="47.00995" lon="2.30719">
        <ele>161</ele>
        <time>2021-08-23T16:22:43Z</time>
      </trkpt>
      <trkpt lat="47.00994" lon="2.30729">
        <ele>161</ele>
        <time>2021-08-23T16:22:43Z</time>
      </trkpt>
      <trkpt lat="47.00992" lon="2.30739">
        <ele>161</ele>
        <time>2021-08-23T16:22:43Z</time>
      </trkpt>
      <trkpt lat="47.0099" lon="2.30749">
        <ele>161</ele>
        <time>2021-08-23T16:22:43Z</time>
      </trkpt>
      <trkpt lat="47.00989" lon="2.30759">
        <ele>161</ele>
        <time>2021-08-23T16:22:43Z</time>
      </trkpt>
      <trkpt lat="47.00981" lon="2.3081">
        <ele>162</ele>
        <time>2021-08-23T16:22:43Z</time>
      </trkpt>
      <trkpt lat="47.00972" lon="2.30859">
        <ele>162</ele>
        <time>2021-08-23T16:22:43Z</time>
      </trkpt>
      <trkpt lat="47.00966" lon="2.30904">
        <ele>162</ele>
        <time>2021-08-23T16:22:43Z</time>
      </trkpt>
      <trkpt lat="47.00959" lon="2.30953">
        <ele>163</ele>
        <time>2021-08-23T16:22:43Z</time>
      </trkpt>
      <trkpt lat="47.00953" lon="2.31003">
        <ele>163</ele>
        <time>2021-08-23T16:22:43Z</time>
      </trkpt>
      <trkpt lat="47.00948" lon="2.31044">
        <ele>162</ele>
        <time>2021-08-23T16:22:43Z</time>
      </trkpt>
      <trkpt lat="47.00947" lon="2.31054">
        <ele>161</ele>
        <time>2021-08-23T16:22:43Z</time>
      </trkpt>
      <trkpt lat="47.00941" lon="2.31103">
        <ele>162</ele>
        <time>2021-08-23T16:22:43Z</time>
      </trkpt>
      <trkpt lat="47.00935" lon="2.31154">
        <ele>161</ele>
        <time>2021-08-23T16:22:43Z</time>
      </trkpt>
      <trkpt lat="47.0093" lon="2.31204">
        <ele>161</ele>
        <time>2021-08-23T16:22:43Z</time>
      </trkpt>
      <trkpt lat="47.00924" lon="2.31253">
        <ele>162</ele>
        <time>2021-08-23T16:22:43Z</time>
      </trkpt>
      <trkpt lat="47.00919" lon="2.31304">
        <ele>164</ele>
        <time>2021-08-23T16:22:43Z</time>
      </trkpt>
      <trkpt lat="47.00924" lon="2.31344">
        <ele>164</ele>
        <time>2021-08-23T16:22:43Z</time>
      </trkpt>
      <trkpt lat="47.00927" lon="2.31353">
        <ele>164</ele>
        <time>2021-08-23T16:22:43Z</time>
      </trkpt>
      <trkpt lat="47.0093" lon="2.31362">
        <ele>164</ele>
        <time>2021-08-23T16:22:43Z</time>
      </trkpt>
      <trkpt lat="47.00934" lon="2.3137">
        <ele>164</ele>
        <time>2021-08-23T16:22:43Z</time>
      </trkpt>
      <trkpt lat="47.00937" lon="2.31379">
        <ele>164</ele>
        <time>2021-08-23T16:22:43Z</time>
      </trkpt>
      <trkpt lat="47.00941" lon="2.31388">
        <ele>164</ele>
        <time>2021-08-23T16:22:43Z</time>
      </trkpt>
      <trkpt lat="47.00945" lon="2.31396">
        <ele>164</ele>
        <time>2021-08-23T16:22:43Z</time>
      </trkpt>
      <trkpt lat="47.00949" lon="2.31404">
        <ele>164</ele>
        <time>2021-08-23T16:22:43Z</time>
      </trkpt>
      <trkpt lat="47.00953" lon="2.31411">
        <ele>164</ele>
        <time>2021-08-23T16:22:43Z</time>
      </trkpt>
      <trkpt lat="47.00957" lon="2.31419">
        <ele>163</ele>
        <time>2021-08-23T16:22:43Z</time>
      </trkpt>
      <trkpt lat="47.00961" lon="2.31427">
        <ele>163</ele>
        <time>2021-08-23T16:22:43Z</time>
      </trkpt>
      <trkpt lat="47.00965" lon="2.31436">
        <ele>163</ele>
        <time>2021-08-23T16:22:43Z</time>
      </trkpt>
      <trkpt lat="47.00968" lon="2.31443">
        <ele>163</ele>
        <time>2021-08-23T16:22:43Z</time>
      </trkpt>
      <trkpt lat="47.00972" lon="2.31451">
        <ele>163</ele>
        <time>2021-08-23T16:22:43Z</time>
      </trkpt>
      <trkpt lat="47.00976" lon="2.31458">
        <ele>163</ele>
        <time>2021-08-23T16:22:43Z</time>
      </trkpt>
      <trkpt lat="47.0098" lon="2.31466">
        <ele>163</ele>
        <time>2021-08-23T16:22:43Z</time>
      </trkpt>
      <trkpt lat="47.00984" lon="2.31474">
        <ele>163</ele>
        <time>2021-08-23T16:22:43Z</time>
      </trkpt>
      <trkpt lat="47.00988" lon="2.31482">
        <ele>163</ele>
        <time>2021-08-23T16:22:43Z</time>
      </trkpt>
      <trkpt lat="47.00992" lon="2.3149">
        <ele>163</ele>
        <time>2021-08-23T16:22:43Z</time>
      </trkpt>
      <trkpt lat="47.00996" lon="2.31498">
        <ele>163</ele>
        <time>2021-08-23T16:22:43Z</time>
      </trkpt>
      <trkpt lat="47.01" lon="2.31506">
        <ele>163</ele>
        <time>2021-08-23T16:22:43Z</time>
      </trkpt>
      <trkpt lat="47.01003" lon="2.31514">
        <ele>163</ele>
        <time>2021-08-23T16:22:43Z</time>
      </trkpt>
      <trkpt lat="47.01007" lon="2.31522">
        <ele>163</ele>
        <time>2021-08-23T16:22:43Z</time>
      </trkpt>
      <trkpt lat="47.01011" lon="2.3153">
        <ele>164</ele>
        <time>2021-08-23T16:22:43Z</time>
      </trkpt>
      <trkpt lat="47.01015" lon="2.31538">
        <ele>164</ele>
        <time>2021-08-23T16:22:43Z</time>
      </trkpt>
      <trkpt lat="47.01019" lon="2.31546">
        <ele>164</ele>
        <time>2021-08-23T16:22:43Z</time>
      </trkpt>
      <trkpt lat="47.01023" lon="2.31554">
        <ele>164</ele>
        <time>2021-08-23T16:22:43Z</time>
      </trkpt>
      <trkpt lat="47.01027" lon="2.31562">
        <ele>163</ele>
        <time>2021-08-23T16:22:43Z</time>
      </trkpt>
      <trkpt lat="47.0103" lon="2.3157">
        <ele>163</ele>
        <time>2021-08-23T16:22:43Z</time>
      </trkpt>
      <trkpt lat="47.01034" lon="2.31577">
        <ele>162</ele>
        <time>2021-08-23T16:22:43Z</time>
      </trkpt>
      <trkpt lat="47.01038" lon="2.31586">
        <ele>162</ele>
        <time>2021-08-23T16:22:43Z</time>
      </trkpt>
      <trkpt lat="47.01042" lon="2.31593">
        <ele>162</ele>
        <time>2021-08-23T16:22:43Z</time>
      </trkpt>
      <trkpt lat="47.01046" lon="2.31601">
        <ele>162</ele>
        <time>2021-08-23T16:22:43Z</time>
      </trkpt>
      <trkpt lat="47.0105" lon="2.31608">
        <ele>162</ele>
        <time>2021-08-23T16:22:43Z</time>
      </trkpt>
      <trkpt lat="47.01054" lon="2.31617">
        <ele>162</ele>
        <time>2021-08-23T16:22:43Z</time>
      </trkpt>
      <trkpt lat="47.01058" lon="2.31625">
        <ele>162</ele>
        <time>2021-08-23T16:22:43Z</time>
      </trkpt>
      <trkpt lat="47.01061" lon="2.31632">
        <ele>162</ele>
        <time>2021-08-23T16:22:43Z</time>
      </trkpt>
      <trkpt lat="47.01065" lon="2.31639">
        <ele>162</ele>
        <time>2021-08-23T16:22:43Z</time>
      </trkpt>
      <trkpt lat="47.01069" lon="2.31647">
        <ele>162</ele>
        <time>2021-08-23T16:22:43Z</time>
      </trkpt>
      <trkpt lat="47.01073" lon="2.31655">
        <ele>162</ele>
        <time>2021-08-23T16:22:43Z</time>
      </trkpt>
      <trkpt lat="47.01077" lon="2.31663">
        <ele>162</ele>
        <time>2021-08-23T16:22:43Z</time>
      </trkpt>
      <trkpt lat="47.0108" lon="2.31671">
        <ele>162</ele>
        <time>2021-08-23T16:22:43Z</time>
      </trkpt>
      <trkpt lat="47.01084" lon="2.31678">
        <ele>162</ele>
        <time>2021-08-23T16:22:43Z</time>
      </trkpt>
      <trkpt lat="47.01088" lon="2.31686">
        <ele>162</ele>
        <time>2021-08-23T16:22:43Z</time>
      </trkpt>
      <trkpt lat="47.01092" lon="2.31693">
        <ele>162</ele>
        <time>2021-08-23T16:22:43Z</time>
      </trkpt>
      <trkpt lat="47.01096" lon="2.31701">
        <ele>162</ele>
        <time>2021-08-23T16:22:43Z</time>
      </trkpt>
      <trkpt lat="47.01099" lon="2.3171">
        <ele>162</ele>
        <time>2021-08-23T16:22:43Z</time>
      </trkpt>
      <trkpt lat="47.01103" lon="2.31717">
        <ele>162</ele>
        <time>2021-08-23T16:22:43Z</time>
      </trkpt>
      <trkpt lat="47.01107" lon="2.31724">
        <ele>162</ele>
        <time>2021-08-23T16:22:43Z</time>
      </trkpt>
      <trkpt lat="47.01111" lon="2.31732">
        <ele>161</ele>
        <time>2021-08-23T16:22:43Z</time>
      </trkpt>
      <trkpt lat="47.01116" lon="2.3174">
        <ele>161</ele>
        <time>2021-08-23T16:22:43Z</time>
      </trkpt>
      <trkpt lat="47.01121" lon="2.31748">
        <ele>161</ele>
        <time>2021-08-23T16:22:43Z</time>
      </trkpt>
      <trkpt lat="47.01124" lon="2.31755">
        <ele>161</ele>
        <time>2021-08-23T16:22:43Z</time>
      </trkpt>
      <trkpt lat="47.01127" lon="2.31764">
        <ele>161</ele>
        <time>2021-08-23T16:22:43Z</time>
      </trkpt>
      <trkpt lat="47.01131" lon="2.31773">
        <ele>161</ele>
        <time>2021-08-23T16:22:43Z</time>
      </trkpt>
      <trkpt lat="47.01135" lon="2.31781">
        <ele>161</ele>
        <time>2021-08-23T16:22:43Z</time>
      </trkpt>
      <trkpt lat="47.01139" lon="2.31789">
        <ele>161</ele>
        <time>2021-08-23T16:22:43Z</time>
      </trkpt>
      <trkpt lat="47.01143" lon="2.31797">
        <ele>161</ele>
        <time>2021-08-23T16:22:43Z</time>
      </trkpt>
      <trkpt lat="47.01147" lon="2.31806">
        <ele>162</ele>
        <time>2021-08-23T16:22:43Z</time>
      </trkpt>
      <trkpt lat="47.01151" lon="2.31813">
        <ele>162</ele>
        <time>2021-08-23T16:22:43Z</time>
      </trkpt>
      <trkpt lat="47.01155" lon="2.31821">
        <ele>162</ele>
        <time>2021-08-23T16:22:43Z</time>
      </trkpt>
      <trkpt lat="47.01158" lon="2.31829">
        <ele>162</ele>
        <time>2021-08-23T16:22:43Z</time>
      </trkpt>
      <trkpt lat="47.01162" lon="2.31836">
        <ele>162</ele>
        <time>2021-08-23T16:22:43Z</time>
      </trkpt>
      <trkpt lat="47.01179" lon="2.31874">
        <ele>162</ele>
        <time>2021-08-23T16:22:43Z</time>
      </trkpt>
      <trkpt lat="47.01174" lon="2.31913">
        <ele>163</ele>
        <time>2021-08-23T16:22:43Z</time>
      </trkpt>
      <trkpt lat="47.01154" lon="2.31938">
        <ele>164</ele>
        <time>2021-08-23T16:22:43Z</time>
      </trkpt>
      <trkpt lat="47.0113" lon="2.31962">
        <ele>165</ele>
        <time>2021-08-23T16:22:43Z</time>
      </trkpt>
      <trkpt lat="47.01103" lon="2.31988">
        <ele>165</ele>
        <time>2021-08-23T16:22:43Z</time>
      </trkpt>
      <trkpt lat="47.0108" lon="2.32009">
        <ele>165</ele>
        <time>2021-08-23T16:22:43Z</time>
      </trkpt>
      <trkpt lat="47.01076" lon="2.32014">
        <ele>165</ele>
        <time>2021-08-23T16:22:43Z</time>
      </trkpt>
      <trkpt lat="47.01047" lon="2.32038">
        <ele>167</ele>
        <time>2021-08-23T16:22:43Z</time>
      </trkpt>
      <trkpt lat="47.01017" lon="2.32064">
        <ele>167</ele>
        <time>2021-08-23T16:22:43Z</time>
      </trkpt>
      <trkpt lat="47.01011" lon="2.32111">
        <ele>165</ele>
        <time>2021-08-23T16:22:43Z</time>
      </trkpt>
      <trkpt lat="47.01029" lon="2.32149">
        <ele>163</ele>
        <time>2021-08-23T16:22:43Z</time>
      </trkpt>
      <trkpt lat="47.01047" lon="2.32182">
        <ele>163</ele>
        <time>2021-08-23T16:22:43Z</time>
      </trkpt>
      <trkpt lat="47.01062" lon="2.32208">
        <ele>162</ele>
        <time>2021-08-23T16:22:43Z</time>
      </trkpt>
      <trkpt lat="47.01066" lon="2.32214">
        <ele>162</ele>
        <time>2021-08-23T16:22:43Z</time>
      </trkpt>
      <trkpt lat="47.0107" lon="2.32221">
        <ele>162</ele>
        <time>2021-08-23T16:22:43Z</time>
      </trkpt>
      <trkpt lat="47.01074" lon="2.32228">
        <ele>163</ele>
        <time>2021-08-23T16:22:43Z</time>
      </trkpt>
      <trkpt lat="47.01077" lon="2.32235">
        <ele>163</ele>
        <time>2021-08-23T16:22:43Z</time>
      </trkpt>
      <trkpt lat="47.01081" lon="2.32242">
        <ele>163</ele>
        <time>2021-08-23T16:22:43Z</time>
      </trkpt>
      <trkpt lat="47.01084" lon="2.3225">
        <ele>163</ele>
        <time>2021-08-23T16:22:43Z</time>
      </trkpt>
      <trkpt lat="47.01087" lon="2.32258">
        <ele>163</ele>
        <time>2021-08-23T16:22:43Z</time>
      </trkpt>
      <trkpt lat="47.01088" lon="2.32266">
        <ele>163</ele>
        <time>2021-08-23T16:22:43Z</time>
      </trkpt>
      <trkpt lat="47.01091" lon="2.32275">
        <ele>163</ele>
        <time>2021-08-23T16:22:43Z</time>
      </trkpt>
      <trkpt lat="47.01092" lon="2.32284">
        <ele>163</ele>
        <time>2021-08-23T16:22:43Z</time>
      </trkpt>
      <trkpt lat="47.01092" lon="2.32293">
        <ele>163</ele>
        <time>2021-08-23T16:22:43Z</time>
      </trkpt>
      <trkpt lat="47.01091" lon="2.32302">
        <ele>163</ele>
        <time>2021-08-23T16:22:43Z</time>
      </trkpt>
      <trkpt lat="47.01091" lon="2.32311">
        <ele>163</ele>
        <time>2021-08-23T16:22:43Z</time>
      </trkpt>
      <trkpt lat="47.0109" lon="2.3232">
        <ele>163</ele>
        <time>2021-08-23T16:22:43Z</time>
      </trkpt>
      <trkpt lat="47.01088" lon="2.32328">
        <ele>163</ele>
        <time>2021-08-23T16:22:43Z</time>
      </trkpt>
      <trkpt lat="47.01087" lon="2.32338">
        <ele>163</ele>
        <time>2021-08-23T16:22:43Z</time>
      </trkpt>
      <trkpt lat="47.01087" lon="2.32346">
        <ele>163</ele>
        <time>2021-08-23T16:22:43Z</time>
      </trkpt>
      <trkpt lat="47.01086" lon="2.32356">
        <ele>163</ele>
        <time>2021-08-23T16:22:43Z</time>
      </trkpt>
      <trkpt lat="47.01083" lon="2.32365">
        <ele>163</ele>
        <time>2021-08-23T16:22:43Z</time>
      </trkpt>
      <trkpt lat="47.01083" lon="2.32375">
        <ele>163</ele>
        <time>2021-08-23T16:22:43Z</time>
      </trkpt>
      <trkpt lat="47.01082" lon="2.32384">
        <ele>162</ele>
        <time>2021-08-23T16:22:43Z</time>
      </trkpt>
      <trkpt lat="47.01081" lon="2.32394">
        <ele>162</ele>
        <time>2021-08-23T16:22:43Z</time>
      </trkpt>
      <trkpt lat="47.01079" lon="2.32404">
        <ele>162</ele>
        <time>2021-08-23T16:22:43Z</time>
      </trkpt>
      <trkpt lat="47.01079" lon="2.32414">
        <ele>162</ele>
        <time>2021-08-23T16:22:43Z</time>
      </trkpt>
      <trkpt lat="47.01077" lon="2.32424">
        <ele>161</ele>
        <time>2021-08-23T16:22:43Z</time>
      </trkpt>
      <trkpt lat="47.01076" lon="2.32434">
        <ele>161</ele>
        <time>2021-08-23T16:22:43Z</time>
      </trkpt>
      <trkpt lat="47.01075" lon="2.32443">
        <ele>161</ele>
        <time>2021-08-23T16:22:43Z</time>
      </trkpt>
      <trkpt lat="47.01073" lon="2.32452">
        <ele>161</ele>
        <time>2021-08-23T16:22:43Z</time>
      </trkpt>
      <trkpt lat="47.01072" lon="2.32462">
        <ele>160</ele>
        <time>2021-08-23T16:22:43Z</time>
      </trkpt>
      <trkpt lat="47.0107" lon="2.32472">
        <ele>160</ele>
        <time>2021-08-23T16:22:43Z</time>
      </trkpt>
      <trkpt lat="47.01069" lon="2.32481">
        <ele>160</ele>
        <time>2021-08-23T16:22:43Z</time>
      </trkpt>
      <trkpt lat="47.01067" lon="2.32491">
        <ele>159</ele>
        <time>2021-08-23T16:22:43Z</time>
      </trkpt>
      <trkpt lat="47.01066" lon="2.32502">
        <ele>159</ele>
        <time>2021-08-23T16:22:43Z</time>
      </trkpt>
      <trkpt lat="47.01065" lon="2.32511">
        <ele>159</ele>
        <time>2021-08-23T16:22:43Z</time>
      </trkpt>
      <trkpt lat="47.01064" lon="2.32521">
        <ele>159</ele>
        <time>2021-08-23T16:22:43Z</time>
      </trkpt>
      <trkpt lat="47.01062" lon="2.3253">
        <ele>159</ele>
        <time>2021-08-23T16:22:43Z</time>
      </trkpt>
      <trkpt lat="47.01061" lon="2.3254">
        <ele>160</ele>
        <time>2021-08-23T16:22:43Z</time>
      </trkpt>
      <trkpt lat="47.0106" lon="2.3255">
        <ele>160</ele>
        <time>2021-08-23T16:22:43Z</time>
      </trkpt>
      <trkpt lat="47.01059" lon="2.3256">
        <ele>160</ele>
        <time>2021-08-23T16:22:43Z</time>
      </trkpt>
      <trkpt lat="47.01058" lon="2.32569">
        <ele>161</ele>
        <time>2021-08-23T16:22:43Z</time>
      </trkpt>
      <trkpt lat="47.01057" lon="2.32578">
        <ele>161</ele>
        <time>2021-08-23T16:22:43Z</time>
      </trkpt>
      <trkpt lat="47.01056" lon="2.32588">
        <ele>162</ele>
        <time>2021-08-23T16:22:43Z</time>
      </trkpt>
      <trkpt lat="47.01055" lon="2.32598">
        <ele>162</ele>
        <time>2021-08-23T16:22:43Z</time>
      </trkpt>
      <trkpt lat="47.01053" lon="2.32608">
        <ele>162</ele>
        <time>2021-08-23T16:22:43Z</time>
      </trkpt>
      <trkpt lat="47.01052" lon="2.32618">
        <ele>162</ele>
        <time>2021-08-23T16:22:43Z</time>
      </trkpt>
      <trkpt lat="47.01051" lon="2.32628">
        <ele>162</ele>
        <time>2021-08-23T16:22:43Z</time>
      </trkpt>
      <trkpt lat="47.01049" lon="2.32638">
        <ele>162</ele>
        <time>2021-08-23T16:22:43Z</time>
      </trkpt>
      <trkpt lat="47.01049" lon="2.32648">
        <ele>162</ele>
        <time>2021-08-23T16:22:43Z</time>
      </trkpt>
      <trkpt lat="47.01047" lon="2.32658">
        <ele>162</ele>
        <time>2021-08-23T16:22:43Z</time>
      </trkpt>
      <trkpt lat="47.01046" lon="2.32667">
        <ele>162</ele>
        <time>2021-08-23T16:22:43Z</time>
      </trkpt>
      <trkpt lat="47.01044" lon="2.32676">
        <ele>162</ele>
        <time>2021-08-23T16:22:43Z</time>
      </trkpt>
      <trkpt lat="47.01042" lon="2.32685">
        <ele>163</ele>
        <time>2021-08-23T16:22:43Z</time>
      </trkpt>
      <trkpt lat="47.01041" lon="2.32694">
        <ele>163</ele>
        <time>2021-08-23T16:22:43Z</time>
      </trkpt>
      <trkpt lat="47.0104" lon="2.32703">
        <ele>163</ele>
        <time>2021-08-23T16:22:43Z</time>
      </trkpt>
      <trkpt lat="47.01039" lon="2.32712">
        <ele>163</ele>
        <time>2021-08-23T16:22:43Z</time>
      </trkpt>
      <trkpt lat="47.01038" lon="2.32721">
        <ele>163</ele>
        <time>2021-08-23T16:22:43Z</time>
      </trkpt>
      <trkpt lat="47.01037" lon="2.3273">
        <ele>163</ele>
        <time>2021-08-23T16:22:43Z</time>
      </trkpt>
      <trkpt lat="47.01037" lon="2.3274">
        <ele>162</ele>
        <time>2021-08-23T16:22:43Z</time>
      </trkpt>
      <trkpt lat="47.01036" lon="2.3275">
        <ele>162</ele>
        <time>2021-08-23T16:22:43Z</time>
      </trkpt>
      <trkpt lat="47.01035" lon="2.32759">
        <ele>162</ele>
        <time>2021-08-23T16:22:43Z</time>
      </trkpt>
      <trkpt lat="47.01035" lon="2.32769">
        <ele>162</ele>
        <time>2021-08-23T16:22:43Z</time>
      </trkpt>
      <trkpt lat="47.01034" lon="2.32779">
        <ele>161</ele>
        <time>2021-08-23T16:22:43Z</time>
      </trkpt>
      <trkpt lat="47.01031" lon="2.32827">
        <ele>160</ele>
        <time>2021-08-23T16:22:43Z</time>
      </trkpt>
      <trkpt lat="47.01029" lon="2.32875">
        <ele>160</ele>
        <time>2021-08-23T16:22:43Z</time>
      </trkpt>
      <trkpt lat="47.01027" lon="2.32919">
        <ele>161</ele>
        <time>2021-08-23T16:22:43Z</time>
      </trkpt>
      <trkpt lat="47.01026" lon="2.32966">
        <ele>162</ele>
        <time>2021-08-23T16:22:43Z</time>
      </trkpt>
      <trkpt lat="47.01027" lon="2.33016">
        <ele>163</ele>
        <time>2021-08-23T16:22:43Z</time>
      </trkpt>
      <trkpt lat="47.01029" lon="2.33055">
        <ele>162</ele>
        <time>2021-08-23T16:22:43Z</time>
      </trkpt>
      <trkpt lat="47.01029" lon="2.33064">
        <ele>162</ele>
        <time>2021-08-23T16:22:43Z</time>
      </trkpt>
      <trkpt lat="47.01032" lon="2.3311">
        <ele>163</ele>
        <time>2021-08-23T16:22:43Z</time>
      </trkpt>
      <trkpt lat="47.01035" lon="2.3315">
        <ele>164</ele>
        <time>2021-08-23T16:22:43Z</time>
      </trkpt>
      <trkpt lat="47.01038" lon="2.33193">
        <ele>164</ele>
        <time>2021-08-23T16:22:43Z</time>
      </trkpt>
      <trkpt lat="47.01041" lon="2.33238">
        <ele>163</ele>
        <time>2021-08-23T16:22:43Z</time>
      </trkpt>
      <trkpt lat="47.01044" lon="2.33284">
        <ele>163</ele>
        <time>2021-08-23T16:22:43Z</time>
      </trkpt>
      <trkpt lat="47.01047" lon="2.33321">
        <ele>163</ele>
        <time>2021-08-23T16:22:43Z</time>
      </trkpt>
      <trkpt lat="47.01047" lon="2.3333">
        <ele>164</ele>
        <time>2021-08-23T16:22:43Z</time>
      </trkpt>
      <trkpt lat="47.0105" lon="2.33376">
        <ele>165</ele>
        <time>2021-08-23T16:22:43Z</time>
      </trkpt>
      <trkpt lat="47.01053" lon="2.33423">
        <ele>164</ele>
        <time>2021-08-23T16:22:43Z</time>
      </trkpt>
      <trkpt lat="47.01057" lon="2.33468">
        <ele>164</ele>
        <time>2021-08-23T16:22:43Z</time>
      </trkpt>
      <trkpt lat="47.0106" lon="2.33512">
        <ele>163</ele>
        <time>2021-08-23T16:22:43Z</time>
      </trkpt>
      <trkpt lat="47.01061" lon="2.33559">
        <ele>162</ele>
        <time>2021-08-23T16:22:43Z</time>
      </trkpt>
      <trkpt lat="47.0106" lon="2.33595">
        <ele>162</ele>
        <time>2021-08-23T16:22:43Z</time>
      </trkpt>
      <trkpt lat="47.0106" lon="2.33604">
        <ele>162</ele>
        <time>2021-08-23T16:22:43Z</time>
      </trkpt>
      <trkpt lat="47.01059" lon="2.33613">
        <ele>162</ele>
        <time>2021-08-23T16:22:43Z</time>
      </trkpt>
      <trkpt lat="47.01058" lon="2.33623">
        <ele>162</ele>
        <time>2021-08-23T16:22:43Z</time>
      </trkpt>
      <trkpt lat="47.01058" lon="2.33632">
        <ele>162</ele>
        <time>2021-08-23T16:22:43Z</time>
      </trkpt>
      <trkpt lat="47.01058" lon="2.33641">
        <ele>162</ele>
        <time>2021-08-23T16:22:43Z</time>
      </trkpt>
      <trkpt lat="47.01057" lon="2.33651">
        <ele>162</ele>
        <time>2021-08-23T16:22:43Z</time>
      </trkpt>
      <trkpt lat="47.01056" lon="2.33661">
        <ele>162</ele>
        <time>2021-08-23T16:22:43Z</time>
      </trkpt>
      <trkpt lat="47.01056" lon="2.33671">
        <ele>163</ele>
        <time>2021-08-23T16:22:43Z</time>
      </trkpt>
      <trkpt lat="47.01055" lon="2.3368">
        <ele>163</ele>
        <time>2021-08-23T16:22:43Z</time>
      </trkpt>
      <trkpt lat="47.01054" lon="2.33689">
        <ele>163</ele>
        <time>2021-08-23T16:22:43Z</time>
      </trkpt>
      <trkpt lat="47.01054" lon="2.33699">
        <ele>163</ele>
        <time>2021-08-23T16:22:43Z</time>
      </trkpt>
      <trkpt lat="47.01054" lon="2.33709">
        <ele>163</ele>
        <time>2021-08-23T16:22:43Z</time>
      </trkpt>
      <trkpt lat="47.01054" lon="2.33718">
        <ele>163</ele>
        <time>2021-08-23T16:22:43Z</time>
      </trkpt>
      <trkpt lat="47.01054" lon="2.33727">
        <ele>163</ele>
        <time>2021-08-23T16:22:43Z</time>
      </trkpt>
      <trkpt lat="47.01053" lon="2.33737">
        <ele>163</ele>
        <time>2021-08-23T16:22:43Z</time>
      </trkpt>
      <trkpt lat="47.01053" lon="2.33746">
        <ele>163</ele>
        <time>2021-08-23T16:22:43Z</time>
      </trkpt>
      <trkpt lat="47.01052" lon="2.33757">
        <ele>163</ele>
        <time>2021-08-23T16:22:43Z</time>
      </trkpt>
      <trkpt lat="47.01051" lon="2.33766">
        <ele>163</ele>
        <time>2021-08-23T16:22:43Z</time>
      </trkpt>
      <trkpt lat="47.0105" lon="2.33776">
        <ele>163</ele>
        <time>2021-08-23T16:22:43Z</time>
      </trkpt>
      <trkpt lat="47.0105" lon="2.33784">
        <ele>163</ele>
        <time>2021-08-23T16:22:43Z</time>
      </trkpt>
      <trkpt lat="47.01051" lon="2.33794">
        <ele>163</ele>
        <time>2021-08-23T16:22:43Z</time>
      </trkpt>
      <trkpt lat="47.0105" lon="2.33803">
        <ele>163</ele>
        <time>2021-08-23T16:22:43Z</time>
      </trkpt>
      <trkpt lat="47.01049" lon="2.33813">
        <ele>163</ele>
        <time>2021-08-23T16:22:43Z</time>
      </trkpt>
      <trkpt lat="47.01049" lon="2.33822">
        <ele>163</ele>
        <time>2021-08-23T16:22:43Z</time>
      </trkpt>
      <trkpt lat="47.01049" lon="2.33831">
        <ele>163</ele>
        <time>2021-08-23T16:22:43Z</time>
      </trkpt>
      <trkpt lat="47.01048" lon="2.33841">
        <ele>163</ele>
        <time>2021-08-23T16:22:43Z</time>
      </trkpt>
      <trkpt lat="47.01048" lon="2.3385">
        <ele>163</ele>
        <time>2021-08-23T16:22:43Z</time>
      </trkpt>
      <trkpt lat="47.01047" lon="2.33859">
        <ele>163</ele>
        <time>2021-08-23T16:22:43Z</time>
      </trkpt>
      <trkpt lat="47.01046" lon="2.33869">
        <ele>163</ele>
        <time>2021-08-23T16:22:43Z</time>
      </trkpt>
      <trkpt lat="47.01045" lon="2.33878">
        <ele>163</ele>
        <time>2021-08-23T16:22:43Z</time>
      </trkpt>
      <trkpt lat="47.01044" lon="2.33888">
        <ele>163</ele>
        <time>2021-08-23T16:22:43Z</time>
      </trkpt>
      <trkpt lat="47.01043" lon="2.33896">
        <ele>163</ele>
        <time>2021-08-23T16:22:43Z</time>
      </trkpt>
      <trkpt lat="47.01042" lon="2.33904">
        <ele>163</ele>
        <time>2021-08-23T16:22:43Z</time>
      </trkpt>
      <trkpt lat="47.01041" lon="2.33913">
        <ele>163</ele>
        <time>2021-08-23T16:22:43Z</time>
      </trkpt>
      <trkpt lat="47.01039" lon="2.33922">
        <ele>163</ele>
        <time>2021-08-23T16:22:43Z</time>
      </trkpt>
      <trkpt lat="47.01038" lon="2.33932">
        <ele>163</ele>
        <time>2021-08-23T16:22:43Z</time>
      </trkpt>
      <trkpt lat="47.01036" lon="2.33941">
        <ele>163</ele>
        <time>2021-08-23T16:22:43Z</time>
      </trkpt>
      <trkpt lat="47.01035" lon="2.3395">
        <ele>163</ele>
        <time>2021-08-23T16:22:43Z</time>
      </trkpt>
      <trkpt lat="47.01033" lon="2.33959">
        <ele>163</ele>
        <time>2021-08-23T16:22:43Z</time>
      </trkpt>
      <trkpt lat="47.01031" lon="2.33968">
        <ele>163</ele>
        <time>2021-08-23T16:22:43Z</time>
      </trkpt>
      <trkpt lat="47.01029" lon="2.33978">
        <ele>163</ele>
        <time>2021-08-23T16:22:43Z</time>
      </trkpt>
      <trkpt lat="47.01027" lon="2.33987">
        <ele>163</ele>
        <time>2021-08-23T16:22:43Z</time>
      </trkpt>
      <trkpt lat="47.01025" lon="2.33997">
        <ele>163</ele>
        <time>2021-08-23T16:22:43Z</time>
      </trkpt>
      <trkpt lat="47.01023" lon="2.34007">
        <ele>163</ele>
        <time>2021-08-23T16:22:43Z</time>
      </trkpt>
      <trkpt lat="47.01021" lon="2.34016">
        <ele>163</ele>
        <time>2021-08-23T16:22:43Z</time>
      </trkpt>
      <trkpt lat="47.0102" lon="2.34026">
        <ele>163</ele>
        <time>2021-08-23T16:22:43Z</time>
      </trkpt>
      <trkpt lat="47.01018" lon="2.34036">
        <ele>163</ele>
        <time>2021-08-23T16:22:43Z</time>
      </trkpt>
      <trkpt lat="47.01016" lon="2.34044">
        <ele>163</ele>
        <time>2021-08-23T16:22:43Z</time>
      </trkpt>
      <trkpt lat="47.01015" lon="2.34054">
        <ele>163</ele>
        <time>2021-08-23T16:22:43Z</time>
      </trkpt>
      <trkpt lat="47.01013" lon="2.34063">
        <ele>163</ele>
        <time>2021-08-23T16:22:43Z</time>
      </trkpt>
      <trkpt lat="47.01012" lon="2.34072">
        <ele>164</ele>
        <time>2021-08-23T16:22:43Z</time>
      </trkpt>
      <trkpt lat="47.0101" lon="2.34081">
        <ele>164</ele>
        <time>2021-08-23T16:22:43Z</time>
      </trkpt>
      <trkpt lat="47.01008" lon="2.3409">
        <ele>164</ele>
        <time>2021-08-23T16:22:43Z</time>
      </trkpt>
      <trkpt lat="47.01006" lon="2.341">
        <ele>165</ele>
        <time>2021-08-23T16:22:43Z</time>
      </trkpt>
      <trkpt lat="47.01005" lon="2.34108">
        <ele>165</ele>
        <time>2021-08-23T16:22:43Z</time>
      </trkpt>
      <trkpt lat="47.01003" lon="2.34118">
        <ele>166</ele>
        <time>2021-08-23T16:22:43Z</time>
      </trkpt>
      <trkpt lat="47.01001" lon="2.34126">
        <ele>166</ele>
        <time>2021-08-23T16:22:43Z</time>
      </trkpt>
      <trkpt lat="47.01" lon="2.34134">
        <ele>166</ele>
        <time>2021-08-23T16:22:43Z</time>
      </trkpt>
      <trkpt lat="47.00998" lon="2.34144">
        <ele>167</ele>
        <time>2021-08-23T16:22:43Z</time>
      </trkpt>
      <trkpt lat="47.00996" lon="2.34152">
        <ele>167</ele>
        <time>2021-08-23T16:22:43Z</time>
      </trkpt>
      <trkpt lat="47.00994" lon="2.34161">
        <ele>167</ele>
        <time>2021-08-23T16:22:43Z</time>
      </trkpt>
      <trkpt lat="47.00992" lon="2.34171">
        <ele>167</ele>
        <time>2021-08-23T16:22:43Z</time>
      </trkpt>
      <trkpt lat="47.00983" lon="2.34217">
        <ele>167</ele>
        <time>2021-08-23T16:22:43Z</time>
      </trkpt>
      <trkpt lat="47.00976" lon="2.34263">
        <ele>166</ele>
        <time>2021-08-23T16:22:43Z</time>
      </trkpt>
      <trkpt lat="47.00967" lon="2.34307">
        <ele>167</ele>
        <time>2021-08-23T16:22:43Z</time>
      </trkpt>
      <trkpt lat="47.00963" lon="2.3435">
        <ele>168</ele>
        <time>2021-08-23T16:22:43Z</time>
      </trkpt>
      <trkpt lat="47.00958" lon="2.34392">
        <ele>168</ele>
        <time>2021-08-23T16:22:43Z</time>
      </trkpt>
      <trkpt lat="47.00956" lon="2.34427">
        <ele>168</ele>
        <time>2021-08-23T16:22:43Z</time>
      </trkpt>
      <trkpt lat="47.00955" lon="2.34436">
        <ele>168</ele>
        <time>2021-08-23T16:22:43Z</time>
      </trkpt>
      <trkpt lat="47.00955" lon="2.34479">
        <ele>169</ele>
        <time>2021-08-23T16:22:43Z</time>
      </trkpt>
      <trkpt lat="47.00952" lon="2.34525">
        <ele>169</ele>
        <time>2021-08-23T16:22:43Z</time>
      </trkpt>
      <trkpt lat="47.00951" lon="2.34571">
        <ele>167</ele>
        <time>2021-08-23T16:22:43Z</time>
      </trkpt>
      <trkpt lat="47.00949" lon="2.34618">
        <ele>167</ele>
        <time>2021-08-23T16:22:43Z</time>
      </trkpt>
      <trkpt lat="47.00945" lon="2.34666">
        <ele>167</ele>
        <time>2021-08-23T16:22:43Z</time>
      </trkpt>
      <trkpt lat="47.00943" lon="2.34703">
        <ele>167</ele>
        <time>2021-08-23T16:22:43Z</time>
      </trkpt>
      <trkpt lat="47.00943" lon="2.34712">
        <ele>167</ele>
        <time>2021-08-23T16:22:43Z</time>
      </trkpt>
      <trkpt lat="47.00941" lon="2.34758">
        <ele>168</ele>
        <time>2021-08-23T16:22:43Z</time>
      </trkpt>
      <trkpt lat="47.00939" lon="2.34803">
        <ele>168</ele>
        <time>2021-08-23T16:22:43Z</time>
      </trkpt>
      <trkpt lat="47.00938" lon="2.34849">
        <ele>169</ele>
        <time>2021-08-23T16:22:43Z</time>
      </trkpt>
      <trkpt lat="47.00931" lon="2.34894">
        <ele>169</ele>
        <time>2021-08-23T16:22:43Z</time>
      </trkpt>
      <trkpt lat="47.0092" lon="2.34942">
        <ele>169</ele>
        <time>2021-08-23T16:22:43Z</time>
      </trkpt>
      <trkpt lat="47.00914" lon="2.34979">
        <ele>170</ele>
        <time>2021-08-23T16:22:43Z</time>
      </trkpt>
      <trkpt lat="47.00912" lon="2.34989">
        <ele>170</ele>
        <time>2021-08-23T16:22:43Z</time>
      </trkpt>
      <trkpt lat="47.00904" lon="2.3502">
        <ele>170</ele>
        <time>2021-08-23T16:22:43Z</time>
      </trkpt>
      <trkpt lat="47.00902" lon="2.3503">
        <ele>169</ele>
        <time>2021-08-23T16:22:43Z</time>
      </trkpt>
      <trkpt lat="47.009" lon="2.35038">
        <ele>169</ele>
        <time>2021-08-23T16:22:43Z</time>
      </trkpt>
      <trkpt lat="47.00898" lon="2.35048">
        <ele>169</ele>
        <time>2021-08-23T16:22:43Z</time>
      </trkpt>
      <trkpt lat="47.00896" lon="2.35058">
        <ele>168</ele>
        <time>2021-08-23T16:22:43Z</time>
      </trkpt>
      <trkpt lat="47.00893" lon="2.35068">
        <ele>168</ele>
        <time>2021-08-23T16:22:43Z</time>
      </trkpt>
      <trkpt lat="47.0089" lon="2.35079">
        <ele>168</ele>
        <time>2021-08-23T16:22:43Z</time>
      </trkpt>
      <trkpt lat="47.00888" lon="2.35088">
        <ele>168</ele>
        <time>2021-08-23T16:22:43Z</time>
      </trkpt>
      <trkpt lat="47.00886" lon="2.35099">
        <ele>168</ele>
        <time>2021-08-23T16:22:43Z</time>
      </trkpt>
      <trkpt lat="47.00884" lon="2.35108">
        <ele>168</ele>
        <time>2021-08-23T16:22:43Z</time>
      </trkpt>
      <trkpt lat="47.00882" lon="2.35118">
        <ele>169</ele>
        <time>2021-08-23T16:22:43Z</time>
      </trkpt>
      <trkpt lat="47.00881" lon="2.35128">
        <ele>169</ele>
        <time>2021-08-23T16:22:43Z</time>
      </trkpt>
      <trkpt lat="47.0088" lon="2.35137">
        <ele>169</ele>
        <time>2021-08-23T16:22:43Z</time>
      </trkpt>
      <trkpt lat="47.00879" lon="2.35145">
        <ele>169</ele>
        <time>2021-08-23T16:22:43Z</time>
      </trkpt>
      <trkpt lat="47.00878" lon="2.35155">
        <ele>169</ele>
        <time>2021-08-23T16:22:43Z</time>
      </trkpt>
      <trkpt lat="47.00877" lon="2.35164">
        <ele>169</ele>
        <time>2021-08-23T16:22:43Z</time>
      </trkpt>
      <trkpt lat="47.00876" lon="2.35172">
        <ele>169</ele>
        <time>2021-08-23T16:22:43Z</time>
      </trkpt>
      <trkpt lat="47.00876" lon="2.35182">
        <ele>169</ele>
        <time>2021-08-23T16:22:43Z</time>
      </trkpt>
      <trkpt lat="47.00875" lon="2.35191">
        <ele>169</ele>
        <time>2021-08-23T16:22:43Z</time>
      </trkpt>
      <trkpt lat="47.00875" lon="2.35199">
        <ele>169</ele>
        <time>2021-08-23T16:22:43Z</time>
      </trkpt>
      <trkpt lat="47.00874" lon="2.35209">
        <ele>169</ele>
        <time>2021-08-23T16:22:43Z</time>
      </trkpt>
      <trkpt lat="47.00874" lon="2.35218">
        <ele>169</ele>
        <time>2021-08-23T16:22:43Z</time>
      </trkpt>
      <trkpt lat="47.00874" lon="2.35227">
        <ele>169</ele>
        <time>2021-08-23T16:22:43Z</time>
      </trkpt>
      <trkpt lat="47.00874" lon="2.35237">
        <ele>169</ele>
        <time>2021-08-23T16:22:43Z</time>
      </trkpt>
      <trkpt lat="47.00875" lon="2.35246">
        <ele>169</ele>
        <time>2021-08-23T16:22:43Z</time>
      </trkpt>
      <trkpt lat="47.00874" lon="2.35255">
        <ele>168</ele>
        <time>2021-08-23T16:22:43Z</time>
      </trkpt>
      <trkpt lat="47.00874" lon="2.35264">
        <ele>168</ele>
        <time>2021-08-23T16:22:43Z</time>
      </trkpt>
      <trkpt lat="47.00874" lon="2.35272">
        <ele>168</ele>
        <time>2021-08-23T16:22:43Z</time>
      </trkpt>
      <trkpt lat="47.00874" lon="2.35282">
        <ele>168</ele>
        <time>2021-08-23T16:22:43Z</time>
      </trkpt>
      <trkpt lat="47.00873" lon="2.35291">
        <ele>168</ele>
        <time>2021-08-23T16:22:43Z</time>
      </trkpt>
      <trkpt lat="47.00873" lon="2.35301">
        <ele>168</ele>
        <time>2021-08-23T16:22:43Z</time>
      </trkpt>
      <trkpt lat="47.00874" lon="2.35311">
        <ele>168</ele>
        <time>2021-08-23T16:22:43Z</time>
      </trkpt>
      <trkpt lat="47.00874" lon="2.35319">
        <ele>168</ele>
        <time>2021-08-23T16:22:43Z</time>
      </trkpt>
      <trkpt lat="47.00873" lon="2.35328">
        <ele>168</ele>
        <time>2021-08-23T16:22:43Z</time>
      </trkpt>
      <trkpt lat="47.00873" lon="2.35337">
        <ele>168</ele>
        <time>2021-08-23T16:22:43Z</time>
      </trkpt>
      <trkpt lat="47.00873" lon="2.35343">
        <ele>168</ele>
        <time>2021-08-23T16:22:43Z</time>
      </trkpt>
      <trkpt lat="47.00873" lon="2.35352">
        <ele>168</ele>
        <time>2021-08-23T16:22:43Z</time>
      </trkpt>
      <trkpt lat="47.00873" lon="2.35361">
        <ele>168</ele>
        <time>2021-08-23T16:22:43Z</time>
      </trkpt>
      <trkpt lat="47.00873" lon="2.35369">
        <ele>168</ele>
        <time>2021-08-23T16:22:43Z</time>
      </trkpt>
      <trkpt lat="47.00873" lon="2.35377">
        <ele>168</ele>
        <time>2021-08-23T16:22:43Z</time>
      </trkpt>
      <trkpt lat="47.00872" lon="2.35385">
        <ele>168</ele>
        <time>2021-08-23T16:22:43Z</time>
      </trkpt>
      <trkpt lat="47.00873" lon="2.35392">
        <ele>168</ele>
        <time>2021-08-23T16:22:43Z</time>
      </trkpt>
      <trkpt lat="47.00874" lon="2.35396">
        <ele>168</ele>
        <time>2021-08-23T16:22:43Z</time>
      </trkpt>
      <trkpt lat="47.00875" lon="2.354">
        <ele>168</ele>
        <time>2021-08-23T16:22:43Z</time>
      </trkpt>
      <trkpt lat="47.00875" lon="2.35403">
        <ele>168</ele>
        <time>2021-08-23T16:22:43Z</time>
      </trkpt>
      <trkpt lat="47.00876" lon="2.35406">
        <ele>168</ele>
        <time>2021-08-23T16:22:43Z</time>
      </trkpt>
      <trkpt lat="47.00876" lon="2.35408">
        <ele>168</ele>
        <time>2021-08-23T16:22:43Z</time>
      </trkpt>
      <trkpt lat="47.00877" lon="2.35409">
        <ele>168</ele>
        <time>2021-08-23T16:22:43Z</time>
      </trkpt>
      <trkpt lat="47.00877" lon="2.35411">
        <ele>168</ele>
        <time>2021-08-23T16:22:43Z</time>
      </trkpt>
      <trkpt lat="47.00878" lon="2.35413">
        <ele>168</ele>
        <time>2021-08-23T16:22:43Z</time>
      </trkpt>
      <trkpt lat="47.00877" lon="2.35414">
        <ele>168</ele>
        <time>2021-08-23T16:22:43Z</time>
      </trkpt>
      <trkpt lat="47.00876" lon="2.35415">
        <ele>168</ele>
        <time>2021-08-23T16:22:43Z</time>
      </trkpt>
      <trkpt lat="47.00876" lon="2.35416">
        <ele>168</ele>
        <time>2021-08-23T16:22:43Z</time>
      </trkpt>
      <trkpt lat="47.00875" lon="2.35417">
        <ele>169</ele>
        <time>2021-08-23T16:22:43Z</time>
      </trkpt>
      <trkpt lat="47.00875" lon="2.35417">
        <ele>169</ele>
        <time>2021-08-23T16:22:43Z</time>
      </trkpt>
      <trkpt lat="47.00874" lon="2.35417">
        <ele>169</ele>
        <time>2021-08-23T16:22:43Z</time>
      </trkpt>
      <trkpt lat="47.00874" lon="2.35417">
        <ele>169</ele>
        <time>2021-08-23T16:22:43Z</time>
      </trkpt>
      <trkpt lat="47.00874" lon="2.35418">
        <ele>169</ele>
        <time>2021-08-23T16:22:43Z</time>
      </trkpt>
      <trkpt lat="47.00875" lon="2.35418">
        <ele>169</ele>
        <time>2021-08-23T16:22:43Z</time>
      </trkpt>
      <trkpt lat="47.00875" lon="2.35418">
        <ele>169</ele>
        <time>2021-08-23T16:22:43Z</time>
      </trkpt>
      <trkpt lat="47.00875" lon="2.35418">
        <ele>169</ele>
        <time>2021-08-23T16:22:43Z</time>
      </trkpt>
      <trkpt lat="47.00875" lon="2.35418">
        <ele>169</ele>
        <time>2021-08-23T16:22:43Z</time>
      </trkpt>
      <trkpt lat="47.00875" lon="2.35418">
        <ele>169</ele>
        <time>2021-08-23T16:22:43Z</time>
      </trkpt>
      <trkpt lat="47.00875" lon="2.35425">
        <ele>169</ele>
        <time>2021-08-23T16:22:43Z</time>
      </trkpt>
      <trkpt lat="47.00874" lon="2.35428">
        <ele>169</ele>
        <time>2021-08-23T16:22:43Z</time>
      </trkpt>
      <trkpt lat="47.00874" lon="2.35431">
        <ele>169</ele>
        <time>2021-08-23T16:22:43Z</time>
      </trkpt>
      <trkpt lat="47.00873" lon="2.35434">
        <ele>169</ele>
        <time>2021-08-23T16:22:43Z</time>
      </trkpt>
      <trkpt lat="47.00872" lon="2.35439">
        <ele>169</ele>
        <time>2021-08-23T16:22:43Z</time>
      </trkpt>
      <trkpt lat="47.00871" lon="2.35444">
        <ele>169</ele>
        <time>2021-08-23T16:22:43Z</time>
      </trkpt>
      <trkpt lat="47.0087" lon="2.35449">
        <ele>168</ele>
        <time>2021-08-23T16:22:43Z</time>
      </trkpt>
      <trkpt lat="47.00869" lon="2.35455">
        <ele>168</ele>
        <time>2021-08-23T16:22:43Z</time>
      </trkpt>
      <trkpt lat="47.00869" lon="2.35462">
        <ele>168</ele>
        <time>2021-08-23T16:22:43Z</time>
      </trkpt>
      <trkpt lat="47.0087" lon="2.35499">
        <ele>168</ele>
        <time>2021-08-23T16:22:43Z</time>
      </trkpt>
      <trkpt lat="47.00866" lon="2.35536">
        <ele>168</ele>
        <time>2021-08-23T16:22:43Z</time>
      </trkpt>
      <trkpt lat="47.00856" lon="2.35578">
        <ele>168</ele>
        <time>2021-08-23T16:22:43Z</time>
      </trkpt>
      <trkpt lat="47.00847" lon="2.35621">
        <ele>168</ele>
        <time>2021-08-23T16:22:43Z</time>
      </trkpt>
      <trkpt lat="47.00831" lon="2.35657">
        <ele>167</ele>
        <time>2021-08-23T16:22:43Z</time>
      </trkpt>
      <trkpt lat="47.00816" lon="2.35685">
        <ele>167</ele>
        <time>2021-08-23T16:22:43Z</time>
      </trkpt>
      <trkpt lat="47.00812" lon="2.35692">
        <ele>167</ele>
        <time>2021-08-23T16:22:43Z</time>
      </trkpt>
      <trkpt lat="47.00802" lon="2.35733">
        <ele>168</ele>
        <time>2021-08-23T16:22:43Z</time>
      </trkpt>
      <trkpt lat="47.00812" lon="2.35775">
        <ele>168</ele>
        <time>2021-08-23T16:22:43Z</time>
      </trkpt>
      <trkpt lat="47.00825" lon="2.35816">
        <ele>167</ele>
        <time>2021-08-23T16:22:43Z</time>
      </trkpt>
      <trkpt lat="47.00838" lon="2.35858">
        <ele>167</ele>
        <time>2021-08-23T16:22:43Z</time>
      </trkpt>
      <trkpt lat="47.00851" lon="2.35898">
        <ele>166</ele>
        <time>2021-08-23T16:22:43Z</time>
      </trkpt>
      <trkpt lat="47.00862" lon="2.35932">
        <ele>168</ele>
        <time>2021-08-23T16:22:43Z</time>
      </trkpt>
      <trkpt lat="47.00864" lon="2.3594">
        <ele>168</ele>
        <time>2021-08-23T16:22:43Z</time>
      </trkpt>
      <trkpt lat="47.00873" lon="2.35985">
        <ele>167</ele>
        <time>2021-08-23T16:22:43Z</time>
      </trkpt>
      <trkpt lat="47.0089" lon="2.36027">
        <ele>167</ele>
        <time>2021-08-23T16:22:43Z</time>
      </trkpt>
      <trkpt lat="47.00913" lon="2.36058">
        <ele>166</ele>
        <time>2021-08-23T16:22:43Z</time>
      </trkpt>
      <trkpt lat="47.00938" lon="2.36085">
        <ele>165</ele>
        <time>2021-08-23T16:22:43Z</time>
      </trkpt>
      <trkpt lat="47.00958" lon="2.36119">
        <ele>164</ele>
        <time>2021-08-23T16:22:43Z</time>
      </trkpt>
      <trkpt lat="47.00971" lon="2.36152">
        <ele>163</ele>
        <time>2021-08-23T16:22:43Z</time>
      </trkpt>
      <trkpt lat="47.00975" lon="2.36162">
        <ele>163</ele>
        <time>2021-08-23T16:22:43Z</time>
      </trkpt>
      <trkpt lat="47.00981" lon="2.3618">
        <ele>163</ele>
        <time>2021-08-23T16:22:43Z</time>
      </trkpt>
      <trkpt lat="47.00984" lon="2.36189">
        <ele>163</ele>
        <time>2021-08-23T16:22:43Z</time>
      </trkpt>
      <trkpt lat="47.00987" lon="2.36197">
        <ele>163</ele>
        <time>2021-08-23T16:22:43Z</time>
      </trkpt>
      <trkpt lat="47.0099" lon="2.36206">
        <ele>163</ele>
        <time>2021-08-23T16:22:43Z</time>
      </trkpt>
      <trkpt lat="47.00993" lon="2.36214">
        <ele>163</ele>
        <time>2021-08-23T16:22:43Z</time>
      </trkpt>
      <trkpt lat="47.00995" lon="2.36222">
        <ele>163</ele>
        <time>2021-08-23T16:22:43Z</time>
      </trkpt>
      <trkpt lat="47.00998" lon="2.36229">
        <ele>163</ele>
        <time>2021-08-23T16:22:43Z</time>
      </trkpt>
      <trkpt lat="47.00998" lon="2.36234">
        <ele>163</ele>
        <time>2021-08-23T16:22:43Z</time>
      </trkpt>
      <trkpt lat="47.01" lon="2.36239">
        <ele>163</ele>
        <time>2021-08-23T16:22:43Z</time>
      </trkpt>
      <trkpt lat="47.01" lon="2.36243">
        <ele>163</ele>
        <time>2021-08-23T16:22:43Z</time>
      </trkpt>
      <trkpt lat="47.01002" lon="2.36247">
        <ele>163</ele>
        <time>2021-08-23T16:22:43Z</time>
      </trkpt>
      <trkpt lat="47.01004" lon="2.36251">
        <ele>163</ele>
        <time>2021-08-23T16:22:43Z</time>
      </trkpt>
      <trkpt lat="47.01007" lon="2.36255">
        <ele>163</ele>
        <time>2021-08-23T16:22:43Z</time>
      </trkpt>
      <trkpt lat="47.0101" lon="2.36258">
        <ele>163</ele>
        <time>2021-08-23T16:22:43Z</time>
      </trkpt>
      <trkpt lat="47.01013" lon="2.3626">
        <ele>163</ele>
        <time>2021-08-23T16:22:43Z</time>
      </trkpt>
      <trkpt lat="47.01018" lon="2.36263">
        <ele>163</ele>
        <time>2021-08-23T16:22:43Z</time>
      </trkpt>
      <trkpt lat="47.01021" lon="2.36266">
        <ele>163</ele>
        <time>2021-08-23T16:22:43Z</time>
      </trkpt>
      <trkpt lat="47.01024" lon="2.36271">
        <ele>163</ele>
        <time>2021-08-23T16:22:43Z</time>
      </trkpt>
      <trkpt lat="47.01025" lon="2.36277">
        <ele>163</ele>
        <time>2021-08-23T16:22:43Z</time>
      </trkpt>
      <trkpt lat="47.01025" lon="2.36282">
        <ele>162</ele>
        <time>2021-08-23T16:22:43Z</time>
      </trkpt>
      <trkpt lat="47.01025" lon="2.36288">
        <ele>162</ele>
        <time>2021-08-23T16:22:43Z</time>
      </trkpt>
      <trkpt lat="47.01024" lon="2.36294">
        <ele>162</ele>
        <time>2021-08-23T16:22:43Z</time>
      </trkpt>
      <trkpt lat="47.01024" lon="2.363">
        <ele>162</ele>
        <time>2021-08-23T16:22:43Z</time>
      </trkpt>
      <trkpt lat="47.01023" lon="2.36307">
        <ele>162</ele>
        <time>2021-08-23T16:22:43Z</time>
      </trkpt>
      <trkpt lat="47.01018" lon="2.36315">
        <ele>161</ele>
        <time>2021-08-23T16:22:43Z</time>
      </trkpt>
      <trkpt lat="47.01017" lon="2.36322">
        <ele>161</ele>
        <time>2021-08-23T16:22:43Z</time>
      </trkpt>
      <trkpt lat="47.01015" lon="2.36327">
        <ele>161</ele>
        <time>2021-08-23T16:22:43Z</time>
      </trkpt>
      <trkpt lat="47.01015" lon="2.36329">
        <ele>161</ele>
        <time>2021-08-23T16:22:43Z</time>
      </trkpt>
      <trkpt lat="47.01015" lon="2.3633">
        <ele>161</ele>
        <time>2021-08-23T16:22:43Z</time>
      </trkpt>
      <trkpt lat="47.01015" lon="2.36331">
        <ele>161</ele>
        <time>2021-08-23T16:22:43Z</time>
      </trkpt>
      <trkpt lat="47.01015" lon="2.36331">
        <ele>161</ele>
        <time>2021-08-23T16:22:43Z</time>
      </trkpt>
      <trkpt lat="47.01015" lon="2.36332">
        <ele>161</ele>
        <time>2021-08-23T16:22:43Z</time>
      </trkpt>
      <trkpt lat="47.01016" lon="2.36331">
        <ele>161</ele>
        <time>2021-08-23T16:22:43Z</time>
      </trkpt>
      <trkpt lat="47.01016" lon="2.36331">
        <ele>161</ele>
        <time>2021-08-23T16:22:43Z</time>
      </trkpt>
      <trkpt lat="47.01015" lon="2.36331">
        <ele>161</ele>
        <time>2021-08-23T16:22:43Z</time>
      </trkpt>
      <trkpt lat="47.01015" lon="2.36331">
        <ele>161</ele>
        <time>2021-08-23T16:22:43Z</time>
      </trkpt>
      <trkpt lat="47.01015" lon="2.36331">
        <ele>161</ele>
        <time>2021-08-23T16:22:43Z</time>
      </trkpt>
      <trkpt lat="47.01015" lon="2.36331">
        <ele>161</ele>
        <time>2021-08-23T16:22:43Z</time>
      </trkpt>
      <trkpt lat="47.01015" lon="2.36332">
        <ele>161</ele>
        <time>2021-08-23T16:22:43Z</time>
      </trkpt>
      <trkpt lat="47.01015" lon="2.36332">
        <ele>161</ele>
        <time>2021-08-23T16:22:43Z</time>
      </trkpt>
      <trkpt lat="47.01015" lon="2.36331">
        <ele>161</ele>
        <time>2021-08-23T16:22:43Z</time>
      </trkpt>
      <trkpt lat="47.01015" lon="2.36331">
        <ele>161</ele>
        <time>2021-08-23T16:22:43Z</time>
      </trkpt>
      <trkpt lat="47.01015" lon="2.36331">
        <ele>161</ele>
        <time>2021-08-23T16:22:43Z</time>
      </trkpt>
      <trkpt lat="47.01016" lon="2.36332">
        <ele>161</ele>
        <time>2021-08-23T16:22:43Z</time>
      </trkpt>
      <trkpt lat="47.01016" lon="2.36332">
        <ele>161</ele>
        <time>2021-08-23T16:22:43Z</time>
      </trkpt>
      <trkpt lat="47.01015" lon="2.36332">
        <ele>161</ele>
        <time>2021-08-23T16:22:43Z</time>
      </trkpt>
      <trkpt lat="47.01015" lon="2.36336">
        <ele>161</ele>
        <time>2021-08-23T16:22:43Z</time>
      </trkpt>
      <trkpt lat="47.01014" lon="2.36359">
        <ele>160</ele>
        <time>2021-08-23T16:22:43Z</time>
      </trkpt>
      <trkpt lat="47.01012" lon="2.36388">
        <ele>160</ele>
        <time>2021-08-23T16:22:43Z</time>
      </trkpt>
      <trkpt lat="47.01011" lon="2.36396">
        <ele>160</ele>
        <time>2021-08-23T16:22:43Z</time>
      </trkpt>
      <trkpt lat="47.01007" lon="2.36436">
        <ele>160</ele>
        <time>2021-08-23T16:22:43Z</time>
      </trkpt>
      <trkpt lat="47.01004" lon="2.36478">
        <ele>161</ele>
        <time>2021-08-23T16:22:43Z</time>
      </trkpt>
      <trkpt lat="47.01001" lon="2.36517">
        <ele>163</ele>
        <time>2021-08-23T16:22:43Z</time>
      </trkpt>
      <trkpt lat="47.00997" lon="2.36553">
        <ele>163</ele>
        <time>2021-08-23T16:22:43Z</time>
      </trkpt>
      <trkpt lat="47.00994" lon="2.3659">
        <ele>164</ele>
        <time>2021-08-23T16:22:43Z</time>
      </trkpt>
      <trkpt lat="47.00991" lon="2.36622">
        <ele>165</ele>
        <time>2021-08-23T16:22:43Z</time>
      </trkpt>
      <trkpt lat="47.0099" lon="2.36631">
        <ele>165</ele>
        <time>2021-08-23T16:22:43Z</time>
      </trkpt>
      <trkpt lat="47.00987" lon="2.36674">
        <ele>164</ele>
        <time>2021-08-23T16:22:43Z</time>
      </trkpt>
      <trkpt lat="47.00982" lon="2.36721">
        <ele>163</ele>
        <time>2021-08-23T16:22:43Z</time>
      </trkpt>
      <trkpt lat="47.00978" lon="2.3677">
        <ele>162</ele>
        <time>2021-08-23T16:22:43Z</time>
      </trkpt>
      <trkpt lat="47.00975" lon="2.36819">
        <ele>161</ele>
        <time>2021-08-23T16:22:43Z</time>
      </trkpt>
      <trkpt lat="47.00974" lon="2.36869">
        <ele>160</ele>
        <time>2021-08-23T16:22:43Z</time>
      </trkpt>
      <trkpt lat="47.00973" lon="2.3691">
        <ele>161</ele>
        <time>2021-08-23T16:22:43Z</time>
      </trkpt>
      <trkpt lat="47.00973" lon="2.36919">
        <ele>162</ele>
        <time>2021-08-23T16:22:43Z</time>
      </trkpt>
      <trkpt lat="47.00972" lon="2.36969">
        <ele>162</ele>
        <time>2021-08-23T16:22:43Z</time>
      </trkpt>
      <trkpt lat="47.00973" lon="2.37017">
        <ele>164</ele>
        <time>2021-08-23T16:22:43Z</time>
      </trkpt>
      <trkpt lat="47.00973" lon="2.37065">
        <ele>163</ele>
        <time>2021-08-23T16:22:43Z</time>
      </trkpt>
      <trkpt lat="47.00974" lon="2.37109">
        <ele>162</ele>
        <time>2021-08-23T16:22:43Z</time>
      </trkpt>
      <trkpt lat="47.00976" lon="2.37152">
        <ele>161</ele>
        <time>2021-08-23T16:22:43Z</time>
      </trkpt>
      <trkpt lat="47.00977" lon="2.37186">
        <ele>161</ele>
        <time>2021-08-23T16:22:43Z</time>
      </trkpt>
      <trkpt lat="47.00977" lon="2.37194">
        <ele>160</ele>
        <time>2021-08-23T16:22:43Z</time>
      </trkpt>
      <trkpt lat="47.00977" lon="2.37203">
        <ele>160</ele>
        <time>2021-08-23T16:22:43Z</time>
      </trkpt>
      <trkpt lat="47.00977" lon="2.37212">
        <ele>160</ele>
        <time>2021-08-23T16:22:43Z</time>
      </trkpt>
      <trkpt lat="47.00977" lon="2.3722">
        <ele>160</ele>
        <time>2021-08-23T16:22:43Z</time>
      </trkpt>
      <trkpt lat="47.00977" lon="2.37229">
        <ele>160</ele>
        <time>2021-08-23T16:22:43Z</time>
      </trkpt>
      <trkpt lat="47.00978" lon="2.37238">
        <ele>160</ele>
        <time>2021-08-23T16:22:43Z</time>
      </trkpt>
      <trkpt lat="47.00977" lon="2.37246">
        <ele>160</ele>
        <time>2021-08-23T16:22:43Z</time>
      </trkpt>
      <trkpt lat="47.00977" lon="2.37255">
        <ele>160</ele>
        <time>2021-08-23T16:22:43Z</time>
      </trkpt>
      <trkpt lat="47.00978" lon="2.37264">
        <ele>160</ele>
        <time>2021-08-23T16:22:43Z</time>
      </trkpt>
      <trkpt lat="47.00978" lon="2.37272">
        <ele>160</ele>
        <time>2021-08-23T16:22:43Z</time>
      </trkpt>
      <trkpt lat="47.00978" lon="2.37281">
        <ele>161</ele>
        <time>2021-08-23T16:22:43Z</time>
      </trkpt>
      <trkpt lat="47.00978" lon="2.3729">
        <ele>161</ele>
        <time>2021-08-23T16:22:43Z</time>
      </trkpt>
      <trkpt lat="47.00978" lon="2.37299">
        <ele>161</ele>
        <time>2021-08-23T16:22:43Z</time>
      </trkpt>
      <trkpt lat="47.00978" lon="2.37308">
        <ele>161</ele>
        <time>2021-08-23T16:22:43Z</time>
      </trkpt>
      <trkpt lat="47.00979" lon="2.37317">
        <ele>161</ele>
        <time>2021-08-23T16:22:43Z</time>
      </trkpt>
      <trkpt lat="47.00979" lon="2.37326">
        <ele>161</ele>
        <time>2021-08-23T16:22:43Z</time>
      </trkpt>
      <trkpt lat="47.00979" lon="2.37335">
        <ele>161</ele>
        <time>2021-08-23T16:22:43Z</time>
      </trkpt>
      <trkpt lat="47.0098" lon="2.37345">
        <ele>161</ele>
        <time>2021-08-23T16:22:43Z</time>
      </trkpt>
      <trkpt lat="47.0098" lon="2.37354">
        <ele>161</ele>
        <time>2021-08-23T16:22:43Z</time>
      </trkpt>
      <trkpt lat="47.0098" lon="2.37364">
        <ele>160</ele>
        <time>2021-08-23T16:22:43Z</time>
      </trkpt>
      <trkpt lat="47.0098" lon="2.37374">
        <ele>160</ele>
        <time>2021-08-23T16:22:43Z</time>
      </trkpt>
      <trkpt lat="47.00981" lon="2.37383">
        <ele>160</ele>
        <time>2021-08-23T16:22:43Z</time>
      </trkpt>
      <trkpt lat="47.00981" lon="2.37392">
        <ele>159</ele>
        <time>2021-08-23T16:22:43Z</time>
      </trkpt>
      <trkpt lat="47.00981" lon="2.37402">
        <ele>159</ele>
        <time>2021-08-23T16:22:43Z</time>
      </trkpt>
      <trkpt lat="47.00981" lon="2.37412">
        <ele>159</ele>
        <time>2021-08-23T16:22:43Z</time>
      </trkpt>
      <trkpt lat="47.00982" lon="2.37421">
        <ele>159</ele>
        <time>2021-08-23T16:22:43Z</time>
      </trkpt>
      <trkpt lat="47.00982" lon="2.37431">
        <ele>159</ele>
        <time>2021-08-23T16:22:43Z</time>
      </trkpt>
      <trkpt lat="47.00982" lon="2.37441">
        <ele>159</ele>
        <time>2021-08-23T16:22:43Z</time>
      </trkpt>
      <trkpt lat="47.00983" lon="2.3745">
        <ele>159</ele>
        <time>2021-08-23T16:22:43Z</time>
      </trkpt>
      <trkpt lat="47.00983" lon="2.3746">
        <ele>159</ele>
        <time>2021-08-23T16:22:43Z</time>
      </trkpt>
      <trkpt lat="47.00983" lon="2.3747">
        <ele>159</ele>
        <time>2021-08-23T16:22:43Z</time>
      </trkpt>
      <trkpt lat="47.00983" lon="2.3748">
        <ele>159</ele>
        <time>2021-08-23T16:22:43Z</time>
      </trkpt>
      <trkpt lat="47.00983" lon="2.37489">
        <ele>159</ele>
        <time>2021-08-23T16:22:43Z</time>
      </trkpt>
      <trkpt lat="47.00983" lon="2.37498">
        <ele>159</ele>
        <time>2021-08-23T16:22:43Z</time>
      </trkpt>
      <trkpt lat="47.00984" lon="2.37507">
        <ele>159</ele>
        <time>2021-08-23T16:22:43Z</time>
      </trkpt>
      <trkpt lat="47.00984" lon="2.37517">
        <ele>159</ele>
        <time>2021-08-23T16:22:43Z</time>
      </trkpt>
      <trkpt lat="47.00984" lon="2.37526">
        <ele>159</ele>
        <time>2021-08-23T16:22:43Z</time>
      </trkpt>
      <trkpt lat="47.00984" lon="2.37534">
        <ele>159</ele>
        <time>2021-08-23T16:22:43Z</time>
      </trkpt>
      <trkpt lat="47.00985" lon="2.37543">
        <ele>159</ele>
        <time>2021-08-23T16:22:43Z</time>
      </trkpt>
      <trkpt lat="47.00985" lon="2.37552">
        <ele>159</ele>
        <time>2021-08-23T16:22:43Z</time>
      </trkpt>
      <trkpt lat="47.00986" lon="2.37561">
        <ele>159</ele>
        <time>2021-08-23T16:22:43Z</time>
      </trkpt>
      <trkpt lat="47.00986" lon="2.3757">
        <ele>159</ele>
        <time>2021-08-23T16:22:43Z</time>
      </trkpt>
      <trkpt lat="47.00986" lon="2.37579">
        <ele>160</ele>
        <time>2021-08-23T16:22:43Z</time>
      </trkpt>
      <trkpt lat="47.00986" lon="2.37588">
        <ele>160</ele>
        <time>2021-08-23T16:22:43Z</time>
      </trkpt>
      <trkpt lat="47.00986" lon="2.37596">
        <ele>160</ele>
        <time>2021-08-23T16:22:43Z</time>
      </trkpt>
      <trkpt lat="47.00986" lon="2.37605">
        <ele>160</ele>
        <time>2021-08-23T16:22:43Z</time>
      </trkpt>
      <trkpt lat="47.00987" lon="2.37614">
        <ele>161</ele>
        <time>2021-08-23T16:22:43Z</time>
      </trkpt>
      <trkpt lat="47.00987" lon="2.37623">
        <ele>161</ele>
        <time>2021-08-23T16:22:43Z</time>
      </trkpt>
      <trkpt lat="47.00987" lon="2.37631">
        <ele>161</ele>
        <time>2021-08-23T16:22:43Z</time>
      </trkpt>
      <trkpt lat="47.00987" lon="2.37641">
        <ele>161</ele>
        <time>2021-08-23T16:22:43Z</time>
      </trkpt>
      <trkpt lat="47.00987" lon="2.37649">
        <ele>161</ele>
        <time>2021-08-23T16:22:43Z</time>
      </trkpt>
      <trkpt lat="47.00987" lon="2.37659">
        <ele>162</ele>
        <time>2021-08-23T16:22:43Z</time>
      </trkpt>
      <trkpt lat="47.00987" lon="2.37668">
        <ele>162</ele>
        <time>2021-08-23T16:22:43Z</time>
      </trkpt>
      <trkpt lat="47.00987" lon="2.37676">
        <ele>162</ele>
        <time>2021-08-23T16:22:43Z</time>
      </trkpt>
      <trkpt lat="47.00987" lon="2.37686">
        <ele>162</ele>
        <time>2021-08-23T16:22:43Z</time>
      </trkpt>
      <trkpt lat="47.00987" lon="2.37695">
        <ele>162</ele>
        <time>2021-08-23T16:22:43Z</time>
      </trkpt>
      <trkpt lat="47.00988" lon="2.37704">
        <ele>162</ele>
        <time>2021-08-23T16:22:43Z</time>
      </trkpt>
      <trkpt lat="47.00988" lon="2.37713">
        <ele>162</ele>
        <time>2021-08-23T16:22:43Z</time>
      </trkpt>
      <trkpt lat="47.00988" lon="2.37722">
        <ele>162</ele>
        <time>2021-08-23T16:22:43Z</time>
      </trkpt>
      <trkpt lat="47.00989" lon="2.37731">
        <ele>162</ele>
        <time>2021-08-23T16:22:43Z</time>
      </trkpt>
      <trkpt lat="47.00989" lon="2.3774">
        <ele>162</ele>
        <time>2021-08-23T16:22:43Z</time>
      </trkpt>
      <trkpt lat="47.00989" lon="2.37749">
        <ele>162</ele>
        <time>2021-08-23T16:22:43Z</time>
      </trkpt>
      <trkpt lat="47.0099" lon="2.37795">
        <ele>163</ele>
        <time>2021-08-23T16:22:43Z</time>
      </trkpt>
      <trkpt lat="47.00992" lon="2.37841">
        <ele>163</ele>
        <time>2021-08-23T16:22:43Z</time>
      </trkpt>
      <trkpt lat="47.00993" lon="2.37888">
        <ele>161</ele>
        <time>2021-08-23T16:22:43Z</time>
      </trkpt>
      <trkpt lat="47.00994" lon="2.37938">
        <ele>159</ele>
        <time>2021-08-23T16:22:43Z</time>
      </trkpt>
      <trkpt lat="47.00995" lon="2.37988">
        <ele>159</ele>
        <time>2021-08-23T16:22:43Z</time>
      </trkpt>
      <trkpt lat="47.00996" lon="2.38031">
        <ele>159</ele>
        <time>2021-08-23T16:22:43Z</time>
      </trkpt>
      <trkpt lat="47.00996" lon="2.38041">
        <ele>159</ele>
        <time>2021-08-23T16:22:43Z</time>
      </trkpt>
      <trkpt lat="47.00997" lon="2.38096">
        <ele>158</ele>
        <time>2021-08-23T16:22:43Z</time>
      </trkpt>
      <trkpt lat="47.00998" lon="2.38148">
        <ele>158</ele>
        <time>2021-08-23T16:22:43Z</time>
      </trkpt>
      <trkpt lat="47.01" lon="2.38199">
        <ele>158</ele>
        <time>2021-08-23T16:22:43Z</time>
      </trkpt>
      <trkpt lat="47.01001" lon="2.3825">
        <ele>156</ele>
        <time>2021-08-23T16:22:43Z</time>
      </trkpt>
      <trkpt lat="47.01002" lon="2.38298">
        <ele>156</ele>
        <time>2021-08-23T16:22:43Z</time>
      </trkpt>
      <trkpt lat="47.01003" lon="2.38338">
        <ele>156</ele>
        <time>2021-08-23T16:22:43Z</time>
      </trkpt>
      <trkpt lat="47.01003" lon="2.38347">
        <ele>156</ele>
        <time>2021-08-23T16:22:43Z</time>
      </trkpt>
      <trkpt lat="47.01004" lon="2.38397">
        <ele>156</ele>
        <time>2021-08-23T16:22:43Z</time>
      </trkpt>
      <trkpt lat="47.01004" lon="2.38446">
        <ele>155</ele>
        <time>2021-08-23T16:22:43Z</time>
      </trkpt>
      <trkpt lat="47.01006" lon="2.38495">
        <ele>155</ele>
        <time>2021-08-23T16:22:43Z</time>
      </trkpt>
      <trkpt lat="47.01007" lon="2.38542">
        <ele>154</ele>
        <time>2021-08-23T16:22:43Z</time>
      </trkpt>
      <trkpt lat="47.01009" lon="2.38588">
        <ele>153</ele>
        <time>2021-08-23T16:22:43Z</time>
      </trkpt>
      <trkpt lat="47.01015" lon="2.38624">
        <ele>151</ele>
        <time>2021-08-23T16:22:43Z</time>
      </trkpt>
      <trkpt lat="47.01016" lon="2.38634">
        <ele>151</ele>
        <time>2021-08-23T16:22:43Z</time>
      </trkpt>
      <trkpt lat="47.01017" lon="2.38643">
        <ele>150</ele>
        <time>2021-08-23T16:22:43Z</time>
      </trkpt>
      <trkpt lat="47.01019" lon="2.38653">
        <ele>150</ele>
        <time>2021-08-23T16:22:43Z</time>
      </trkpt>
      <trkpt lat="47.01021" lon="2.38662">
        <ele>150</ele>
        <time>2021-08-23T16:22:43Z</time>
      </trkpt>
      <trkpt lat="47.01022" lon="2.38671">
        <ele>150</ele>
        <time>2021-08-23T16:22:43Z</time>
      </trkpt>
      <trkpt lat="47.01023" lon="2.3868">
        <ele>150</ele>
        <time>2021-08-23T16:22:43Z</time>
      </trkpt>
      <trkpt lat="47.01025" lon="2.3869">
        <ele>150</ele>
        <time>2021-08-23T16:22:43Z</time>
      </trkpt>
      <trkpt lat="47.01027" lon="2.38699">
        <ele>150</ele>
        <time>2021-08-23T16:22:43Z</time>
      </trkpt>
      <trkpt lat="47.01028" lon="2.38709">
        <ele>150</ele>
        <time>2021-08-23T16:22:43Z</time>
      </trkpt>
      <trkpt lat="47.0103" lon="2.38718">
        <ele>150</ele>
        <time>2021-08-23T16:22:43Z</time>
      </trkpt>
      <trkpt lat="47.01031" lon="2.38728">
        <ele>151</ele>
        <time>2021-08-23T16:22:43Z</time>
      </trkpt>
      <trkpt lat="47.01033" lon="2.38736">
        <ele>151</ele>
        <time>2021-08-23T16:22:43Z</time>
      </trkpt>
      <trkpt lat="47.01034" lon="2.38745">
        <ele>152</ele>
        <time>2021-08-23T16:22:43Z</time>
      </trkpt>
      <trkpt lat="47.01035" lon="2.38754">
        <ele>152</ele>
        <time>2021-08-23T16:22:43Z</time>
      </trkpt>
      <trkpt lat="47.01036" lon="2.38764">
        <ele>151</ele>
        <time>2021-08-23T16:22:43Z</time>
      </trkpt>
      <trkpt lat="47.01037" lon="2.38774">
        <ele>151</ele>
        <time>2021-08-23T16:22:43Z</time>
      </trkpt>
      <trkpt lat="47.01038" lon="2.38783">
        <ele>151</ele>
        <time>2021-08-23T16:22:43Z</time>
      </trkpt>
      <trkpt lat="47.01039" lon="2.38792">
        <ele>151</ele>
        <time>2021-08-23T16:22:43Z</time>
      </trkpt>
      <trkpt lat="47.0104" lon="2.38802">
        <ele>151</ele>
        <time>2021-08-23T16:22:43Z</time>
      </trkpt>
      <trkpt lat="47.0104" lon="2.38811">
        <ele>151</ele>
        <time>2021-08-23T16:22:43Z</time>
      </trkpt>
      <trkpt lat="47.0104" lon="2.38821">
        <ele>151</ele>
        <time>2021-08-23T16:22:43Z</time>
      </trkpt>
      <trkpt lat="47.0104" lon="2.38831">
        <ele>152</ele>
        <time>2021-08-23T16:22:43Z</time>
      </trkpt>
      <trkpt lat="47.0104" lon="2.3884">
        <ele>152</ele>
        <time>2021-08-23T16:22:43Z</time>
      </trkpt>
      <trkpt lat="47.01039" lon="2.3885">
        <ele>152</ele>
        <time>2021-08-23T16:22:43Z</time>
      </trkpt>
      <trkpt lat="47.01039" lon="2.3886">
        <ele>152</ele>
        <time>2021-08-23T16:22:43Z</time>
      </trkpt>
      <trkpt lat="47.01038" lon="2.3887">
        <ele>152</ele>
        <time>2021-08-23T16:22:43Z</time>
      </trkpt>
      <trkpt lat="47.01036" lon="2.3888">
        <ele>152</ele>
        <time>2021-08-23T16:22:43Z</time>
      </trkpt>
      <trkpt lat="47.01035" lon="2.3889">
        <ele>152</ele>
        <time>2021-08-23T16:22:43Z</time>
      </trkpt>
      <trkpt lat="47.01033" lon="2.389">
        <ele>152</ele>
        <time>2021-08-23T16:22:43Z</time>
      </trkpt>
      <trkpt lat="47.01031" lon="2.3891">
        <ele>152</ele>
        <time>2021-08-23T16:22:43Z</time>
      </trkpt>
      <trkpt lat="47.01024" lon="2.38955">
        <ele>149</ele>
        <time>2021-08-23T16:22:43Z</time>
      </trkpt>
      <trkpt lat="47.01018" lon="2.39003">
        <ele>148</ele>
        <time>2021-08-23T16:22:43Z</time>
      </trkpt>
      <trkpt lat="47.01017" lon="2.39055">
        <ele>148</ele>
        <time>2021-08-23T16:22:43Z</time>
      </trkpt>
      <trkpt lat="47.01018" lon="2.39106">
        <ele>148</ele>
        <time>2021-08-23T16:22:43Z</time>
      </trkpt>
      <trkpt lat="47.01019" lon="2.39172">
        <ele>147</ele>
        <time>2021-08-23T16:22:43Z</time>
      </trkpt>
      <trkpt lat="47.01015" lon="2.39214">
        <ele>147</ele>
        <time>2021-08-23T16:22:43Z</time>
      </trkpt>
      <trkpt lat="47.01015" lon="2.39221">
        <ele>146</ele>
        <time>2021-08-23T16:22:43Z</time>
      </trkpt>
      <trkpt lat="47.01014" lon="2.39253">
        <ele>146</ele>
        <time>2021-08-23T16:22:43Z</time>
      </trkpt>
      <trkpt lat="47.01014" lon="2.39308">
        <ele>148</ele>
        <time>2021-08-23T16:22:43Z</time>
      </trkpt>
      <trkpt lat="47.0101" lon="2.39359">
        <ele>150</ele>
        <time>2021-08-23T16:22:43Z</time>
      </trkpt>
      <trkpt lat="47.01004" lon="2.3942">
        <ele>150</ele>
        <time>2021-08-23T16:22:43Z</time>
      </trkpt>
      <trkpt lat="47.00999" lon="2.39483">
        <ele>147</ele>
        <time>2021-08-23T16:22:43Z</time>
      </trkpt>
      <trkpt lat="47.00995" lon="2.39529">
        <ele>144</ele>
        <time>2021-08-23T16:22:43Z</time>
      </trkpt>
      <trkpt lat="47.00996" lon="2.39541">
        <ele>144</ele>
        <time>2021-08-23T16:22:43Z</time>
      </trkpt>
      <trkpt lat="47.00988" lon="2.3961">
        <ele>142</ele>
        <time>2021-08-23T16:22:43Z</time>
      </trkpt>
      <trkpt lat="47.00982" lon="2.39665">
        <ele>141</ele>
        <time>2021-08-23T16:22:43Z</time>
      </trkpt>
      <trkpt lat="47.00977" lon="2.39726">
        <ele>143</ele>
        <time>2021-08-23T16:22:43Z</time>
      </trkpt>
      <trkpt lat="47.00973" lon="2.39771">
        <ele>145</ele>
        <time>2021-08-23T16:22:43Z</time>
      </trkpt>
      <trkpt lat="47.00968" lon="2.39822">
        <ele>148</ele>
        <time>2021-08-23T16:22:43Z</time>
      </trkpt>
      <trkpt lat="47.00966" lon="2.39854">
        <ele>150</ele>
        <time>2021-08-23T16:22:43Z</time>
      </trkpt>
      <trkpt lat="47.00965" lon="2.39862">
        <ele>150</ele>
        <time>2021-08-23T16:22:43Z</time>
      </trkpt>
      <trkpt lat="47.00963" lon="2.39879">
        <ele>150</ele>
        <time>2021-08-23T16:22:43Z</time>
      </trkpt>
      <trkpt lat="47.00962" lon="2.39886">
        <ele>150</ele>
        <time>2021-08-23T16:22:43Z</time>
      </trkpt>
      <trkpt lat="47.00962" lon="2.39895">
        <ele>150</ele>
        <time>2021-08-23T16:22:43Z</time>
      </trkpt>
      <trkpt lat="47.00961" lon="2.39903">
        <ele>150</ele>
        <time>2021-08-23T16:22:43Z</time>
      </trkpt>
      <trkpt lat="47.00961" lon="2.39911">
        <ele>150</ele>
        <time>2021-08-23T16:22:43Z</time>
      </trkpt>
      <trkpt lat="47.0096" lon="2.39919">
        <ele>150</ele>
        <time>2021-08-23T16:22:43Z</time>
      </trkpt>
      <trkpt lat="47.00958" lon="2.39926">
        <ele>150</ele>
        <time>2021-08-23T16:22:43Z</time>
      </trkpt>
      <trkpt lat="47.00958" lon="2.39933">
        <ele>150</ele>
        <time>2021-08-23T16:22:43Z</time>
      </trkpt>
      <trkpt lat="47.00957" lon="2.39941">
        <ele>150</ele>
        <time>2021-08-23T16:22:43Z</time>
      </trkpt>
      <trkpt lat="47.00955" lon="2.39949">
        <ele>150</ele>
        <time>2021-08-23T16:22:43Z</time>
      </trkpt>
      <trkpt lat="47.00954" lon="2.39957">
        <ele>150</ele>
        <time>2021-08-23T16:22:43Z</time>
      </trkpt>
      <trkpt lat="47.00953" lon="2.39964">
        <ele>150</ele>
        <time>2021-08-23T16:22:43Z</time>
      </trkpt>
      <trkpt lat="47.00952" lon="2.39972">
        <ele>150</ele>
        <time>2021-08-23T16:22:43Z</time>
      </trkpt>
      <trkpt lat="47.00952" lon="2.3998">
        <ele>151</ele>
        <time>2021-08-23T16:22:43Z</time>
      </trkpt>
      <trkpt lat="47.00951" lon="2.39988">
        <ele>151</ele>
        <time>2021-08-23T16:22:43Z</time>
      </trkpt>
      <trkpt lat="47.0095" lon="2.39997">
        <ele>152</ele>
        <time>2021-08-23T16:22:43Z</time>
      </trkpt>
      <trkpt lat="47.00949" lon="2.40005">
        <ele>153</ele>
        <time>2021-08-23T16:22:43Z</time>
      </trkpt>
      <trkpt lat="47.00948" lon="2.40013">
        <ele>153</ele>
        <time>2021-08-23T16:22:43Z</time>
      </trkpt>
      <trkpt lat="47.00947" lon="2.40021">
        <ele>154</ele>
        <time>2021-08-23T16:22:43Z</time>
      </trkpt>
      <trkpt lat="47.00946" lon="2.4003">
        <ele>154</ele>
        <time>2021-08-23T16:22:43Z</time>
      </trkpt>
      <trkpt lat="47.00945" lon="2.40038">
        <ele>154</ele>
        <time>2021-08-23T16:22:43Z</time>
      </trkpt>
      <trkpt lat="47.00945" lon="2.40047">
        <ele>154</ele>
        <time>2021-08-23T16:22:43Z</time>
      </trkpt>
      <trkpt lat="47.00944" lon="2.40055">
        <ele>155</ele>
        <time>2021-08-23T16:22:43Z</time>
      </trkpt>
      <trkpt lat="47.00944" lon="2.40063">
        <ele>155</ele>
        <time>2021-08-23T16:22:43Z</time>
      </trkpt>
      <trkpt lat="47.00943" lon="2.40071">
        <ele>155</ele>
        <time>2021-08-23T16:22:43Z</time>
      </trkpt>
      <trkpt lat="47.00942" lon="2.40079">
        <ele>155</ele>
        <time>2021-08-23T16:22:43Z</time>
      </trkpt>
      <trkpt lat="47.00942" lon="2.40088">
        <ele>155</ele>
        <time>2021-08-23T16:22:43Z</time>
      </trkpt>
      <trkpt lat="47.0094" lon="2.40095">
        <ele>155</ele>
        <time>2021-08-23T16:22:43Z</time>
      </trkpt>
      <trkpt lat="47.0094" lon="2.40104">
        <ele>155</ele>
        <time>2021-08-23T16:22:43Z</time>
      </trkpt>
      <trkpt lat="47.00939" lon="2.40112">
        <ele>155</ele>
        <time>2021-08-23T16:22:43Z</time>
      </trkpt>
      <trkpt lat="47.00938" lon="2.4012">
        <ele>155</ele>
        <time>2021-08-23T16:22:43Z</time>
      </trkpt>
      <trkpt lat="47.00938" lon="2.40128">
        <ele>154</ele>
        <time>2021-08-23T16:22:43Z</time>
      </trkpt>
      <trkpt lat="47.00937" lon="2.40136">
        <ele>154</ele>
        <time>2021-08-23T16:22:43Z</time>
      </trkpt>
      <trkpt lat="47.00936" lon="2.40145">
        <ele>155</ele>
        <time>2021-08-23T16:22:43Z</time>
      </trkpt>
      <trkpt lat="47.00935" lon="2.40153">
        <ele>155</ele>
        <time>2021-08-23T16:22:43Z</time>
      </trkpt>
      <trkpt lat="47.00935" lon="2.40162">
        <ele>155</ele>
        <time>2021-08-23T16:22:43Z</time>
      </trkpt>
      <trkpt lat="47.00934" lon="2.4017">
        <ele>155</ele>
        <time>2021-08-23T16:22:43Z</time>
      </trkpt>
      <trkpt lat="47.00933" lon="2.40178">
        <ele>156</ele>
        <time>2021-08-23T16:22:43Z</time>
      </trkpt>
      <trkpt lat="47.00933" lon="2.40186">
        <ele>156</ele>
        <time>2021-08-23T16:22:43Z</time>
      </trkpt>
      <trkpt lat="47.00932" lon="2.40195">
        <ele>156</ele>
        <time>2021-08-23T16:22:43Z</time>
      </trkpt>
      <trkpt lat="47.00931" lon="2.40203">
        <ele>156</ele>
        <time>2021-08-23T16:22:43Z</time>
      </trkpt>
      <trkpt lat="47.00931" lon="2.40212">
        <ele>156</ele>
        <time>2021-08-23T16:22:43Z</time>
      </trkpt>
      <trkpt lat="47.0093" lon="2.4022">
        <ele>156</ele>
        <time>2021-08-23T16:22:43Z</time>
      </trkpt>
      <trkpt lat="47.00929" lon="2.40229">
        <ele>156</ele>
        <time>2021-08-23T16:22:43Z</time>
      </trkpt>
      <trkpt lat="47.00929" lon="2.40237">
        <ele>155</ele>
        <time>2021-08-23T16:22:43Z</time>
      </trkpt>
      <trkpt lat="47.00928" lon="2.40246">
        <ele>155</ele>
        <time>2021-08-23T16:22:43Z</time>
      </trkpt>
      <trkpt lat="47.00927" lon="2.40255">
        <ele>155</ele>
        <time>2021-08-23T16:22:43Z</time>
      </trkpt>
      <trkpt lat="47.00926" lon="2.40264">
        <ele>155</ele>
        <time>2021-08-23T16:22:43Z</time>
      </trkpt>
      <trkpt lat="47.00924" lon="2.40273">
        <ele>155</ele>
        <time>2021-08-23T16:22:43Z</time>
      </trkpt>
      <trkpt lat="47.00923" lon="2.40283">
        <ele>155</ele>
        <time>2021-08-23T16:22:43Z</time>
      </trkpt>
      <trkpt lat="47.00922" lon="2.40292">
        <ele>155</ele>
        <time>2021-08-23T16:22:43Z</time>
      </trkpt>
      <trkpt lat="47.00922" lon="2.40301">
        <ele>155</ele>
        <time>2021-08-23T16:22:43Z</time>
      </trkpt>
      <trkpt lat="47.0092" lon="2.4031">
        <ele>155</ele>
        <time>2021-08-23T16:22:43Z</time>
      </trkpt>
      <trkpt lat="47.00919" lon="2.40319">
        <ele>155</ele>
        <time>2021-08-23T16:22:43Z</time>
      </trkpt>
      <trkpt lat="47.00918" lon="2.40328">
        <ele>156</ele>
        <time>2021-08-23T16:22:43Z</time>
      </trkpt>
      <trkpt lat="47.00918" lon="2.40337">
        <ele>157</ele>
        <time>2021-08-23T16:22:43Z</time>
      </trkpt>
      <trkpt lat="47.00917" lon="2.40346">
        <ele>157</ele>
        <time>2021-08-23T16:22:43Z</time>
      </trkpt>
      <trkpt lat="47.00916" lon="2.40356">
        <ele>157</ele>
        <time>2021-08-23T16:22:43Z</time>
      </trkpt>
      <trkpt lat="47.00916" lon="2.40365">
        <ele>158</ele>
        <time>2021-08-23T16:22:43Z</time>
      </trkpt>
      <trkpt lat="47.00915" lon="2.40374">
        <ele>158</ele>
        <time>2021-08-23T16:22:43Z</time>
      </trkpt>
      <trkpt lat="47.00914" lon="2.40384">
        <ele>158</ele>
        <time>2021-08-23T16:22:43Z</time>
      </trkpt>
      <trkpt lat="47.0091" lon="2.4043">
        <ele>159</ele>
        <time>2021-08-23T16:22:43Z</time>
      </trkpt>
      <trkpt lat="47.00906" lon="2.40476">
        <ele>158</ele>
        <time>2021-08-23T16:22:43Z</time>
      </trkpt>
      <trkpt lat="47.00902" lon="2.40522">
        <ele>158</ele>
        <time>2021-08-23T16:22:43Z</time>
      </trkpt>
      <trkpt lat="47.00897" lon="2.40568">
        <ele>159</ele>
        <time>2021-08-23T16:22:43Z</time>
      </trkpt>
      <trkpt lat="47.00891" lon="2.40613">
        <ele>160</ele>
        <time>2021-08-23T16:22:43Z</time>
      </trkpt>
      <trkpt lat="47.00889" lon="2.4065">
        <ele>159</ele>
        <time>2021-08-23T16:22:43Z</time>
      </trkpt>
      <trkpt lat="47.00888" lon="2.40659">
        <ele>158</ele>
        <time>2021-08-23T16:22:43Z</time>
      </trkpt>
      <trkpt lat="47.00884" lon="2.40704">
        <ele>158</ele>
        <time>2021-08-23T16:22:43Z</time>
      </trkpt>
      <trkpt lat="47.0088" lon="2.40749">
        <ele>159</ele>
        <time>2021-08-23T16:22:43Z</time>
      </trkpt>
      <trkpt lat="47.00874" lon="2.40795">
        <ele>158</ele>
        <time>2021-08-23T16:22:43Z</time>
      </trkpt>
      <trkpt lat="47.0087" lon="2.40842">
        <ele>158</ele>
        <time>2021-08-23T16:22:43Z</time>
      </trkpt>
      <trkpt lat="47.00869" lon="2.40888">
        <ele>158</ele>
        <time>2021-08-23T16:22:43Z</time>
      </trkpt>
      <trkpt lat="47.00868" lon="2.40925">
        <ele>158</ele>
        <time>2021-08-23T16:22:43Z</time>
      </trkpt>
      <trkpt lat="47.00868" lon="2.40933">
        <ele>158</ele>
        <time>2021-08-23T16:22:43Z</time>
      </trkpt>
      <trkpt lat="47.00868" lon="2.40981">
        <ele>157</ele>
        <time>2021-08-23T16:22:43Z</time>
      </trkpt>
      <trkpt lat="47.0087" lon="2.41027">
        <ele>158</ele>
        <time>2021-08-23T16:22:43Z</time>
      </trkpt>
      <trkpt lat="47.00874" lon="2.41072">
        <ele>158</ele>
        <time>2021-08-23T16:22:43Z</time>
      </trkpt>
      <trkpt lat="47.00883" lon="2.41117">
        <ele>159</ele>
        <time>2021-08-23T16:22:43Z</time>
      </trkpt>
      <trkpt lat="47.00894" lon="2.41159">
        <ele>159</ele>
        <time>2021-08-23T16:22:43Z</time>
      </trkpt>
      <trkpt lat="47.00905" lon="2.41192">
        <ele>159</ele>
        <time>2021-08-23T16:22:43Z</time>
      </trkpt>
      <trkpt lat="47.00907" lon="2.412">
        <ele>159</ele>
        <time>2021-08-23T16:22:43Z</time>
      </trkpt>
      <trkpt lat="47.00913" lon="2.41215">
        <ele>159</ele>
        <time>2021-08-23T16:22:43Z</time>
      </trkpt>
      <trkpt lat="47.00915" lon="2.41223">
        <ele>159</ele>
        <time>2021-08-23T16:22:43Z</time>
      </trkpt>
      <trkpt lat="47.00918" lon="2.41231">
        <ele>158</ele>
        <time>2021-08-23T16:22:43Z</time>
      </trkpt>
      <trkpt lat="47.0092" lon="2.41237">
        <ele>158</ele>
        <time>2021-08-23T16:22:43Z</time>
      </trkpt>
      <trkpt lat="47.00922" lon="2.41245">
        <ele>158</ele>
        <time>2021-08-23T16:22:43Z</time>
      </trkpt>
      <trkpt lat="47.00925" lon="2.41252">
        <ele>158</ele>
        <time>2021-08-23T16:22:43Z</time>
      </trkpt>
      <trkpt lat="47.00927" lon="2.4126">
        <ele>158</ele>
        <time>2021-08-23T16:22:43Z</time>
      </trkpt>
      <trkpt lat="47.0093" lon="2.41268">
        <ele>158</ele>
        <time>2021-08-23T16:22:43Z</time>
      </trkpt>
      <trkpt lat="47.00932" lon="2.41276">
        <ele>158</ele>
        <time>2021-08-23T16:22:43Z</time>
      </trkpt>
      <trkpt lat="47.00935" lon="2.41284">
        <ele>158</ele>
        <time>2021-08-23T16:22:43Z</time>
      </trkpt>
      <trkpt lat="47.00938" lon="2.41291">
        <ele>158</ele>
        <time>2021-08-23T16:22:43Z</time>
      </trkpt>
      <trkpt lat="47.00941" lon="2.41299">
        <ele>158</ele>
        <time>2021-08-23T16:22:43Z</time>
      </trkpt>
      <trkpt lat="47.00943" lon="2.41307">
        <ele>159</ele>
        <time>2021-08-23T16:22:43Z</time>
      </trkpt>
      <trkpt lat="47.00946" lon="2.41314">
        <ele>159</ele>
        <time>2021-08-23T16:22:43Z</time>
      </trkpt>
      <trkpt lat="47.00948" lon="2.41321">
        <ele>159</ele>
        <time>2021-08-23T16:22:43Z</time>
      </trkpt>
      <trkpt lat="47.0095" lon="2.41328">
        <ele>159</ele>
        <time>2021-08-23T16:22:43Z</time>
      </trkpt>
      <trkpt lat="47.00953" lon="2.41336">
        <ele>160</ele>
        <time>2021-08-23T16:22:43Z</time>
      </trkpt>
      <trkpt lat="47.00955" lon="2.41343">
        <ele>160</ele>
        <time>2021-08-23T16:22:43Z</time>
      </trkpt>
      <trkpt lat="47.00957" lon="2.41351">
        <ele>160</ele>
        <time>2021-08-23T16:22:43Z</time>
      </trkpt>
      <trkpt lat="47.0096" lon="2.41358">
        <ele>160</ele>
        <time>2021-08-23T16:22:43Z</time>
      </trkpt>
      <trkpt lat="47.00962" lon="2.41366">
        <ele>160</ele>
        <time>2021-08-23T16:22:43Z</time>
      </trkpt>
      <trkpt lat="47.00965" lon="2.41373">
        <ele>160</ele>
        <time>2021-08-23T16:22:43Z</time>
      </trkpt>
      <trkpt lat="47.00967" lon="2.4138">
        <ele>160</ele>
        <time>2021-08-23T16:22:43Z</time>
      </trkpt>
      <trkpt lat="47.00981" lon="2.41419">
        <ele>158</ele>
        <time>2021-08-23T16:22:43Z</time>
      </trkpt>
      <trkpt lat="47.00994" lon="2.41459">
        <ele>157</ele>
        <time>2021-08-23T16:22:43Z</time>
      </trkpt>
      <trkpt lat="47.01008" lon="2.41501">
        <ele>158</ele>
        <time>2021-08-23T16:22:43Z</time>
      </trkpt>
      <trkpt lat="47.01023" lon="2.41543">
        <ele>159</ele>
        <time>2021-08-23T16:22:43Z</time>
      </trkpt>
      <trkpt lat="47.01036" lon="2.41588">
        <ele>158</ele>
        <time>2021-08-23T16:22:43Z</time>
      </trkpt>
      <trkpt lat="47.01048" lon="2.41623">
        <ele>157</ele>
        <time>2021-08-23T16:22:43Z</time>
      </trkpt>
      <trkpt lat="47.01051" lon="2.41632">
        <ele>156</ele>
        <time>2021-08-23T16:22:43Z</time>
      </trkpt>
      <trkpt lat="47.01065" lon="2.41676">
        <ele>155</ele>
        <time>2021-08-23T16:22:43Z</time>
      </trkpt>
      <trkpt lat="47.01079" lon="2.4172">
        <ele>154</ele>
        <time>2021-08-23T16:22:43Z</time>
      </trkpt>
      <trkpt lat="47.01093" lon="2.41764">
        <ele>155</ele>
        <time>2021-08-23T16:22:43Z</time>
      </trkpt>
      <trkpt lat="47.01107" lon="2.41808">
        <ele>152</ele>
        <time>2021-08-23T16:22:43Z</time>
      </trkpt>
      <trkpt lat="47.0112" lon="2.41849">
        <ele>149</ele>
        <time>2021-08-23T16:22:43Z</time>
      </trkpt>
      <trkpt lat="47.01132" lon="2.41884">
        <ele>149</ele>
        <time>2021-08-23T16:22:43Z</time>
      </trkpt>
      <trkpt lat="47.01135" lon="2.41893">
        <ele>149</ele>
        <time>2021-08-23T16:22:43Z</time>
      </trkpt>
      <trkpt lat="47.0115" lon="2.41939">
        <ele>150</ele>
        <time>2021-08-23T16:22:43Z</time>
      </trkpt>
      <trkpt lat="47.01165" lon="2.41985">
        <ele>149</ele>
        <time>2021-08-23T16:22:43Z</time>
      </trkpt>
      <trkpt lat="47.01181" lon="2.42032">
        <ele>146</ele>
        <time>2021-08-23T16:22:43Z</time>
      </trkpt>
      <trkpt lat="47.01197" lon="2.4208">
        <ele>144</ele>
        <time>2021-08-23T16:22:43Z</time>
      </trkpt>
      <trkpt lat="47.01213" lon="2.42128">
        <ele>144</ele>
        <time>2021-08-23T16:22:43Z</time>
      </trkpt>
      <trkpt lat="47.01224" lon="2.42165">
        <ele>143</ele>
        <time>2021-08-23T16:22:43Z</time>
      </trkpt>
      <trkpt lat="47.01227" lon="2.42174">
        <ele>142</ele>
        <time>2021-08-23T16:22:43Z</time>
      </trkpt>
      <trkpt lat="47.01242" lon="2.4222">
        <ele>141</ele>
        <time>2021-08-23T16:22:43Z</time>
      </trkpt>
      <trkpt lat="47.01256" lon="2.42263">
        <ele>141</ele>
        <time>2021-08-23T16:22:43Z</time>
      </trkpt>
      <trkpt lat="47.01268" lon="2.42303">
        <ele>141</ele>
        <time>2021-08-23T16:22:43Z</time>
      </trkpt>
      <trkpt lat="47.0128" lon="2.42339">
        <ele>142</ele>
        <time>2021-08-23T16:22:43Z</time>
      </trkpt>
      <trkpt lat="47.01291" lon="2.42378">
        <ele>143</ele>
        <time>2021-08-23T16:22:43Z</time>
      </trkpt>
      <trkpt lat="47.01298" lon="2.4241">
        <ele>144</ele>
        <time>2021-08-23T16:22:43Z</time>
      </trkpt>
      <trkpt lat="47.01299" lon="2.42418">
        <ele>144</ele>
        <time>2021-08-23T16:22:43Z</time>
      </trkpt>
      <trkpt lat="47.013" lon="2.42426">
        <ele>145</ele>
        <time>2021-08-23T16:22:43Z</time>
      </trkpt>
      <trkpt lat="47.01301" lon="2.42434">
        <ele>145</ele>
        <time>2021-08-23T16:22:43Z</time>
      </trkpt>
      <trkpt lat="47.01302" lon="2.42442">
        <ele>145</ele>
        <time>2021-08-23T16:22:43Z</time>
      </trkpt>
      <trkpt lat="47.01302" lon="2.4245">
        <ele>145</ele>
        <time>2021-08-23T16:22:43Z</time>
      </trkpt>
      <trkpt lat="47.01302" lon="2.42459">
        <ele>145</ele>
        <time>2021-08-23T16:22:43Z</time>
      </trkpt>
      <trkpt lat="47.01303" lon="2.42467">
        <ele>145</ele>
        <time>2021-08-23T16:22:43Z</time>
      </trkpt>
      <trkpt lat="47.01302" lon="2.42475">
        <ele>145</ele>
        <time>2021-08-23T16:22:43Z</time>
      </trkpt>
      <trkpt lat="47.01303" lon="2.42483">
        <ele>145</ele>
        <time>2021-08-23T16:22:43Z</time>
      </trkpt>
      <trkpt lat="47.01302" lon="2.42491">
        <ele>145</ele>
        <time>2021-08-23T16:22:43Z</time>
      </trkpt>
      <trkpt lat="47.01301" lon="2.42499">
        <ele>145</ele>
        <time>2021-08-23T16:22:43Z</time>
      </trkpt>
      <trkpt lat="47.01301" lon="2.42507">
        <ele>145</ele>
        <time>2021-08-23T16:22:43Z</time>
      </trkpt>
      <trkpt lat="47.01299" lon="2.42514">
        <ele>145</ele>
        <time>2021-08-23T16:22:43Z</time>
      </trkpt>
      <trkpt lat="47.01299" lon="2.42522">
        <ele>145</ele>
        <time>2021-08-23T16:22:43Z</time>
      </trkpt>
      <trkpt lat="47.01297" lon="2.4253">
        <ele>144</ele>
        <time>2021-08-23T16:22:43Z</time>
      </trkpt>
      <trkpt lat="47.01296" lon="2.42537">
        <ele>144</ele>
        <time>2021-08-23T16:22:43Z</time>
      </trkpt>
      <trkpt lat="47.01295" lon="2.42545">
        <ele>144</ele>
        <time>2021-08-23T16:22:43Z</time>
      </trkpt>
      <trkpt lat="47.01294" lon="2.42554">
        <ele>144</ele>
        <time>2021-08-23T16:22:43Z</time>
      </trkpt>
      <trkpt lat="47.01292" lon="2.42562">
        <ele>144</ele>
        <time>2021-08-23T16:22:43Z</time>
      </trkpt>
      <trkpt lat="47.01291" lon="2.4257">
        <ele>145</ele>
        <time>2021-08-23T16:22:43Z</time>
      </trkpt>
      <trkpt lat="47.01289" lon="2.42579">
        <ele>145</ele>
        <time>2021-08-23T16:22:43Z</time>
      </trkpt>
      <trkpt lat="47.01287" lon="2.42587">
        <ele>145</ele>
        <time>2021-08-23T16:22:43Z</time>
      </trkpt>
      <trkpt lat="47.01285" lon="2.42595">
        <ele>145</ele>
        <time>2021-08-23T16:22:43Z</time>
      </trkpt>
      <trkpt lat="47.01283" lon="2.42602">
        <ele>145</ele>
        <time>2021-08-23T16:22:43Z</time>
      </trkpt>
      <trkpt lat="47.01281" lon="2.4261">
        <ele>146</ele>
        <time>2021-08-23T16:22:43Z</time>
      </trkpt>
      <trkpt lat="47.01279" lon="2.42618">
        <ele>146</ele>
        <time>2021-08-23T16:22:43Z</time>
      </trkpt>
      <trkpt lat="47.01277" lon="2.42626">
        <ele>146</ele>
        <time>2021-08-23T16:22:43Z</time>
      </trkpt>
      <trkpt lat="47.01275" lon="2.42634">
        <ele>146</ele>
        <time>2021-08-23T16:22:43Z</time>
      </trkpt>
      <trkpt lat="47.01272" lon="2.42641">
        <ele>146</ele>
        <time>2021-08-23T16:22:43Z</time>
      </trkpt>
      <trkpt lat="47.0127" lon="2.42649">
        <ele>146</ele>
        <time>2021-08-23T16:22:43Z</time>
      </trkpt>
      <trkpt lat="47.01268" lon="2.42656">
        <ele>147</ele>
        <time>2021-08-23T16:22:43Z</time>
      </trkpt>
      <trkpt lat="47.01265" lon="2.42664">
        <ele>147</ele>
        <time>2021-08-23T16:22:43Z</time>
      </trkpt>
      <trkpt lat="47.01263" lon="2.42671">
        <ele>147</ele>
        <time>2021-08-23T16:22:43Z</time>
      </trkpt>
      <trkpt lat="47.01261" lon="2.42679">
        <ele>147</ele>
        <time>2021-08-23T16:22:43Z</time>
      </trkpt>
      <trkpt lat="47.01259" lon="2.42687">
        <ele>147</ele>
        <time>2021-08-23T16:22:43Z</time>
      </trkpt>
      <trkpt lat="47.01256" lon="2.42694">
        <ele>147</ele>
        <time>2021-08-23T16:22:43Z</time>
      </trkpt>
      <trkpt lat="47.01254" lon="2.42703">
        <ele>147</ele>
        <time>2021-08-23T16:22:43Z</time>
      </trkpt>
      <trkpt lat="47.01252" lon="2.4271">
        <ele>147</ele>
        <time>2021-08-23T16:22:43Z</time>
      </trkpt>
      <trkpt lat="47.01249" lon="2.42718">
        <ele>147</ele>
        <time>2021-08-23T16:22:43Z</time>
      </trkpt>
      <trkpt lat="47.01247" lon="2.42726">
        <ele>148</ele>
        <time>2021-08-23T16:22:43Z</time>
      </trkpt>
      <trkpt lat="47.01245" lon="2.42733">
        <ele>148</ele>
        <time>2021-08-23T16:22:43Z</time>
      </trkpt>
      <trkpt lat="47.01242" lon="2.42741">
        <ele>149</ele>
        <time>2021-08-23T16:22:43Z</time>
      </trkpt>
      <trkpt lat="47.0124" lon="2.42748">
        <ele>149</ele>
        <time>2021-08-23T16:22:43Z</time>
      </trkpt>
      <trkpt lat="47.01237" lon="2.42756">
        <ele>149</ele>
        <time>2021-08-23T16:22:43Z</time>
      </trkpt>
      <trkpt lat="47.01235" lon="2.42764">
        <ele>149</ele>
        <time>2021-08-23T16:22:43Z</time>
      </trkpt>
      <trkpt lat="47.01233" lon="2.42771">
        <ele>150</ele>
        <time>2021-08-23T16:22:43Z</time>
      </trkpt>
      <trkpt lat="47.0123" lon="2.42779">
        <ele>150</ele>
        <time>2021-08-23T16:22:43Z</time>
      </trkpt>
      <trkpt lat="47.01228" lon="2.42787">
        <ele>150</ele>
        <time>2021-08-23T16:22:43Z</time>
      </trkpt>
      <trkpt lat="47.01226" lon="2.42795">
        <ele>151</ele>
        <time>2021-08-23T16:22:43Z</time>
      </trkpt>
      <trkpt lat="47.01223" lon="2.42803">
        <ele>151</ele>
        <time>2021-08-23T16:22:43Z</time>
      </trkpt>
      <trkpt lat="47.01221" lon="2.42811">
        <ele>151</ele>
        <time>2021-08-23T16:22:43Z</time>
      </trkpt>
      <trkpt lat="47.01218" lon="2.42819">
        <ele>151</ele>
        <time>2021-08-23T16:22:43Z</time>
      </trkpt>
      <trkpt lat="47.01216" lon="2.42827">
        <ele>151</ele>
        <time>2021-08-23T16:22:43Z</time>
      </trkpt>
      <trkpt lat="47.01213" lon="2.42836">
        <ele>151</ele>
        <time>2021-08-23T16:22:43Z</time>
      </trkpt>
      <trkpt lat="47.01211" lon="2.42844">
        <ele>151</ele>
        <time>2021-08-23T16:22:43Z</time>
      </trkpt>
      <trkpt lat="47.01209" lon="2.42852">
        <ele>151</ele>
        <time>2021-08-23T16:22:43Z</time>
      </trkpt>
      <trkpt lat="47.01206" lon="2.4286">
        <ele>151</ele>
        <time>2021-08-23T16:22:43Z</time>
      </trkpt>
      <trkpt lat="47.01203" lon="2.42868">
        <ele>151</ele>
        <time>2021-08-23T16:22:43Z</time>
      </trkpt>
      <trkpt lat="47.012" lon="2.42877">
        <ele>151</ele>
        <time>2021-08-23T16:22:43Z</time>
      </trkpt>
      <trkpt lat="47.01198" lon="2.42885">
        <ele>151</ele>
        <time>2021-08-23T16:22:43Z</time>
      </trkpt>
      <trkpt lat="47.01195" lon="2.42893">
        <ele>152</ele>
        <time>2021-08-23T16:22:43Z</time>
      </trkpt>
      <trkpt lat="47.01193" lon="2.42901">
        <ele>152</ele>
        <time>2021-08-23T16:22:43Z</time>
      </trkpt>
      <trkpt lat="47.01181" lon="2.42942">
        <ele>154</ele>
        <time>2021-08-23T16:22:43Z</time>
      </trkpt>
      <trkpt lat="47.01171" lon="2.4298">
        <ele>156</ele>
        <time>2021-08-23T16:22:43Z</time>
      </trkpt>
      <trkpt lat="47.01159" lon="2.43019">
        <ele>156</ele>
        <time>2021-08-23T16:22:43Z</time>
      </trkpt>
      <trkpt lat="47.01147" lon="2.43057">
        <ele>155</ele>
        <time>2021-08-23T16:22:43Z</time>
      </trkpt>
      <trkpt lat="47.01136" lon="2.43096">
        <ele>155</ele>
        <time>2021-08-23T16:22:43Z</time>
      </trkpt>
      <trkpt lat="47.01126" lon="2.43127">
        <ele>156</ele>
        <time>2021-08-23T16:22:43Z</time>
      </trkpt>
      <trkpt lat="47.01124" lon="2.43136">
        <ele>156</ele>
        <time>2021-08-23T16:22:43Z</time>
      </trkpt>
      <trkpt lat="47.01111" lon="2.43176">
        <ele>156</ele>
        <time>2021-08-23T16:22:43Z</time>
      </trkpt>
      <trkpt lat="47.011" lon="2.43216">
        <ele>157</ele>
        <time>2021-08-23T16:22:43Z</time>
      </trkpt>
      <trkpt lat="47.01088" lon="2.43256">
        <ele>157</ele>
        <time>2021-08-23T16:22:43Z</time>
      </trkpt>
      <trkpt lat="47.01076" lon="2.43296">
        <ele>157</ele>
        <time>2021-08-23T16:22:43Z</time>
      </trkpt>
      <trkpt lat="47.01063" lon="2.43337">
        <ele>157</ele>
        <time>2021-08-23T16:22:43Z</time>
      </trkpt>
      <trkpt lat="47.01054" lon="2.43371">
        <ele>157</ele>
        <time>2021-08-23T16:22:43Z</time>
      </trkpt>
      <trkpt lat="47.01051" lon="2.43379">
        <ele>157</ele>
        <time>2021-08-23T16:22:43Z</time>
      </trkpt>
      <trkpt lat="47.01038" lon="2.43422">
        <ele>158</ele>
        <time>2021-08-23T16:22:43Z</time>
      </trkpt>
      <trkpt lat="47.01024" lon="2.43466">
        <ele>157</ele>
        <time>2021-08-23T16:22:43Z</time>
      </trkpt>
      <trkpt lat="47.01011" lon="2.43509">
        <ele>155</ele>
        <time>2021-08-23T16:22:43Z</time>
      </trkpt>
      <trkpt lat="47.00999" lon="2.43554">
        <ele>156</ele>
        <time>2021-08-23T16:22:43Z</time>
      </trkpt>
      <trkpt lat="47.00986" lon="2.43597">
        <ele>156</ele>
        <time>2021-08-23T16:22:43Z</time>
      </trkpt>
      <trkpt lat="47.00975" lon="2.43631">
        <ele>156</ele>
        <time>2021-08-23T16:22:43Z</time>
      </trkpt>
      <trkpt lat="47.00973" lon="2.43639">
        <ele>156</ele>
        <time>2021-08-23T16:22:43Z</time>
      </trkpt>
      <trkpt lat="47.0097" lon="2.43648">
        <ele>157</ele>
        <time>2021-08-23T16:22:43Z</time>
      </trkpt>
      <trkpt lat="47.00968" lon="2.43656">
        <ele>157</ele>
        <time>2021-08-23T16:22:43Z</time>
      </trkpt>
      <trkpt lat="47.00965" lon="2.43665">
        <ele>157</ele>
        <time>2021-08-23T16:22:43Z</time>
      </trkpt>
      <trkpt lat="47.00963" lon="2.43673">
        <ele>156</ele>
        <time>2021-08-23T16:22:43Z</time>
      </trkpt>
      <trkpt lat="47.00961" lon="2.43682">
        <ele>156</ele>
        <time>2021-08-23T16:22:43Z</time>
      </trkpt>
      <trkpt lat="47.00958" lon="2.4369">
        <ele>156</ele>
        <time>2021-08-23T16:22:43Z</time>
      </trkpt>
      <trkpt lat="47.00956" lon="2.43698">
        <ele>156</ele>
        <time>2021-08-23T16:22:43Z</time>
      </trkpt>
      <trkpt lat="47.00953" lon="2.43706">
        <ele>156</ele>
        <time>2021-08-23T16:22:43Z</time>
      </trkpt>
      <trkpt lat="47.00951" lon="2.43715">
        <ele>156</ele>
        <time>2021-08-23T16:22:43Z</time>
      </trkpt>
      <trkpt lat="47.00948" lon="2.43722">
        <ele>156</ele>
        <time>2021-08-23T16:22:43Z</time>
      </trkpt>
      <trkpt lat="47.00946" lon="2.43731">
        <ele>156</ele>
        <time>2021-08-23T16:22:43Z</time>
      </trkpt>
      <trkpt lat="47.00943" lon="2.43739">
        <ele>157</ele>
        <time>2021-08-23T16:22:43Z</time>
      </trkpt>
      <trkpt lat="47.0094" lon="2.43747">
        <ele>157</ele>
        <time>2021-08-23T16:22:43Z</time>
      </trkpt>
      <trkpt lat="47.00938" lon="2.43754">
        <ele>157</ele>
        <time>2021-08-23T16:22:43Z</time>
      </trkpt>
      <trkpt lat="47.00935" lon="2.43763">
        <ele>157</ele>
        <time>2021-08-23T16:22:43Z</time>
      </trkpt>
      <trkpt lat="47.00933" lon="2.43771">
        <ele>157</ele>
        <time>2021-08-23T16:22:43Z</time>
      </trkpt>
      <trkpt lat="47.00931" lon="2.43779">
        <ele>157</ele>
        <time>2021-08-23T16:22:43Z</time>
      </trkpt>
      <trkpt lat="47.00928" lon="2.43787">
        <ele>158</ele>
        <time>2021-08-23T16:22:43Z</time>
      </trkpt>
      <trkpt lat="47.00926" lon="2.43795">
        <ele>158</ele>
        <time>2021-08-23T16:22:43Z</time>
      </trkpt>
      <trkpt lat="47.00923" lon="2.43804">
        <ele>158</ele>
        <time>2021-08-23T16:22:43Z</time>
      </trkpt>
      <trkpt lat="47.00921" lon="2.43812">
        <ele>158</ele>
        <time>2021-08-23T16:22:43Z</time>
      </trkpt>
      <trkpt lat="47.00919" lon="2.4382">
        <ele>159</ele>
        <time>2021-08-23T16:22:43Z</time>
      </trkpt>
      <trkpt lat="47.00916" lon="2.43828">
        <ele>159</ele>
        <time>2021-08-23T16:22:43Z</time>
      </trkpt>
      <trkpt lat="47.00913" lon="2.43837">
        <ele>160</ele>
        <time>2021-08-23T16:22:43Z</time>
      </trkpt>
      <trkpt lat="47.00911" lon="2.43845">
        <ele>160</ele>
        <time>2021-08-23T16:22:43Z</time>
      </trkpt>
      <trkpt lat="47.00908" lon="2.43853">
        <ele>160</ele>
        <time>2021-08-23T16:22:43Z</time>
      </trkpt>
      <trkpt lat="47.00906" lon="2.43861">
        <ele>160</ele>
        <time>2021-08-23T16:22:43Z</time>
      </trkpt>
      <trkpt lat="47.00904" lon="2.43869">
        <ele>160</ele>
        <time>2021-08-23T16:22:43Z</time>
      </trkpt>
      <trkpt lat="47.00901" lon="2.43878">
        <ele>160</ele>
        <time>2021-08-23T16:22:43Z</time>
      </trkpt>
      <trkpt lat="47.00899" lon="2.43886">
        <ele>160</ele>
        <time>2021-08-23T16:22:43Z</time>
      </trkpt>
      <trkpt lat="47.00896" lon="2.43894">
        <ele>160</ele>
        <time>2021-08-23T16:22:43Z</time>
      </trkpt>
      <trkpt lat="47.00894" lon="2.43902">
        <ele>160</ele>
        <time>2021-08-23T16:22:43Z</time>
      </trkpt>
      <trkpt lat="47.00891" lon="2.43911">
        <ele>160</ele>
        <time>2021-08-23T16:22:43Z</time>
      </trkpt>
      <trkpt lat="47.00888" lon="2.43919">
        <ele>160</ele>
        <time>2021-08-23T16:22:43Z</time>
      </trkpt>
      <trkpt lat="47.00885" lon="2.43927">
        <ele>160</ele>
        <time>2021-08-23T16:22:43Z</time>
      </trkpt>
      <trkpt lat="47.00882" lon="2.43935">
        <ele>160</ele>
        <time>2021-08-23T16:22:43Z</time>
      </trkpt>
      <trkpt lat="47.00878" lon="2.43942">
        <ele>160</ele>
        <time>2021-08-23T16:22:43Z</time>
      </trkpt>
      <trkpt lat="47.00875" lon="2.43949">
        <ele>160</ele>
        <time>2021-08-23T16:22:43Z</time>
      </trkpt>
      <trkpt lat="47.00871" lon="2.43956">
        <ele>160</ele>
        <time>2021-08-23T16:22:43Z</time>
      </trkpt>
      <trkpt lat="47.00868" lon="2.43962">
        <ele>160</ele>
        <time>2021-08-23T16:22:43Z</time>
      </trkpt>
      <trkpt lat="47.00863" lon="2.43969">
        <ele>160</ele>
        <time>2021-08-23T16:22:43Z</time>
      </trkpt>
      <trkpt lat="47.00859" lon="2.43975">
        <ele>160</ele>
        <time>2021-08-23T16:22:43Z</time>
      </trkpt>
      <trkpt lat="47.00855" lon="2.43981">
        <ele>160</ele>
        <time>2021-08-23T16:22:43Z</time>
      </trkpt>
      <trkpt lat="47.0085" lon="2.43987">
        <ele>160</ele>
        <time>2021-08-23T16:22:43Z</time>
      </trkpt>
      <trkpt lat="47.00845" lon="2.43993">
        <ele>160</ele>
        <time>2021-08-23T16:22:43Z</time>
      </trkpt>
      <trkpt lat="47.0084" lon="2.43998">
        <ele>160</ele>
        <time>2021-08-23T16:22:43Z</time>
      </trkpt>
      <trkpt lat="47.00835" lon="2.44004">
        <ele>160</ele>
        <time>2021-08-23T16:22:43Z</time>
      </trkpt>
      <trkpt lat="47.00829" lon="2.44008">
        <ele>161</ele>
        <time>2021-08-23T16:22:43Z</time>
      </trkpt>
      <trkpt lat="47.00824" lon="2.44013">
        <ele>161</ele>
        <time>2021-08-23T16:22:43Z</time>
      </trkpt>
      <trkpt lat="47.00818" lon="2.44017">
        <ele>161</ele>
        <time>2021-08-23T16:22:43Z</time>
      </trkpt>
      <trkpt lat="47.00813" lon="2.44022">
        <ele>161</ele>
        <time>2021-08-23T16:22:43Z</time>
      </trkpt>
      <trkpt lat="47.00807" lon="2.44026">
        <ele>162</ele>
        <time>2021-08-23T16:22:43Z</time>
      </trkpt>
      <trkpt lat="47.00801" lon="2.4403">
        <ele>161</ele>
        <time>2021-08-23T16:22:43Z</time>
      </trkpt>
      <trkpt lat="47.00795" lon="2.44034">
        <ele>161</ele>
        <time>2021-08-23T16:22:43Z</time>
      </trkpt>
      <trkpt lat="47.0079" lon="2.44038">
        <ele>161</ele>
        <time>2021-08-23T16:22:43Z</time>
      </trkpt>
      <trkpt lat="47.00784" lon="2.44042">
        <ele>161</ele>
        <time>2021-08-23T16:22:43Z</time>
      </trkpt>
      <trkpt lat="47.00778" lon="2.44046">
        <ele>161</ele>
        <time>2021-08-23T16:22:43Z</time>
      </trkpt>
      <trkpt lat="47.00772" lon="2.4405">
        <ele>161</ele>
        <time>2021-08-23T16:22:43Z</time>
      </trkpt>
      <trkpt lat="47.00767" lon="2.44054">
        <ele>161</ele>
        <time>2021-08-23T16:22:43Z</time>
      </trkpt>
      <trkpt lat="47.00761" lon="2.44057">
        <ele>161</ele>
        <time>2021-08-23T16:22:43Z</time>
      </trkpt>
      <trkpt lat="47.00755" lon="2.44061">
        <ele>161</ele>
        <time>2021-08-23T16:22:43Z</time>
      </trkpt>
      <trkpt lat="47.00726" lon="2.44078">
        <ele>162</ele>
        <time>2021-08-23T16:22:43Z</time>
      </trkpt>
      <trkpt lat="47.00697" lon="2.44097">
        <ele>163</ele>
        <time>2021-08-23T16:22:43Z</time>
      </trkpt>
      <trkpt lat="47.00668" lon="2.44116">
        <ele>164</ele>
        <time>2021-08-23T16:22:43Z</time>
      </trkpt>
      <trkpt lat="47.00642" lon="2.44132">
        <ele>164</ele>
        <time>2021-08-23T16:22:43Z</time>
      </trkpt>
      <trkpt lat="47.00619" lon="2.44145">
        <ele>164</ele>
        <time>2021-08-23T16:22:43Z</time>
      </trkpt>
      <trkpt lat="47.00599" lon="2.44158">
        <ele>164</ele>
        <time>2021-08-23T16:22:43Z</time>
      </trkpt>
      <trkpt lat="47.00594" lon="2.44161">
        <ele>164</ele>
        <time>2021-08-23T16:22:43Z</time>
      </trkpt>
      <trkpt lat="47.00564" lon="2.44179">
        <ele>164</ele>
        <time>2021-08-23T16:22:43Z</time>
      </trkpt>
      <trkpt lat="47.00533" lon="2.44198">
        <ele>163</ele>
        <time>2021-08-23T16:22:43Z</time>
      </trkpt>
      <trkpt lat="47.00501" lon="2.44218">
        <ele>162</ele>
        <time>2021-08-23T16:22:43Z</time>
      </trkpt>
      <trkpt lat="47.00468" lon="2.44242">
        <ele>162</ele>
        <time>2021-08-23T16:22:43Z</time>
      </trkpt>
      <trkpt lat="47.00437" lon="2.44272">
        <ele>162</ele>
        <time>2021-08-23T16:22:43Z</time>
      </trkpt>
      <trkpt lat="47.00415" lon="2.44301">
        <ele>161</ele>
        <time>2021-08-23T16:22:43Z</time>
      </trkpt>
      <trkpt lat="47.0041" lon="2.44309">
        <ele>160</ele>
        <time>2021-08-23T16:22:43Z</time>
      </trkpt>
      <trkpt lat="47.00384" lon="2.44349">
        <ele>159</ele>
        <time>2021-08-23T16:22:43Z</time>
      </trkpt>
      <trkpt lat="47.00359" lon="2.44388">
        <ele>157</ele>
        <time>2021-08-23T16:22:43Z</time>
      </trkpt>
      <trkpt lat="47.00334" lon="2.44427">
        <ele>157</ele>
        <time>2021-08-23T16:22:43Z</time>
      </trkpt>
      <trkpt lat="47.00308" lon="2.44466">
        <ele>158</ele>
        <time>2021-08-23T16:22:43Z</time>
      </trkpt>
      <trkpt lat="47.00282" lon="2.44505">
        <ele>156</ele>
        <time>2021-08-23T16:22:43Z</time>
      </trkpt>
      <trkpt lat="47.00263" lon="2.44536">
        <ele>156</ele>
        <time>2021-08-23T16:22:43Z</time>
      </trkpt>
      <trkpt lat="47.00259" lon="2.44543">
        <ele>156</ele>
        <time>2021-08-23T16:22:43Z</time>
      </trkpt>
      <trkpt lat="47.00254" lon="2.4455">
        <ele>156</ele>
        <time>2021-08-23T16:22:43Z</time>
      </trkpt>
      <trkpt lat="47.00249" lon="2.44556">
        <ele>156</ele>
        <time>2021-08-23T16:22:43Z</time>
      </trkpt>
      <trkpt lat="47.00245" lon="2.44563">
        <ele>156</ele>
        <time>2021-08-23T16:22:43Z</time>
      </trkpt>
      <trkpt lat="47.0024" lon="2.4457">
        <ele>156</ele>
        <time>2021-08-23T16:22:43Z</time>
      </trkpt>
      <trkpt lat="47.00235" lon="2.44577">
        <ele>156</ele>
        <time>2021-08-23T16:22:43Z</time>
      </trkpt>
      <trkpt lat="47.0023" lon="2.44585">
        <ele>156</ele>
        <time>2021-08-23T16:22:43Z</time>
      </trkpt>
      <trkpt lat="47.00226" lon="2.44593">
        <ele>157</ele>
        <time>2021-08-23T16:22:43Z</time>
      </trkpt>
      <trkpt lat="47.00201" lon="2.4463">
        <ele>158</ele>
        <time>2021-08-23T16:22:43Z</time>
      </trkpt>
      <trkpt lat="47.00177" lon="2.44668">
        <ele>156</ele>
        <time>2021-08-23T16:22:43Z</time>
      </trkpt>
      <trkpt lat="47.00153" lon="2.44704">
        <ele>155</ele>
        <time>2021-08-23T16:22:43Z</time>
      </trkpt>
      <trkpt lat="47.00129" lon="2.44741">
        <ele>155</ele>
        <time>2021-08-23T16:22:43Z</time>
      </trkpt>
      <trkpt lat="47.00105" lon="2.44778">
        <ele>155</ele>
        <time>2021-08-23T16:22:43Z</time>
      </trkpt>
      <trkpt lat="47.001" lon="2.44786">
        <ele>155</ele>
        <time>2021-08-23T16:22:43Z</time>
      </trkpt>
      <trkpt lat="47.00096" lon="2.44793">
        <ele>155</ele>
        <time>2021-08-23T16:22:43Z</time>
      </trkpt>
      <trkpt lat="47.00091" lon="2.44801">
        <ele>155</ele>
        <time>2021-08-23T16:22:43Z</time>
      </trkpt>
      <trkpt lat="47.00086" lon="2.44808">
        <ele>155</ele>
        <time>2021-08-23T16:22:43Z</time>
      </trkpt>
      <trkpt lat="47.00082" lon="2.44815">
        <ele>155</ele>
        <time>2021-08-23T16:22:43Z</time>
      </trkpt>
      <trkpt lat="47.00077" lon="2.44822">
        <ele>155</ele>
        <time>2021-08-23T16:22:43Z</time>
      </trkpt>
      <trkpt lat="47.00072" lon="2.44829">
        <ele>155</ele>
        <time>2021-08-23T16:22:43Z</time>
      </trkpt>
      <trkpt lat="47.00067" lon="2.44836">
        <ele>154</ele>
        <time>2021-08-23T16:22:43Z</time>
      </trkpt>
      <trkpt lat="47.00043" lon="2.44874">
        <ele>153</ele>
        <time>2021-08-23T16:22:43Z</time>
      </trkpt>
      <trkpt lat="47.00025" lon="2.44902">
        <ele>152</ele>
        <time>2021-08-23T16:22:43Z</time>
      </trkpt>
      <trkpt lat="47.00003" lon="2.44935">
        <ele>151</ele>
        <time>2021-08-23T16:22:43Z</time>
      </trkpt>
      <trkpt lat="46.99976" lon="2.44976">
        <ele>150</ele>
        <time>2021-08-23T16:22:43Z</time>
      </trkpt>
      <trkpt lat="46.9995" lon="2.45018">
        <ele>149</ele>
        <time>2021-08-23T16:22:43Z</time>
      </trkpt>
      <trkpt lat="46.99927" lon="2.4505">
        <ele>148</ele>
        <time>2021-08-23T16:22:43Z</time>
      </trkpt>
      <trkpt lat="46.99922" lon="2.45059">
        <ele>148</ele>
        <time>2021-08-23T16:22:43Z</time>
      </trkpt>
      <trkpt lat="46.99896" lon="2.45098">
        <ele>149</ele>
        <time>2021-08-23T16:22:43Z</time>
      </trkpt>
      <trkpt lat="46.99875" lon="2.45132">
        <ele>151</ele>
        <time>2021-08-23T16:22:43Z</time>
      </trkpt>
      <trkpt lat="46.99858" lon="2.45159">
        <ele>152</ele>
        <time>2021-08-23T16:22:43Z</time>
      </trkpt>
      <trkpt lat="46.99838" lon="2.45179">
        <ele>153</ele>
        <time>2021-08-23T16:22:43Z</time>
      </trkpt>
      <trkpt lat="46.99815" lon="2.45197">
        <ele>153</ele>
        <time>2021-08-23T16:22:43Z</time>
      </trkpt>
      <trkpt lat="46.99796" lon="2.4521">
        <ele>153</ele>
        <time>2021-08-23T16:22:43Z</time>
      </trkpt>
      <trkpt lat="46.99792" lon="2.45213">
        <ele>153</ele>
        <time>2021-08-23T16:22:43Z</time>
      </trkpt>
      <trkpt lat="46.99772" lon="2.45232">
        <ele>154</ele>
        <time>2021-08-23T16:22:43Z</time>
      </trkpt>
      <trkpt lat="46.9976" lon="2.45247">
        <ele>154</ele>
        <time>2021-08-23T16:22:43Z</time>
      </trkpt>
      <trkpt lat="46.99763" lon="2.45273">
        <ele>155</ele>
        <time>2021-08-23T16:22:43Z</time>
      </trkpt>
      <trkpt lat="46.99767" lon="2.45307">
        <ele>155</ele>
        <time>2021-08-23T16:22:43Z</time>
      </trkpt>
      <trkpt lat="46.99771" lon="2.45345">
        <ele>155</ele>
        <time>2021-08-23T16:22:43Z</time>
      </trkpt>
      <trkpt lat="46.99775" lon="2.45374">
        <ele>154</ele>
        <time>2021-08-23T16:22:43Z</time>
      </trkpt>
      <trkpt lat="46.99776" lon="2.4538">
        <ele>154</ele>
        <time>2021-08-23T16:22:43Z</time>
      </trkpt>
      <trkpt lat="46.99778" lon="2.45401">
        <ele>154</ele>
        <time>2021-08-23T16:22:43Z</time>
      </trkpt>
      <trkpt lat="46.99779" lon="2.45407">
        <ele>154</ele>
        <time>2021-08-23T16:22:43Z</time>
      </trkpt>
      <trkpt lat="46.9978" lon="2.45412">
        <ele>154</ele>
        <time>2021-08-23T16:22:43Z</time>
      </trkpt>
      <trkpt lat="46.99781" lon="2.45415">
        <ele>154</ele>
        <time>2021-08-23T16:22:43Z</time>
      </trkpt>
      <trkpt lat="46.99781" lon="2.45418">
        <ele>154</ele>
        <time>2021-08-23T16:22:43Z</time>
      </trkpt>
      <trkpt lat="46.99783" lon="2.45422">
        <ele>154</ele>
        <time>2021-08-23T16:22:43Z</time>
      </trkpt>
      <trkpt lat="46.99786" lon="2.45425">
        <ele>154</ele>
        <time>2021-08-23T16:22:43Z</time>
      </trkpt>
      <trkpt lat="46.99789" lon="2.45428">
        <ele>154</ele>
        <time>2021-08-23T16:22:43Z</time>
      </trkpt>
      <trkpt lat="46.99793" lon="2.45429">
        <ele>154</ele>
        <time>2021-08-23T16:22:43Z</time>
      </trkpt>
      <trkpt lat="46.99798" lon="2.4543">
        <ele>154</ele>
        <time>2021-08-23T16:22:43Z</time>
      </trkpt>
      <trkpt lat="46.99802" lon="2.45431">
        <ele>154</ele>
        <time>2021-08-23T16:22:43Z</time>
      </trkpt>
      <trkpt lat="46.99807" lon="2.45432">
        <ele>153</ele>
        <time>2021-08-23T16:22:43Z</time>
      </trkpt>
      <trkpt lat="46.99812" lon="2.45432">
        <ele>153</ele>
        <time>2021-08-23T16:22:43Z</time>
      </trkpt>
      <trkpt lat="46.99817" lon="2.45432">
        <ele>153</ele>
        <time>2021-08-23T16:22:43Z</time>
      </trkpt>
      <trkpt lat="46.99822" lon="2.45431">
        <ele>152</ele>
        <time>2021-08-23T16:22:43Z</time>
      </trkpt>
      <trkpt lat="46.99828" lon="2.45431">
        <ele>152</ele>
        <time>2021-08-23T16:22:43Z</time>
      </trkpt>
      <trkpt lat="46.99834" lon="2.45431">
        <ele>151</ele>
        <time>2021-08-23T16:22:43Z</time>
      </trkpt>
      <trkpt lat="46.99839" lon="2.45431">
        <ele>151</ele>
        <time>2021-08-23T16:22:43Z</time>
      </trkpt>
      <trkpt lat="46.99845" lon="2.45433">
        <ele>151</ele>
        <time>2021-08-23T16:22:43Z</time>
      </trkpt>
      <trkpt lat="46.9985" lon="2.4544">
        <ele>151</ele>
        <time>2021-08-23T16:22:43Z</time>
      </trkpt>
      <trkpt lat="46.99854" lon="2.45448">
        <ele>151</ele>
        <time>2021-08-23T16:22:43Z</time>
      </trkpt>
      <trkpt lat="46.99856" lon="2.45456">
        <ele>150</ele>
        <time>2021-08-23T16:22:43Z</time>
      </trkpt>
      <trkpt lat="46.99858" lon="2.45466">
        <ele>149</ele>
        <time>2021-08-23T16:22:43Z</time>
      </trkpt>
      <trkpt lat="46.99859" lon="2.45477">
        <ele>149</ele>
        <time>2021-08-23T16:22:43Z</time>
      </trkpt>
      <trkpt lat="46.99859" lon="2.45487">
        <ele>148</ele>
        <time>2021-08-23T16:22:43Z</time>
      </trkpt>
      <trkpt lat="46.9986" lon="2.45497">
        <ele>148</ele>
        <time>2021-08-23T16:22:43Z</time>
      </trkpt>
      <trkpt lat="46.99861" lon="2.45507">
        <ele>147</ele>
        <time>2021-08-23T16:22:43Z</time>
      </trkpt>
      <trkpt lat="46.99862" lon="2.45516">
        <ele>147</ele>
        <time>2021-08-23T16:22:43Z</time>
      </trkpt>
      <trkpt lat="46.99863" lon="2.45525">
        <ele>146</ele>
        <time>2021-08-23T16:22:43Z</time>
      </trkpt>
      <trkpt lat="46.99863" lon="2.45535">
        <ele>146</ele>
        <time>2021-08-23T16:22:43Z</time>
      </trkpt>
      <trkpt lat="46.99865" lon="2.45544">
        <ele>146</ele>
        <time>2021-08-23T16:22:43Z</time>
      </trkpt>
      <trkpt lat="46.99865" lon="2.45554">
        <ele>145</ele>
        <time>2021-08-23T16:22:43Z</time>
      </trkpt>
      <trkpt lat="46.99866" lon="2.45563">
        <ele>145</ele>
        <time>2021-08-23T16:22:43Z</time>
      </trkpt>
      <trkpt lat="46.9987" lon="2.45571">
        <ele>144</ele>
        <time>2021-08-23T16:22:43Z</time>
      </trkpt>
      <trkpt lat="46.99875" lon="2.45577">
        <ele>144</ele>
        <time>2021-08-23T16:22:43Z</time>
      </trkpt>
      <trkpt lat="46.99881" lon="2.45582">
        <ele>143</ele>
        <time>2021-08-23T16:22:43Z</time>
      </trkpt>
      <trkpt lat="46.99888" lon="2.45583">
        <ele>143</ele>
        <time>2021-08-23T16:22:43Z</time>
      </trkpt>
      <trkpt lat="46.99896" lon="2.45583">
        <ele>143</ele>
        <time>2021-08-23T16:22:43Z</time>
      </trkpt>
      <trkpt lat="46.99903" lon="2.45582">
        <ele>143</ele>
        <time>2021-08-23T16:22:43Z</time>
      </trkpt>
      <trkpt lat="46.99911" lon="2.45581">
        <ele>143</ele>
        <time>2021-08-23T16:22:43Z</time>
      </trkpt>
      <trkpt lat="46.99919" lon="2.45579">
        <ele>143</ele>
        <time>2021-08-23T16:22:43Z</time>
      </trkpt>
      <trkpt lat="46.99927" lon="2.45579">
        <ele>142</ele>
        <time>2021-08-23T16:22:43Z</time>
      </trkpt>
      <trkpt lat="46.99935" lon="2.45578">
        <ele>142</ele>
        <time>2021-08-23T16:22:43Z</time>
      </trkpt>
      <trkpt lat="46.99943" lon="2.45578">
        <ele>142</ele>
        <time>2021-08-23T16:22:43Z</time>
      </trkpt>
      <trkpt lat="46.99952" lon="2.45577">
        <ele>141</ele>
        <time>2021-08-23T16:22:43Z</time>
      </trkpt>
      <trkpt lat="46.9996" lon="2.45577">
        <ele>140</ele>
        <time>2021-08-23T16:22:43Z</time>
      </trkpt>
      <trkpt lat="46.99969" lon="2.45576">
        <ele>139</ele>
        <time>2021-08-23T16:22:43Z</time>
      </trkpt>
      <trkpt lat="46.99976" lon="2.45576">
        <ele>139</ele>
        <time>2021-08-23T16:22:43Z</time>
      </trkpt>
      <trkpt lat="46.99983" lon="2.45575">
        <ele>139</ele>
        <time>2021-08-23T16:22:43Z</time>
      </trkpt>
      <trkpt lat="46.99989" lon="2.45576">
        <ele>139</ele>
        <time>2021-08-23T16:22:43Z</time>
      </trkpt>
      <trkpt lat="46.99994" lon="2.45581">
        <ele>139</ele>
        <time>2021-08-23T16:22:43Z</time>
      </trkpt>
      <trkpt lat="46.99998" lon="2.45586">
        <ele>139</ele>
        <time>2021-08-23T16:22:43Z</time>
      </trkpt>
      <trkpt lat="47.00002" lon="2.45592">
        <ele>139</ele>
        <time>2021-08-23T16:22:43Z</time>
      </trkpt>
      <trkpt lat="47.00005" lon="2.45599">
        <ele>139</ele>
        <time>2021-08-23T16:22:43Z</time>
      </trkpt>
      <trkpt lat="47.00008" lon="2.45605">
        <ele>139</ele>
        <time>2021-08-23T16:22:43Z</time>
      </trkpt>
      <trkpt lat="47.0001" lon="2.4561">
        <ele>140</ele>
        <time>2021-08-23T16:22:43Z</time>
      </trkpt>
      <trkpt lat="47.00013" lon="2.45615">
        <ele>140</ele>
        <time>2021-08-23T16:22:43Z</time>
      </trkpt>
      <trkpt lat="47.00015" lon="2.4562">
        <ele>141</ele>
        <time>2021-08-23T16:22:43Z</time>
      </trkpt>
      <trkpt lat="47.00018" lon="2.45622">
        <ele>141</ele>
        <time>2021-08-23T16:22:43Z</time>
      </trkpt>
      <trkpt lat="47.0002" lon="2.45622">
        <ele>141</ele>
        <time>2021-08-23T16:22:43Z</time>
      </trkpt>
      <trkpt lat="47.00022" lon="2.45621">
        <ele>142</ele>
        <time>2021-08-23T16:22:43Z</time>
      </trkpt>
      <trkpt lat="47.00032" lon="2.45619">
        <ele>142</ele>
        <time>2021-08-23T16:22:43Z</time>
      </trkpt>
      <trkpt lat="47.00044" lon="2.4561">
        <ele>143</ele>
        <time>2021-08-23T16:22:43Z</time>
      </trkpt>
      <trkpt lat="47.00056" lon="2.45603">
        <ele>144</ele>
        <time>2021-08-23T16:22:43Z</time>
      </trkpt>
      <trkpt lat="47.00055" lon="2.45601">
        <ele>144</ele>
        <time>2021-08-23T16:22:43Z</time>
      </trkpt>
      <trkpt lat="47.00056" lon="2.45603">
        <ele>144</ele>
        <time>2021-08-23T16:22:43Z</time>
      </trkpt>
      <trkpt lat="47.00056" lon="2.45603">
        <ele>144</ele>
        <time>2021-08-23T16:22:43Z</time>
      </trkpt>
      <trkpt lat="47.00056" lon="2.45603">
        <ele>144</ele>
        <time>2021-08-23T16:22:43Z</time>
      </trkpt>
      <trkpt lat="47.00056" lon="2.45603">
        <ele>144</ele>
        <time>2021-08-23T16:22:43Z</time>
      </trkpt>
      <trkpt lat="47.00057" lon="2.45602">
        <ele>144</ele>
        <time>2021-08-23T16:22:43Z</time>
      </trkpt>
      <trkpt lat="47.00058" lon="2.45601">
        <ele>144</ele>
        <time>2021-08-23T16:22:43Z</time>
      </trkpt>
      <trkpt lat="47.00059" lon="2.45599">
        <ele>144</ele>
        <time>2021-08-23T16:22:43Z</time>
      </trkpt>
      <trkpt lat="47.00062" lon="2.45597">
        <ele>144</ele>
        <time>2021-08-23T16:22:43Z</time>
      </trkpt>
      <trkpt lat="47.00065" lon="2.45596">
        <ele>144</ele>
        <time>2021-08-23T16:22:43Z</time>
      </trkpt>
      <trkpt lat="47.00068" lon="2.45593">
        <ele>144</ele>
        <time>2021-08-23T16:22:43Z</time>
      </trkpt>
      <trkpt lat="47.00071" lon="2.45591">
        <ele>144</ele>
        <time>2021-08-23T16:22:43Z</time>
      </trkpt>
      <trkpt lat="47.00075" lon="2.45588">
        <ele>144</ele>
        <time>2021-08-23T16:22:43Z</time>
      </trkpt>
      <trkpt lat="47.00078" lon="2.45585">
        <ele>144</ele>
        <time>2021-08-23T16:22:43Z</time>
      </trkpt>
      <trkpt lat="47.00082" lon="2.45582">
        <ele>143</ele>
        <time>2021-08-23T16:22:43Z</time>
      </trkpt>
      <trkpt lat="47.00087" lon="2.45579">
        <ele>143</ele>
        <time>2021-08-23T16:22:43Z</time>
      </trkpt>
      <trkpt lat="47.00091" lon="2.45576">
        <ele>143</ele>
        <time>2021-08-23T16:22:43Z</time>
      </trkpt>
      <trkpt lat="47.00095" lon="2.45573">
        <ele>142</ele>
        <time>2021-08-23T16:22:43Z</time>
      </trkpt>
      <trkpt lat="47.00099" lon="2.45569">
        <ele>142</ele>
        <time>2021-08-23T16:22:43Z</time>
      </trkpt>
      <trkpt lat="47.00104" lon="2.45565">
        <ele>142</ele>
        <time>2021-08-23T16:22:43Z</time>
      </trkpt>
      <trkpt lat="47.00109" lon="2.45561">
        <ele>142</ele>
        <time>2021-08-23T16:22:43Z</time>
      </trkpt>
      <trkpt lat="47.00113" lon="2.45557">
        <ele>142</ele>
        <time>2021-08-23T16:22:43Z</time>
      </trkpt>
      <trkpt lat="47.00118" lon="2.45553">
        <ele>141</ele>
        <time>2021-08-23T16:22:43Z</time>
      </trkpt>
      <trkpt lat="47.00122" lon="2.45549">
        <ele>141</ele>
        <time>2021-08-23T16:22:43Z</time>
      </trkpt>
      <trkpt lat="47.00145" lon="2.45531">
        <ele>140</ele>
        <time>2021-08-23T16:22:43Z</time>
      </trkpt>
      <trkpt lat="47.00171" lon="2.45516">
        <ele>141</ele>
        <time>2021-08-23T16:22:43Z</time>
      </trkpt>
      <trkpt lat="47.00199" lon="2.45506">
        <ele>140</ele>
        <time>2021-08-23T16:22:43Z</time>
      </trkpt>
      <trkpt lat="47.0023" lon="2.455">
        <ele>139</ele>
        <time>2021-08-23T16:22:43Z</time>
      </trkpt>
      <trkpt lat="47.00261" lon="2.45498">
        <ele>137</ele>
        <time>2021-08-23T16:22:43Z</time>
      </trkpt>
      <trkpt lat="47.00286" lon="2.45502">
        <ele>135</ele>
        <time>2021-08-23T16:22:43Z</time>
      </trkpt>
      <trkpt lat="47.00293" lon="2.45503">
        <ele>135</ele>
        <time>2021-08-23T16:22:43Z</time>
      </trkpt>
      <trkpt lat="47.00324" lon="2.45515">
        <ele>137</ele>
        <time>2021-08-23T16:22:43Z</time>
      </trkpt>
      <trkpt lat="47.00354" lon="2.45534">
        <ele>138</ele>
        <time>2021-08-23T16:22:43Z</time>
      </trkpt>
      <trkpt lat="47.00381" lon="2.45553">
        <ele>139</ele>
        <time>2021-08-23T16:22:43Z</time>
      </trkpt>
      <trkpt lat="47.00409" lon="2.45572">
        <ele>139</ele>
        <time>2021-08-23T16:22:43Z</time>
      </trkpt>
      <trkpt lat="47.00438" lon="2.45592">
        <ele>140</ele>
        <time>2021-08-23T16:22:43Z</time>
      </trkpt>
      <trkpt lat="47.00462" lon="2.45607">
        <ele>140</ele>
        <time>2021-08-23T16:22:43Z</time>
      </trkpt>
      <trkpt lat="47.00468" lon="2.45611">
        <ele>141</ele>
        <time>2021-08-23T16:22:43Z</time>
      </trkpt>
      <trkpt lat="47.00484" lon="2.45622">
        <ele>140</ele>
        <time>2021-08-23T16:22:43Z</time>
      </trkpt>
      <trkpt lat="47.00489" lon="2.45625">
        <ele>140</ele>
        <time>2021-08-23T16:22:43Z</time>
      </trkpt>
      <trkpt lat="47.00495" lon="2.45629">
        <ele>140</ele>
        <time>2021-08-23T16:22:43Z</time>
      </trkpt>
      <trkpt lat="47.005" lon="2.45632">
        <ele>140</ele>
        <time>2021-08-23T16:22:43Z</time>
      </trkpt>
      <trkpt lat="47.00506" lon="2.45636">
        <ele>140</ele>
        <time>2021-08-23T16:22:43Z</time>
      </trkpt>
      <trkpt lat="47.00512" lon="2.4564">
        <ele>140</ele>
        <time>2021-08-23T16:22:43Z</time>
      </trkpt>
      <trkpt lat="47.00518" lon="2.45644">
        <ele>139</ele>
        <time>2021-08-23T16:22:43Z</time>
      </trkpt>
      <trkpt lat="47.00523" lon="2.45647">
        <ele>139</ele>
        <time>2021-08-23T16:22:43Z</time>
      </trkpt>
      <trkpt lat="47.00528" lon="2.45651">
        <ele>139</ele>
        <time>2021-08-23T16:22:43Z</time>
      </trkpt>
      <trkpt lat="47.00534" lon="2.45654">
        <ele>139</ele>
        <time>2021-08-23T16:22:43Z</time>
      </trkpt>
      <trkpt lat="47.0054" lon="2.45659">
        <ele>139</ele>
        <time>2021-08-23T16:22:43Z</time>
      </trkpt>
      <trkpt lat="47.00546" lon="2.45663">
        <ele>139</ele>
        <time>2021-08-23T16:22:43Z</time>
      </trkpt>
      <trkpt lat="47.00552" lon="2.45665">
        <ele>139</ele>
        <time>2021-08-23T16:22:43Z</time>
      </trkpt>
      <trkpt lat="47.00558" lon="2.45669">
        <ele>139</ele>
        <time>2021-08-23T16:22:43Z</time>
      </trkpt>
      <trkpt lat="47.00563" lon="2.45673">
        <ele>139</ele>
        <time>2021-08-23T16:22:43Z</time>
      </trkpt>
      <trkpt lat="47.00568" lon="2.45676">
        <ele>139</ele>
        <time>2021-08-23T16:22:43Z</time>
      </trkpt>
      <trkpt lat="47.00573" lon="2.4568">
        <ele>139</ele>
        <time>2021-08-23T16:22:43Z</time>
      </trkpt>
      <trkpt lat="47.00578" lon="2.45683">
        <ele>139</ele>
        <time>2021-08-23T16:22:43Z</time>
      </trkpt>
      <trkpt lat="47.00583" lon="2.45686">
        <ele>139</ele>
        <time>2021-08-23T16:22:43Z</time>
      </trkpt>
      <trkpt lat="47.00587" lon="2.45689">
        <ele>139</ele>
        <time>2021-08-23T16:22:43Z</time>
      </trkpt>
      <trkpt lat="47.00591" lon="2.45692">
        <ele>139</ele>
        <time>2021-08-23T16:22:43Z</time>
      </trkpt>
      <trkpt lat="47.00596" lon="2.45694">
        <ele>139</ele>
        <time>2021-08-23T16:22:43Z</time>
      </trkpt>
      <trkpt lat="47.006" lon="2.45697">
        <ele>139</ele>
        <time>2021-08-23T16:22:43Z</time>
      </trkpt>
      <trkpt lat="47.00603" lon="2.45699">
        <ele>139</ele>
        <time>2021-08-23T16:22:43Z</time>
      </trkpt>
      <trkpt lat="47.00607" lon="2.45701">
        <ele>139</ele>
        <time>2021-08-23T16:22:43Z</time>
      </trkpt>
      <trkpt lat="47.0061" lon="2.45704">
        <ele>139</ele>
        <time>2021-08-23T16:22:43Z</time>
      </trkpt>
      <trkpt lat="47.00615" lon="2.45707">
        <ele>139</ele>
        <time>2021-08-23T16:22:43Z</time>
      </trkpt>
      <trkpt lat="47.00619" lon="2.4571">
        <ele>139</ele>
        <time>2021-08-23T16:22:43Z</time>
      </trkpt>
      <trkpt lat="47.00624" lon="2.45712">
        <ele>139</ele>
        <time>2021-08-23T16:22:43Z</time>
      </trkpt>
      <trkpt lat="47.00629" lon="2.45716">
        <ele>139</ele>
        <time>2021-08-23T16:22:43Z</time>
      </trkpt>
      <trkpt lat="47.00634" lon="2.45719">
        <ele>139</ele>
        <time>2021-08-23T16:22:43Z</time>
      </trkpt>
      <trkpt lat="47.00639" lon="2.45723">
        <ele>139</ele>
        <time>2021-08-23T16:22:43Z</time>
      </trkpt>
      <trkpt lat="47.00645" lon="2.45726">
        <ele>139</ele>
        <time>2021-08-23T16:22:43Z</time>
      </trkpt>
      <trkpt lat="47.0065" lon="2.4573">
        <ele>139</ele>
        <time>2021-08-23T16:22:43Z</time>
      </trkpt>
      <trkpt lat="47.00655" lon="2.45734">
        <ele>138</ele>
        <time>2021-08-23T16:22:43Z</time>
      </trkpt>
      <trkpt lat="47.00661" lon="2.45738">
        <ele>138</ele>
        <time>2021-08-23T16:22:43Z</time>
      </trkpt>
      <trkpt lat="47.00666" lon="2.45742">
        <ele>139</ele>
        <time>2021-08-23T16:22:43Z</time>
      </trkpt>
      <trkpt lat="47.00672" lon="2.45746">
        <ele>139</ele>
        <time>2021-08-23T16:22:43Z</time>
      </trkpt>
      <trkpt lat="47.00678" lon="2.4575">
        <ele>138</ele>
        <time>2021-08-23T16:22:43Z</time>
      </trkpt>
      <trkpt lat="47.00683" lon="2.45754">
        <ele>138</ele>
        <time>2021-08-23T16:22:43Z</time>
      </trkpt>
      <trkpt lat="47.00689" lon="2.45758">
        <ele>137</ele>
        <time>2021-08-23T16:22:43Z</time>
      </trkpt>
      <trkpt lat="47.00695" lon="2.45762">
        <ele>137</ele>
        <time>2021-08-23T16:22:43Z</time>
      </trkpt>
      <trkpt lat="47.007" lon="2.45766">
        <ele>137</ele>
        <time>2021-08-23T16:22:43Z</time>
      </trkpt>
      <trkpt lat="47.00706" lon="2.4577">
        <ele>136</ele>
        <time>2021-08-23T16:22:43Z</time>
      </trkpt>
      <trkpt lat="47.00712" lon="2.45773">
        <ele>136</ele>
        <time>2021-08-23T16:22:43Z</time>
      </trkpt>
      <trkpt lat="47.00717" lon="2.45777">
        <ele>135</ele>
        <time>2021-08-23T16:22:43Z</time>
      </trkpt>
      <trkpt lat="47.00723" lon="2.45781">
        <ele>135</ele>
        <time>2021-08-23T16:22:43Z</time>
      </trkpt>
      <trkpt lat="47.0073" lon="2.45783">
        <ele>135</ele>
        <time>2021-08-23T16:22:43Z</time>
      </trkpt>
      <trkpt lat="47.00735" lon="2.45787">
        <ele>136</ele>
        <time>2021-08-23T16:22:43Z</time>
      </trkpt>
      <trkpt lat="47.00741" lon="2.45791">
        <ele>137</ele>
        <time>2021-08-23T16:22:43Z</time>
      </trkpt>
      <trkpt lat="47.00746" lon="2.45795">
        <ele>137</ele>
        <time>2021-08-23T16:22:43Z</time>
      </trkpt>
      <trkpt lat="47.00752" lon="2.45799">
        <ele>138</ele>
        <time>2021-08-23T16:22:43Z</time>
      </trkpt>
      <trkpt lat="47.00758" lon="2.45803">
        <ele>138</ele>
        <time>2021-08-23T16:22:43Z</time>
      </trkpt>
      <trkpt lat="47.00764" lon="2.45808">
        <ele>139</ele>
        <time>2021-08-23T16:22:43Z</time>
      </trkpt>
      <trkpt lat="47.0077" lon="2.45811">
        <ele>139</ele>
        <time>2021-08-23T16:22:43Z</time>
      </trkpt>
      <trkpt lat="47.00776" lon="2.45815">
        <ele>139</ele>
        <time>2021-08-23T16:22:43Z</time>
      </trkpt>
      <trkpt lat="47.00781" lon="2.45819">
        <ele>140</ele>
        <time>2021-08-23T16:22:43Z</time>
      </trkpt>
      <trkpt lat="47.00787" lon="2.45823">
        <ele>140</ele>
        <time>2021-08-23T16:22:43Z</time>
      </trkpt>
      <trkpt lat="47.00793" lon="2.45827">
        <ele>140</ele>
        <time>2021-08-23T16:22:43Z</time>
      </trkpt>
      <trkpt lat="47.00799" lon="2.45831">
        <ele>140</ele>
        <time>2021-08-23T16:22:43Z</time>
      </trkpt>
      <trkpt lat="47.00827" lon="2.4585">
        <ele>144</ele>
        <time>2021-08-23T16:22:43Z</time>
      </trkpt>
      <trkpt lat="47.00855" lon="2.4587">
        <ele>143</ele>
        <time>2021-08-23T16:22:43Z</time>
      </trkpt>
      <trkpt lat="47.00884" lon="2.4589">
        <ele>141</ele>
        <time>2021-08-23T16:22:43Z</time>
      </trkpt>
      <trkpt lat="47.00912" lon="2.4591">
        <ele>140</ele>
        <time>2021-08-23T16:22:43Z</time>
      </trkpt>
      <trkpt lat="47.0094" lon="2.45928">
        <ele>139</ele>
        <time>2021-08-23T16:22:43Z</time>
      </trkpt>
      <trkpt lat="47.00963" lon="2.45943">
        <ele>140</ele>
        <time>2021-08-23T16:22:43Z</time>
      </trkpt>
      <trkpt lat="47.00969" lon="2.45947">
        <ele>140</ele>
        <time>2021-08-23T16:22:43Z</time>
      </trkpt>
      <trkpt lat="47.00996" lon="2.45965">
        <ele>142</ele>
        <time>2021-08-23T16:22:43Z</time>
      </trkpt>
      <trkpt lat="47.01024" lon="2.45983">
        <ele>140</ele>
        <time>2021-08-23T16:22:43Z</time>
      </trkpt>
      <trkpt lat="47.01052" lon="2.46003">
        <ele>138</ele>
        <time>2021-08-23T16:22:43Z</time>
      </trkpt>
      <trkpt lat="47.0108" lon="2.46022">
        <ele>137</ele>
        <time>2021-08-23T16:22:43Z</time>
      </trkpt>
      <trkpt lat="47.01109" lon="2.4604">
        <ele>138</ele>
        <time>2021-08-23T16:22:43Z</time>
      </trkpt>
      <trkpt lat="47.01133" lon="2.46049">
        <ele>138</ele>
        <time>2021-08-23T16:22:43Z</time>
      </trkpt>
      <trkpt lat="47.01138" lon="2.46051">
        <ele>138</ele>
        <time>2021-08-23T16:22:43Z</time>
      </trkpt>
      <trkpt lat="47.0117" lon="2.46054">
        <ele>138</ele>
        <time>2021-08-23T16:22:43Z</time>
      </trkpt>
      <trkpt lat="47.01196" lon="2.46052">
        <ele>138</ele>
        <time>2021-08-23T16:22:43Z</time>
      </trkpt>
      <trkpt lat="47.01221" lon="2.46042">
        <ele>138</ele>
        <time>2021-08-23T16:22:43Z</time>
      </trkpt>
      <trkpt lat="47.01249" lon="2.46025">
        <ele>139</ele>
        <time>2021-08-23T16:22:43Z</time>
      </trkpt>
      <trkpt lat="47.01278" lon="2.46007">
        <ele>138</ele>
        <time>2021-08-23T16:22:43Z</time>
      </trkpt>
      <trkpt lat="47.013" lon="2.45989">
        <ele>137</ele>
        <time>2021-08-23T16:22:43Z</time>
      </trkpt>
      <trkpt lat="47.01306" lon="2.45985">
        <ele>137</ele>
        <time>2021-08-23T16:22:43Z</time>
      </trkpt>
      <trkpt lat="47.01312" lon="2.45981">
        <ele>137</ele>
        <time>2021-08-23T16:22:43Z</time>
      </trkpt>
      <trkpt lat="47.01317" lon="2.45978">
        <ele>137</ele>
        <time>2021-08-23T16:22:43Z</time>
      </trkpt>
      <trkpt lat="47.01323" lon="2.45974">
        <ele>137</ele>
        <time>2021-08-23T16:22:43Z</time>
      </trkpt>
      <trkpt lat="47.01329" lon="2.4597">
        <ele>136</ele>
        <time>2021-08-23T16:22:43Z</time>
      </trkpt>
      <trkpt lat="47.01336" lon="2.45966">
        <ele>136</ele>
        <time>2021-08-23T16:22:43Z</time>
      </trkpt>
      <trkpt lat="47.01341" lon="2.45962">
        <ele>136</ele>
        <time>2021-08-23T16:22:43Z</time>
      </trkpt>
      <trkpt lat="47.01347" lon="2.45959">
        <ele>137</ele>
        <time>2021-08-23T16:22:43Z</time>
      </trkpt>
      <trkpt lat="47.01353" lon="2.45955">
        <ele>137</ele>
        <time>2021-08-23T16:22:43Z</time>
      </trkpt>
      <trkpt lat="47.01359" lon="2.45951">
        <ele>137</ele>
        <time>2021-08-23T16:22:43Z</time>
      </trkpt>
      <trkpt lat="47.01366" lon="2.45947">
        <ele>137</ele>
        <time>2021-08-23T16:22:43Z</time>
      </trkpt>
      <trkpt lat="47.01372" lon="2.45944">
        <ele>137</ele>
        <time>2021-08-23T16:22:43Z</time>
      </trkpt>
      <trkpt lat="47.01378" lon="2.45938">
        <ele>137</ele>
        <time>2021-08-23T16:22:43Z</time>
      </trkpt>
      <trkpt lat="47.01383" lon="2.45934">
        <ele>137</ele>
        <time>2021-08-23T16:22:43Z</time>
      </trkpt>
      <trkpt lat="47.01389" lon="2.45929">
        <ele>137</ele>
        <time>2021-08-23T16:22:43Z</time>
      </trkpt>
      <trkpt lat="47.01394" lon="2.45924">
        <ele>137</ele>
        <time>2021-08-23T16:22:43Z</time>
      </trkpt>
      <trkpt lat="47.014" lon="2.45918">
        <ele>137</ele>
        <time>2021-08-23T16:22:43Z</time>
      </trkpt>
      <trkpt lat="47.01405" lon="2.45913">
        <ele>136</ele>
        <time>2021-08-23T16:22:43Z</time>
      </trkpt>
      <trkpt lat="47.0141" lon="2.45907">
        <ele>136</ele>
        <time>2021-08-23T16:22:43Z</time>
      </trkpt>
      <trkpt lat="47.01415" lon="2.459">
        <ele>136</ele>
        <time>2021-08-23T16:22:43Z</time>
      </trkpt>
      <trkpt lat="47.01419" lon="2.45892">
        <ele>136</ele>
        <time>2021-08-23T16:22:43Z</time>
      </trkpt>
      <trkpt lat="47.01423" lon="2.45886">
        <ele>136</ele>
        <time>2021-08-23T16:22:43Z</time>
      </trkpt>
      <trkpt lat="47.01428" lon="2.45879">
        <ele>136</ele>
        <time>2021-08-23T16:22:43Z</time>
      </trkpt>
      <trkpt lat="47.01432" lon="2.45871">
        <ele>136</ele>
        <time>2021-08-23T16:22:43Z</time>
      </trkpt>
      <trkpt lat="47.01436" lon="2.45864">
        <ele>136</ele>
        <time>2021-08-23T16:22:43Z</time>
      </trkpt>
      <trkpt lat="47.01439" lon="2.45855">
        <ele>136</ele>
        <time>2021-08-23T16:22:43Z</time>
      </trkpt>
      <trkpt lat="47.01442" lon="2.45847">
        <ele>136</ele>
        <time>2021-08-23T16:22:43Z</time>
      </trkpt>
      <trkpt lat="47.01446" lon="2.45839">
        <ele>136</ele>
        <time>2021-08-23T16:22:43Z</time>
      </trkpt>
      <trkpt lat="47.01448" lon="2.45832">
        <ele>137</ele>
        <time>2021-08-23T16:22:43Z</time>
      </trkpt>
      <trkpt lat="47.01451" lon="2.45824">
        <ele>137</ele>
        <time>2021-08-23T16:22:43Z</time>
      </trkpt>
      <trkpt lat="47.01454" lon="2.45815">
        <ele>137</ele>
        <time>2021-08-23T16:22:43Z</time>
      </trkpt>
      <trkpt lat="47.01456" lon="2.45806">
        <ele>137</ele>
        <time>2021-08-23T16:22:43Z</time>
      </trkpt>
      <trkpt lat="47.01458" lon="2.45797">
        <ele>137</ele>
        <time>2021-08-23T16:22:43Z</time>
      </trkpt>
      <trkpt lat="47.01459" lon="2.45788">
        <ele>137</ele>
        <time>2021-08-23T16:22:43Z</time>
      </trkpt>
      <trkpt lat="47.01461" lon="2.4578">
        <ele>137</ele>
        <time>2021-08-23T16:22:43Z</time>
      </trkpt>
      <trkpt lat="47.01463" lon="2.45771">
        <ele>137</ele>
        <time>2021-08-23T16:22:43Z</time>
      </trkpt>
      <trkpt lat="47.01464" lon="2.45762">
        <ele>137</ele>
        <time>2021-08-23T16:22:43Z</time>
      </trkpt>
      <trkpt lat="47.01466" lon="2.45754">
        <ele>138</ele>
        <time>2021-08-23T16:22:43Z</time>
      </trkpt>
      <trkpt lat="47.01467" lon="2.45745">
        <ele>138</ele>
        <time>2021-08-23T16:22:43Z</time>
      </trkpt>
      <trkpt lat="47.01469" lon="2.45735">
        <ele>139</ele>
        <time>2021-08-23T16:22:43Z</time>
      </trkpt>
      <trkpt lat="47.0147" lon="2.45726">
        <ele>139</ele>
        <time>2021-08-23T16:22:43Z</time>
      </trkpt>
      <trkpt lat="47.01471" lon="2.45717">
        <ele>139</ele>
        <time>2021-08-23T16:22:43Z</time>
      </trkpt>
      <trkpt lat="47.01472" lon="2.45708">
        <ele>139</ele>
        <time>2021-08-23T16:22:43Z</time>
      </trkpt>
      <trkpt lat="47.01473" lon="2.45701">
        <ele>139</ele>
        <time>2021-08-23T16:22:43Z</time>
      </trkpt>
      <trkpt lat="47.01475" lon="2.45693">
        <ele>139</ele>
        <time>2021-08-23T16:22:43Z</time>
      </trkpt>
      <trkpt lat="47.01476" lon="2.45685">
        <ele>138</ele>
        <time>2021-08-23T16:22:43Z</time>
      </trkpt>
      <trkpt lat="47.01478" lon="2.45678">
        <ele>138</ele>
        <time>2021-08-23T16:22:43Z</time>
      </trkpt>
      <trkpt lat="47.01478" lon="2.45671">
        <ele>138</ele>
        <time>2021-08-23T16:22:43Z</time>
      </trkpt>
      <trkpt lat="47.01479" lon="2.45665">
        <ele>138</ele>
        <time>2021-08-23T16:22:43Z</time>
      </trkpt>
      <trkpt lat="47.01482" lon="2.45661">
        <ele>138</ele>
        <time>2021-08-23T16:22:43Z</time>
      </trkpt>
      <trkpt lat="47.01485" lon="2.45659">
        <ele>138</ele>
        <time>2021-08-23T16:22:43Z</time>
      </trkpt>
      <trkpt lat="47.01487" lon="2.45661">
        <ele>138</ele>
        <time>2021-08-23T16:22:43Z</time>
      </trkpt>
      <trkpt lat="47.0149" lon="2.45658">
        <ele>138</ele>
        <time>2021-08-23T16:22:43Z</time>
      </trkpt>
      <trkpt lat="47.01492" lon="2.45654">
        <ele>138</ele>
        <time>2021-08-23T16:22:43Z</time>
      </trkpt>
      <trkpt lat="47.01494" lon="2.45649">
        <ele>138</ele>
        <time>2021-08-23T16:22:43Z</time>
      </trkpt>
      <trkpt lat="47.01495" lon="2.45643">
        <ele>137</ele>
        <time>2021-08-23T16:22:43Z</time>
      </trkpt>
      <trkpt lat="47.01496" lon="2.45634">
        <ele>137</ele>
        <time>2021-08-23T16:22:43Z</time>
      </trkpt>
      <trkpt lat="47.01498" lon="2.45625">
        <ele>137</ele>
        <time>2021-08-23T16:22:43Z</time>
      </trkpt>
      <trkpt lat="47.015" lon="2.45616">
        <ele>138</ele>
        <time>2021-08-23T16:22:43Z</time>
      </trkpt>
      <trkpt lat="47.01502" lon="2.45606">
        <ele>138</ele>
        <time>2021-08-23T16:22:43Z</time>
      </trkpt>
      <trkpt lat="47.01503" lon="2.45596">
        <ele>138</ele>
        <time>2021-08-23T16:22:43Z</time>
      </trkpt>
      <trkpt lat="47.01504" lon="2.45586">
        <ele>138</ele>
        <time>2021-08-23T16:22:43Z</time>
      </trkpt>
      <trkpt lat="47.01512" lon="2.45538">
        <ele>137</ele>
        <time>2021-08-23T16:22:43Z</time>
      </trkpt>
      <trkpt lat="47.01519" lon="2.45491">
        <ele>138</ele>
        <time>2021-08-23T16:22:43Z</time>
      </trkpt>
      <trkpt lat="47.01526" lon="2.45442">
        <ele>138</ele>
        <time>2021-08-23T16:22:43Z</time>
      </trkpt>
      <trkpt lat="47.01533" lon="2.45393">
        <ele>137</ele>
        <time>2021-08-23T16:22:43Z</time>
      </trkpt>
      <trkpt lat="47.01541" lon="2.45347">
        <ele>137</ele>
        <time>2021-08-23T16:22:43Z</time>
      </trkpt>
      <trkpt lat="47.01548" lon="2.4531">
        <ele>135</ele>
        <time>2021-08-23T16:22:43Z</time>
      </trkpt>
      <trkpt lat="47.0155" lon="2.45301">
        <ele>135</ele>
        <time>2021-08-23T16:22:43Z</time>
      </trkpt>
      <trkpt lat="47.01562" lon="2.45255">
        <ele>134</ele>
        <time>2021-08-23T16:22:43Z</time>
      </trkpt>
      <trkpt lat="47.01574" lon="2.45211">
        <ele>134</ele>
        <time>2021-08-23T16:22:43Z</time>
      </trkpt>
      <trkpt lat="47.0159" lon="2.45168">
        <ele>134</ele>
        <time>2021-08-23T16:22:43Z</time>
      </trkpt>
      <trkpt lat="47.01604" lon="2.45127">
        <ele>134</ele>
        <time>2021-08-23T16:22:43Z</time>
      </trkpt>
      <trkpt lat="47.01621" lon="2.45088">
        <ele>134</ele>
        <time>2021-08-23T16:22:43Z</time>
      </trkpt>
      <trkpt lat="47.01636" lon="2.45056">
        <ele>134</ele>
        <time>2021-08-23T16:22:43Z</time>
      </trkpt>
      <trkpt lat="47.0164" lon="2.45049">
        <ele>134</ele>
        <time>2021-08-23T16:22:43Z</time>
      </trkpt>
      <trkpt lat="47.0166" lon="2.45011">
        <ele>134</ele>
        <time>2021-08-23T16:22:43Z</time>
      </trkpt>
      <trkpt lat="47.01682" lon="2.44978">
        <ele>134</ele>
        <time>2021-08-23T16:22:43Z</time>
      </trkpt>
      <trkpt lat="47.01705" lon="2.44947">
        <ele>134</ele>
        <time>2021-08-23T16:22:43Z</time>
      </trkpt>
      <trkpt lat="47.01729" lon="2.44915">
        <ele>135</ele>
        <time>2021-08-23T16:22:43Z</time>
      </trkpt>
      <trkpt lat="47.01752" lon="2.44883">
        <ele>134</ele>
        <time>2021-08-23T16:22:43Z</time>
      </trkpt>
      <trkpt lat="47.0177" lon="2.44858">
        <ele>134</ele>
        <time>2021-08-23T16:22:43Z</time>
      </trkpt>
      <trkpt lat="47.01774" lon="2.44853">
        <ele>134</ele>
        <time>2021-08-23T16:22:43Z</time>
      </trkpt>
      <trkpt lat="47.01787" lon="2.44838">
        <ele>134</ele>
        <time>2021-08-23T16:22:43Z</time>
      </trkpt>
      <trkpt lat="47.01791" lon="2.44833">
        <ele>134</ele>
        <time>2021-08-23T16:22:43Z</time>
      </trkpt>
      <trkpt lat="47.01795" lon="2.44828">
        <ele>135</ele>
        <time>2021-08-23T16:22:43Z</time>
      </trkpt>
      <trkpt lat="47.01798" lon="2.44822">
        <ele>135</ele>
        <time>2021-08-23T16:22:43Z</time>
      </trkpt>
      <trkpt lat="47.01802" lon="2.44817">
        <ele>135</ele>
        <time>2021-08-23T16:22:43Z</time>
      </trkpt>
      <trkpt lat="47.01807" lon="2.44811">
        <ele>135</ele>
        <time>2021-08-23T16:22:43Z</time>
      </trkpt>
      <trkpt lat="47.01812" lon="2.44804">
        <ele>135</ele>
        <time>2021-08-23T16:22:43Z</time>
      </trkpt>
      <trkpt lat="47.01817" lon="2.44798">
        <ele>135</ele>
        <time>2021-08-23T16:22:43Z</time>
      </trkpt>
      <trkpt lat="47.01822" lon="2.44791">
        <ele>135</ele>
        <time>2021-08-23T16:22:43Z</time>
      </trkpt>
      <trkpt lat="47.01828" lon="2.44784">
        <ele>135</ele>
        <time>2021-08-23T16:22:43Z</time>
      </trkpt>
      <trkpt lat="47.01833" lon="2.44778">
        <ele>135</ele>
        <time>2021-08-23T16:22:43Z</time>
      </trkpt>
      <trkpt lat="47.01838" lon="2.44771">
        <ele>135</ele>
        <time>2021-08-23T16:22:43Z</time>
      </trkpt>
      <trkpt lat="47.01843" lon="2.44764">
        <ele>135</ele>
        <time>2021-08-23T16:22:43Z</time>
      </trkpt>
      <trkpt lat="47.01848" lon="2.44757">
        <ele>135</ele>
        <time>2021-08-23T16:22:43Z</time>
      </trkpt>
      <trkpt lat="47.01853" lon="2.4475">
        <ele>135</ele>
        <time>2021-08-23T16:22:43Z</time>
      </trkpt>
      <trkpt lat="47.01858" lon="2.44744">
        <ele>135</ele>
        <time>2021-08-23T16:22:43Z</time>
      </trkpt>
      <trkpt lat="47.01863" lon="2.44738">
        <ele>135</ele>
        <time>2021-08-23T16:22:43Z</time>
      </trkpt>
      <trkpt lat="47.01867" lon="2.44732">
        <ele>135</ele>
        <time>2021-08-23T16:22:43Z</time>
      </trkpt>
      <trkpt lat="47.01872" lon="2.44725">
        <ele>135</ele>
        <time>2021-08-23T16:22:43Z</time>
      </trkpt>
      <trkpt lat="47.01877" lon="2.44718">
        <ele>135</ele>
        <time>2021-08-23T16:22:43Z</time>
      </trkpt>
      <trkpt lat="47.01882" lon="2.44712">
        <ele>135</ele>
        <time>2021-08-23T16:22:43Z</time>
      </trkpt>
      <trkpt lat="47.01887" lon="2.44705">
        <ele>135</ele>
        <time>2021-08-23T16:22:43Z</time>
      </trkpt>
      <trkpt lat="47.01891" lon="2.44698">
        <ele>135</ele>
        <time>2021-08-23T16:22:43Z</time>
      </trkpt>
      <trkpt lat="47.01896" lon="2.44692">
        <ele>134</ele>
        <time>2021-08-23T16:22:43Z</time>
      </trkpt>
      <trkpt lat="47.01901" lon="2.44685">
        <ele>134</ele>
        <time>2021-08-23T16:22:43Z</time>
      </trkpt>
      <trkpt lat="47.01905" lon="2.44679">
        <ele>134</ele>
        <time>2021-08-23T16:22:43Z</time>
      </trkpt>
      <trkpt lat="47.0191" lon="2.44672">
        <ele>134</ele>
        <time>2021-08-23T16:22:43Z</time>
      </trkpt>
      <trkpt lat="47.01915" lon="2.44666">
        <ele>134</ele>
        <time>2021-08-23T16:22:43Z</time>
      </trkpt>
      <trkpt lat="47.0192" lon="2.4466">
        <ele>133</ele>
        <time>2021-08-23T16:22:43Z</time>
      </trkpt>
      <trkpt lat="47.01926" lon="2.44653">
        <ele>133</ele>
        <time>2021-08-23T16:22:43Z</time>
      </trkpt>
      <trkpt lat="47.0193" lon="2.44647">
        <ele>133</ele>
        <time>2021-08-23T16:22:43Z</time>
      </trkpt>
      <trkpt lat="47.01936" lon="2.44641">
        <ele>133</ele>
        <time>2021-08-23T16:22:43Z</time>
      </trkpt>
      <trkpt lat="47.01941" lon="2.44636">
        <ele>133</ele>
        <time>2021-08-23T16:22:43Z</time>
      </trkpt>
      <trkpt lat="47.01947" lon="2.44631">
        <ele>133</ele>
        <time>2021-08-23T16:22:43Z</time>
      </trkpt>
      <trkpt lat="47.01953" lon="2.44627">
        <ele>133</ele>
        <time>2021-08-23T16:22:43Z</time>
      </trkpt>
      <trkpt lat="47.01959" lon="2.44622">
        <ele>133</ele>
        <time>2021-08-23T16:22:43Z</time>
      </trkpt>
      <trkpt lat="47.01965" lon="2.44618">
        <ele>133</ele>
        <time>2021-08-23T16:22:43Z</time>
      </trkpt>
      <trkpt lat="47.0197" lon="2.44614">
        <ele>133</ele>
        <time>2021-08-23T16:22:43Z</time>
      </trkpt>
      <trkpt lat="47.01977" lon="2.4461">
        <ele>134</ele>
        <time>2021-08-23T16:22:43Z</time>
      </trkpt>
      <trkpt lat="47.01981" lon="2.44606">
        <ele>134</ele>
        <time>2021-08-23T16:22:43Z</time>
      </trkpt>
      <trkpt lat="47.01987" lon="2.44603">
        <ele>134</ele>
        <time>2021-08-23T16:22:43Z</time>
      </trkpt>
      <trkpt lat="47.01993" lon="2.44599">
        <ele>134</ele>
        <time>2021-08-23T16:22:43Z</time>
      </trkpt>
      <trkpt lat="47.01998" lon="2.44594">
        <ele>134</ele>
        <time>2021-08-23T16:22:43Z</time>
      </trkpt>
      <trkpt lat="47.02004" lon="2.44591">
        <ele>135</ele>
        <time>2021-08-23T16:22:43Z</time>
      </trkpt>
      <trkpt lat="47.0201" lon="2.44587">
        <ele>135</ele>
        <time>2021-08-23T16:22:43Z</time>
      </trkpt>
      <trkpt lat="47.02017" lon="2.44584">
        <ele>135</ele>
        <time>2021-08-23T16:22:43Z</time>
      </trkpt>
      <trkpt lat="47.02023" lon="2.4458">
        <ele>135</ele>
        <time>2021-08-23T16:22:43Z</time>
      </trkpt>
      <trkpt lat="47.02029" lon="2.44575">
        <ele>135</ele>
        <time>2021-08-23T16:22:43Z</time>
      </trkpt>
      <trkpt lat="47.02035" lon="2.44571">
        <ele>134</ele>
        <time>2021-08-23T16:22:43Z</time>
      </trkpt>
      <trkpt lat="47.0204" lon="2.44566">
        <ele>134</ele>
        <time>2021-08-23T16:22:43Z</time>
      </trkpt>
      <trkpt lat="47.02046" lon="2.44562">
        <ele>134</ele>
        <time>2021-08-23T16:22:43Z</time>
      </trkpt>
      <trkpt lat="47.02053" lon="2.44558">
        <ele>134</ele>
        <time>2021-08-23T16:22:43Z</time>
      </trkpt>
      <trkpt lat="47.02059" lon="2.44554">
        <ele>133</ele>
        <time>2021-08-23T16:22:43Z</time>
      </trkpt>
      <trkpt lat="47.02065" lon="2.4455">
        <ele>133</ele>
        <time>2021-08-23T16:22:43Z</time>
      </trkpt>
      <trkpt lat="47.02071" lon="2.44546">
        <ele>133</ele>
        <time>2021-08-23T16:22:43Z</time>
      </trkpt>
      <trkpt lat="47.02077" lon="2.44542">
        <ele>133</ele>
        <time>2021-08-23T16:22:43Z</time>
      </trkpt>
      <trkpt lat="47.02083" lon="2.44538">
        <ele>133</ele>
        <time>2021-08-23T16:22:43Z</time>
      </trkpt>
      <trkpt lat="47.02089" lon="2.44533">
        <ele>133</ele>
        <time>2021-08-23T16:22:43Z</time>
      </trkpt>
      <trkpt lat="47.02095" lon="2.44529">
        <ele>133</ele>
        <time>2021-08-23T16:22:43Z</time>
      </trkpt>
      <trkpt lat="47.02101" lon="2.44527">
        <ele>133</ele>
        <time>2021-08-23T16:22:43Z</time>
      </trkpt>
      <trkpt lat="47.02131" lon="2.44505">
        <ele>134</ele>
        <time>2021-08-23T16:22:43Z</time>
      </trkpt>
      <trkpt lat="47.02159" lon="2.44486">
        <ele>133</ele>
        <time>2021-08-23T16:22:43Z</time>
      </trkpt>
      <trkpt lat="47.02188" lon="2.44465">
        <ele>132</ele>
        <time>2021-08-23T16:22:43Z</time>
      </trkpt>
      <trkpt lat="47.02218" lon="2.44451">
        <ele>133</ele>
        <time>2021-08-23T16:22:43Z</time>
      </trkpt>
      <trkpt lat="47.02249" lon="2.44443">
        <ele>135</ele>
        <time>2021-08-23T16:22:43Z</time>
      </trkpt>
      <trkpt lat="47.02274" lon="2.44442">
        <ele>137</ele>
        <time>2021-08-23T16:22:43Z</time>
      </trkpt>
      <trkpt lat="47.02281" lon="2.44442">
        <ele>137</ele>
        <time>2021-08-23T16:22:43Z</time>
      </trkpt>
      <trkpt lat="47.02314" lon="2.44449">
        <ele>138</ele>
        <time>2021-08-23T16:22:43Z</time>
      </trkpt>
      <trkpt lat="47.02356" lon="2.44467">
        <ele>136</ele>
        <time>2021-08-23T16:22:43Z</time>
      </trkpt>
      <trkpt lat="47.02387" lon="2.44479">
        <ele>134</ele>
        <time>2021-08-23T16:22:43Z</time>
      </trkpt>
      <trkpt lat="47.02423" lon="2.44496">
        <ele>134</ele>
        <time>2021-08-23T16:22:43Z</time>
      </trkpt>
      <trkpt lat="47.02461" lon="2.44513">
        <ele>132</ele>
        <time>2021-08-23T16:22:43Z</time>
      </trkpt>
      <trkpt lat="47.02491" lon="2.44527">
        <ele>131</ele>
        <time>2021-08-23T16:22:43Z</time>
      </trkpt>
      <trkpt lat="47.02497" lon="2.4453">
        <ele>132</ele>
        <time>2021-08-23T16:22:43Z</time>
      </trkpt>
      <trkpt lat="47.02532" lon="2.44546">
        <ele>132</ele>
        <time>2021-08-23T16:22:43Z</time>
      </trkpt>
      <trkpt lat="47.0257" lon="2.44563">
        <ele>132</ele>
        <time>2021-08-23T16:22:43Z</time>
      </trkpt>
      <trkpt lat="47.02609" lon="2.44577">
        <ele>132</ele>
        <time>2021-08-23T16:22:43Z</time>
      </trkpt>
      <trkpt lat="47.02644" lon="2.4459">
        <ele>132</ele>
        <time>2021-08-23T16:22:43Z</time>
      </trkpt>
      <trkpt lat="47.02675" lon="2.44604">
        <ele>132</ele>
        <time>2021-08-23T16:22:43Z</time>
      </trkpt>
      <trkpt lat="47.02701" lon="2.44615">
        <ele>133</ele>
        <time>2021-08-23T16:22:43Z</time>
      </trkpt>
      <trkpt lat="47.02706" lon="2.44617">
        <ele>133</ele>
        <time>2021-08-23T16:22:43Z</time>
      </trkpt>
      <trkpt lat="47.02723" lon="2.44625">
        <ele>133</ele>
        <time>2021-08-23T16:22:43Z</time>
      </trkpt>
      <trkpt lat="47.0273" lon="2.44627">
        <ele>133</ele>
        <time>2021-08-23T16:22:43Z</time>
      </trkpt>
      <trkpt lat="47.02736" lon="2.4463">
        <ele>133</ele>
        <time>2021-08-23T16:22:43Z</time>
      </trkpt>
      <trkpt lat="47.02743" lon="2.44633">
        <ele>133</ele>
        <time>2021-08-23T16:22:43Z</time>
      </trkpt>
      <trkpt lat="47.02749" lon="2.44634">
        <ele>133</ele>
        <time>2021-08-23T16:22:43Z</time>
      </trkpt>
      <trkpt lat="47.02755" lon="2.44637">
        <ele>133</ele>
        <time>2021-08-23T16:22:43Z</time>
      </trkpt>
      <trkpt lat="47.02761" lon="2.44639">
        <ele>133</ele>
        <time>2021-08-23T16:22:43Z</time>
      </trkpt>
      <trkpt lat="47.02767" lon="2.44641">
        <ele>134</ele>
        <time>2021-08-23T16:22:43Z</time>
      </trkpt>
      <trkpt lat="47.02774" lon="2.44643">
        <ele>134</ele>
        <time>2021-08-23T16:22:43Z</time>
      </trkpt>
      <trkpt lat="47.02813" lon="2.44659">
        <ele>134</ele>
        <time>2021-08-23T16:22:43Z</time>
      </trkpt>
      <trkpt lat="47.02843" lon="2.44673">
        <ele>135</ele>
        <time>2021-08-23T16:22:43Z</time>
      </trkpt>
      <trkpt lat="47.02876" lon="2.44686">
        <ele>135</ele>
        <time>2021-08-23T16:22:43Z</time>
      </trkpt>
      <trkpt lat="47.02905" lon="2.447">
        <ele>135</ele>
        <time>2021-08-23T16:22:43Z</time>
      </trkpt>
      <trkpt lat="47.02932" lon="2.4471">
        <ele>134</ele>
        <time>2021-08-23T16:22:43Z</time>
      </trkpt>
      <trkpt lat="47.02959" lon="2.44722">
        <ele>133</ele>
        <time>2021-08-23T16:22:43Z</time>
      </trkpt>
      <trkpt lat="47.02965" lon="2.44724">
        <ele>133</ele>
        <time>2021-08-23T16:22:43Z</time>
      </trkpt>
      <trkpt lat="47.02995" lon="2.44739">
        <ele>132</ele>
        <time>2021-08-23T16:22:43Z</time>
      </trkpt>
      <trkpt lat="47.03025" lon="2.44755">
        <ele>132</ele>
        <time>2021-08-23T16:22:43Z</time>
      </trkpt>
      <trkpt lat="47.03056" lon="2.44769">
        <ele>134</ele>
        <time>2021-08-23T16:22:43Z</time>
      </trkpt>
      <trkpt lat="47.03087" lon="2.44782">
        <ele>136</ele>
        <time>2021-08-23T16:22:43Z</time>
      </trkpt>
      <trkpt lat="47.03119" lon="2.44791">
        <ele>136</ele>
        <time>2021-08-23T16:22:43Z</time>
      </trkpt>
      <trkpt lat="47.03144" lon="2.44797">
        <ele>135</ele>
        <time>2021-08-23T16:22:43Z</time>
      </trkpt>
      <trkpt lat="47.0315" lon="2.44797">
        <ele>135</ele>
        <time>2021-08-23T16:22:43Z</time>
      </trkpt>
      <trkpt lat="47.03178" lon="2.44796">
        <ele>134</ele>
        <time>2021-08-23T16:22:43Z</time>
      </trkpt>
      <trkpt lat="47.03213" lon="2.44785">
        <ele>132</ele>
        <time>2021-08-23T16:22:43Z</time>
      </trkpt>
      <trkpt lat="47.03243" lon="2.44771">
        <ele>131</ele>
        <time>2021-08-23T16:22:43Z</time>
      </trkpt>
      <trkpt lat="47.03272" lon="2.4475">
        <ele>131</ele>
        <time>2021-08-23T16:22:43Z</time>
      </trkpt>
      <trkpt lat="47.03298" lon="2.44718">
        <ele>132</ele>
        <time>2021-08-23T16:22:43Z</time>
      </trkpt>
      <trkpt lat="47.03316" lon="2.44691">
        <ele>132</ele>
        <time>2021-08-23T16:22:43Z</time>
      </trkpt>
      <trkpt lat="47.0332" lon="2.44683">
        <ele>132</ele>
        <time>2021-08-23T16:22:43Z</time>
      </trkpt>
      <trkpt lat="47.03339" lon="2.44642">
        <ele>132</ele>
        <time>2021-08-23T16:22:43Z</time>
      </trkpt>
      <trkpt lat="47.03352" lon="2.44598">
        <ele>132</ele>
        <time>2021-08-23T16:22:43Z</time>
      </trkpt>
      <trkpt lat="47.03365" lon="2.44554">
        <ele>131</ele>
        <time>2021-08-23T16:22:43Z</time>
      </trkpt>
      <trkpt lat="47.03377" lon="2.4451">
        <ele>131</ele>
        <time>2021-08-23T16:22:43Z</time>
      </trkpt>
      <trkpt lat="47.03389" lon="2.44465">
        <ele>132</ele>
        <time>2021-08-23T16:22:43Z</time>
      </trkpt>
      <trkpt lat="47.03399" lon="2.4443">
        <ele>132</ele>
        <time>2021-08-23T16:22:43Z</time>
      </trkpt>
      <trkpt lat="47.03402" lon="2.44421">
        <ele>132</ele>
        <time>2021-08-23T16:22:43Z</time>
      </trkpt>
      <trkpt lat="47.03404" lon="2.44412">
        <ele>131</ele>
        <time>2021-08-23T16:22:43Z</time>
      </trkpt>
      <trkpt lat="47.03407" lon="2.44403">
        <ele>131</ele>
        <time>2021-08-23T16:22:43Z</time>
      </trkpt>
      <trkpt lat="47.03409" lon="2.44395">
        <ele>131</ele>
        <time>2021-08-23T16:22:43Z</time>
      </trkpt>
      <trkpt lat="47.03411" lon="2.44385">
        <ele>131</ele>
        <time>2021-08-23T16:22:43Z</time>
      </trkpt>
      <trkpt lat="47.03414" lon="2.44377">
        <ele>131</ele>
        <time>2021-08-23T16:22:43Z</time>
      </trkpt>
      <trkpt lat="47.03416" lon="2.44368">
        <ele>131</ele>
        <time>2021-08-23T16:22:43Z</time>
      </trkpt>
      <trkpt lat="47.03419" lon="2.44359">
        <ele>130</ele>
        <time>2021-08-23T16:22:43Z</time>
      </trkpt>
      <trkpt lat="47.03422" lon="2.4435">
        <ele>130</ele>
        <time>2021-08-23T16:22:43Z</time>
      </trkpt>
      <trkpt lat="47.03425" lon="2.44341">
        <ele>130</ele>
        <time>2021-08-23T16:22:43Z</time>
      </trkpt>
      <trkpt lat="47.03427" lon="2.44332">
        <ele>130</ele>
        <time>2021-08-23T16:22:43Z</time>
      </trkpt>
      <trkpt lat="47.0343" lon="2.44322">
        <ele>131</ele>
        <time>2021-08-23T16:22:43Z</time>
      </trkpt>
      <trkpt lat="47.03433" lon="2.44313">
        <ele>131</ele>
        <time>2021-08-23T16:22:43Z</time>
      </trkpt>
      <trkpt lat="47.03435" lon="2.44304">
        <ele>132</ele>
        <time>2021-08-23T16:22:43Z</time>
      </trkpt>
      <trkpt lat="47.03438" lon="2.44295">
        <ele>132</ele>
        <time>2021-08-23T16:22:43Z</time>
      </trkpt>
      <trkpt lat="47.03441" lon="2.44286">
        <ele>132</ele>
        <time>2021-08-23T16:22:43Z</time>
      </trkpt>
      <trkpt lat="47.03444" lon="2.44278">
        <ele>132</ele>
        <time>2021-08-23T16:22:43Z</time>
      </trkpt>
      <trkpt lat="47.03447" lon="2.44269">
        <ele>132</ele>
        <time>2021-08-23T16:22:43Z</time>
      </trkpt>
      <trkpt lat="47.03449" lon="2.44261">
        <ele>132</ele>
        <time>2021-08-23T16:22:43Z</time>
      </trkpt>
      <trkpt lat="47.03451" lon="2.44251">
        <ele>132</ele>
        <time>2021-08-23T16:22:43Z</time>
      </trkpt>
      <trkpt lat="47.03454" lon="2.44242">
        <ele>132</ele>
        <time>2021-08-23T16:22:43Z</time>
      </trkpt>
      <trkpt lat="47.03456" lon="2.44234">
        <ele>132</ele>
        <time>2021-08-23T16:22:43Z</time>
      </trkpt>
      <trkpt lat="47.03459" lon="2.44225">
        <ele>132</ele>
        <time>2021-08-23T16:22:43Z</time>
      </trkpt>
      <trkpt lat="47.03461" lon="2.44216">
        <ele>132</ele>
        <time>2021-08-23T16:22:43Z</time>
      </trkpt>
      <trkpt lat="47.03464" lon="2.44208">
        <ele>132</ele>
        <time>2021-08-23T16:22:43Z</time>
      </trkpt>
      <trkpt lat="47.03466" lon="2.442">
        <ele>132</ele>
        <time>2021-08-23T16:22:43Z</time>
      </trkpt>
      <trkpt lat="47.03469" lon="2.44191">
        <ele>132</ele>
        <time>2021-08-23T16:22:43Z</time>
      </trkpt>
      <trkpt lat="47.03471" lon="2.44183">
        <ele>132</ele>
        <time>2021-08-23T16:22:43Z</time>
      </trkpt>
      <trkpt lat="47.03473" lon="2.44174">
        <ele>132</ele>
        <time>2021-08-23T16:22:43Z</time>
      </trkpt>
      <trkpt lat="47.03475" lon="2.44166">
        <ele>132</ele>
        <time>2021-08-23T16:22:43Z</time>
      </trkpt>
      <trkpt lat="47.03478" lon="2.44157">
        <ele>132</ele>
        <time>2021-08-23T16:22:43Z</time>
      </trkpt>
      <trkpt lat="47.0348" lon="2.44149">
        <ele>132</ele>
        <time>2021-08-23T16:22:43Z</time>
      </trkpt>
      <trkpt lat="47.03483" lon="2.44141">
        <ele>132</ele>
        <time>2021-08-23T16:22:43Z</time>
      </trkpt>
      <trkpt lat="47.03486" lon="2.44133">
        <ele>131</ele>
        <time>2021-08-23T16:22:43Z</time>
      </trkpt>
      <trkpt lat="47.03487" lon="2.44125">
        <ele>131</ele>
        <time>2021-08-23T16:22:43Z</time>
      </trkpt>
      <trkpt lat="47.03489" lon="2.44117">
        <ele>131</ele>
        <time>2021-08-23T16:22:43Z</time>
      </trkpt>
      <trkpt lat="47.03491" lon="2.44109">
        <ele>131</ele>
        <time>2021-08-23T16:22:43Z</time>
      </trkpt>
      <trkpt lat="47.03493" lon="2.44101">
        <ele>131</ele>
        <time>2021-08-23T16:22:43Z</time>
      </trkpt>
      <trkpt lat="47.03496" lon="2.44094">
        <ele>131</ele>
        <time>2021-08-23T16:22:43Z</time>
      </trkpt>
      <trkpt lat="47.03499" lon="2.44085">
        <ele>131</ele>
        <time>2021-08-23T16:22:43Z</time>
      </trkpt>
      <trkpt lat="47.03502" lon="2.44075">
        <ele>131</ele>
        <time>2021-08-23T16:22:43Z</time>
      </trkpt>
      <trkpt lat="47.03505" lon="2.44068">
        <ele>131</ele>
        <time>2021-08-23T16:22:43Z</time>
      </trkpt>
      <trkpt lat="47.03507" lon="2.44058">
        <ele>131</ele>
        <time>2021-08-23T16:22:43Z</time>
      </trkpt>
      <trkpt lat="47.0351" lon="2.4405">
        <ele>131</ele>
        <time>2021-08-23T16:22:43Z</time>
      </trkpt>
      <trkpt lat="47.03512" lon="2.44041">
        <ele>131</ele>
        <time>2021-08-23T16:22:43Z</time>
      </trkpt>
      <trkpt lat="47.03514" lon="2.44033">
        <ele>131</ele>
        <time>2021-08-23T16:22:43Z</time>
      </trkpt>
      <trkpt lat="47.03517" lon="2.44022">
        <ele>131</ele>
        <time>2021-08-23T16:22:43Z</time>
      </trkpt>
      <trkpt lat="47.03519" lon="2.44012">
        <ele>131</ele>
        <time>2021-08-23T16:22:43Z</time>
      </trkpt>
      <trkpt lat="47.03519" lon="2.44004">
        <ele>131</ele>
        <time>2021-08-23T16:22:43Z</time>
      </trkpt>
      <trkpt lat="47.0352" lon="2.43995">
        <ele>131</ele>
        <time>2021-08-23T16:22:43Z</time>
      </trkpt>
      <trkpt lat="47.03521" lon="2.43986">
        <ele>131</ele>
        <time>2021-08-23T16:22:43Z</time>
      </trkpt>
      <trkpt lat="47.03523" lon="2.43977">
        <ele>131</ele>
        <time>2021-08-23T16:22:43Z</time>
      </trkpt>
      <trkpt lat="47.03526" lon="2.43968">
        <ele>131</ele>
        <time>2021-08-23T16:22:43Z</time>
      </trkpt>
      <trkpt lat="47.03529" lon="2.43959">
        <ele>131</ele>
        <time>2021-08-23T16:22:43Z</time>
      </trkpt>
      <trkpt lat="47.03532" lon="2.43949">
        <ele>131</ele>
        <time>2021-08-23T16:22:43Z</time>
      </trkpt>
      <trkpt lat="47.03534" lon="2.4394">
        <ele>131</ele>
        <time>2021-08-23T16:22:43Z</time>
      </trkpt>
      <trkpt lat="47.03537" lon="2.43931">
        <ele>131</ele>
        <time>2021-08-23T16:22:43Z</time>
      </trkpt>
      <trkpt lat="47.03539" lon="2.43922">
        <ele>131</ele>
        <time>2021-08-23T16:22:43Z</time>
      </trkpt>
      <trkpt lat="47.03542" lon="2.43912">
        <ele>131</ele>
        <time>2021-08-23T16:22:43Z</time>
      </trkpt>
      <trkpt lat="47.03544" lon="2.43903">
        <ele>131</ele>
        <time>2021-08-23T16:22:43Z</time>
      </trkpt>
      <trkpt lat="47.03546" lon="2.43894">
        <ele>131</ele>
        <time>2021-08-23T16:22:43Z</time>
      </trkpt>
      <trkpt lat="47.03549" lon="2.43885">
        <ele>131</ele>
        <time>2021-08-23T16:22:43Z</time>
      </trkpt>
      <trkpt lat="47.03561" lon="2.43839">
        <ele>131</ele>
        <time>2021-08-23T16:22:43Z</time>
      </trkpt>
      <trkpt lat="47.03575" lon="2.43795">
        <ele>131</ele>
        <time>2021-08-23T16:22:43Z</time>
      </trkpt>
      <trkpt lat="47.0359" lon="2.43749">
        <ele>131</ele>
        <time>2021-08-23T16:22:43Z</time>
      </trkpt>
      <trkpt lat="47.03604" lon="2.43702">
        <ele>131</ele>
        <time>2021-08-23T16:22:43Z</time>
      </trkpt>
      <trkpt lat="47.03615" lon="2.43657">
        <ele>134</ele>
        <time>2021-08-23T16:22:43Z</time>
      </trkpt>
      <trkpt lat="47.03625" lon="2.4362">
        <ele>135</ele>
        <time>2021-08-23T16:22:43Z</time>
      </trkpt>
      <trkpt lat="47.03629" lon="2.4361">
        <ele>135</ele>
        <time>2021-08-23T16:22:43Z</time>
      </trkpt>
      <trkpt lat="47.03643" lon="2.43565">
        <ele>134</ele>
        <time>2021-08-23T16:22:43Z</time>
      </trkpt>
      <trkpt lat="47.03647" lon="2.43515">
        <ele>134</ele>
        <time>2021-08-23T16:22:43Z</time>
      </trkpt>
      <trkpt lat="47.03669" lon="2.43477">
        <ele>133</ele>
        <time>2021-08-23T16:22:43Z</time>
      </trkpt>
      <trkpt lat="47.03683" lon="2.43431">
        <ele>131</ele>
        <time>2021-08-23T16:22:43Z</time>
      </trkpt>
      <trkpt lat="47.03688" lon="2.43386">
        <ele>132</ele>
        <time>2021-08-23T16:22:43Z</time>
      </trkpt>
      <trkpt lat="47.03694" lon="2.43355">
        <ele>133</ele>
        <time>2021-08-23T16:22:43Z</time>
      </trkpt>
      <trkpt lat="47.03696" lon="2.43347">
        <ele>132</ele>
        <time>2021-08-23T16:22:43Z</time>
      </trkpt>
      <trkpt lat="47.03698" lon="2.43339">
        <ele>132</ele>
        <time>2021-08-23T16:22:43Z</time>
      </trkpt>
      <trkpt lat="47.03701" lon="2.43331">
        <ele>132</ele>
        <time>2021-08-23T16:22:43Z</time>
      </trkpt>
      <trkpt lat="47.03703" lon="2.43322">
        <ele>132</ele>
        <time>2021-08-23T16:22:43Z</time>
      </trkpt>
      <trkpt lat="47.03706" lon="2.43315">
        <ele>131</ele>
        <time>2021-08-23T16:22:43Z</time>
      </trkpt>
      <trkpt lat="47.03709" lon="2.43305">
        <ele>131</ele>
        <time>2021-08-23T16:22:43Z</time>
      </trkpt>
      <trkpt lat="47.03712" lon="2.43296">
        <ele>131</ele>
        <time>2021-08-23T16:22:43Z</time>
      </trkpt>
      <trkpt lat="47.03714" lon="2.43288">
        <ele>131</ele>
        <time>2021-08-23T16:22:43Z</time>
      </trkpt>
      <trkpt lat="47.03716" lon="2.43279">
        <ele>131</ele>
        <time>2021-08-23T16:22:43Z</time>
      </trkpt>
      <trkpt lat="47.03719" lon="2.43271">
        <ele>130</ele>
        <time>2021-08-23T16:22:43Z</time>
      </trkpt>
      <trkpt lat="47.03721" lon="2.43263">
        <ele>130</ele>
        <time>2021-08-23T16:22:43Z</time>
      </trkpt>
      <trkpt lat="47.03725" lon="2.43253">
        <ele>130</ele>
        <time>2021-08-23T16:22:43Z</time>
      </trkpt>
      <trkpt lat="47.03727" lon="2.43245">
        <ele>129</ele>
        <time>2021-08-23T16:22:43Z</time>
      </trkpt>
      <trkpt lat="47.03728" lon="2.43237">
        <ele>129</ele>
        <time>2021-08-23T16:22:43Z</time>
      </trkpt>
      <trkpt lat="47.0373" lon="2.43228">
        <ele>129</ele>
        <time>2021-08-23T16:22:43Z</time>
      </trkpt>
      <trkpt lat="47.03733" lon="2.43219">
        <ele>129</ele>
        <time>2021-08-23T16:22:43Z</time>
      </trkpt>
      <trkpt lat="47.03736" lon="2.43209">
        <ele>129</ele>
        <time>2021-08-23T16:22:43Z</time>
      </trkpt>
      <trkpt lat="47.03738" lon="2.43201">
        <ele>129</ele>
        <time>2021-08-23T16:22:43Z</time>
      </trkpt>
      <trkpt lat="47.0374" lon="2.43191">
        <ele>129</ele>
        <time>2021-08-23T16:22:43Z</time>
      </trkpt>
      <trkpt lat="47.03743" lon="2.43182">
        <ele>129</ele>
        <time>2021-08-23T16:22:43Z</time>
      </trkpt>
      <trkpt lat="47.03745" lon="2.43173">
        <ele>129</ele>
        <time>2021-08-23T16:22:43Z</time>
      </trkpt>
      <trkpt lat="47.03749" lon="2.43163">
        <ele>129</ele>
        <time>2021-08-23T16:22:43Z</time>
      </trkpt>
      <trkpt lat="47.0375" lon="2.43153">
        <ele>129</ele>
        <time>2021-08-23T16:22:43Z</time>
      </trkpt>
      <trkpt lat="47.03752" lon="2.43144">
        <ele>129</ele>
        <time>2021-08-23T16:22:43Z</time>
      </trkpt>
      <trkpt lat="47.03754" lon="2.43135">
        <ele>130</ele>
        <time>2021-08-23T16:22:43Z</time>
      </trkpt>
      <trkpt lat="47.03758" lon="2.43126">
        <ele>130</ele>
        <time>2021-08-23T16:22:43Z</time>
      </trkpt>
      <trkpt lat="47.03761" lon="2.43117">
        <ele>131</ele>
        <time>2021-08-23T16:22:43Z</time>
      </trkpt>
      <trkpt lat="47.03764" lon="2.43107">
        <ele>131</ele>
        <time>2021-08-23T16:22:43Z</time>
      </trkpt>
      <trkpt lat="47.03767" lon="2.43097">
        <ele>131</ele>
        <time>2021-08-23T16:22:43Z</time>
      </trkpt>
      <trkpt lat="47.03771" lon="2.43089">
        <ele>131</ele>
        <time>2021-08-23T16:22:43Z</time>
      </trkpt>
      <trkpt lat="47.03772" lon="2.43081">
        <ele>131</ele>
        <time>2021-08-23T16:22:43Z</time>
      </trkpt>
      <trkpt lat="47.03775" lon="2.43071">
        <ele>131</ele>
        <time>2021-08-23T16:22:43Z</time>
      </trkpt>
      <trkpt lat="47.03778" lon="2.43062">
        <ele>131</ele>
        <time>2021-08-23T16:22:43Z</time>
      </trkpt>
      <trkpt lat="47.03781" lon="2.43053">
        <ele>130</ele>
        <time>2021-08-23T16:22:43Z</time>
      </trkpt>
      <trkpt lat="47.03786" lon="2.43046">
        <ele>130</ele>
        <time>2021-08-23T16:22:43Z</time>
      </trkpt>
      <trkpt lat="47.0379" lon="2.43039">
        <ele>130</ele>
        <time>2021-08-23T16:22:43Z</time>
      </trkpt>
      <trkpt lat="47.03795" lon="2.43032">
        <ele>130</ele>
        <time>2021-08-23T16:22:43Z</time>
      </trkpt>
      <trkpt lat="47.03798" lon="2.43023">
        <ele>130</ele>
        <time>2021-08-23T16:22:43Z</time>
      </trkpt>
      <trkpt lat="47.03799" lon="2.43013">
        <ele>130</ele>
        <time>2021-08-23T16:22:43Z</time>
      </trkpt>
      <trkpt lat="47.03802" lon="2.43005">
        <ele>130</ele>
        <time>2021-08-23T16:22:43Z</time>
      </trkpt>
      <trkpt lat="47.03804" lon="2.42996">
        <ele>130</ele>
        <time>2021-08-23T16:22:43Z</time>
      </trkpt>
      <trkpt lat="47.03806" lon="2.42987">
        <ele>130</ele>
        <time>2021-08-23T16:22:43Z</time>
      </trkpt>
      <trkpt lat="47.03809" lon="2.42979">
        <ele>130</ele>
        <time>2021-08-23T16:22:43Z</time>
      </trkpt>
      <trkpt lat="47.03813" lon="2.42971">
        <ele>129</ele>
        <time>2021-08-23T16:22:43Z</time>
      </trkpt>
      <trkpt lat="47.03815" lon="2.42963">
        <ele>129</ele>
        <time>2021-08-23T16:22:43Z</time>
      </trkpt>
      <trkpt lat="47.03816" lon="2.42956">
        <ele>129</ele>
        <time>2021-08-23T16:22:43Z</time>
      </trkpt>
      <trkpt lat="47.03818" lon="2.42949">
        <ele>129</ele>
        <time>2021-08-23T16:22:43Z</time>
      </trkpt>
      <trkpt lat="47.0382" lon="2.42941">
        <ele>129</ele>
        <time>2021-08-23T16:22:43Z</time>
      </trkpt>
      <trkpt lat="47.03823" lon="2.42931">
        <ele>129</ele>
        <time>2021-08-23T16:22:43Z</time>
      </trkpt>
      <trkpt lat="47.03825" lon="2.42923">
        <ele>129</ele>
        <time>2021-08-23T16:22:43Z</time>
      </trkpt>
      <trkpt lat="47.03828" lon="2.42914">
        <ele>129</ele>
        <time>2021-08-23T16:22:43Z</time>
      </trkpt>
      <trkpt lat="47.0383" lon="2.42905">
        <ele>129</ele>
        <time>2021-08-23T16:22:43Z</time>
      </trkpt>
      <trkpt lat="47.03833" lon="2.42897">
        <ele>129</ele>
        <time>2021-08-23T16:22:43Z</time>
      </trkpt>
      <trkpt lat="47.03835" lon="2.42888">
        <ele>130</ele>
        <time>2021-08-23T16:22:43Z</time>
      </trkpt>
      <trkpt lat="47.03838" lon="2.42879">
        <ele>130</ele>
        <time>2021-08-23T16:22:43Z</time>
      </trkpt>
      <trkpt lat="47.03841" lon="2.42871">
        <ele>130</ele>
        <time>2021-08-23T16:22:43Z</time>
      </trkpt>
      <trkpt lat="47.03844" lon="2.42862">
        <ele>130</ele>
        <time>2021-08-23T16:22:43Z</time>
      </trkpt>
      <trkpt lat="47.03846" lon="2.42853">
        <ele>131</ele>
        <time>2021-08-23T16:22:43Z</time>
      </trkpt>
      <trkpt lat="47.03848" lon="2.42845">
        <ele>131</ele>
        <time>2021-08-23T16:22:43Z</time>
      </trkpt>
      <trkpt lat="47.03851" lon="2.42836">
        <ele>131</ele>
        <time>2021-08-23T16:22:43Z</time>
      </trkpt>
      <trkpt lat="47.03854" lon="2.42827">
        <ele>131</ele>
        <time>2021-08-23T16:22:43Z</time>
      </trkpt>
      <trkpt lat="47.03856" lon="2.42819">
        <ele>131</ele>
        <time>2021-08-23T16:22:43Z</time>
      </trkpt>
      <trkpt lat="47.03859" lon="2.4281">
        <ele>131</ele>
        <time>2021-08-23T16:22:43Z</time>
      </trkpt>
      <trkpt lat="47.03871" lon="2.42765">
        <ele>131</ele>
        <time>2021-08-23T16:22:43Z</time>
      </trkpt>
      <trkpt lat="47.03883" lon="2.42721">
        <ele>131</ele>
        <time>2021-08-23T16:22:43Z</time>
      </trkpt>
      <trkpt lat="47.03896" lon="2.42676">
        <ele>131</ele>
        <time>2021-08-23T16:22:43Z</time>
      </trkpt>
      <trkpt lat="47.03901" lon="2.4263">
        <ele>132</ele>
        <time>2021-08-23T16:22:43Z</time>
      </trkpt>
      <trkpt lat="47.03913" lon="2.42585">
        <ele>133</ele>
        <time>2021-08-23T16:22:43Z</time>
      </trkpt>
      <trkpt lat="47.03924" lon="2.42552">
        <ele>132</ele>
        <time>2021-08-23T16:22:43Z</time>
      </trkpt>
      <trkpt lat="47.03929" lon="2.42545">
        <ele>131</ele>
        <time>2021-08-23T16:22:43Z</time>
      </trkpt>
      <trkpt lat="47.03948" lon="2.42505">
        <ele>129</ele>
        <time>2021-08-23T16:22:43Z</time>
      </trkpt>
      <trkpt lat="47.03968" lon="2.42466">
        <ele>129</ele>
        <time>2021-08-23T16:22:43Z</time>
      </trkpt>
      <trkpt lat="47.03987" lon="2.42425">
        <ele>130</ele>
        <time>2021-08-23T16:22:43Z</time>
      </trkpt>
      <trkpt lat="47.04004" lon="2.42384">
        <ele>130</ele>
        <time>2021-08-23T16:22:43Z</time>
      </trkpt>
      <trkpt lat="47.04024" lon="2.42345">
        <ele>131</ele>
        <time>2021-08-23T16:22:43Z</time>
      </trkpt>
      <trkpt lat="47.04039" lon="2.42312">
        <ele>132</ele>
        <time>2021-08-23T16:22:43Z</time>
      </trkpt>
      <trkpt lat="47.04043" lon="2.42305">
        <ele>131</ele>
        <time>2021-08-23T16:22:43Z</time>
      </trkpt>
      <trkpt lat="47.04061" lon="2.42264">
        <ele>132</ele>
        <time>2021-08-23T16:22:43Z</time>
      </trkpt>
      <trkpt lat="47.0408" lon="2.42224">
        <ele>134</ele>
        <time>2021-08-23T16:22:43Z</time>
      </trkpt>
      <trkpt lat="47.041" lon="2.42185">
        <ele>135</ele>
        <time>2021-08-23T16:22:43Z</time>
      </trkpt>
      <trkpt lat="47.04117" lon="2.42145">
        <ele>135</ele>
        <time>2021-08-23T16:22:43Z</time>
      </trkpt>
      <trkpt lat="47.04137" lon="2.42105">
        <ele>134</ele>
        <time>2021-08-23T16:22:43Z</time>
      </trkpt>
      <trkpt lat="47.04153" lon="2.42077">
        <ele>135</ele>
        <time>2021-08-23T16:22:43Z</time>
      </trkpt>
      <trkpt lat="47.04157" lon="2.42069">
        <ele>135</ele>
        <time>2021-08-23T16:22:43Z</time>
      </trkpt>
      <trkpt lat="47.04164" lon="2.42054">
        <ele>134</ele>
        <time>2021-08-23T16:22:43Z</time>
      </trkpt>
      <trkpt lat="47.04167" lon="2.42046">
        <ele>134</ele>
        <time>2021-08-23T16:22:43Z</time>
      </trkpt>
      <trkpt lat="47.04171" lon="2.42038">
        <ele>134</ele>
        <time>2021-08-23T16:22:43Z</time>
      </trkpt>
      <trkpt lat="47.04174" lon="2.4203">
        <ele>134</ele>
        <time>2021-08-23T16:22:43Z</time>
      </trkpt>
      <trkpt lat="47.04178" lon="2.42023">
        <ele>134</ele>
        <time>2021-08-23T16:22:43Z</time>
      </trkpt>
      <trkpt lat="47.04181" lon="2.42014">
        <ele>134</ele>
        <time>2021-08-23T16:22:43Z</time>
      </trkpt>
      <trkpt lat="47.04185" lon="2.42006">
        <ele>134</ele>
        <time>2021-08-23T16:22:43Z</time>
      </trkpt>
      <trkpt lat="47.04188" lon="2.41999">
        <ele>134</ele>
        <time>2021-08-23T16:22:43Z</time>
      </trkpt>
      <trkpt lat="47.04192" lon="2.41991">
        <ele>134</ele>
        <time>2021-08-23T16:22:43Z</time>
      </trkpt>
      <trkpt lat="47.04195" lon="2.41984">
        <ele>134</ele>
        <time>2021-08-23T16:22:43Z</time>
      </trkpt>
      <trkpt lat="47.04198" lon="2.41979">
        <ele>134</ele>
        <time>2021-08-23T16:22:43Z</time>
      </trkpt>
      <trkpt lat="47.04202" lon="2.41973">
        <ele>134</ele>
        <time>2021-08-23T16:22:43Z</time>
      </trkpt>
      <trkpt lat="47.04205" lon="2.41966">
        <ele>134</ele>
        <time>2021-08-23T16:22:43Z</time>
      </trkpt>
      <trkpt lat="47.04208" lon="2.41957">
        <ele>134</ele>
        <time>2021-08-23T16:22:43Z</time>
      </trkpt>
      <trkpt lat="47.04212" lon="2.4195">
        <ele>134</ele>
        <time>2021-08-23T16:22:43Z</time>
      </trkpt>
      <trkpt lat="47.04215" lon="2.41942">
        <ele>134</ele>
        <time>2021-08-23T16:22:43Z</time>
      </trkpt>
      <trkpt lat="47.04219" lon="2.41934">
        <ele>134</ele>
        <time>2021-08-23T16:22:43Z</time>
      </trkpt>
      <trkpt lat="47.04223" lon="2.41926">
        <ele>134</ele>
        <time>2021-08-23T16:22:43Z</time>
      </trkpt>
      <trkpt lat="47.04228" lon="2.41919">
        <ele>134</ele>
        <time>2021-08-23T16:22:43Z</time>
      </trkpt>
      <trkpt lat="47.04232" lon="2.41912">
        <ele>134</ele>
        <time>2021-08-23T16:22:43Z</time>
      </trkpt>
      <trkpt lat="47.04236" lon="2.41903">
        <ele>134</ele>
        <time>2021-08-23T16:22:43Z</time>
      </trkpt>
      <trkpt lat="47.04239" lon="2.41894">
        <ele>134</ele>
        <time>2021-08-23T16:22:43Z</time>
      </trkpt>
      <trkpt lat="47.04243" lon="2.41886">
        <ele>134</ele>
        <time>2021-08-23T16:22:43Z</time>
      </trkpt>
      <trkpt lat="47.04247" lon="2.41878">
        <ele>134</ele>
        <time>2021-08-23T16:22:43Z</time>
      </trkpt>
      <trkpt lat="47.04252" lon="2.41873">
        <ele>134</ele>
        <time>2021-08-23T16:22:43Z</time>
      </trkpt>
      <trkpt lat="47.04259" lon="2.4187">
        <ele>134</ele>
        <time>2021-08-23T16:22:43Z</time>
      </trkpt>
      <trkpt lat="47.04265" lon="2.41867">
        <ele>133</ele>
        <time>2021-08-23T16:22:43Z</time>
      </trkpt>
      <trkpt lat="47.04271" lon="2.41863">
        <ele>133</ele>
        <time>2021-08-23T16:22:43Z</time>
      </trkpt>
      <trkpt lat="47.04276" lon="2.41857">
        <ele>133</ele>
        <time>2021-08-23T16:22:43Z</time>
      </trkpt>
      <trkpt lat="47.04281" lon="2.41848">
        <ele>133</ele>
        <time>2021-08-23T16:22:43Z</time>
      </trkpt>
      <trkpt lat="47.04285" lon="2.41841">
        <ele>133</ele>
        <time>2021-08-23T16:22:43Z</time>
      </trkpt>
      <trkpt lat="47.04288" lon="2.41834">
        <ele>133</ele>
        <time>2021-08-23T16:22:43Z</time>
      </trkpt>
      <trkpt lat="47.0429" lon="2.4182">
        <ele>133</ele>
        <time>2021-08-23T16:22:43Z</time>
      </trkpt>
      <trkpt lat="47.04286" lon="2.41812">
        <ele>133</ele>
        <time>2021-08-23T16:22:43Z</time>
      </trkpt>
      <trkpt lat="47.04285" lon="2.41803">
        <ele>133</ele>
        <time>2021-08-23T16:22:43Z</time>
      </trkpt>
      <trkpt lat="47.04285" lon="2.41795">
        <ele>133</ele>
        <time>2021-08-23T16:22:43Z</time>
      </trkpt>
      <trkpt lat="47.04285" lon="2.41787">
        <ele>133</ele>
        <time>2021-08-23T16:22:43Z</time>
      </trkpt>
      <trkpt lat="47.04287" lon="2.41781">
        <ele>133</ele>
        <time>2021-08-23T16:22:43Z</time>
      </trkpt>
      <trkpt lat="47.0429" lon="2.41773">
        <ele>133</ele>
        <time>2021-08-23T16:22:43Z</time>
      </trkpt>
      <trkpt lat="47.04293" lon="2.41764">
        <ele>134</ele>
        <time>2021-08-23T16:22:43Z</time>
      </trkpt>
      <trkpt lat="47.04296" lon="2.41757">
        <ele>134</ele>
        <time>2021-08-23T16:22:43Z</time>
      </trkpt>
      <trkpt lat="47.043" lon="2.4175">
        <ele>134</ele>
        <time>2021-08-23T16:22:43Z</time>
      </trkpt>
      <trkpt lat="47.04303" lon="2.41743">
        <ele>134</ele>
        <time>2021-08-23T16:22:43Z</time>
      </trkpt>
      <trkpt lat="47.04307" lon="2.41735">
        <ele>135</ele>
        <time>2021-08-23T16:22:43Z</time>
      </trkpt>
      <trkpt lat="47.0431" lon="2.41728">
        <ele>135</ele>
        <time>2021-08-23T16:22:43Z</time>
      </trkpt>
      <trkpt lat="47.04312" lon="2.41719">
        <ele>135</ele>
        <time>2021-08-23T16:22:43Z</time>
      </trkpt>
      <trkpt lat="47.04316" lon="2.41712">
        <ele>135</ele>
        <time>2021-08-23T16:22:43Z</time>
      </trkpt>
      <trkpt lat="47.0432" lon="2.41704">
        <ele>136</ele>
        <time>2021-08-23T16:22:43Z</time>
      </trkpt>
      <trkpt lat="47.04324" lon="2.41696">
        <ele>136</ele>
        <time>2021-08-23T16:22:43Z</time>
      </trkpt>
      <trkpt lat="47.04328" lon="2.41689">
        <ele>136</ele>
        <time>2021-08-23T16:22:43Z</time>
      </trkpt>
      <trkpt lat="47.04332" lon="2.41681">
        <ele>135</ele>
        <time>2021-08-23T16:22:43Z</time>
      </trkpt>
      <trkpt lat="47.04337" lon="2.41676">
        <ele>135</ele>
        <time>2021-08-23T16:22:43Z</time>
      </trkpt>
      <trkpt lat="47.04343" lon="2.41671">
        <ele>135</ele>
        <time>2021-08-23T16:22:43Z</time>
      </trkpt>
      <trkpt lat="47.04347" lon="2.41664">
        <ele>135</ele>
        <time>2021-08-23T16:22:43Z</time>
      </trkpt>
      <trkpt lat="47.04352" lon="2.41656">
        <ele>135</ele>
        <time>2021-08-23T16:22:43Z</time>
      </trkpt>
      <trkpt lat="47.04356" lon="2.41647">
        <ele>135</ele>
        <time>2021-08-23T16:22:43Z</time>
      </trkpt>
      <trkpt lat="47.04357" lon="2.41638">
        <ele>134</ele>
        <time>2021-08-23T16:22:43Z</time>
      </trkpt>
      <trkpt lat="47.04358" lon="2.41628">
        <ele>134</ele>
        <time>2021-08-23T16:22:43Z</time>
      </trkpt>
      <trkpt lat="47.04359" lon="2.41621">
        <ele>134</ele>
        <time>2021-08-23T16:22:43Z</time>
      </trkpt>
      <trkpt lat="47.04361" lon="2.41612">
        <ele>134</ele>
        <time>2021-08-23T16:22:43Z</time>
      </trkpt>
      <trkpt lat="47.04363" lon="2.41604">
        <ele>134</ele>
        <time>2021-08-23T16:22:43Z</time>
      </trkpt>
      <trkpt lat="47.04377" lon="2.41563">
        <ele>134</ele>
        <time>2021-08-23T16:22:43Z</time>
      </trkpt>
      <trkpt lat="47.04397" lon="2.41529">
        <ele>135</ele>
        <time>2021-08-23T16:22:43Z</time>
      </trkpt>
      <trkpt lat="47.04411" lon="2.41485">
        <ele>134</ele>
        <time>2021-08-23T16:22:43Z</time>
      </trkpt>
      <trkpt lat="47.04422" lon="2.41439">
        <ele>132</ele>
        <time>2021-08-23T16:22:43Z</time>
      </trkpt>
      <trkpt lat="47.04432" lon="2.41393">
        <ele>132</ele>
        <time>2021-08-23T16:22:43Z</time>
      </trkpt>
      <trkpt lat="47.04441" lon="2.41356">
        <ele>132</ele>
        <time>2021-08-23T16:22:43Z</time>
      </trkpt>
      <trkpt lat="47.04442" lon="2.41347">
        <ele>132</ele>
        <time>2021-08-23T16:22:43Z</time>
      </trkpt>
      <trkpt lat="47.04453" lon="2.41304">
        <ele>133</ele>
        <time>2021-08-23T16:22:43Z</time>
      </trkpt>
      <trkpt lat="47.04463" lon="2.4126">
        <ele>132</ele>
        <time>2021-08-23T16:22:43Z</time>
      </trkpt>
      <trkpt lat="47.04472" lon="2.41215">
        <ele>131</ele>
        <time>2021-08-23T16:22:43Z</time>
      </trkpt>
      <trkpt lat="47.0448" lon="2.41171">
        <ele>132</ele>
        <time>2021-08-23T16:22:43Z</time>
      </trkpt>
      <trkpt lat="47.0448" lon="2.41128">
        <ele>132</ele>
        <time>2021-08-23T16:22:43Z</time>
      </trkpt>
      <trkpt lat="47.04489" lon="2.41093">
        <ele>132</ele>
        <time>2021-08-23T16:22:43Z</time>
      </trkpt>
      <trkpt lat="47.04491" lon="2.41085">
        <ele>132</ele>
        <time>2021-08-23T16:22:43Z</time>
      </trkpt>
      <trkpt lat="47.04493" lon="2.4107">
        <ele>131</ele>
        <time>2021-08-23T16:22:43Z</time>
      </trkpt>
      <trkpt lat="47.04495" lon="2.41063">
        <ele>131</ele>
        <time>2021-08-23T16:22:43Z</time>
      </trkpt>
      <trkpt lat="47.04497" lon="2.41058">
        <ele>131</ele>
        <time>2021-08-23T16:22:43Z</time>
      </trkpt>
      <trkpt lat="47.04498" lon="2.41053">
        <ele>131</ele>
        <time>2021-08-23T16:22:43Z</time>
      </trkpt>
      <trkpt lat="47.04499" lon="2.4105">
        <ele>131</ele>
        <time>2021-08-23T16:22:43Z</time>
      </trkpt>
      <trkpt lat="47.045" lon="2.41047">
        <ele>131</ele>
        <time>2021-08-23T16:22:43Z</time>
      </trkpt>
      <trkpt lat="47.04501" lon="2.41043">
        <ele>131</ele>
        <time>2021-08-23T16:22:43Z</time>
      </trkpt>
      <trkpt lat="47.04502" lon="2.41039">
        <ele>131</ele>
        <time>2021-08-23T16:22:43Z</time>
      </trkpt>
      <trkpt lat="47.04503" lon="2.41034">
        <ele>131</ele>
        <time>2021-08-23T16:22:43Z</time>
      </trkpt>
      <trkpt lat="47.04505" lon="2.41029">
        <ele>131</ele>
        <time>2021-08-23T16:22:43Z</time>
      </trkpt>
      <trkpt lat="47.04508" lon="2.41022">
        <ele>131</ele>
        <time>2021-08-23T16:22:43Z</time>
      </trkpt>
      <trkpt lat="47.04511" lon="2.41016">
        <ele>131</ele>
        <time>2021-08-23T16:22:43Z</time>
      </trkpt>
      <trkpt lat="47.04514" lon="2.41011">
        <ele>131</ele>
        <time>2021-08-23T16:22:43Z</time>
      </trkpt>
      <trkpt lat="47.04517" lon="2.41004">
        <ele>131</ele>
        <time>2021-08-23T16:22:43Z</time>
      </trkpt>
      <trkpt lat="47.04519" lon="2.40997">
        <ele>131</ele>
        <time>2021-08-23T16:22:43Z</time>
      </trkpt>
      <trkpt lat="47.0452" lon="2.40989">
        <ele>131</ele>
        <time>2021-08-23T16:22:43Z</time>
      </trkpt>
      <trkpt lat="47.0452" lon="2.40981">
        <ele>131</ele>
        <time>2021-08-23T16:22:43Z</time>
      </trkpt>
      <trkpt lat="47.04522" lon="2.40973">
        <ele>132</ele>
        <time>2021-08-23T16:22:43Z</time>
      </trkpt>
      <trkpt lat="47.04523" lon="2.40965">
        <ele>132</ele>
        <time>2021-08-23T16:22:43Z</time>
      </trkpt>
      <trkpt lat="47.04526" lon="2.40957">
        <ele>132</ele>
        <time>2021-08-23T16:22:43Z</time>
      </trkpt>
      <trkpt lat="47.0453" lon="2.4095">
        <ele>132</ele>
        <time>2021-08-23T16:22:43Z</time>
      </trkpt>
      <trkpt lat="47.04533" lon="2.40942">
        <ele>132</ele>
        <time>2021-08-23T16:22:43Z</time>
      </trkpt>
      <trkpt lat="47.04535" lon="2.40933">
        <ele>132</ele>
        <time>2021-08-23T16:22:43Z</time>
      </trkpt>
      <trkpt lat="47.04537" lon="2.40925">
        <ele>132</ele>
        <time>2021-08-23T16:22:43Z</time>
      </trkpt>
      <trkpt lat="47.0454" lon="2.40916">
        <ele>132</ele>
        <time>2021-08-23T16:22:43Z</time>
      </trkpt>
      <trkpt lat="47.04543" lon="2.40908">
        <ele>132</ele>
        <time>2021-08-23T16:22:43Z</time>
      </trkpt>
      <trkpt lat="47.04547" lon="2.409">
        <ele>132</ele>
        <time>2021-08-23T16:22:43Z</time>
      </trkpt>
      <trkpt lat="47.0455" lon="2.40892">
        <ele>132</ele>
        <time>2021-08-23T16:22:43Z</time>
      </trkpt>
      <trkpt lat="47.04553" lon="2.40883">
        <ele>132</ele>
        <time>2021-08-23T16:22:43Z</time>
      </trkpt>
      <trkpt lat="47.04555" lon="2.40875">
        <ele>132</ele>
        <time>2021-08-23T16:22:43Z</time>
      </trkpt>
      <trkpt lat="47.04556" lon="2.40865">
        <ele>131</ele>
        <time>2021-08-23T16:22:43Z</time>
      </trkpt>
      <trkpt lat="47.04556" lon="2.40856">
        <ele>130</ele>
        <time>2021-08-23T16:22:43Z</time>
      </trkpt>
      <trkpt lat="47.04556" lon="2.40846">
        <ele>128</ele>
        <time>2021-08-23T16:22:43Z</time>
      </trkpt>
      <trkpt lat="47.04554" lon="2.40837">
        <ele>127</ele>
        <time>2021-08-23T16:22:43Z</time>
      </trkpt>
      <trkpt lat="47.0455" lon="2.40829">
        <ele>127</ele>
        <time>2021-08-23T16:22:43Z</time>
      </trkpt>
      <trkpt lat="47.04547" lon="2.40822">
        <ele>128</ele>
        <time>2021-08-23T16:22:43Z</time>
      </trkpt>
      <trkpt lat="47.04543" lon="2.40814">
        <ele>129</ele>
        <time>2021-08-23T16:22:43Z</time>
      </trkpt>
      <trkpt lat="47.04539" lon="2.40807">
        <ele>130</ele>
        <time>2021-08-23T16:22:43Z</time>
      </trkpt>
      <trkpt lat="47.04535" lon="2.408">
        <ele>131</ele>
        <time>2021-08-23T16:22:43Z</time>
      </trkpt>
      <trkpt lat="47.04531" lon="2.40792">
        <ele>133</ele>
        <time>2021-08-23T16:22:43Z</time>
      </trkpt>
      <trkpt lat="47.04527" lon="2.40784">
        <ele>134</ele>
        <time>2021-08-23T16:22:43Z</time>
      </trkpt>
      <trkpt lat="47.04523" lon="2.40776">
        <ele>134</ele>
        <time>2021-08-23T16:22:43Z</time>
      </trkpt>
      <trkpt lat="47.04519" lon="2.40767">
        <ele>134</ele>
        <time>2021-08-23T16:22:43Z</time>
      </trkpt>
      <trkpt lat="47.04516" lon="2.40759">
        <ele>135</ele>
        <time>2021-08-23T16:22:43Z</time>
      </trkpt>
      <trkpt lat="47.04512" lon="2.4075">
        <ele>135</ele>
        <time>2021-08-23T16:22:43Z</time>
      </trkpt>
      <trkpt lat="47.04508" lon="2.40741">
        <ele>135</ele>
        <time>2021-08-23T16:22:43Z</time>
      </trkpt>
      <trkpt lat="47.04503" lon="2.40732">
        <ele>135</ele>
        <time>2021-08-23T16:22:43Z</time>
      </trkpt>
      <trkpt lat="47.04499" lon="2.40725">
        <ele>135</ele>
        <time>2021-08-23T16:22:43Z</time>
      </trkpt>
      <trkpt lat="47.04495" lon="2.40716">
        <ele>135</ele>
        <time>2021-08-23T16:22:43Z</time>
      </trkpt>
      <trkpt lat="47.04493" lon="2.4071">
        <ele>134</ele>
        <time>2021-08-23T16:22:43Z</time>
      </trkpt>
      <trkpt lat="47.04488" lon="2.40701">
        <ele>134</ele>
        <time>2021-08-23T16:22:43Z</time>
      </trkpt>
      <trkpt lat="47.04485" lon="2.40694">
        <ele>134</ele>
        <time>2021-08-23T16:22:43Z</time>
      </trkpt>
      <trkpt lat="47.04481" lon="2.40686">
        <ele>134</ele>
        <time>2021-08-23T16:22:43Z</time>
      </trkpt>
      <trkpt lat="47.04477" lon="2.40677">
        <ele>134</ele>
        <time>2021-08-23T16:22:43Z</time>
      </trkpt>
      <trkpt lat="47.04471" lon="2.40671">
        <ele>134</ele>
        <time>2021-08-23T16:22:43Z</time>
      </trkpt>
      <trkpt lat="47.04465" lon="2.40668">
        <ele>132</ele>
        <time>2021-08-23T16:22:43Z</time>
      </trkpt>
      <trkpt lat="47.04458" lon="2.40669">
        <ele>130</ele>
        <time>2021-08-23T16:22:43Z</time>
      </trkpt>
      <trkpt lat="47.04452" lon="2.40671">
        <ele>129</ele>
        <time>2021-08-23T16:22:43Z</time>
      </trkpt>
      <trkpt lat="47.04446" lon="2.40676">
        <ele>128</ele>
        <time>2021-08-23T16:22:43Z</time>
      </trkpt>
      <trkpt lat="47.0444" lon="2.40681">
        <ele>128</ele>
        <time>2021-08-23T16:22:43Z</time>
      </trkpt>
      <trkpt lat="47.04435" lon="2.40686">
        <ele>128</ele>
        <time>2021-08-23T16:22:43Z</time>
      </trkpt>
      <trkpt lat="47.04429" lon="2.4069">
        <ele>128</ele>
        <time>2021-08-23T16:22:43Z</time>
      </trkpt>
      <trkpt lat="47.04404" lon="2.40716">
        <ele>129</ele>
        <time>2021-08-23T16:22:43Z</time>
      </trkpt>
      <trkpt lat="47.04377" lon="2.40737">
        <ele>129</ele>
        <time>2021-08-23T16:22:43Z</time>
      </trkpt>
      <trkpt lat="47.04345" lon="2.40741">
        <ele>130</ele>
        <time>2021-08-23T16:22:43Z</time>
      </trkpt>
      <trkpt lat="47.04313" lon="2.40739">
        <ele>129</ele>
        <time>2021-08-23T16:22:43Z</time>
      </trkpt>
      <trkpt lat="47.04282" lon="2.40712">
        <ele>126</ele>
        <time>2021-08-23T16:22:43Z</time>
      </trkpt>
      <trkpt lat="47.04258" lon="2.40691">
        <ele>126</ele>
        <time>2021-08-23T16:22:43Z</time>
      </trkpt>
      <trkpt lat="47.04252" lon="2.40686">
        <ele>126</ele>
        <time>2021-08-23T16:22:43Z</time>
      </trkpt>
      <trkpt lat="47.04221" lon="2.4066">
        <ele>126</ele>
        <time>2021-08-23T16:22:43Z</time>
      </trkpt>
      <trkpt lat="47.04204" lon="2.40616">
        <ele>126</ele>
        <time>2021-08-23T16:22:43Z</time>
      </trkpt>
      <trkpt lat="47.04208" lon="2.40564">
        <ele>126</ele>
        <time>2021-08-23T16:22:43Z</time>
      </trkpt>
      <trkpt lat="47.04212" lon="2.40513">
        <ele>127</ele>
        <time>2021-08-23T16:22:43Z</time>
      </trkpt>
      <trkpt lat="47.04217" lon="2.40466">
        <ele>128</ele>
        <time>2021-08-23T16:22:43Z</time>
      </trkpt>
      <trkpt lat="47.04224" lon="2.40434">
        <ele>129</ele>
        <time>2021-08-23T16:22:43Z</time>
      </trkpt>
      <trkpt lat="47.04225" lon="2.40426">
        <ele>129</ele>
        <time>2021-08-23T16:22:43Z</time>
      </trkpt>
      <trkpt lat="47.0423" lon="2.40389">
        <ele>130</ele>
        <time>2021-08-23T16:22:43Z</time>
      </trkpt>
      <trkpt lat="47.04252" lon="2.40377">
        <ele>130</ele>
        <time>2021-08-23T16:22:43Z</time>
      </trkpt>
      <trkpt lat="47.04279" lon="2.40355">
        <ele>128</ele>
        <time>2021-08-23T16:22:43Z</time>
      </trkpt>
      <trkpt lat="47.04305" lon="2.40327">
        <ele>127</ele>
        <time>2021-08-23T16:22:43Z</time>
      </trkpt>
      <trkpt lat="47.04331" lon="2.40302">
        <ele>127</ele>
        <time>2021-08-23T16:22:43Z</time>
      </trkpt>
      <trkpt lat="47.04353" lon="2.40283">
        <ele>126</ele>
        <time>2021-08-23T16:22:43Z</time>
      </trkpt>
      <trkpt lat="47.04358" lon="2.40278">
        <ele>126</ele>
        <time>2021-08-23T16:22:43Z</time>
      </trkpt>
      <trkpt lat="47.04369" lon="2.40268">
        <ele>126</ele>
        <time>2021-08-23T16:22:43Z</time>
      </trkpt>
      <trkpt lat="47.04375" lon="2.40263">
        <ele>126</ele>
        <time>2021-08-23T16:22:43Z</time>
      </trkpt>
      <trkpt lat="47.0438" lon="2.40257">
        <ele>126</ele>
        <time>2021-08-23T16:22:43Z</time>
      </trkpt>
      <trkpt lat="47.04385" lon="2.40252">
        <ele>126</ele>
        <time>2021-08-23T16:22:43Z</time>
      </trkpt>
      <trkpt lat="47.04391" lon="2.40248">
        <ele>126</ele>
        <time>2021-08-23T16:22:43Z</time>
      </trkpt>
      <trkpt lat="47.04397" lon="2.40243">
        <ele>126</ele>
        <time>2021-08-23T16:22:43Z</time>
      </trkpt>
      <trkpt lat="47.04403" lon="2.40238">
        <ele>127</ele>
        <time>2021-08-23T16:22:43Z</time>
      </trkpt>
      <trkpt lat="47.04409" lon="2.40233">
        <ele>129</ele>
        <time>2021-08-23T16:22:43Z</time>
      </trkpt>
      <trkpt lat="47.04415" lon="2.40229">
        <ele>130</ele>
        <time>2021-08-23T16:22:43Z</time>
      </trkpt>
      <trkpt lat="47.04422" lon="2.40226">
        <ele>132</ele>
        <time>2021-08-23T16:22:43Z</time>
      </trkpt>
      <trkpt lat="47.04428" lon="2.40225">
        <ele>132</ele>
        <time>2021-08-23T16:22:43Z</time>
      </trkpt>
      <trkpt lat="47.04435" lon="2.40226">
        <ele>133</ele>
        <time>2021-08-23T16:22:43Z</time>
      </trkpt>
      <trkpt lat="47.04442" lon="2.40228">
        <ele>133</ele>
        <time>2021-08-23T16:22:43Z</time>
      </trkpt>
      <trkpt lat="47.04448" lon="2.40231">
        <ele>133</ele>
        <time>2021-08-23T16:22:43Z</time>
      </trkpt>
      <trkpt lat="47.04454" lon="2.40233">
        <ele>133</ele>
        <time>2021-08-23T16:22:43Z</time>
      </trkpt>
      <trkpt lat="47.0446" lon="2.40238">
        <ele>133</ele>
        <time>2021-08-23T16:22:43Z</time>
      </trkpt>
      <trkpt lat="47.04466" lon="2.40241">
        <ele>134</ele>
        <time>2021-08-23T16:22:43Z</time>
      </trkpt>
      <trkpt lat="47.04472" lon="2.40244">
        <ele>134</ele>
        <time>2021-08-23T16:22:43Z</time>
      </trkpt>
      <trkpt lat="47.04479" lon="2.40248">
        <ele>134</ele>
        <time>2021-08-23T16:22:43Z</time>
      </trkpt>
      <trkpt lat="47.04483" lon="2.40254">
        <ele>132</ele>
        <time>2021-08-23T16:22:43Z</time>
      </trkpt>
      <trkpt lat="47.04488" lon="2.40257">
        <ele>131</ele>
        <time>2021-08-23T16:22:43Z</time>
      </trkpt>
      <trkpt lat="47.04492" lon="2.4026">
        <ele>130</ele>
        <time>2021-08-23T16:22:43Z</time>
      </trkpt>
      <trkpt lat="47.04496" lon="2.40263">
        <ele>129</ele>
        <time>2021-08-23T16:22:43Z</time>
      </trkpt>
      <trkpt lat="47.04499" lon="2.40265">
        <ele>128</ele>
        <time>2021-08-23T16:22:43Z</time>
      </trkpt>
      <trkpt lat="47.04504" lon="2.40267">
        <ele>127</ele>
        <time>2021-08-23T16:22:43Z</time>
      </trkpt>
      <trkpt lat="47.0451" lon="2.40272">
        <ele>126</ele>
        <time>2021-08-23T16:22:43Z</time>
      </trkpt>
      <trkpt lat="47.04518" lon="2.40274">
        <ele>126</ele>
        <time>2021-08-23T16:22:43Z</time>
      </trkpt>
      <trkpt lat="47.04525" lon="2.40275">
        <ele>126</ele>
        <time>2021-08-23T16:22:43Z</time>
      </trkpt>
      <trkpt lat="47.04531" lon="2.40277">
        <ele>126</ele>
        <time>2021-08-23T16:22:43Z</time>
      </trkpt>
      <trkpt lat="47.04538" lon="2.40278">
        <ele>126</ele>
        <time>2021-08-23T16:22:43Z</time>
      </trkpt>
      <trkpt lat="47.04544" lon="2.40281">
        <ele>126</ele>
        <time>2021-08-23T16:22:43Z</time>
      </trkpt>
      <trkpt lat="47.04551" lon="2.40283">
        <ele>126</ele>
        <time>2021-08-23T16:22:43Z</time>
      </trkpt>
      <trkpt lat="47.04557" lon="2.40284">
        <ele>126</ele>
        <time>2021-08-23T16:22:43Z</time>
      </trkpt>
      <trkpt lat="47.04563" lon="2.40285">
        <ele>127</ele>
        <time>2021-08-23T16:22:43Z</time>
      </trkpt>
      <trkpt lat="47.04568" lon="2.40286">
        <ele>127</ele>
        <time>2021-08-23T16:22:43Z</time>
      </trkpt>
      <trkpt lat="47.04574" lon="2.40287">
        <ele>128</ele>
        <time>2021-08-23T16:22:43Z</time>
      </trkpt>
      <trkpt lat="47.04581" lon="2.40288">
        <ele>128</ele>
        <time>2021-08-23T16:22:43Z</time>
      </trkpt>
      <trkpt lat="47.04587" lon="2.40289">
        <ele>128</ele>
        <time>2021-08-23T16:22:43Z</time>
      </trkpt>
      <trkpt lat="47.04593" lon="2.40287">
        <ele>128</ele>
        <time>2021-08-23T16:22:43Z</time>
      </trkpt>
      <trkpt lat="47.04599" lon="2.40285">
        <ele>129</ele>
        <time>2021-08-23T16:22:43Z</time>
      </trkpt>
      <trkpt lat="47.04604" lon="2.40283">
        <ele>129</ele>
        <time>2021-08-23T16:22:43Z</time>
      </trkpt>
      <trkpt lat="47.0461" lon="2.40281">
        <ele>130</ele>
        <time>2021-08-23T16:22:43Z</time>
      </trkpt>
      <trkpt lat="47.04616" lon="2.40279">
        <ele>129</ele>
        <time>2021-08-23T16:22:43Z</time>
      </trkpt>
      <trkpt lat="47.04623" lon="2.40278">
        <ele>128</ele>
        <time>2021-08-23T16:22:43Z</time>
      </trkpt>
      <trkpt lat="47.04629" lon="2.40277">
        <ele>127</ele>
        <time>2021-08-23T16:22:43Z</time>
      </trkpt>
      <trkpt lat="47.04635" lon="2.40277">
        <ele>126</ele>
        <time>2021-08-23T16:22:43Z</time>
      </trkpt>
      <trkpt lat="47.04642" lon="2.40276">
        <ele>126</ele>
        <time>2021-08-23T16:22:43Z</time>
      </trkpt>
      <trkpt lat="47.04646" lon="2.40276">
        <ele>126</ele>
        <time>2021-08-23T16:22:43Z</time>
      </trkpt>
      <trkpt lat="47.04653" lon="2.40275">
        <ele>126</ele>
        <time>2021-08-23T16:22:43Z</time>
      </trkpt>
      <trkpt lat="47.04658" lon="2.40273">
        <ele>126</ele>
        <time>2021-08-23T16:22:43Z</time>
      </trkpt>
      <trkpt lat="47.04664" lon="2.4027">
        <ele>127</ele>
        <time>2021-08-23T16:22:43Z</time>
      </trkpt>
      <trkpt lat="47.04669" lon="2.40266">
        <ele>128</ele>
        <time>2021-08-23T16:22:43Z</time>
      </trkpt>
      <trkpt lat="47.04674" lon="2.40258">
        <ele>128</ele>
        <time>2021-08-23T16:22:43Z</time>
      </trkpt>
      <trkpt lat="47.04679" lon="2.40252">
        <ele>129</ele>
        <time>2021-08-23T16:22:43Z</time>
      </trkpt>
      <trkpt lat="47.04683" lon="2.40243">
        <ele>129</ele>
        <time>2021-08-23T16:22:43Z</time>
      </trkpt>
      <trkpt lat="47.04688" lon="2.40237">
        <ele>129</ele>
        <time>2021-08-23T16:22:43Z</time>
      </trkpt>
      <trkpt lat="47.04693" lon="2.40232">
        <ele>130</ele>
        <time>2021-08-23T16:22:43Z</time>
      </trkpt>
      <trkpt lat="47.04697" lon="2.40225">
        <ele>130</ele>
        <time>2021-08-23T16:22:43Z</time>
      </trkpt>
      <trkpt lat="47.04702" lon="2.4022">
        <ele>130</ele>
        <time>2021-08-23T16:22:43Z</time>
      </trkpt>
      <trkpt lat="47.04706" lon="2.40214">
        <ele>130</ele>
        <time>2021-08-23T16:22:43Z</time>
      </trkpt>
      <trkpt lat="47.04711" lon="2.40206">
        <ele>130</ele>
        <time>2021-08-23T16:22:43Z</time>
      </trkpt>
      <trkpt lat="47.04735" lon="2.40173">
        <ele>130</ele>
        <time>2021-08-23T16:22:43Z</time>
      </trkpt>
      <trkpt lat="47.04757" lon="2.4014">
        <ele>132</ele>
        <time>2021-08-23T16:22:43Z</time>
      </trkpt>
      <trkpt lat="47.04782" lon="2.40111">
        <ele>134</ele>
        <time>2021-08-23T16:22:43Z</time>
      </trkpt>
      <trkpt lat="47.04808" lon="2.40081">
        <ele>131</ele>
        <time>2021-08-23T16:22:43Z</time>
      </trkpt>
      <trkpt lat="47.04831" lon="2.40049">
        <ele>128</ele>
        <time>2021-08-23T16:22:43Z</time>
      </trkpt>
      <trkpt lat="47.0485" lon="2.40023">
        <ele>128</ele>
        <time>2021-08-23T16:22:43Z</time>
      </trkpt>
      <trkpt lat="47.04854" lon="2.40017">
        <ele>128</ele>
        <time>2021-08-23T16:22:43Z</time>
      </trkpt>
      <trkpt lat="47.0488" lon="2.39984">
        <ele>127</ele>
        <time>2021-08-23T16:22:43Z</time>
      </trkpt>
      <trkpt lat="47.04908" lon="2.39993">
        <ele>127</ele>
        <time>2021-08-23T16:22:43Z</time>
      </trkpt>
      <trkpt lat="47.04939" lon="2.39999">
        <ele>128</ele>
        <time>2021-08-23T16:22:43Z</time>
      </trkpt>
      <trkpt lat="47.04968" lon="2.39992">
        <ele>129</ele>
        <time>2021-08-23T16:22:43Z</time>
      </trkpt>
      <trkpt lat="47.04994" lon="2.3997">
        <ele>129</ele>
        <time>2021-08-23T16:22:43Z</time>
      </trkpt>
      <trkpt lat="47.05015" lon="2.39954">
        <ele>128</ele>
        <time>2021-08-23T16:22:43Z</time>
      </trkpt>
      <trkpt lat="47.05021" lon="2.39949">
        <ele>128</ele>
        <time>2021-08-23T16:22:43Z</time>
      </trkpt>
      <trkpt lat="47.0505" lon="2.39934">
        <ele>129</ele>
        <time>2021-08-23T16:22:43Z</time>
      </trkpt>
      <trkpt lat="47.05081" lon="2.39921">
        <ele>130</ele>
        <time>2021-08-23T16:22:43Z</time>
      </trkpt>
      <trkpt lat="47.05112" lon="2.39907">
        <ele>131</ele>
        <time>2021-08-23T16:22:43Z</time>
      </trkpt>
      <trkpt lat="47.05142" lon="2.39896">
        <ele>131</ele>
        <time>2021-08-23T16:22:43Z</time>
      </trkpt>
      <trkpt lat="47.05171" lon="2.39876">
        <ele>127</ele>
        <time>2021-08-23T16:22:43Z</time>
      </trkpt>
      <trkpt lat="47.05196" lon="2.39868">
        <ele>126</ele>
        <time>2021-08-23T16:22:43Z</time>
      </trkpt>
      <trkpt lat="47.05203" lon="2.39866">
        <ele>126</ele>
        <time>2021-08-23T16:22:43Z</time>
      </trkpt>
      <trkpt lat="47.05215" lon="2.39863">
        <ele>126</ele>
        <time>2021-08-23T16:22:43Z</time>
      </trkpt>
      <trkpt lat="47.05221" lon="2.39862">
        <ele>126</ele>
        <time>2021-08-23T16:22:43Z</time>
      </trkpt>
      <trkpt lat="47.05227" lon="2.3986">
        <ele>126</ele>
        <time>2021-08-23T16:22:43Z</time>
      </trkpt>
      <trkpt lat="47.05234" lon="2.39858">
        <ele>126</ele>
        <time>2021-08-23T16:22:43Z</time>
      </trkpt>
      <trkpt lat="47.0524" lon="2.39856">
        <ele>126</ele>
        <time>2021-08-23T16:22:43Z</time>
      </trkpt>
      <trkpt lat="47.05246" lon="2.39854">
        <ele>126</ele>
        <time>2021-08-23T16:22:43Z</time>
      </trkpt>
      <trkpt lat="47.05252" lon="2.39853">
        <ele>126</ele>
        <time>2021-08-23T16:22:43Z</time>
      </trkpt>
      <trkpt lat="47.05259" lon="2.39851">
        <ele>126</ele>
        <time>2021-08-23T16:22:43Z</time>
      </trkpt>
      <trkpt lat="47.05265" lon="2.3985">
        <ele>126</ele>
        <time>2021-08-23T16:22:43Z</time>
      </trkpt>
      <trkpt lat="47.05272" lon="2.39848">
        <ele>126</ele>
        <time>2021-08-23T16:22:43Z</time>
      </trkpt>
      <trkpt lat="47.05278" lon="2.39846">
        <ele>126</ele>
        <time>2021-08-23T16:22:43Z</time>
      </trkpt>
      <trkpt lat="47.05284" lon="2.39845">
        <ele>126</ele>
        <time>2021-08-23T16:22:43Z</time>
      </trkpt>
      <trkpt lat="47.0529" lon="2.39842">
        <ele>126</ele>
        <time>2021-08-23T16:22:43Z</time>
      </trkpt>
      <trkpt lat="47.05297" lon="2.39841">
        <ele>126</ele>
        <time>2021-08-23T16:22:43Z</time>
      </trkpt>
      <trkpt lat="47.05303" lon="2.39839">
        <ele>126</ele>
        <time>2021-08-23T16:22:43Z</time>
      </trkpt>
      <trkpt lat="47.0531" lon="2.39837">
        <ele>126</ele>
        <time>2021-08-23T16:22:43Z</time>
      </trkpt>
      <trkpt lat="47.05316" lon="2.39835">
        <ele>126</ele>
        <time>2021-08-23T16:22:43Z</time>
      </trkpt>
      <trkpt lat="47.05323" lon="2.39834">
        <ele>126</ele>
        <time>2021-08-23T16:22:43Z</time>
      </trkpt>
      <trkpt lat="47.0533" lon="2.39833">
        <ele>126</ele>
        <time>2021-08-23T16:22:43Z</time>
      </trkpt>
      <trkpt lat="47.05335" lon="2.39833">
        <ele>126</ele>
        <time>2021-08-23T16:22:43Z</time>
      </trkpt>
      <trkpt lat="47.05342" lon="2.3983">
        <ele>126</ele>
        <time>2021-08-23T16:22:43Z</time>
      </trkpt>
      <trkpt lat="47.05348" lon="2.39828">
        <ele>126</ele>
        <time>2021-08-23T16:22:43Z</time>
      </trkpt>
      <trkpt lat="47.05354" lon="2.39825">
        <ele>126</ele>
        <time>2021-08-23T16:22:43Z</time>
      </trkpt>
      <trkpt lat="47.0536" lon="2.39822">
        <ele>126</ele>
        <time>2021-08-23T16:22:43Z</time>
      </trkpt>
      <trkpt lat="47.05366" lon="2.3982">
        <ele>126</ele>
        <time>2021-08-23T16:22:43Z</time>
      </trkpt>
      <trkpt lat="47.05371" lon="2.39816">
        <ele>126</ele>
        <time>2021-08-23T16:22:43Z</time>
      </trkpt>
      <trkpt lat="47.05377" lon="2.39812">
        <ele>126</ele>
        <time>2021-08-23T16:22:43Z</time>
      </trkpt>
      <trkpt lat="47.05381" lon="2.39806">
        <ele>126</ele>
        <time>2021-08-23T16:22:43Z</time>
      </trkpt>
      <trkpt lat="47.05385" lon="2.39798">
        <ele>126</ele>
        <time>2021-08-23T16:22:43Z</time>
      </trkpt>
      <trkpt lat="47.05388" lon="2.3979">
        <ele>126</ele>
        <time>2021-08-23T16:22:43Z</time>
      </trkpt>
      <trkpt lat="47.05391" lon="2.39781">
        <ele>126</ele>
        <time>2021-08-23T16:22:43Z</time>
      </trkpt>
      <trkpt lat="47.05393" lon="2.39773">
        <ele>126</ele>
        <time>2021-08-23T16:22:43Z</time>
      </trkpt>
      <trkpt lat="47.05395" lon="2.39763">
        <ele>126</ele>
        <time>2021-08-23T16:22:43Z</time>
      </trkpt>
      <trkpt lat="47.05398" lon="2.39755">
        <ele>126</ele>
        <time>2021-08-23T16:22:43Z</time>
      </trkpt>
      <trkpt lat="47.05401" lon="2.39746">
        <ele>126</ele>
        <time>2021-08-23T16:22:43Z</time>
      </trkpt>
      <trkpt lat="47.05403" lon="2.39737">
        <ele>126</ele>
        <time>2021-08-23T16:22:43Z</time>
      </trkpt>
      <trkpt lat="47.05407" lon="2.39729">
        <ele>126</ele>
        <time>2021-08-23T16:22:43Z</time>
      </trkpt>
      <trkpt lat="47.05411" lon="2.39722">
        <ele>126</ele>
        <time>2021-08-23T16:22:43Z</time>
      </trkpt>
      <trkpt lat="47.05415" lon="2.39716">
        <ele>126</ele>
        <time>2021-08-23T16:22:43Z</time>
      </trkpt>
      <trkpt lat="47.0542" lon="2.39709">
        <ele>126</ele>
        <time>2021-08-23T16:22:43Z</time>
      </trkpt>
      <trkpt lat="47.05424" lon="2.39703">
        <ele>126</ele>
        <time>2021-08-23T16:22:43Z</time>
      </trkpt>
      <trkpt lat="47.05429" lon="2.39696">
        <ele>126</ele>
        <time>2021-08-23T16:22:43Z</time>
      </trkpt>
      <trkpt lat="47.05434" lon="2.3969">
        <ele>126</ele>
        <time>2021-08-23T16:22:43Z</time>
      </trkpt>
      <trkpt lat="47.05439" lon="2.39684">
        <ele>126</ele>
        <time>2021-08-23T16:22:43Z</time>
      </trkpt>
      <trkpt lat="47.05444" lon="2.39679">
        <ele>127</ele>
        <time>2021-08-23T16:22:43Z</time>
      </trkpt>
      <trkpt lat="47.0545" lon="2.39676">
        <ele>127</ele>
        <time>2021-08-23T16:22:43Z</time>
      </trkpt>
      <trkpt lat="47.05456" lon="2.39673">
        <ele>126</ele>
        <time>2021-08-23T16:22:43Z</time>
      </trkpt>
      <trkpt lat="47.05461" lon="2.39672">
        <ele>126</ele>
        <time>2021-08-23T16:22:43Z</time>
      </trkpt>
      <trkpt lat="47.05468" lon="2.3967">
        <ele>126</ele>
        <time>2021-08-23T16:22:43Z</time>
      </trkpt>
      <trkpt lat="47.05474" lon="2.39669">
        <ele>126</ele>
        <time>2021-08-23T16:22:43Z</time>
      </trkpt>
      <trkpt lat="47.0548" lon="2.39667">
        <ele>126</ele>
        <time>2021-08-23T16:22:43Z</time>
      </trkpt>
      <trkpt lat="47.05486" lon="2.39665">
        <ele>126</ele>
        <time>2021-08-23T16:22:43Z</time>
      </trkpt>
      <trkpt lat="47.05492" lon="2.39662">
        <ele>126</ele>
        <time>2021-08-23T16:22:43Z</time>
      </trkpt>
      <trkpt lat="47.05498" lon="2.39659">
        <ele>126</ele>
        <time>2021-08-23T16:22:43Z</time>
      </trkpt>
      <trkpt lat="47.05504" lon="2.39655">
        <ele>127</ele>
        <time>2021-08-23T16:22:43Z</time>
      </trkpt>
      <trkpt lat="47.0551" lon="2.39651">
        <ele>127</ele>
        <time>2021-08-23T16:22:43Z</time>
      </trkpt>
      <trkpt lat="47.05515" lon="2.39647">
        <ele>126</ele>
        <time>2021-08-23T16:22:43Z</time>
      </trkpt>
      <trkpt lat="47.0552" lon="2.39643">
        <ele>126</ele>
        <time>2021-08-23T16:22:43Z</time>
      </trkpt>
      <trkpt lat="47.05525" lon="2.39639">
        <ele>126</ele>
        <time>2021-08-23T16:22:43Z</time>
      </trkpt>
      <trkpt lat="47.05531" lon="2.39637">
        <ele>127</ele>
        <time>2021-08-23T16:22:43Z</time>
      </trkpt>
      <trkpt lat="47.05536" lon="2.39635">
        <ele>129</ele>
        <time>2021-08-23T16:22:43Z</time>
      </trkpt>
      <trkpt lat="47.05563" lon="2.39632">
        <ele>135</ele>
        <time>2021-08-23T16:22:43Z</time>
      </trkpt>
      <trkpt lat="47.05593" lon="2.39629">
        <ele>134</ele>
        <time>2021-08-23T16:22:43Z</time>
      </trkpt>
      <trkpt lat="47.05625" lon="2.39625">
        <ele>132</ele>
        <time>2021-08-23T16:22:43Z</time>
      </trkpt>
      <trkpt lat="47.05656" lon="2.39612">
        <ele>132</ele>
        <time>2021-08-23T16:22:43Z</time>
      </trkpt>
      <trkpt lat="47.0568" lon="2.3959">
        <ele>133</ele>
        <time>2021-08-23T16:22:43Z</time>
      </trkpt>
      <trkpt lat="47.05701" lon="2.39582">
        <ele>133</ele>
        <time>2021-08-23T16:22:43Z</time>
      </trkpt>
      <trkpt lat="47.05706" lon="2.3958">
        <ele>133</ele>
        <time>2021-08-23T16:22:43Z</time>
      </trkpt>
      <trkpt lat="47.05727" lon="2.39573">
        <ele>132</ele>
        <time>2021-08-23T16:22:43Z</time>
      </trkpt>
      <trkpt lat="47.05752" lon="2.39564">
        <ele>131</ele>
        <time>2021-08-23T16:22:43Z</time>
      </trkpt>
      <trkpt lat="47.05783" lon="2.39557">
        <ele>131</ele>
        <time>2021-08-23T16:22:43Z</time>
      </trkpt>
      <trkpt lat="47.05817" lon="2.39556">
        <ele>130</ele>
        <time>2021-08-23T16:22:43Z</time>
      </trkpt>
      <trkpt lat="47.05849" lon="2.39561">
        <ele>126</ele>
        <time>2021-08-23T16:22:43Z</time>
      </trkpt>
      <trkpt lat="47.05872" lon="2.3957">
        <ele>124</ele>
        <time>2021-08-23T16:22:43Z</time>
      </trkpt>
      <trkpt lat="47.05878" lon="2.39574">
        <ele>124</ele>
        <time>2021-08-23T16:22:43Z</time>
      </trkpt>
      <trkpt lat="47.05896" lon="2.3959">
        <ele>125</ele>
        <time>2021-08-23T16:22:43Z</time>
      </trkpt>
      <trkpt lat="47.05912" lon="2.39615">
        <ele>127</ele>
        <time>2021-08-23T16:22:43Z</time>
      </trkpt>
      <trkpt lat="47.05932" lon="2.39649">
        <ele>127</ele>
        <time>2021-08-23T16:22:43Z</time>
      </trkpt>
      <trkpt lat="47.05957" lon="2.39672">
        <ele>126</ele>
        <time>2021-08-23T16:22:43Z</time>
      </trkpt>
      <trkpt lat="47.05984" lon="2.39692">
        <ele>126</ele>
        <time>2021-08-23T16:22:43Z</time>
      </trkpt>
      <trkpt lat="47.06007" lon="2.39706">
        <ele>126</ele>
        <time>2021-08-23T16:22:43Z</time>
      </trkpt>
      <trkpt lat="47.06013" lon="2.39709">
        <ele>126</ele>
        <time>2021-08-23T16:22:43Z</time>
      </trkpt>
      <trkpt lat="47.06018" lon="2.39712">
        <ele>126</ele>
        <time>2021-08-23T16:22:43Z</time>
      </trkpt>
      <trkpt lat="47.06025" lon="2.39712">
        <ele>126</ele>
        <time>2021-08-23T16:22:43Z</time>
      </trkpt>
      <trkpt lat="47.06031" lon="2.39712">
        <ele>126</ele>
        <time>2021-08-23T16:22:43Z</time>
      </trkpt>
      <trkpt lat="47.06037" lon="2.3971">
        <ele>126</ele>
        <time>2021-08-23T16:22:43Z</time>
      </trkpt>
      <trkpt lat="47.06043" lon="2.39707">
        <ele>126</ele>
        <time>2021-08-23T16:22:43Z</time>
      </trkpt>
      <trkpt lat="47.06049" lon="2.39705">
        <ele>126</ele>
        <time>2021-08-23T16:22:43Z</time>
      </trkpt>
      <trkpt lat="47.06056" lon="2.39702">
        <ele>126</ele>
        <time>2021-08-23T16:22:43Z</time>
      </trkpt>
      <trkpt lat="47.06062" lon="2.397">
        <ele>127</ele>
        <time>2021-08-23T16:22:43Z</time>
      </trkpt>
      <trkpt lat="47.06068" lon="2.39697">
        <ele>127</ele>
        <time>2021-08-23T16:22:43Z</time>
      </trkpt>
      <trkpt lat="47.06074" lon="2.39695">
        <ele>128</ele>
        <time>2021-08-23T16:22:43Z</time>
      </trkpt>
      <trkpt lat="47.0608" lon="2.39692">
        <ele>128</ele>
        <time>2021-08-23T16:22:43Z</time>
      </trkpt>
      <trkpt lat="47.06086" lon="2.3969">
        <ele>129</ele>
        <time>2021-08-23T16:22:43Z</time>
      </trkpt>
      <trkpt lat="47.06091" lon="2.39687">
        <ele>129</ele>
        <time>2021-08-23T16:22:43Z</time>
      </trkpt>
      <trkpt lat="47.06097" lon="2.39684">
        <ele>129</ele>
        <time>2021-08-23T16:22:43Z</time>
      </trkpt>
      <trkpt lat="47.06104" lon="2.39683">
        <ele>129</ele>
        <time>2021-08-23T16:22:43Z</time>
      </trkpt>
      <trkpt lat="47.06109" lon="2.3968">
        <ele>129</ele>
        <time>2021-08-23T16:22:43Z</time>
      </trkpt>
      <trkpt lat="47.06115" lon="2.39678">
        <ele>129</ele>
        <time>2021-08-23T16:22:43Z</time>
      </trkpt>
      <trkpt lat="47.06126" lon="2.39673">
        <ele>127</ele>
        <time>2021-08-23T16:22:43Z</time>
      </trkpt>
      <trkpt lat="47.06132" lon="2.39671">
        <ele>126</ele>
        <time>2021-08-23T16:22:43Z</time>
      </trkpt>
      <trkpt lat="47.06138" lon="2.39669">
        <ele>126</ele>
        <time>2021-08-23T16:22:43Z</time>
      </trkpt>
      <trkpt lat="47.0615" lon="2.39666">
        <ele>126</ele>
        <time>2021-08-23T16:22:43Z</time>
      </trkpt>
      <trkpt lat="47.06155" lon="2.39663">
        <ele>126</ele>
        <time>2021-08-23T16:22:43Z</time>
      </trkpt>
      <trkpt lat="47.06161" lon="2.3966">
        <ele>126</ele>
        <time>2021-08-23T16:22:43Z</time>
      </trkpt>
      <trkpt lat="47.06167" lon="2.39657">
        <ele>126</ele>
        <time>2021-08-23T16:22:43Z</time>
      </trkpt>
      <trkpt lat="47.06173" lon="2.39654">
        <ele>126</ele>
        <time>2021-08-23T16:22:43Z</time>
      </trkpt>
      <trkpt lat="47.06184" lon="2.39649">
        <ele>127</ele>
        <time>2021-08-23T16:22:43Z</time>
      </trkpt>
      <trkpt lat="47.06195" lon="2.39646">
        <ele>127</ele>
        <time>2021-08-23T16:22:43Z</time>
      </trkpt>
      <trkpt lat="47.062" lon="2.39644">
        <ele>126</ele>
        <time>2021-08-23T16:22:43Z</time>
      </trkpt>
      <trkpt lat="47.06209" lon="2.39644">
        <ele>126</ele>
        <time>2021-08-23T16:22:43Z</time>
      </trkpt>
      <trkpt lat="47.06212" lon="2.3965">
        <ele>126</ele>
        <time>2021-08-23T16:22:43Z</time>
      </trkpt>
      <trkpt lat="47.06213" lon="2.39656">
        <ele>126</ele>
        <time>2021-08-23T16:22:43Z</time>
      </trkpt>
      <trkpt lat="47.06215" lon="2.39663">
        <ele>126</ele>
        <time>2021-08-23T16:22:43Z</time>
      </trkpt>
      <trkpt lat="47.06218" lon="2.39677">
        <ele>125</ele>
        <time>2021-08-23T16:22:43Z</time>
      </trkpt>
      <trkpt lat="47.06219" lon="2.39684">
        <ele>125</ele>
        <time>2021-08-23T16:22:43Z</time>
      </trkpt>
      <trkpt lat="47.0622" lon="2.39692">
        <ele>125</ele>
        <time>2021-08-23T16:22:43Z</time>
      </trkpt>
      <trkpt lat="47.06222" lon="2.39699">
        <ele>125</ele>
        <time>2021-08-23T16:22:43Z</time>
      </trkpt>
      <trkpt lat="47.06223" lon="2.39706">
        <ele>125</ele>
        <time>2021-08-23T16:22:43Z</time>
      </trkpt>
      <trkpt lat="47.06226" lon="2.39719">
        <ele>125</ele>
        <time>2021-08-23T16:22:43Z</time>
      </trkpt>
      <trkpt lat="47.06228" lon="2.39727">
        <ele>125</ele>
        <time>2021-08-23T16:22:43Z</time>
      </trkpt>
      <trkpt lat="47.06231" lon="2.39733">
        <ele>125</ele>
        <time>2021-08-23T16:22:43Z</time>
      </trkpt>
      <trkpt lat="47.06233" lon="2.39741">
        <ele>126</ele>
        <time>2021-08-23T16:22:43Z</time>
      </trkpt>
      <trkpt lat="47.06237" lon="2.39749">
        <ele>126</ele>
        <time>2021-08-23T16:22:43Z</time>
      </trkpt>
      <trkpt lat="47.06244" lon="2.39761">
        <ele>128</ele>
        <time>2021-08-23T16:22:43Z</time>
      </trkpt>
      <trkpt lat="47.06248" lon="2.39768">
        <ele>128</ele>
        <time>2021-08-23T16:22:43Z</time>
      </trkpt>
      <trkpt lat="47.06252" lon="2.39775">
        <ele>129</ele>
        <time>2021-08-23T16:22:43Z</time>
      </trkpt>
      <trkpt lat="47.06256" lon="2.39781">
        <ele>130</ele>
        <time>2021-08-23T16:22:43Z</time>
      </trkpt>
      <trkpt lat="47.0626" lon="2.39788">
        <ele>130</ele>
        <time>2021-08-23T16:22:43Z</time>
      </trkpt>
      <trkpt lat="47.06268" lon="2.398">
        <ele>130</ele>
        <time>2021-08-23T16:22:43Z</time>
      </trkpt>
      <trkpt lat="47.06272" lon="2.39806">
        <ele>131</ele>
        <time>2021-08-23T16:22:43Z</time>
      </trkpt>
      <trkpt lat="47.06276" lon="2.39811">
        <ele>131</ele>
        <time>2021-08-23T16:22:43Z</time>
      </trkpt>
      <trkpt lat="47.06279" lon="2.39817">
        <ele>131</ele>
        <time>2021-08-23T16:22:43Z</time>
      </trkpt>
      <trkpt lat="47.06282" lon="2.39822">
        <ele>131</ele>
        <time>2021-08-23T16:22:43Z</time>
      </trkpt>
      <trkpt lat="47.06284" lon="2.39828">
        <ele>131</ele>
        <time>2021-08-23T16:22:43Z</time>
      </trkpt>
      <trkpt lat="47.06301" lon="2.3985">
        <ele>130</ele>
        <time>2021-08-23T16:22:43Z</time>
      </trkpt>
      <trkpt lat="47.06312" lon="2.39862">
        <ele>130</ele>
        <time>2021-08-23T16:22:43Z</time>
      </trkpt>
      <trkpt lat="47.06313" lon="2.39871">
        <ele>130</ele>
        <time>2021-08-23T16:22:43Z</time>
      </trkpt>
      <trkpt lat="47.06315" lon="2.39878">
        <ele>130</ele>
        <time>2021-08-23T16:22:43Z</time>
      </trkpt>
      <trkpt lat="47.06314" lon="2.39907">
        <ele>129</ele>
        <time>2021-08-23T16:22:43Z</time>
      </trkpt>
      <trkpt lat="47.06314" lon="2.3992">
        <ele>129</ele>
        <time>2021-08-23T16:22:43Z</time>
      </trkpt>
      <trkpt lat="47.06315" lon="2.39923">
        <ele>129</ele>
        <time>2021-08-23T16:22:43Z</time>
      </trkpt>
      <trkpt lat="47.06313" lon="2.39952">
        <ele>129</ele>
        <time>2021-08-23T16:22:43Z</time>
      </trkpt>
      <trkpt lat="47.06321" lon="2.39984">
        <ele>130</ele>
        <time>2021-08-23T16:22:43Z</time>
      </trkpt>
      <trkpt lat="47.06328" lon="2.40007">
        <ele>131</ele>
        <time>2021-08-23T16:22:43Z</time>
      </trkpt>
      <trkpt lat="47.06347" lon="2.40009">
        <ele>131</ele>
        <time>2021-08-23T16:22:43Z</time>
      </trkpt>
      <trkpt lat="47.06373" lon="2.39996">
        <ele>131</ele>
        <time>2021-08-23T16:22:43Z</time>
      </trkpt>
      <trkpt lat="47.06395" lon="2.39986">
        <ele>131</ele>
        <time>2021-08-23T16:22:43Z</time>
      </trkpt>
      <trkpt lat="47.064" lon="2.39984">
        <ele>131</ele>
        <time>2021-08-23T16:22:43Z</time>
      </trkpt>
      <trkpt lat="47.06426" lon="2.39972">
        <ele>131</ele>
        <time>2021-08-23T16:22:43Z</time>
      </trkpt>
      <trkpt lat="47.06451" lon="2.3996">
        <ele>133</ele>
        <time>2021-08-23T16:22:43Z</time>
      </trkpt>
      <trkpt lat="47.0648" lon="2.39954">
        <ele>134</ele>
        <time>2021-08-23T16:22:43Z</time>
      </trkpt>
      <trkpt lat="47.06508" lon="2.3995">
        <ele>134</ele>
        <time>2021-08-23T16:22:43Z</time>
      </trkpt>
      <trkpt lat="47.06535" lon="2.39946">
        <ele>134</ele>
        <time>2021-08-23T16:22:43Z</time>
      </trkpt>
      <trkpt lat="47.06559" lon="2.39944">
        <ele>133</ele>
        <time>2021-08-23T16:22:43Z</time>
      </trkpt>
      <trkpt lat="47.06566" lon="2.39944">
        <ele>133</ele>
        <time>2021-08-23T16:22:43Z</time>
      </trkpt>
      <trkpt lat="47.06597" lon="2.39938">
        <ele>132</ele>
        <time>2021-08-23T16:22:43Z</time>
      </trkpt>
      <trkpt lat="47.06629" lon="2.39927">
        <ele>130</ele>
        <time>2021-08-23T16:22:43Z</time>
      </trkpt>
      <trkpt lat="47.0666" lon="2.39914">
        <ele>130</ele>
        <time>2021-08-23T16:22:43Z</time>
      </trkpt>
      <trkpt lat="47.0669" lon="2.39902">
        <ele>131</ele>
        <time>2021-08-23T16:22:43Z</time>
      </trkpt>
      <trkpt lat="47.06722" lon="2.39897">
        <ele>129</ele>
        <time>2021-08-23T16:22:43Z</time>
      </trkpt>
      <trkpt lat="47.06747" lon="2.39899">
        <ele>129</ele>
        <time>2021-08-23T16:22:43Z</time>
      </trkpt>
      <trkpt lat="47.06753" lon="2.39899">
        <ele>129</ele>
        <time>2021-08-23T16:22:43Z</time>
      </trkpt>
      <trkpt lat="47.06773" lon="2.39902">
        <ele>130</ele>
        <time>2021-08-23T16:22:43Z</time>
      </trkpt>
      <trkpt lat="47.06779" lon="2.39902">
        <ele>130</ele>
        <time>2021-08-23T16:22:43Z</time>
      </trkpt>
      <trkpt lat="47.06786" lon="2.39903">
        <ele>130</ele>
        <time>2021-08-23T16:22:43Z</time>
      </trkpt>
      <trkpt lat="47.06792" lon="2.39903">
        <ele>130</ele>
        <time>2021-08-23T16:22:43Z</time>
      </trkpt>
      <trkpt lat="47.06799" lon="2.39902">
        <ele>130</ele>
        <time>2021-08-23T16:22:43Z</time>
      </trkpt>
      <trkpt lat="47.06805" lon="2.39902">
        <ele>130</ele>
        <time>2021-08-23T16:22:43Z</time>
      </trkpt>
      <trkpt lat="47.06811" lon="2.399">
        <ele>130</ele>
        <time>2021-08-23T16:22:43Z</time>
      </trkpt>
      <trkpt lat="47.06816" lon="2.39899">
        <ele>130</ele>
        <time>2021-08-23T16:22:43Z</time>
      </trkpt>
      <trkpt lat="47.06822" lon="2.39898">
        <ele>130</ele>
        <time>2021-08-23T16:22:43Z</time>
      </trkpt>
      <trkpt lat="47.06827" lon="2.39897">
        <ele>130</ele>
        <time>2021-08-23T16:22:43Z</time>
      </trkpt>
      <trkpt lat="47.06833" lon="2.39895">
        <ele>130</ele>
        <time>2021-08-23T16:22:43Z</time>
      </trkpt>
      <trkpt lat="47.0684" lon="2.39894">
        <ele>130</ele>
        <time>2021-08-23T16:22:43Z</time>
      </trkpt>
      <trkpt lat="47.06845" lon="2.39893">
        <ele>130</ele>
        <time>2021-08-23T16:22:43Z</time>
      </trkpt>
      <trkpt lat="47.06851" lon="2.39891">
        <ele>131</ele>
        <time>2021-08-23T16:22:43Z</time>
      </trkpt>
      <trkpt lat="47.06858" lon="2.3989">
        <ele>131</ele>
        <time>2021-08-23T16:22:43Z</time>
      </trkpt>
      <trkpt lat="47.06863" lon="2.3989">
        <ele>132</ele>
        <time>2021-08-23T16:22:43Z</time>
      </trkpt>
      <trkpt lat="47.06869" lon="2.39889">
        <ele>132</ele>
        <time>2021-08-23T16:22:43Z</time>
      </trkpt>
      <trkpt lat="47.06875" lon="2.39888">
        <ele>132</ele>
        <time>2021-08-23T16:22:43Z</time>
      </trkpt>
      <trkpt lat="47.06881" lon="2.39887">
        <ele>132</ele>
        <time>2021-08-23T16:22:43Z</time>
      </trkpt>
      <trkpt lat="47.06887" lon="2.39885">
        <ele>132</ele>
        <time>2021-08-23T16:22:43Z</time>
      </trkpt>
      <trkpt lat="47.06893" lon="2.39885">
        <ele>132</ele>
        <time>2021-08-23T16:22:43Z</time>
      </trkpt>
      <trkpt lat="47.06899" lon="2.39885">
        <ele>133</ele>
        <time>2021-08-23T16:22:43Z</time>
      </trkpt>
      <trkpt lat="47.06905" lon="2.39885">
        <ele>133</ele>
        <time>2021-08-23T16:22:43Z</time>
      </trkpt>
      <trkpt lat="47.0691" lon="2.39885">
        <ele>133</ele>
        <time>2021-08-23T16:22:43Z</time>
      </trkpt>
      <trkpt lat="47.06917" lon="2.39885">
        <ele>133</ele>
        <time>2021-08-23T16:22:43Z</time>
      </trkpt>
      <trkpt lat="47.06923" lon="2.39884">
        <ele>133</ele>
        <time>2021-08-23T16:22:43Z</time>
      </trkpt>
      <trkpt lat="47.06929" lon="2.39884">
        <ele>133</ele>
        <time>2021-08-23T16:22:43Z</time>
      </trkpt>
      <trkpt lat="47.06936" lon="2.39885">
        <ele>133</ele>
        <time>2021-08-23T16:22:43Z</time>
      </trkpt>
      <trkpt lat="47.06942" lon="2.39885">
        <ele>133</ele>
        <time>2021-08-23T16:22:43Z</time>
      </trkpt>
      <trkpt lat="47.06948" lon="2.39885">
        <ele>134</ele>
        <time>2021-08-23T16:22:43Z</time>
      </trkpt>
      <trkpt lat="47.06954" lon="2.39885">
        <ele>134</ele>
        <time>2021-08-23T16:22:43Z</time>
      </trkpt>
      <trkpt lat="47.0696" lon="2.39885">
        <ele>134</ele>
        <time>2021-08-23T16:22:43Z</time>
      </trkpt>
      <trkpt lat="47.06966" lon="2.39884">
        <ele>135</ele>
        <time>2021-08-23T16:22:43Z</time>
      </trkpt>
      <trkpt lat="47.06972" lon="2.39884">
        <ele>135</ele>
        <time>2021-08-23T16:22:43Z</time>
      </trkpt>
      <trkpt lat="47.06978" lon="2.39884">
        <ele>135</ele>
        <time>2021-08-23T16:22:43Z</time>
      </trkpt>
      <trkpt lat="47.06984" lon="2.39884">
        <ele>135</ele>
        <time>2021-08-23T16:22:43Z</time>
      </trkpt>
      <trkpt lat="47.06989" lon="2.39885">
        <ele>135</ele>
        <time>2021-08-23T16:22:43Z</time>
      </trkpt>
      <trkpt lat="47.06995" lon="2.39886">
        <ele>135</ele>
        <time>2021-08-23T16:22:43Z</time>
      </trkpt>
      <trkpt lat="47.07001" lon="2.39887">
        <ele>135</ele>
        <time>2021-08-23T16:22:43Z</time>
      </trkpt>
      <trkpt lat="47.07006" lon="2.39888">
        <ele>135</ele>
        <time>2021-08-23T16:22:43Z</time>
      </trkpt>
      <trkpt lat="47.07012" lon="2.39889">
        <ele>136</ele>
        <time>2021-08-23T16:22:43Z</time>
      </trkpt>
      <trkpt lat="47.07018" lon="2.3989">
        <ele>136</ele>
        <time>2021-08-23T16:22:43Z</time>
      </trkpt>
      <trkpt lat="47.07023" lon="2.39891">
        <ele>136</ele>
        <time>2021-08-23T16:22:43Z</time>
      </trkpt>
      <trkpt lat="47.07028" lon="2.39893">
        <ele>135</ele>
        <time>2021-08-23T16:22:43Z</time>
      </trkpt>
      <trkpt lat="47.07033" lon="2.39894">
        <ele>135</ele>
        <time>2021-08-23T16:22:43Z</time>
      </trkpt>
      <trkpt lat="47.07038" lon="2.39895">
        <ele>135</ele>
        <time>2021-08-23T16:22:43Z</time>
      </trkpt>
      <trkpt lat="47.07043" lon="2.39896">
        <ele>135</ele>
        <time>2021-08-23T16:22:43Z</time>
      </trkpt>
      <trkpt lat="47.07047" lon="2.39898">
        <ele>135</ele>
        <time>2021-08-23T16:22:43Z</time>
      </trkpt>
      <trkpt lat="47.07052" lon="2.39899">
        <ele>135</ele>
        <time>2021-08-23T16:22:43Z</time>
      </trkpt>
      <trkpt lat="47.07056" lon="2.399">
        <ele>135</ele>
        <time>2021-08-23T16:22:43Z</time>
      </trkpt>
      <trkpt lat="47.07061" lon="2.399">
        <ele>135</ele>
        <time>2021-08-23T16:22:43Z</time>
      </trkpt>
      <trkpt lat="47.07064" lon="2.39901">
        <ele>135</ele>
        <time>2021-08-23T16:22:43Z</time>
      </trkpt>
      <trkpt lat="47.07067" lon="2.39905">
        <ele>135</ele>
        <time>2021-08-23T16:22:43Z</time>
      </trkpt>
      <trkpt lat="47.07068" lon="2.39911">
        <ele>135</ele>
        <time>2021-08-23T16:22:43Z</time>
      </trkpt>
      <trkpt lat="47.07067" lon="2.39916">
        <ele>135</ele>
        <time>2021-08-23T16:22:43Z</time>
      </trkpt>
      <trkpt lat="47.07066" lon="2.39922">
        <ele>135</ele>
        <time>2021-08-23T16:22:43Z</time>
      </trkpt>
      <trkpt lat="47.07063" lon="2.39928">
        <ele>135</ele>
        <time>2021-08-23T16:22:43Z</time>
      </trkpt>
      <trkpt lat="47.0706" lon="2.39935">
        <ele>135</ele>
        <time>2021-08-23T16:22:43Z</time>
      </trkpt>
      <trkpt lat="47.07058" lon="2.39941">
        <ele>135</ele>
        <time>2021-08-23T16:22:43Z</time>
      </trkpt>
      <trkpt lat="47.07056" lon="2.39947">
        <ele>135</ele>
        <time>2021-08-23T16:22:43Z</time>
      </trkpt>
      <trkpt lat="47.07047" lon="2.39981">
        <ele>135</ele>
        <time>2021-08-23T16:22:43Z</time>
      </trkpt>
      <trkpt lat="47.07043" lon="2.40018">
        <ele>137</ele>
        <time>2021-08-23T16:22:43Z</time>
      </trkpt>
      <trkpt lat="47.07047" lon="2.40054">
        <ele>139</ele>
        <time>2021-08-23T16:22:43Z</time>
      </trkpt>
      <trkpt lat="47.07055" lon="2.40088">
        <ele>142</ele>
        <time>2021-08-23T16:22:43Z</time>
      </trkpt>
      <trkpt lat="47.07063" lon="2.40118">
        <ele>144</ele>
        <time>2021-08-23T16:22:43Z</time>
      </trkpt>
      <trkpt lat="47.07068" lon="2.40142">
        <ele>146</ele>
        <time>2021-08-23T16:22:43Z</time>
      </trkpt>
      <trkpt lat="47.0707" lon="2.40149">
        <ele>146</ele>
        <time>2021-08-23T16:22:43Z</time>
      </trkpt>
      <trkpt lat="47.07072" lon="2.40156">
        <ele>146</ele>
        <time>2021-08-23T16:22:43Z</time>
      </trkpt>
      <trkpt lat="47.07074" lon="2.40162">
        <ele>147</ele>
        <time>2021-08-23T16:22:43Z</time>
      </trkpt>
      <trkpt lat="47.07075" lon="2.40169">
        <ele>147</ele>
        <time>2021-08-23T16:22:43Z</time>
      </trkpt>
      <trkpt lat="47.07077" lon="2.40174">
        <ele>147</ele>
        <time>2021-08-23T16:22:43Z</time>
      </trkpt>
      <trkpt lat="47.07079" lon="2.4018">
        <ele>147</ele>
        <time>2021-08-23T16:22:43Z</time>
      </trkpt>
      <trkpt lat="47.07081" lon="2.40186">
        <ele>147</ele>
        <time>2021-08-23T16:22:43Z</time>
      </trkpt>
      <trkpt lat="47.07084" lon="2.40213">
        <ele>148</ele>
        <time>2021-08-23T16:22:43Z</time>
      </trkpt>
      <trkpt lat="47.07063" lon="2.40227">
        <ele>148</ele>
        <time>2021-08-23T16:22:43Z</time>
      </trkpt>
      <trkpt lat="47.07037" lon="2.40242">
        <ele>145</ele>
        <time>2021-08-23T16:22:43Z</time>
      </trkpt>
      <trkpt lat="47.07007" lon="2.4026">
        <ele>144</ele>
        <time>2021-08-23T16:22:43Z</time>
      </trkpt>
      <trkpt lat="47.06976" lon="2.40278">
        <ele>143</ele>
        <time>2021-08-23T16:22:43Z</time>
      </trkpt>
      <trkpt lat="47.06947" lon="2.40294">
        <ele>140</ele>
        <time>2021-08-23T16:22:43Z</time>
      </trkpt>
      <trkpt lat="47.06939" lon="2.40299">
        <ele>139</ele>
        <time>2021-08-23T16:22:43Z</time>
      </trkpt>
      <trkpt lat="47.06896" lon="2.40317">
        <ele>138</ele>
        <time>2021-08-23T16:22:43Z</time>
      </trkpt>
      <trkpt lat="47.06857" lon="2.40316">
        <ele>139</ele>
        <time>2021-08-23T16:22:43Z</time>
      </trkpt>
      <trkpt lat="47.06832" lon="2.40329">
        <ele>141</ele>
        <time>2021-08-23T16:22:43Z</time>
      </trkpt>
      <trkpt lat="47.06833" lon="2.40365">
        <ele>140</ele>
        <time>2021-08-23T16:22:43Z</time>
      </trkpt>
      <trkpt lat="47.06838" lon="2.40403">
        <ele>140</ele>
        <time>2021-08-23T16:22:43Z</time>
      </trkpt>
      <trkpt lat="47.06844" lon="2.40436">
        <ele>141</ele>
        <time>2021-08-23T16:22:43Z</time>
      </trkpt>
      <trkpt lat="47.06845" lon="2.40444">
        <ele>141</ele>
        <time>2021-08-23T16:22:43Z</time>
      </trkpt>
      <trkpt lat="47.06846" lon="2.40452">
        <ele>141</ele>
        <time>2021-08-23T16:22:43Z</time>
      </trkpt>
      <trkpt lat="47.06848" lon="2.4046">
        <ele>142</ele>
        <time>2021-08-23T16:22:43Z</time>
      </trkpt>
      <trkpt lat="47.06849" lon="2.40469">
        <ele>142</ele>
        <time>2021-08-23T16:22:43Z</time>
      </trkpt>
      <trkpt lat="47.0685" lon="2.40477">
        <ele>142</ele>
        <time>2021-08-23T16:22:43Z</time>
      </trkpt>
      <trkpt lat="47.06851" lon="2.40484">
        <ele>142</ele>
        <time>2021-08-23T16:22:43Z</time>
      </trkpt>
      <trkpt lat="47.06851" lon="2.40491">
        <ele>143</ele>
        <time>2021-08-23T16:22:43Z</time>
      </trkpt>
      <trkpt lat="47.06852" lon="2.40499">
        <ele>143</ele>
        <time>2021-08-23T16:22:43Z</time>
      </trkpt>
      <trkpt lat="47.06853" lon="2.40506">
        <ele>143</ele>
        <time>2021-08-23T16:22:43Z</time>
      </trkpt>
      <trkpt lat="47.06854" lon="2.40513">
        <ele>143</ele>
        <time>2021-08-23T16:22:43Z</time>
      </trkpt>
      <trkpt lat="47.06855" lon="2.4052">
        <ele>143</ele>
        <time>2021-08-23T16:22:43Z</time>
      </trkpt>
      <trkpt lat="47.06856" lon="2.40527">
        <ele>144</ele>
        <time>2021-08-23T16:22:43Z</time>
      </trkpt>
      <trkpt lat="47.06858" lon="2.40535">
        <ele>144</ele>
        <time>2021-08-23T16:22:43Z</time>
      </trkpt>
      <trkpt lat="47.06859" lon="2.40543">
        <ele>145</ele>
        <time>2021-08-23T16:22:43Z</time>
      </trkpt>
      <trkpt lat="47.0686" lon="2.40551">
        <ele>145</ele>
        <time>2021-08-23T16:22:43Z</time>
      </trkpt>
      <trkpt lat="47.06861" lon="2.40559">
        <ele>146</ele>
        <time>2021-08-23T16:22:43Z</time>
      </trkpt>
      <trkpt lat="47.06862" lon="2.40567">
        <ele>146</ele>
        <time>2021-08-23T16:22:43Z</time>
      </trkpt>
      <trkpt lat="47.06863" lon="2.40575">
        <ele>146</ele>
        <time>2021-08-23T16:22:43Z</time>
      </trkpt>
      <trkpt lat="47.06865" lon="2.40583">
        <ele>146</ele>
        <time>2021-08-23T16:22:43Z</time>
      </trkpt>
      <trkpt lat="47.06867" lon="2.4059">
        <ele>146</ele>
        <time>2021-08-23T16:22:43Z</time>
      </trkpt>
      <trkpt lat="47.06868" lon="2.40597">
        <ele>146</ele>
        <time>2021-08-23T16:22:43Z</time>
      </trkpt>
      <trkpt lat="47.06867" lon="2.40605">
        <ele>146</ele>
        <time>2021-08-23T16:22:43Z</time>
      </trkpt>
      <trkpt lat="47.06865" lon="2.40611">
        <ele>146</ele>
        <time>2021-08-23T16:22:43Z</time>
      </trkpt>
      <trkpt lat="47.06862" lon="2.40616">
        <ele>146</ele>
        <time>2021-08-23T16:22:43Z</time>
      </trkpt>
      <trkpt lat="47.06858" lon="2.40619">
        <ele>146</ele>
        <time>2021-08-23T16:22:43Z</time>
      </trkpt>
      <trkpt lat="47.06853" lon="2.40621">
        <ele>146</ele>
        <time>2021-08-23T16:22:43Z</time>
      </trkpt>
      <trkpt lat="47.06849" lon="2.40623">
        <ele>146</ele>
        <time>2021-08-23T16:22:43Z</time>
      </trkpt>
      <trkpt lat="47.06844" lon="2.40626">
        <ele>146</ele>
        <time>2021-08-23T16:22:43Z</time>
      </trkpt>
      <trkpt lat="47.06839" lon="2.40627">
        <ele>146</ele>
        <time>2021-08-23T16:22:43Z</time>
      </trkpt>
      <trkpt lat="47.06834" lon="2.40629">
        <ele>146</ele>
        <time>2021-08-23T16:22:43Z</time>
      </trkpt>
      <trkpt lat="47.0683" lon="2.40632">
        <ele>146</ele>
        <time>2021-08-23T16:22:43Z</time>
      </trkpt>
      <trkpt lat="47.06825" lon="2.40634">
        <ele>147</ele>
        <time>2021-08-23T16:22:43Z</time>
      </trkpt>
      <trkpt lat="47.06821" lon="2.40636">
        <ele>147</ele>
        <time>2021-08-23T16:22:43Z</time>
      </trkpt>
      <trkpt lat="47.06816" lon="2.40638">
        <ele>148</ele>
        <time>2021-08-23T16:22:43Z</time>
      </trkpt>
      <trkpt lat="47.06811" lon="2.40641">
        <ele>148</ele>
        <time>2021-08-23T16:22:43Z</time>
      </trkpt>
      <trkpt lat="47.06807" lon="2.40643">
        <ele>149</ele>
        <time>2021-08-23T16:22:43Z</time>
      </trkpt>
      <trkpt lat="47.06802" lon="2.40646">
        <ele>149</ele>
        <time>2021-08-23T16:22:43Z</time>
      </trkpt>
      <trkpt lat="47.06797" lon="2.40649">
        <ele>149</ele>
        <time>2021-08-23T16:22:43Z</time>
      </trkpt>
      <trkpt lat="47.06792" lon="2.40652">
        <ele>149</ele>
        <time>2021-08-23T16:22:43Z</time>
      </trkpt>
      <trkpt lat="47.06769" lon="2.40665">
        <ele>149</ele>
        <time>2021-08-23T16:22:43Z</time>
      </trkpt>
      <trkpt lat="47.06746" lon="2.40677">
        <ele>149</ele>
        <time>2021-08-23T16:22:43Z</time>
      </trkpt>
      <trkpt lat="47.06733" lon="2.40687">
        <ele>149</ele>
        <time>2021-08-23T16:22:43Z</time>
      </trkpt>
      <trkpt lat="47.0673" lon="2.40689">
        <ele>149</ele>
        <time>2021-08-23T16:22:43Z</time>
      </trkpt>
      <trkpt lat="47.06731" lon="2.4069">
        <ele>149</ele>
        <time>2021-08-23T16:22:43Z</time>
      </trkpt>
      <trkpt lat="47.0673" lon="2.40689">
        <ele>149</ele>
        <time>2021-08-23T16:22:43Z</time>
      </trkpt>
      <trkpt lat="47.0673" lon="2.40689">
        <ele>149</ele>
        <time>2021-08-23T16:22:43Z</time>
      </trkpt>
      <trkpt lat="47.0673" lon="2.4069">
        <ele>149</ele>
        <time>2021-08-23T16:22:43Z</time>
      </trkpt>
      <trkpt lat="47.0673" lon="2.40691">
        <ele>149</ele>
        <time>2021-08-23T16:22:43Z</time>
      </trkpt>
      <trkpt lat="47.0673" lon="2.40693">
        <ele>149</ele>
        <time>2021-08-23T16:22:43Z</time>
      </trkpt>
      <trkpt lat="47.0673" lon="2.40695">
        <ele>149</ele>
        <time>2021-08-23T16:22:43Z</time>
      </trkpt>
      <trkpt lat="47.06731" lon="2.40696">
        <ele>149</ele>
        <time>2021-08-23T16:22:43Z</time>
      </trkpt>
      <trkpt lat="47.06732" lon="2.407">
        <ele>149</ele>
        <time>2021-08-23T16:22:43Z</time>
      </trkpt>
      <trkpt lat="47.06733" lon="2.407">
        <ele>149</ele>
        <time>2021-08-23T16:22:43Z</time>
      </trkpt>
    </trkseg>
  </trk>
</gpx>